<?xml version="1.0" encoding="UTF-8" standalone="no" ?>
<gpx xmlns="http://www.topografix.com/GPX/1/1" xmlns:xsi="http://www.w3.org/2001/XMLSchema-instance" xsi:schemaLocation="http://www.topografix.com/GPX/1/1 http://www.topografix.com/GPX/1/1/gpx.xsd" version="1.1" creator="VisuGPX - https://www.visugpx.com">
  <metadata>
    <name>Boucle 30 km Veni Venelles Vici</name>
    <desc><![CDATA[Moret - ST Mammes - Champagne sur Sein et Thomery]]></desc>
  </metadata>
  <trk>
    <name><![CDATA[SityTrail - Boucle 30 km Veni Venelles Vici]]></name>
    <desc><![CDATA[Moret - ST Mammes - Champagne sur Sein et Thomery]]></desc>
    <trkseg>
      <trkpt lat="48.39416" lon="2.76403">
        <ele>90</ele>
        <time>2023-04-11T07:06:40.862Z</time>
      </trkpt>
      <trkpt lat="48.39416" lon="2.76403">
        <ele>90</ele>
        <time>2023-04-11T07:06:40.862Z</time>
      </trkpt>
      <trkpt lat="48.3941" lon="2.76408">
        <ele>88</ele>
        <time>2023-04-11T07:06:42.119Z</time>
      </trkpt>
      <trkpt lat="48.39406" lon="2.76403">
        <ele>88</ele>
        <time>2023-04-11T07:06:45.931Z</time>
      </trkpt>
      <trkpt lat="48.39402" lon="2.76405">
        <ele>92</ele>
        <time>2023-04-11T07:06:50.447Z</time>
      </trkpt>
      <trkpt lat="48.39395" lon="2.76404">
        <ele>92</ele>
        <time>2023-04-11T07:06:54.459Z</time>
      </trkpt>
      <trkpt lat="48.39389" lon="2.76404">
        <ele>92</ele>
        <time>2023-04-11T07:06:58.968Z</time>
      </trkpt>
      <trkpt lat="48.39386" lon="2.76407">
        <ele>92</ele>
        <time>2023-04-11T07:07:02.975Z</time>
      </trkpt>
      <trkpt lat="48.39383" lon="2.76409">
        <ele>92</ele>
        <time>2023-04-11T07:07:07.983Z</time>
      </trkpt>
      <trkpt lat="48.39379" lon="2.7641">
        <ele>92</ele>
        <time>2023-04-11T07:07:11.991Z</time>
      </trkpt>
      <trkpt lat="48.39369" lon="2.7641">
        <ele>95</ele>
        <time>2023-04-11T07:07:37.034Z</time>
      </trkpt>
      <trkpt lat="48.39368" lon="2.7641">
        <ele>95</ele>
        <time>2023-04-11T07:07:42.153Z</time>
      </trkpt>
      <trkpt lat="48.39365" lon="2.76409">
        <ele>95</ele>
        <time>2023-04-11T07:07:46.752Z</time>
      </trkpt>
      <trkpt lat="48.39361" lon="2.76408">
        <ele>95</ele>
        <time>2023-04-11T07:07:50.750Z</time>
      </trkpt>
      <trkpt lat="48.39358" lon="2.76407">
        <ele>95</ele>
        <time>2023-04-11T07:07:55.150Z</time>
      </trkpt>
      <trkpt lat="48.39352" lon="2.76406">
        <ele>95</ele>
        <time>2023-04-11T07:07:59.085Z</time>
      </trkpt>
      <trkpt lat="48.39346" lon="2.76409">
        <ele>94</ele>
        <time>2023-04-11T07:08:03.261Z</time>
      </trkpt>
      <trkpt lat="48.39341" lon="2.7641">
        <ele>94</ele>
        <time>2023-04-11T07:08:07.997Z</time>
      </trkpt>
      <trkpt lat="48.39335" lon="2.76409">
        <ele>94</ele>
        <time>2023-04-11T07:08:12.316Z</time>
      </trkpt>
      <trkpt lat="48.39331" lon="2.76403">
        <ele>94</ele>
        <time>2023-04-11T07:08:17.074Z</time>
      </trkpt>
      <trkpt lat="48.39325" lon="2.76403">
        <ele>94</ele>
        <time>2023-04-11T07:08:21.710Z</time>
      </trkpt>
      <trkpt lat="48.3932" lon="2.76405">
        <ele>94</ele>
        <time>2023-04-11T07:08:26.148Z</time>
      </trkpt>
      <trkpt lat="48.39316" lon="2.76405">
        <ele>94</ele>
        <time>2023-04-11T07:08:30.285Z</time>
      </trkpt>
      <trkpt lat="48.39311" lon="2.76405">
        <ele>94</ele>
        <time>2023-04-11T07:08:34.723Z</time>
      </trkpt>
      <trkpt lat="48.39305" lon="2.76405">
        <ele>94</ele>
        <time>2023-04-11T07:08:38.918Z</time>
      </trkpt>
      <trkpt lat="48.393" lon="2.76405">
        <ele>94</ele>
        <time>2023-04-11T07:08:42.874Z</time>
      </trkpt>
      <trkpt lat="48.39295" lon="2.76405">
        <ele>94</ele>
        <time>2023-04-11T07:08:47.080Z</time>
      </trkpt>
      <trkpt lat="48.39291" lon="2.76405">
        <ele>95</ele>
        <time>2023-04-11T07:08:51.262Z</time>
      </trkpt>
      <trkpt lat="48.39286" lon="2.76405">
        <ele>95</ele>
        <time>2023-04-11T07:08:55.677Z</time>
      </trkpt>
      <trkpt lat="48.39282" lon="2.76406">
        <ele>95</ele>
        <time>2023-04-11T07:08:59.884Z</time>
      </trkpt>
      <trkpt lat="48.39276" lon="2.76408">
        <ele>95</ele>
        <time>2023-04-11T07:09:04.044Z</time>
      </trkpt>
      <trkpt lat="48.3927" lon="2.76409">
        <ele>95</ele>
        <time>2023-04-11T07:09:08.159Z</time>
      </trkpt>
      <trkpt lat="48.39264" lon="2.76407">
        <ele>95</ele>
        <time>2023-04-11T07:09:12.669Z</time>
      </trkpt>
      <trkpt lat="48.39261" lon="2.76406">
        <ele>97</ele>
        <time>2023-04-11T07:09:17.063Z</time>
      </trkpt>
      <trkpt lat="48.39255" lon="2.76406">
        <ele>97</ele>
        <time>2023-04-11T07:09:21.017Z</time>
      </trkpt>
      <trkpt lat="48.39248" lon="2.76408">
        <ele>97</ele>
        <time>2023-04-11T07:09:25.660Z</time>
      </trkpt>
      <trkpt lat="48.39242" lon="2.76405">
        <ele>97</ele>
        <time>2023-04-11T07:09:30.120Z</time>
      </trkpt>
      <trkpt lat="48.39235" lon="2.76408">
        <ele>97</ele>
        <time>2023-04-11T07:09:34.669Z</time>
      </trkpt>
      <trkpt lat="48.39228" lon="2.76406">
        <ele>97</ele>
        <time>2023-04-11T07:09:38.743Z</time>
      </trkpt>
      <trkpt lat="48.3922" lon="2.76406">
        <ele>97</ele>
        <time>2023-04-11T07:09:42.696Z</time>
      </trkpt>
      <trkpt lat="48.39213" lon="2.76407">
        <ele>97</ele>
        <time>2023-04-11T07:09:47.237Z</time>
      </trkpt>
      <trkpt lat="48.39207" lon="2.76409">
        <ele>96</ele>
        <time>2023-04-11T07:09:51.299Z</time>
      </trkpt>
      <trkpt lat="48.392" lon="2.76408">
        <ele>96</ele>
        <time>2023-04-11T07:09:56.091Z</time>
      </trkpt>
      <trkpt lat="48.39194" lon="2.76409">
        <ele>96</ele>
        <time>2023-04-11T07:10:00.585Z</time>
      </trkpt>
      <trkpt lat="48.39188" lon="2.76408">
        <ele>96</ele>
        <time>2023-04-11T07:10:04.715Z</time>
      </trkpt>
      <trkpt lat="48.39182" lon="2.76408">
        <ele>96</ele>
        <time>2023-04-11T07:10:09.264Z</time>
      </trkpt>
      <trkpt lat="48.39176" lon="2.76408">
        <ele>94</ele>
        <time>2023-04-11T07:10:13.985Z</time>
      </trkpt>
      <trkpt lat="48.39171" lon="2.76408">
        <ele>94</ele>
        <time>2023-04-11T07:10:18.069Z</time>
      </trkpt>
      <trkpt lat="48.39166" lon="2.76408">
        <ele>94</ele>
        <time>2023-04-11T07:10:22.088Z</time>
      </trkpt>
      <trkpt lat="48.39161" lon="2.76406">
        <ele>94</ele>
        <time>2023-04-11T07:10:26.845Z</time>
      </trkpt>
      <trkpt lat="48.39155" lon="2.76405">
        <ele>94</ele>
        <time>2023-04-11T07:10:31.503Z</time>
      </trkpt>
      <trkpt lat="48.39149" lon="2.76405">
        <ele>94</ele>
        <time>2023-04-11T07:10:35.825Z</time>
      </trkpt>
      <trkpt lat="48.39143" lon="2.76407">
        <ele>94</ele>
        <time>2023-04-11T07:10:39.764Z</time>
      </trkpt>
      <trkpt lat="48.39136" lon="2.76408">
        <ele>94</ele>
        <time>2023-04-11T07:10:45.030Z</time>
      </trkpt>
      <trkpt lat="48.39131" lon="2.76408">
        <ele>94</ele>
        <time>2023-04-11T07:10:48.860Z</time>
      </trkpt>
      <trkpt lat="48.39125" lon="2.76408">
        <ele>96</ele>
        <time>2023-04-11T07:10:53.639Z</time>
      </trkpt>
      <trkpt lat="48.39119" lon="2.76409">
        <ele>96</ele>
        <time>2023-04-11T07:10:57.717Z</time>
      </trkpt>
      <trkpt lat="48.39113" lon="2.76411">
        <ele>96</ele>
        <time>2023-04-11T07:11:02.268Z</time>
      </trkpt>
      <trkpt lat="48.39108" lon="2.76411">
        <ele>96</ele>
        <time>2023-04-11T07:11:06.316Z</time>
      </trkpt>
      <trkpt lat="48.39101" lon="2.7641">
        <ele>96</ele>
        <time>2023-04-11T07:11:10.819Z</time>
      </trkpt>
      <trkpt lat="48.39095" lon="2.7641">
        <ele>100</ele>
        <time>2023-04-11T07:11:15.300Z</time>
      </trkpt>
      <trkpt lat="48.39091" lon="2.76411">
        <ele>100</ele>
        <time>2023-04-11T07:11:19.341Z</time>
      </trkpt>
      <trkpt lat="48.39086" lon="2.7641">
        <ele>100</ele>
        <time>2023-04-11T07:11:23.680Z</time>
      </trkpt>
      <trkpt lat="48.39081" lon="2.76412">
        <ele>100</ele>
        <time>2023-04-11T07:11:27.629Z</time>
      </trkpt>
      <trkpt lat="48.39078" lon="2.76413">
        <ele>100</ele>
        <time>2023-04-11T07:11:31.698Z</time>
      </trkpt>
      <trkpt lat="48.39077" lon="2.76413">
        <ele>100</ele>
        <time>2023-04-11T07:11:36.484Z</time>
      </trkpt>
      <trkpt lat="48.39073" lon="2.76414">
        <ele>100</ele>
        <time>2023-04-11T07:11:41.131Z</time>
      </trkpt>
      <trkpt lat="48.39069" lon="2.76416">
        <ele>99</ele>
        <time>2023-04-11T07:11:45.144Z</time>
      </trkpt>
      <trkpt lat="48.39065" lon="2.76417">
        <ele>99</ele>
        <time>2023-04-11T07:11:49.880Z</time>
      </trkpt>
      <trkpt lat="48.39065" lon="2.76417">
        <ele>99</ele>
        <time>2023-04-11T07:11:54.068Z</time>
      </trkpt>
      <trkpt lat="48.39064" lon="2.76418">
        <ele>99</ele>
        <time>2023-04-11T07:11:58.135Z</time>
      </trkpt>
      <trkpt lat="48.3906" lon="2.76426">
        <ele>99</ele>
        <time>2023-04-11T07:12:02.680Z</time>
      </trkpt>
      <trkpt lat="48.39057" lon="2.7643">
        <ele>99</ele>
        <time>2023-04-11T07:12:06.849Z</time>
      </trkpt>
      <trkpt lat="48.39054" lon="2.76432">
        <ele>99</ele>
        <time>2023-04-11T07:12:11.037Z</time>
      </trkpt>
      <trkpt lat="48.39051" lon="2.76438">
        <ele>99</ele>
        <time>2023-04-11T07:12:15.684Z</time>
      </trkpt>
      <trkpt lat="48.39048" lon="2.76445">
        <ele>99</ele>
        <time>2023-04-11T07:12:20.316Z</time>
      </trkpt>
      <trkpt lat="48.39044" lon="2.7645">
        <ele>99</ele>
        <time>2023-04-11T07:12:24.866Z</time>
      </trkpt>
      <trkpt lat="48.39042" lon="2.76455">
        <ele>99</ele>
        <time>2023-04-11T07:12:29.052Z</time>
      </trkpt>
      <trkpt lat="48.3904" lon="2.76459">
        <ele>98</ele>
        <time>2023-04-11T07:12:33.111Z</time>
      </trkpt>
      <trkpt lat="48.39037" lon="2.76464">
        <ele>98</ele>
        <time>2023-04-11T07:12:37.657Z</time>
      </trkpt>
      <trkpt lat="48.39034" lon="2.76468">
        <ele>98</ele>
        <time>2023-04-11T07:12:41.847Z</time>
      </trkpt>
      <trkpt lat="48.39031" lon="2.76474">
        <ele>98</ele>
        <time>2023-04-11T07:12:46.316Z</time>
      </trkpt>
      <trkpt lat="48.39029" lon="2.7648">
        <ele>98</ele>
        <time>2023-04-11T07:12:50.316Z</time>
      </trkpt>
      <trkpt lat="48.39027" lon="2.76486">
        <ele>99</ele>
        <time>2023-04-11T07:12:54.891Z</time>
      </trkpt>
      <trkpt lat="48.39026" lon="2.76489">
        <ele>99</ele>
        <time>2023-04-11T07:12:59.079Z</time>
      </trkpt>
      <trkpt lat="48.39024" lon="2.76493">
        <ele>99</ele>
        <time>2023-04-11T07:13:03.266Z</time>
      </trkpt>
      <trkpt lat="48.3902" lon="2.76501">
        <ele>99</ele>
        <time>2023-04-11T07:13:07.803Z</time>
      </trkpt>
      <trkpt lat="48.39018" lon="2.76508">
        <ele>99</ele>
        <time>2023-04-11T07:13:11.856Z</time>
      </trkpt>
      <trkpt lat="48.39014" lon="2.76515">
        <ele>98</ele>
        <time>2023-04-11T07:13:15.803Z</time>
      </trkpt>
      <trkpt lat="48.39007" lon="2.76522">
        <ele>98</ele>
        <time>2023-04-11T07:13:19.750Z</time>
      </trkpt>
      <trkpt lat="48.39" lon="2.76531">
        <ele>98</ele>
        <time>2023-04-11T07:13:24.655Z</time>
      </trkpt>
      <trkpt lat="48.38997" lon="2.7654">
        <ele>98</ele>
        <time>2023-04-11T07:13:28.722Z</time>
      </trkpt>
      <trkpt lat="48.38992" lon="2.76548">
        <ele>98</ele>
        <time>2023-04-11T07:13:32.907Z</time>
      </trkpt>
      <trkpt lat="48.38986" lon="2.76555">
        <ele>98</ele>
        <time>2023-04-11T07:13:37.689Z</time>
      </trkpt>
      <trkpt lat="48.38979" lon="2.76566">
        <ele>97</ele>
        <time>2023-04-11T07:13:42.153Z</time>
      </trkpt>
      <trkpt lat="48.38973" lon="2.76575">
        <ele>98</ele>
        <time>2023-04-11T07:13:46.774Z</time>
      </trkpt>
      <trkpt lat="48.38968" lon="2.76583">
        <ele>98</ele>
        <time>2023-04-11T07:13:51.315Z</time>
      </trkpt>
      <trkpt lat="48.38963" lon="2.76591">
        <ele>98</ele>
        <time>2023-04-11T07:13:56.095Z</time>
      </trkpt>
      <trkpt lat="48.38958" lon="2.76598">
        <ele>98</ele>
        <time>2023-04-11T07:13:59.661Z</time>
      </trkpt>
      <trkpt lat="48.38954" lon="2.76607">
        <ele>98</ele>
        <time>2023-04-11T07:14:04.366Z</time>
      </trkpt>
      <trkpt lat="48.38949" lon="2.76613">
        <ele>98</ele>
        <time>2023-04-11T07:14:08.869Z</time>
      </trkpt>
      <trkpt lat="48.38943" lon="2.76622">
        <ele>98</ele>
        <time>2023-04-11T07:14:13.649Z</time>
      </trkpt>
      <trkpt lat="48.38938" lon="2.7663">
        <ele>98</ele>
        <time>2023-04-11T07:14:18.906Z</time>
      </trkpt>
      <trkpt lat="48.38935" lon="2.76639">
        <ele>98</ele>
        <time>2023-04-11T07:14:23.088Z</time>
      </trkpt>
      <trkpt lat="48.3893" lon="2.76648">
        <ele>98</ele>
        <time>2023-04-11T07:14:27.748Z</time>
      </trkpt>
      <trkpt lat="48.38927" lon="2.76653">
        <ele>98</ele>
        <time>2023-04-11T07:14:31.693Z</time>
      </trkpt>
      <trkpt lat="48.38923" lon="2.76658">
        <ele>98</ele>
        <time>2023-04-11T07:14:35.877Z</time>
      </trkpt>
      <trkpt lat="48.38918" lon="2.76666">
        <ele>98</ele>
        <time>2023-04-11T07:14:41.078Z</time>
      </trkpt>
      <trkpt lat="48.38915" lon="2.76677">
        <ele>98</ele>
        <time>2023-04-11T07:14:45.537Z</time>
      </trkpt>
      <trkpt lat="48.3891" lon="2.76687">
        <ele>100</ele>
        <time>2023-04-11T07:14:50.827Z</time>
      </trkpt>
      <trkpt lat="48.38906" lon="2.76694">
        <ele>100</ele>
        <time>2023-04-11T07:14:54.842Z</time>
      </trkpt>
      <trkpt lat="48.38902" lon="2.76702">
        <ele>98</ele>
        <time>2023-04-11T07:14:59.042Z</time>
      </trkpt>
      <trkpt lat="48.389" lon="2.7671">
        <ele>99</ele>
        <time>2023-04-11T07:15:03.107Z</time>
      </trkpt>
      <trkpt lat="48.38897" lon="2.76716">
        <ele>99</ele>
        <time>2023-04-11T07:15:07.673Z</time>
      </trkpt>
      <trkpt lat="48.38894" lon="2.76723">
        <ele>99</ele>
        <time>2023-04-11T07:15:11.717Z</time>
      </trkpt>
      <trkpt lat="48.3889" lon="2.7673">
        <ele>99</ele>
        <time>2023-04-11T07:15:15.662Z</time>
      </trkpt>
      <trkpt lat="48.38886" lon="2.76738">
        <ele>100</ele>
        <time>2023-04-11T07:15:20.143Z</time>
      </trkpt>
      <trkpt lat="48.38882" lon="2.76744">
        <ele>100</ele>
        <time>2023-04-11T07:15:24.024Z</time>
      </trkpt>
      <trkpt lat="48.38877" lon="2.76753">
        <ele>100</ele>
        <time>2023-04-11T07:15:28.688Z</time>
      </trkpt>
      <trkpt lat="48.38872" lon="2.76761">
        <ele>99</ele>
        <time>2023-04-11T07:15:33.472Z</time>
      </trkpt>
      <trkpt lat="48.38867" lon="2.76768">
        <ele>99</ele>
        <time>2023-04-11T07:15:37.658Z</time>
      </trkpt>
      <trkpt lat="48.38863" lon="2.76772">
        <ele>99</ele>
        <time>2023-04-11T07:15:41.716Z</time>
      </trkpt>
      <trkpt lat="48.38859" lon="2.7678">
        <ele>99</ele>
        <time>2023-04-11T07:15:46.500Z</time>
      </trkpt>
      <trkpt lat="48.38855" lon="2.76788">
        <ele>99</ele>
        <time>2023-04-11T07:15:51.142Z</time>
      </trkpt>
      <trkpt lat="48.38852" lon="2.76794">
        <ele>100</ele>
        <time>2023-04-11T07:15:55.152Z</time>
      </trkpt>
      <trkpt lat="48.38847" lon="2.76802">
        <ele>99</ele>
        <time>2023-04-11T07:15:59.646Z</time>
      </trkpt>
      <trkpt lat="48.38844" lon="2.76808">
        <ele>99</ele>
        <time>2023-04-11T07:16:03.711Z</time>
      </trkpt>
      <trkpt lat="48.3884" lon="2.76815">
        <ele>99</ele>
        <time>2023-04-11T07:16:07.895Z</time>
      </trkpt>
      <trkpt lat="48.38834" lon="2.76822">
        <ele>99</ele>
        <time>2023-04-11T07:16:12.437Z</time>
      </trkpt>
      <trkpt lat="48.38829" lon="2.76828">
        <ele>99</ele>
        <time>2023-04-11T07:16:16.500Z</time>
      </trkpt>
      <trkpt lat="48.38824" lon="2.76834">
        <ele>99</ele>
        <time>2023-04-11T07:16:20.682Z</time>
      </trkpt>
      <trkpt lat="48.38821" lon="2.76842">
        <ele>99</ele>
        <time>2023-04-11T07:16:24.864Z</time>
      </trkpt>
      <trkpt lat="48.38817" lon="2.76849">
        <ele>98</ele>
        <time>2023-04-11T07:16:29.627Z</time>
      </trkpt>
      <trkpt lat="48.38812" lon="2.76856">
        <ele>98</ele>
        <time>2023-04-11T07:16:33.705Z</time>
      </trkpt>
      <trkpt lat="48.38808" lon="2.76866">
        <ele>98</ele>
        <time>2023-04-11T07:16:38.244Z</time>
      </trkpt>
      <trkpt lat="48.38803" lon="2.76871">
        <ele>98</ele>
        <time>2023-04-11T07:16:42.902Z</time>
      </trkpt>
      <trkpt lat="48.388" lon="2.76877">
        <ele>99</ele>
        <time>2023-04-11T07:16:46.705Z</time>
      </trkpt>
      <trkpt lat="48.38799" lon="2.76882">
        <ele>99</ele>
        <time>2023-04-11T07:16:50.870Z</time>
      </trkpt>
      <trkpt lat="48.38798" lon="2.76891">
        <ele>99</ele>
        <time>2023-04-11T07:16:54.933Z</time>
      </trkpt>
      <trkpt lat="48.38799" lon="2.76894">
        <ele>99</ele>
        <time>2023-04-11T07:16:59.592Z</time>
      </trkpt>
      <trkpt lat="48.38797" lon="2.76899">
        <ele>99</ele>
        <time>2023-04-11T07:17:04.130Z</time>
      </trkpt>
      <trkpt lat="48.38794" lon="2.76906">
        <ele>100</ele>
        <time>2023-04-11T07:17:08.152Z</time>
      </trkpt>
      <trkpt lat="48.38791" lon="2.76912">
        <ele>98</ele>
        <time>2023-04-11T07:17:12.732Z</time>
      </trkpt>
      <trkpt lat="48.38789" lon="2.76917">
        <ele>98</ele>
        <time>2023-04-11T07:17:17.272Z</time>
      </trkpt>
      <trkpt lat="48.38786" lon="2.76923">
        <ele>98</ele>
        <time>2023-04-11T07:17:21.810Z</time>
      </trkpt>
      <trkpt lat="48.38784" lon="2.76929">
        <ele>98</ele>
        <time>2023-04-11T07:17:26.316Z</time>
      </trkpt>
      <trkpt lat="48.3878" lon="2.76935">
        <ele>99</ele>
        <time>2023-04-11T07:17:30.889Z</time>
      </trkpt>
      <trkpt lat="48.38778" lon="2.76942">
        <ele>99</ele>
        <time>2023-04-11T07:17:35.530Z</time>
      </trkpt>
      <trkpt lat="48.38775" lon="2.76947">
        <ele>99</ele>
        <time>2023-04-11T07:17:40.170Z</time>
      </trkpt>
      <trkpt lat="48.3877" lon="2.76954">
        <ele>99</ele>
        <time>2023-04-11T07:17:44.727Z</time>
      </trkpt>
      <trkpt lat="48.38766" lon="2.76961">
        <ele>99</ele>
        <time>2023-04-11T07:17:48.822Z</time>
      </trkpt>
      <trkpt lat="48.38761" lon="2.76971">
        <ele>99</ele>
        <time>2023-04-11T07:17:53.320Z</time>
      </trkpt>
      <trkpt lat="48.38756" lon="2.76979">
        <ele>99</ele>
        <time>2023-04-11T07:17:57.316Z</time>
      </trkpt>
      <trkpt lat="48.3875" lon="2.76987">
        <ele>100</ele>
        <time>2023-04-11T07:18:01.930Z</time>
      </trkpt>
      <trkpt lat="48.38746" lon="2.76994">
        <ele>100</ele>
        <time>2023-04-11T07:18:06.621Z</time>
      </trkpt>
      <trkpt lat="48.38742" lon="2.77">
        <ele>100</ele>
        <time>2023-04-11T07:18:10.650Z</time>
      </trkpt>
      <trkpt lat="48.38739" lon="2.77007">
        <ele>100</ele>
        <time>2023-04-11T07:18:14.712Z</time>
      </trkpt>
      <trkpt lat="48.38734" lon="2.77016">
        <ele>102</ele>
        <time>2023-04-11T07:18:18.773Z</time>
      </trkpt>
      <trkpt lat="48.38729" lon="2.77026">
        <ele>102</ele>
        <time>2023-04-11T07:18:23.890Z</time>
      </trkpt>
      <trkpt lat="48.38725" lon="2.77034">
        <ele>102</ele>
        <time>2023-04-11T07:18:28.308Z</time>
      </trkpt>
      <trkpt lat="48.38722" lon="2.77041">
        <ele>102</ele>
        <time>2023-04-11T07:18:32.485Z</time>
      </trkpt>
      <trkpt lat="48.38718" lon="2.77048">
        <ele>103</ele>
        <time>2023-04-11T07:18:36.663Z</time>
      </trkpt>
      <trkpt lat="48.38714" lon="2.77055">
        <ele>103</ele>
        <time>2023-04-11T07:18:40.722Z</time>
      </trkpt>
      <trkpt lat="48.38709" lon="2.77063">
        <ele>103</ele>
        <time>2023-04-11T07:18:44.902Z</time>
      </trkpt>
      <trkpt lat="48.38705" lon="2.77071">
        <ele>103</ele>
        <time>2023-04-11T07:18:49.363Z</time>
      </trkpt>
      <trkpt lat="48.38701" lon="2.77079">
        <ele>103</ele>
        <time>2023-04-11T07:18:53.499Z</time>
      </trkpt>
      <trkpt lat="48.38696" lon="2.77086">
        <ele>103</ele>
        <time>2023-04-11T07:18:58.036Z</time>
      </trkpt>
      <trkpt lat="48.38691" lon="2.77093">
        <ele>103</ele>
        <time>2023-04-11T07:19:02.095Z</time>
      </trkpt>
      <trkpt lat="48.38686" lon="2.77099">
        <ele>103</ele>
        <time>2023-04-11T07:19:06.273Z</time>
      </trkpt>
      <trkpt lat="48.38682" lon="2.77107">
        <ele>103</ele>
        <time>2023-04-11T07:19:10.316Z</time>
      </trkpt>
      <trkpt lat="48.38677" lon="2.77116">
        <ele>102</ele>
        <time>2023-04-11T07:19:14.988Z</time>
      </trkpt>
      <trkpt lat="48.38673" lon="2.77123">
        <ele>102</ele>
        <time>2023-04-11T07:19:19.046Z</time>
      </trkpt>
      <trkpt lat="48.3867" lon="2.77129">
        <ele>103</ele>
        <time>2023-04-11T07:19:23.103Z</time>
      </trkpt>
      <trkpt lat="48.38666" lon="2.77136">
        <ele>103</ele>
        <time>2023-04-11T07:19:27.254Z</time>
      </trkpt>
      <trkpt lat="48.38663" lon="2.77144">
        <ele>103</ele>
        <time>2023-04-11T07:19:31.793Z</time>
      </trkpt>
      <trkpt lat="48.3866" lon="2.77152">
        <ele>103</ele>
        <time>2023-04-11T07:19:36.342Z</time>
      </trkpt>
      <trkpt lat="48.38656" lon="2.77159">
        <ele>103</ele>
        <time>2023-04-11T07:19:40.748Z</time>
      </trkpt>
      <trkpt lat="48.38653" lon="2.77165">
        <ele>103</ele>
        <time>2023-04-11T07:19:44.691Z</time>
      </trkpt>
      <trkpt lat="48.38649" lon="2.77172">
        <ele>104</ele>
        <time>2023-04-11T07:19:49.139Z</time>
      </trkpt>
      <trkpt lat="48.38645" lon="2.77179">
        <ele>104</ele>
        <time>2023-04-11T07:19:53.143Z</time>
      </trkpt>
      <trkpt lat="48.38642" lon="2.77183">
        <ele>104</ele>
        <time>2023-04-11T07:19:57.238Z</time>
      </trkpt>
      <trkpt lat="48.38638" lon="2.7719">
        <ele>104</ele>
        <time>2023-04-11T07:20:01.657Z</time>
      </trkpt>
      <trkpt lat="48.38635" lon="2.77197">
        <ele>104</ele>
        <time>2023-04-11T07:20:06.278Z</time>
      </trkpt>
      <trkpt lat="48.38632" lon="2.77204">
        <ele>104</ele>
        <time>2023-04-11T07:20:10.260Z</time>
      </trkpt>
      <trkpt lat="48.38629" lon="2.77211">
        <ele>104</ele>
        <time>2023-04-11T07:20:14.443Z</time>
      </trkpt>
      <trkpt lat="48.38626" lon="2.7722">
        <ele>104</ele>
        <time>2023-04-11T07:20:18.982Z</time>
      </trkpt>
      <trkpt lat="48.38623" lon="2.7723">
        <ele>103</ele>
        <time>2023-04-11T07:20:23.603Z</time>
      </trkpt>
      <trkpt lat="48.38622" lon="2.77239">
        <ele>103</ele>
        <time>2023-04-11T07:20:27.887Z</time>
      </trkpt>
      <trkpt lat="48.3862" lon="2.77247">
        <ele>103</ele>
        <time>2023-04-11T07:20:32.258Z</time>
      </trkpt>
      <trkpt lat="48.38623" lon="2.77255">
        <ele>103</ele>
        <time>2023-04-11T07:20:36.430Z</time>
      </trkpt>
      <trkpt lat="48.38626" lon="2.77265">
        <ele>104</ele>
        <time>2023-04-11T07:20:40.973Z</time>
      </trkpt>
      <trkpt lat="48.38627" lon="2.77274">
        <ele>104</ele>
        <time>2023-04-11T07:20:44.680Z</time>
      </trkpt>
      <trkpt lat="48.38627" lon="2.77285">
        <ele>104</ele>
        <time>2023-04-11T07:20:49.323Z</time>
      </trkpt>
      <trkpt lat="48.38628" lon="2.77294">
        <ele>104</ele>
        <time>2023-04-11T07:20:53.508Z</time>
      </trkpt>
      <trkpt lat="48.3863" lon="2.77302">
        <ele>104</ele>
        <time>2023-04-11T07:20:57.589Z</time>
      </trkpt>
      <trkpt lat="48.38631" lon="2.7731">
        <ele>104</ele>
        <time>2023-04-11T07:21:01.651Z</time>
      </trkpt>
      <trkpt lat="48.38631" lon="2.77318">
        <ele>104</ele>
        <time>2023-04-11T07:21:05.472Z</time>
      </trkpt>
      <trkpt lat="48.38631" lon="2.77328">
        <ele>103</ele>
        <time>2023-04-11T07:21:10.160Z</time>
      </trkpt>
      <trkpt lat="48.38631" lon="2.77337">
        <ele>103</ele>
        <time>2023-04-11T07:21:14.314Z</time>
      </trkpt>
      <trkpt lat="48.38631" lon="2.77346">
        <ele>103</ele>
        <time>2023-04-11T07:21:18.732Z</time>
      </trkpt>
      <trkpt lat="48.38631" lon="2.77356">
        <ele>103</ele>
        <time>2023-04-11T07:21:23.261Z</time>
      </trkpt>
      <trkpt lat="48.3863" lon="2.77365">
        <ele>103</ele>
        <time>2023-04-11T07:21:27.316Z</time>
      </trkpt>
      <trkpt lat="48.38629" lon="2.77374">
        <ele>103</ele>
        <time>2023-04-11T07:21:31.821Z</time>
      </trkpt>
      <trkpt lat="48.38631" lon="2.77383">
        <ele>104</ele>
        <time>2023-04-11T07:21:35.864Z</time>
      </trkpt>
      <trkpt lat="48.38633" lon="2.77391">
        <ele>104</ele>
        <time>2023-04-11T07:21:40.316Z</time>
      </trkpt>
      <trkpt lat="48.38634" lon="2.77399">
        <ele>104</ele>
        <time>2023-04-11T07:21:44.980Z</time>
      </trkpt>
      <trkpt lat="48.38635" lon="2.77407">
        <ele>105</ele>
        <time>2023-04-11T07:21:49.040Z</time>
      </trkpt>
      <trkpt lat="48.38636" lon="2.77416">
        <ele>105</ele>
        <time>2023-04-11T07:21:53.100Z</time>
      </trkpt>
      <trkpt lat="48.38638" lon="2.77428">
        <ele>105</ele>
        <time>2023-04-11T07:21:57.243Z</time>
      </trkpt>
      <trkpt lat="48.3864" lon="2.77436">
        <ele>106</ele>
        <time>2023-04-11T07:22:01.305Z</time>
      </trkpt>
      <trkpt lat="48.38641" lon="2.77446">
        <ele>106</ele>
        <time>2023-04-11T07:22:05.846Z</time>
      </trkpt>
      <trkpt lat="48.38641" lon="2.77455">
        <ele>106</ele>
        <time>2023-04-11T07:22:09.669Z</time>
      </trkpt>
      <trkpt lat="48.38641" lon="2.77464">
        <ele>107</ele>
        <time>2023-04-11T07:22:14.448Z</time>
      </trkpt>
      <trkpt lat="48.38642" lon="2.77473">
        <ele>107</ele>
        <time>2023-04-11T07:22:18.899Z</time>
      </trkpt>
      <trkpt lat="48.38644" lon="2.77483">
        <ele>107</ele>
        <time>2023-04-11T07:22:23.047Z</time>
      </trkpt>
      <trkpt lat="48.38645" lon="2.77493">
        <ele>106</ele>
        <time>2023-04-11T07:22:27.155Z</time>
      </trkpt>
      <trkpt lat="48.38645" lon="2.77503">
        <ele>106</ele>
        <time>2023-04-11T07:22:31.650Z</time>
      </trkpt>
      <trkpt lat="48.38646" lon="2.7751">
        <ele>106</ele>
        <time>2023-04-11T07:22:36.070Z</time>
      </trkpt>
      <trkpt lat="48.38646" lon="2.77519">
        <ele>104</ele>
        <time>2023-04-11T07:22:40.609Z</time>
      </trkpt>
      <trkpt lat="48.38648" lon="2.77528">
        <ele>104</ele>
        <time>2023-04-11T07:22:45.027Z</time>
      </trkpt>
      <trkpt lat="48.38647" lon="2.77536">
        <ele>104</ele>
        <time>2023-04-11T07:22:49.087Z</time>
      </trkpt>
      <trkpt lat="48.38647" lon="2.77547">
        <ele>104</ele>
        <time>2023-04-11T07:22:53.734Z</time>
      </trkpt>
      <trkpt lat="48.3865" lon="2.77559">
        <ele>104</ele>
        <time>2023-04-11T07:22:57.675Z</time>
      </trkpt>
      <trkpt lat="48.38651" lon="2.77569">
        <ele>104</ele>
        <time>2023-04-11T07:23:01.856Z</time>
      </trkpt>
      <trkpt lat="48.38652" lon="2.77577">
        <ele>104</ele>
        <time>2023-04-11T07:23:06.515Z</time>
      </trkpt>
      <trkpt lat="48.38653" lon="2.77584">
        <ele>106</ele>
        <time>2023-04-11T07:23:10.458Z</time>
      </trkpt>
      <trkpt lat="48.38655" lon="2.77596">
        <ele>106</ele>
        <time>2023-04-11T07:23:15.152Z</time>
      </trkpt>
      <trkpt lat="48.38656" lon="2.77604">
        <ele>106</ele>
        <time>2023-04-11T07:23:19.261Z</time>
      </trkpt>
      <trkpt lat="48.38657" lon="2.77614">
        <ele>106</ele>
        <time>2023-04-11T07:23:23.316Z</time>
      </trkpt>
      <trkpt lat="48.38657" lon="2.77624">
        <ele>106</ele>
        <time>2023-04-11T07:23:27.867Z</time>
      </trkpt>
      <trkpt lat="48.38658" lon="2.77634">
        <ele>105</ele>
        <time>2023-04-11T07:23:31.868Z</time>
      </trkpt>
      <trkpt lat="48.38659" lon="2.77644">
        <ele>105</ele>
        <time>2023-04-11T07:23:36.353Z</time>
      </trkpt>
      <trkpt lat="48.38659" lon="2.77653">
        <ele>105</ele>
        <time>2023-04-11T07:23:40.864Z</time>
      </trkpt>
      <trkpt lat="48.3866" lon="2.77661">
        <ele>104</ele>
        <time>2023-04-11T07:23:44.711Z</time>
      </trkpt>
      <trkpt lat="48.38661" lon="2.7767">
        <ele>104</ele>
        <time>2023-04-11T07:23:49.279Z</time>
      </trkpt>
      <trkpt lat="48.38661" lon="2.77678">
        <ele>104</ele>
        <time>2023-04-11T07:23:53.307Z</time>
      </trkpt>
      <trkpt lat="48.3866" lon="2.77686">
        <ele>103</ele>
        <time>2023-04-11T07:23:57.468Z</time>
      </trkpt>
      <trkpt lat="48.3866" lon="2.77695">
        <ele>103</ele>
        <time>2023-04-11T07:24:01.608Z</time>
      </trkpt>
      <trkpt lat="48.3866" lon="2.77703">
        <ele>103</ele>
        <time>2023-04-11T07:24:05.485Z</time>
      </trkpt>
      <trkpt lat="48.38658" lon="2.7771">
        <ele>102</ele>
        <time>2023-04-11T07:24:09.664Z</time>
      </trkpt>
      <trkpt lat="48.38655" lon="2.77716">
        <ele>102</ele>
        <time>2023-04-11T07:24:14.303Z</time>
      </trkpt>
      <trkpt lat="48.38649" lon="2.77718">
        <ele>103</ele>
        <time>2023-04-11T07:24:18.739Z</time>
      </trkpt>
      <trkpt lat="48.38644" lon="2.77719">
        <ele>103</ele>
        <time>2023-04-11T07:24:22.680Z</time>
      </trkpt>
      <trkpt lat="48.38639" lon="2.77722">
        <ele>103</ele>
        <time>2023-04-11T07:24:27.361Z</time>
      </trkpt>
      <trkpt lat="48.38634" lon="2.77725">
        <ele>103</ele>
        <time>2023-04-11T07:24:32.108Z</time>
      </trkpt>
      <trkpt lat="48.38627" lon="2.77728">
        <ele>103</ele>
        <time>2023-04-11T07:24:36.985Z</time>
      </trkpt>
      <trkpt lat="48.38622" lon="2.77731">
        <ele>104</ele>
        <time>2023-04-11T07:24:40.985Z</time>
      </trkpt>
      <trkpt lat="48.38618" lon="2.77733">
        <ele>104</ele>
        <time>2023-04-11T07:24:44.893Z</time>
      </trkpt>
      <trkpt lat="48.38613" lon="2.77735">
        <ele>104</ele>
        <time>2023-04-11T07:24:48.832Z</time>
      </trkpt>
      <trkpt lat="48.38609" lon="2.77737">
        <ele>103</ele>
        <time>2023-04-11T07:24:53.316Z</time>
      </trkpt>
      <trkpt lat="48.38602" lon="2.77739">
        <ele>103</ele>
        <time>2023-04-11T07:24:57.908Z</time>
      </trkpt>
      <trkpt lat="48.38595" lon="2.77742">
        <ele>105</ele>
        <time>2023-04-11T07:25:02.439Z</time>
      </trkpt>
      <trkpt lat="48.38588" lon="2.77746">
        <ele>105</ele>
        <time>2023-04-11T07:25:06.500Z</time>
      </trkpt>
      <trkpt lat="48.38581" lon="2.7775">
        <ele>105</ele>
        <time>2023-04-11T07:25:10.442Z</time>
      </trkpt>
      <trkpt lat="48.38574" lon="2.77752">
        <ele>105</ele>
        <time>2023-04-11T07:25:14.502Z</time>
      </trkpt>
      <trkpt lat="48.38568" lon="2.77754">
        <ele>107</ele>
        <time>2023-04-11T07:25:18.563Z</time>
      </trkpt>
      <trkpt lat="48.3856" lon="2.77755">
        <ele>107</ele>
        <time>2023-04-11T07:25:23.105Z</time>
      </trkpt>
      <trkpt lat="48.38554" lon="2.77757">
        <ele>107</ele>
        <time>2023-04-11T07:25:26.921Z</time>
      </trkpt>
      <trkpt lat="48.38547" lon="2.77759">
        <ele>107</ele>
        <time>2023-04-11T07:25:31.100Z</time>
      </trkpt>
      <trkpt lat="48.38541" lon="2.7776">
        <ele>108</ele>
        <time>2023-04-11T07:25:35.280Z</time>
      </trkpt>
      <trkpt lat="48.38534" lon="2.77764">
        <ele>108</ele>
        <time>2023-04-11T07:25:39.695Z</time>
      </trkpt>
      <trkpt lat="48.38529" lon="2.77764">
        <ele>106</ele>
        <time>2023-04-11T07:25:43.754Z</time>
      </trkpt>
      <trkpt lat="48.38523" lon="2.77766">
        <ele>106</ele>
        <time>2023-04-11T07:25:47.692Z</time>
      </trkpt>
      <trkpt lat="48.38517" lon="2.77766">
        <ele>106</ele>
        <time>2023-04-11T07:25:52.167Z</time>
      </trkpt>
      <trkpt lat="48.38511" lon="2.77768">
        <ele>104</ele>
        <time>2023-04-11T07:25:56.285Z</time>
      </trkpt>
      <trkpt lat="48.38505" lon="2.77769">
        <ele>104</ele>
        <time>2023-04-11T07:26:00.316Z</time>
      </trkpt>
      <trkpt lat="48.38501" lon="2.7777">
        <ele>104</ele>
        <time>2023-04-11T07:26:04.264Z</time>
      </trkpt>
      <trkpt lat="48.38495" lon="2.77772">
        <ele>104</ele>
        <time>2023-04-11T07:26:08.667Z</time>
      </trkpt>
      <trkpt lat="48.3849" lon="2.77773">
        <ele>104</ele>
        <time>2023-04-11T07:26:13.150Z</time>
      </trkpt>
      <trkpt lat="48.38484" lon="2.77774">
        <ele>104</ele>
        <time>2023-04-11T07:26:17.743Z</time>
      </trkpt>
      <trkpt lat="48.38479" lon="2.77774">
        <ele>104</ele>
        <time>2023-04-11T07:26:22.286Z</time>
      </trkpt>
      <trkpt lat="48.38473" lon="2.77776">
        <ele>104</ele>
        <time>2023-04-11T07:26:26.817Z</time>
      </trkpt>
      <trkpt lat="48.38466" lon="2.77776">
        <ele>104</ele>
        <time>2023-04-11T07:26:30.883Z</time>
      </trkpt>
      <trkpt lat="48.38461" lon="2.77776">
        <ele>104</ele>
        <time>2023-04-11T07:26:34.822Z</time>
      </trkpt>
      <trkpt lat="48.38457" lon="2.77777">
        <ele>106</ele>
        <time>2023-04-11T07:26:39.405Z</time>
      </trkpt>
      <trkpt lat="48.38451" lon="2.77776">
        <ele>106</ele>
        <time>2023-04-11T07:26:43.530Z</time>
      </trkpt>
      <trkpt lat="48.38445" lon="2.77776">
        <ele>106</ele>
        <time>2023-04-11T07:26:47.778Z</time>
      </trkpt>
      <trkpt lat="48.3844" lon="2.77777">
        <ele>106</ele>
        <time>2023-04-11T07:26:51.885Z</time>
      </trkpt>
      <trkpt lat="48.38435" lon="2.77779">
        <ele>106</ele>
        <time>2023-04-11T07:26:56.064Z</time>
      </trkpt>
      <trkpt lat="48.3843" lon="2.7778">
        <ele>108</ele>
        <time>2023-04-11T07:27:00.147Z</time>
      </trkpt>
      <trkpt lat="48.38424" lon="2.77781">
        <ele>108</ele>
        <time>2023-04-11T07:27:04.758Z</time>
      </trkpt>
      <trkpt lat="48.38417" lon="2.77783">
        <ele>108</ele>
        <time>2023-04-11T07:27:08.697Z</time>
      </trkpt>
      <trkpt lat="48.38411" lon="2.77784">
        <ele>108</ele>
        <time>2023-04-11T07:27:13.453Z</time>
      </trkpt>
      <trkpt lat="48.38404" lon="2.77785">
        <ele>108</ele>
        <time>2023-04-11T07:27:17.999Z</time>
      </trkpt>
      <trkpt lat="48.38399" lon="2.77786">
        <ele>109</ele>
        <time>2023-04-11T07:27:22.046Z</time>
      </trkpt>
      <trkpt lat="48.38392" lon="2.77788">
        <ele>109</ele>
        <time>2023-04-11T07:27:26.465Z</time>
      </trkpt>
      <trkpt lat="48.38386" lon="2.77792">
        <ele>109</ele>
        <time>2023-04-11T07:27:30.757Z</time>
      </trkpt>
      <trkpt lat="48.38381" lon="2.77794">
        <ele>107</ele>
        <time>2023-04-11T07:27:35.239Z</time>
      </trkpt>
      <trkpt lat="48.38375" lon="2.77797">
        <ele>107</ele>
        <time>2023-04-11T07:27:39.580Z</time>
      </trkpt>
      <trkpt lat="48.38371" lon="2.77797">
        <ele>107</ele>
        <time>2023-04-11T07:27:44.144Z</time>
      </trkpt>
      <trkpt lat="48.38365" lon="2.77799">
        <ele>107</ele>
        <time>2023-04-11T07:27:48.440Z</time>
      </trkpt>
      <trkpt lat="48.38359" lon="2.77801">
        <ele>107</ele>
        <time>2023-04-11T07:27:52.316Z</time>
      </trkpt>
      <trkpt lat="48.38353" lon="2.77804">
        <ele>107</ele>
        <time>2023-04-11T07:27:56.605Z</time>
      </trkpt>
      <trkpt lat="48.38347" lon="2.77808">
        <ele>106</ele>
        <time>2023-04-11T07:28:00.693Z</time>
      </trkpt>
      <trkpt lat="48.38342" lon="2.77811">
        <ele>106</ele>
        <time>2023-04-11T07:28:04.628Z</time>
      </trkpt>
      <trkpt lat="48.38336" lon="2.77814">
        <ele>106</ele>
        <time>2023-04-11T07:28:08.924Z</time>
      </trkpt>
      <trkpt lat="48.38331" lon="2.77816">
        <ele>106</ele>
        <time>2023-04-11T07:28:12.977Z</time>
      </trkpt>
      <trkpt lat="48.38324" lon="2.77818">
        <ele>106</ele>
        <time>2023-04-11T07:28:17.508Z</time>
      </trkpt>
      <trkpt lat="48.38319" lon="2.7782">
        <ele>102</ele>
        <time>2023-04-11T07:28:21.443Z</time>
      </trkpt>
      <trkpt lat="48.38314" lon="2.77824">
        <ele>102</ele>
        <time>2023-04-11T07:28:25.906Z</time>
      </trkpt>
      <trkpt lat="48.3831" lon="2.77827">
        <ele>102</ele>
        <time>2023-04-11T07:28:30.270Z</time>
      </trkpt>
      <trkpt lat="48.38303" lon="2.77829">
        <ele>102</ele>
        <time>2023-04-11T07:28:34.809Z</time>
      </trkpt>
      <trkpt lat="48.38298" lon="2.77831">
        <ele>102</ele>
        <time>2023-04-11T07:28:38.871Z</time>
      </trkpt>
      <trkpt lat="48.38292" lon="2.77832">
        <ele>102</ele>
        <time>2023-04-11T07:28:43.292Z</time>
      </trkpt>
      <trkpt lat="48.38287" lon="2.77835">
        <ele>101</ele>
        <time>2023-04-11T07:28:47.661Z</time>
      </trkpt>
      <trkpt lat="48.38282" lon="2.7784">
        <ele>101</ele>
        <time>2023-04-11T07:28:51.538Z</time>
      </trkpt>
      <trkpt lat="48.38278" lon="2.77845">
        <ele>101</ele>
        <time>2023-04-11T07:28:56.074Z</time>
      </trkpt>
      <trkpt lat="48.38277" lon="2.77848">
        <ele>99</ele>
        <time>2023-04-11T07:28:59.656Z</time>
      </trkpt>
      <trkpt lat="48.38278" lon="2.77849">
        <ele>99</ele>
        <time>2023-04-11T07:29:04.434Z</time>
      </trkpt>
      <trkpt lat="48.38277" lon="2.77853">
        <ele>99</ele>
        <time>2023-04-11T07:29:08.374Z</time>
      </trkpt>
      <trkpt lat="48.38277" lon="2.77851">
        <ele>99</ele>
        <time>2023-04-11T07:29:12.913Z</time>
      </trkpt>
      <trkpt lat="48.38277" lon="2.77845">
        <ele>101</ele>
        <time>2023-04-11T07:29:17.574Z</time>
      </trkpt>
      <trkpt lat="48.38282" lon="2.77839">
        <ele>101</ele>
        <time>2023-04-11T07:29:21.993Z</time>
      </trkpt>
      <trkpt lat="48.38285" lon="2.77831">
        <ele>101</ele>
        <time>2023-04-11T07:29:26.649Z</time>
      </trkpt>
      <trkpt lat="48.38289" lon="2.77823">
        <ele>101</ele>
        <time>2023-04-11T07:29:31.220Z</time>
      </trkpt>
      <trkpt lat="48.38293" lon="2.77818">
        <ele>104</ele>
        <time>2023-04-11T07:29:35.248Z</time>
      </trkpt>
      <trkpt lat="48.38298" lon="2.77817">
        <ele>104</ele>
        <time>2023-04-11T07:29:39.309Z</time>
      </trkpt>
      <trkpt lat="48.38298" lon="2.77818">
        <ele>104</ele>
        <time>2023-04-11T07:29:44.087Z</time>
      </trkpt>
      <trkpt lat="48.38297" lon="2.77816">
        <ele>104</ele>
        <time>2023-04-11T07:30:00.925Z</time>
      </trkpt>
      <trkpt lat="48.38295" lon="2.77815">
        <ele>104</ele>
        <time>2023-04-11T07:30:05.103Z</time>
      </trkpt>
      <trkpt lat="48.38292" lon="2.77815">
        <ele>104</ele>
        <time>2023-04-11T07:30:09.043Z</time>
      </trkpt>
      <trkpt lat="48.38288" lon="2.7782">
        <ele>101</ele>
        <time>2023-04-11T07:30:13.679Z</time>
      </trkpt>
      <trkpt lat="48.38284" lon="2.7783">
        <ele>101</ele>
        <time>2023-04-11T07:30:17.743Z</time>
      </trkpt>
      <trkpt lat="48.38281" lon="2.77841">
        <ele>101</ele>
        <time>2023-04-11T07:30:21.689Z</time>
      </trkpt>
      <trkpt lat="48.38278" lon="2.77853">
        <ele>99</ele>
        <time>2023-04-11T07:30:27.065Z</time>
      </trkpt>
      <trkpt lat="48.38278" lon="2.77857">
        <ele>99</ele>
        <time>2023-04-11T07:30:31.161Z</time>
      </trkpt>
      <trkpt lat="48.3828" lon="2.77866">
        <ele>99</ele>
        <time>2023-04-11T07:30:35.872Z</time>
      </trkpt>
      <trkpt lat="48.38279" lon="2.77873">
        <ele>99</ele>
        <time>2023-04-11T07:30:39.818Z</time>
      </trkpt>
      <trkpt lat="48.38282" lon="2.7788">
        <ele>96</ele>
        <time>2023-04-11T07:30:43.881Z</time>
      </trkpt>
      <trkpt lat="48.38284" lon="2.7789">
        <ele>96</ele>
        <time>2023-04-11T07:30:48.064Z</time>
      </trkpt>
      <trkpt lat="48.38284" lon="2.779">
        <ele>96</ele>
        <time>2023-04-11T07:30:52.128Z</time>
      </trkpt>
      <trkpt lat="48.38285" lon="2.77909">
        <ele>94</ele>
        <time>2023-04-11T07:30:56.130Z</time>
      </trkpt>
      <trkpt lat="48.38287" lon="2.77919">
        <ele>94</ele>
        <time>2023-04-11T07:31:00.741Z</time>
      </trkpt>
      <trkpt lat="48.38288" lon="2.77928">
        <ele>94</ele>
        <time>2023-04-11T07:31:05.283Z</time>
      </trkpt>
      <trkpt lat="48.38289" lon="2.77938">
        <ele>92</ele>
        <time>2023-04-11T07:31:10.066Z</time>
      </trkpt>
      <trkpt lat="48.3829" lon="2.77947">
        <ele>92</ele>
        <time>2023-04-11T07:31:14.607Z</time>
      </trkpt>
      <trkpt lat="48.38292" lon="2.77954">
        <ele>92</ele>
        <time>2023-04-11T07:31:18.670Z</time>
      </trkpt>
      <trkpt lat="48.38292" lon="2.77964">
        <ele>92</ele>
        <time>2023-04-11T07:31:23.466Z</time>
      </trkpt>
      <trkpt lat="48.38294" lon="2.77972">
        <ele>92</ele>
        <time>2023-04-11T07:31:27.684Z</time>
      </trkpt>
      <trkpt lat="48.38295" lon="2.7798">
        <ele>92</ele>
        <time>2023-04-11T07:31:31.706Z</time>
      </trkpt>
      <trkpt lat="48.38297" lon="2.77988">
        <ele>91</ele>
        <time>2023-04-11T07:31:35.887Z</time>
      </trkpt>
      <trkpt lat="48.38299" lon="2.77997">
        <ele>91</ele>
        <time>2023-04-11T07:31:40.070Z</time>
      </trkpt>
      <trkpt lat="48.38301" lon="2.78004">
        <ele>91</ele>
        <time>2023-04-11T07:31:44.226Z</time>
      </trkpt>
      <trkpt lat="48.38302" lon="2.78013">
        <ele>91</ele>
        <time>2023-04-11T07:31:48.905Z</time>
      </trkpt>
      <trkpt lat="48.38304" lon="2.7802">
        <ele>91</ele>
        <time>2023-04-11T07:31:52.848Z</time>
      </trkpt>
      <trkpt lat="48.38303" lon="2.7803">
        <ele>91</ele>
        <time>2023-04-11T07:31:56.909Z</time>
      </trkpt>
      <trkpt lat="48.38302" lon="2.78038">
        <ele>91</ele>
        <time>2023-04-11T07:32:01.090Z</time>
      </trkpt>
      <trkpt lat="48.38303" lon="2.78047">
        <ele>90</ele>
        <time>2023-04-11T07:32:05.852Z</time>
      </trkpt>
      <trkpt lat="48.38305" lon="2.78055">
        <ele>90</ele>
        <time>2023-04-11T07:32:09.674Z</time>
      </trkpt>
      <trkpt lat="48.38307" lon="2.78066">
        <ele>90</ele>
        <time>2023-04-11T07:32:15.032Z</time>
      </trkpt>
      <trkpt lat="48.3831" lon="2.78073">
        <ele>89</ele>
        <time>2023-04-11T07:32:19.096Z</time>
      </trkpt>
      <trkpt lat="48.3831" lon="2.78081">
        <ele>89</ele>
        <time>2023-04-11T07:32:23.254Z</time>
      </trkpt>
      <trkpt lat="48.38313" lon="2.78088">
        <ele>89</ele>
        <time>2023-04-11T07:32:27.434Z</time>
      </trkpt>
      <trkpt lat="48.38313" lon="2.78096">
        <ele>89</ele>
        <time>2023-04-11T07:32:32.024Z</time>
      </trkpt>
      <trkpt lat="48.38314" lon="2.78108">
        <ele>88</ele>
        <time>2023-04-11T07:32:36.987Z</time>
      </trkpt>
      <trkpt lat="48.38315" lon="2.78119">
        <ele>88</ele>
        <time>2023-04-11T07:32:42.107Z</time>
      </trkpt>
      <trkpt lat="48.38316" lon="2.78126">
        <ele>88</ele>
        <time>2023-04-11T07:32:45.710Z</time>
      </trkpt>
      <trkpt lat="48.38319" lon="2.78135">
        <ele>87</ele>
        <time>2023-04-11T07:32:50.728Z</time>
      </trkpt>
      <trkpt lat="48.38319" lon="2.78144">
        <ele>88</ele>
        <time>2023-04-11T07:32:55.802Z</time>
      </trkpt>
      <trkpt lat="48.38319" lon="2.78153">
        <ele>88</ele>
        <time>2023-04-11T07:32:59.695Z</time>
      </trkpt>
      <trkpt lat="48.3832" lon="2.78163">
        <ele>87</ele>
        <time>2023-04-11T07:33:04.316Z</time>
      </trkpt>
      <trkpt lat="48.38322" lon="2.78172">
        <ele>87</ele>
        <time>2023-04-11T07:33:08.906Z</time>
      </trkpt>
      <trkpt lat="48.38325" lon="2.7818">
        <ele>87</ele>
        <time>2023-04-11T07:33:12.835Z</time>
      </trkpt>
      <trkpt lat="48.38327" lon="2.78189">
        <ele>87</ele>
        <time>2023-04-11T07:33:17.496Z</time>
      </trkpt>
      <trkpt lat="48.38329" lon="2.78197">
        <ele>87</ele>
        <time>2023-04-11T07:33:22.043Z</time>
      </trkpt>
      <trkpt lat="48.38331" lon="2.78206">
        <ele>87</ele>
        <time>2023-04-11T07:33:26.316Z</time>
      </trkpt>
      <trkpt lat="48.38333" lon="2.78213">
        <ele>86</ele>
        <time>2023-04-11T07:33:30.290Z</time>
      </trkpt>
      <trkpt lat="48.38335" lon="2.78223">
        <ele>86</ele>
        <time>2023-04-11T07:33:34.830Z</time>
      </trkpt>
      <trkpt lat="48.38338" lon="2.78232">
        <ele>86</ele>
        <time>2023-04-11T07:33:39.502Z</time>
      </trkpt>
      <trkpt lat="48.3834" lon="2.78239">
        <ele>86</ele>
        <time>2023-04-11T07:33:43.684Z</time>
      </trkpt>
      <trkpt lat="48.38341" lon="2.78247">
        <ele>86</ele>
        <time>2023-04-11T07:33:47.854Z</time>
      </trkpt>
      <trkpt lat="48.38343" lon="2.78254">
        <ele>86</ele>
        <time>2023-04-11T07:33:52.041Z</time>
      </trkpt>
      <trkpt lat="48.38345" lon="2.78264">
        <ele>87</ele>
        <time>2023-04-11T07:33:56.980Z</time>
      </trkpt>
      <trkpt lat="48.38347" lon="2.78273">
        <ele>87</ele>
        <time>2023-04-11T07:34:01.122Z</time>
      </trkpt>
      <trkpt lat="48.38349" lon="2.78281">
        <ele>87</ele>
        <time>2023-04-11T07:34:04.705Z</time>
      </trkpt>
      <trkpt lat="48.38351" lon="2.78288">
        <ele>87</ele>
        <time>2023-04-11T07:34:09.246Z</time>
      </trkpt>
      <trkpt lat="48.38353" lon="2.78298">
        <ele>88</ele>
        <time>2023-04-11T07:34:13.669Z</time>
      </trkpt>
      <trkpt lat="48.38355" lon="2.78306">
        <ele>88</ele>
        <time>2023-04-11T07:34:17.850Z</time>
      </trkpt>
      <trkpt lat="48.38357" lon="2.78314">
        <ele>88</ele>
        <time>2023-04-11T07:34:21.794Z</time>
      </trkpt>
      <trkpt lat="48.3836" lon="2.78322">
        <ele>87</ele>
        <time>2023-04-11T07:34:26.461Z</time>
      </trkpt>
      <trkpt lat="48.38362" lon="2.7833">
        <ele>87</ele>
        <time>2023-04-11T07:34:30.644Z</time>
      </trkpt>
      <trkpt lat="48.38364" lon="2.78337">
        <ele>87</ele>
        <time>2023-04-11T07:34:35.307Z</time>
      </trkpt>
      <trkpt lat="48.38366" lon="2.78346">
        <ele>87</ele>
        <time>2023-04-11T07:34:39.438Z</time>
      </trkpt>
      <trkpt lat="48.38368" lon="2.78355">
        <ele>85</ele>
        <time>2023-04-11T07:34:43.429Z</time>
      </trkpt>
      <trkpt lat="48.38371" lon="2.78364">
        <ele>85</ele>
        <time>2023-04-11T07:34:47.493Z</time>
      </trkpt>
      <trkpt lat="48.38372" lon="2.78373">
        <ele>85</ele>
        <time>2023-04-11T07:34:51.914Z</time>
      </trkpt>
      <trkpt lat="48.38374" lon="2.7838">
        <ele>84</ele>
        <time>2023-04-11T07:34:55.738Z</time>
      </trkpt>
      <trkpt lat="48.38373" lon="2.78387">
        <ele>84</ele>
        <time>2023-04-11T07:35:00.380Z</time>
      </trkpt>
      <trkpt lat="48.38369" lon="2.78391">
        <ele>84</ele>
        <time>2023-04-11T07:35:04.461Z</time>
      </trkpt>
      <trkpt lat="48.38364" lon="2.78395">
        <ele>84</ele>
        <time>2023-04-11T07:35:08.522Z</time>
      </trkpt>
      <trkpt lat="48.38359" lon="2.78401">
        <ele>84</ele>
        <time>2023-04-11T07:35:12.464Z</time>
      </trkpt>
      <trkpt lat="48.38355" lon="2.78408">
        <ele>83</ele>
        <time>2023-04-11T07:35:16.548Z</time>
      </trkpt>
      <trkpt lat="48.38351" lon="2.78416">
        <ele>83</ele>
        <time>2023-04-11T07:35:21.181Z</time>
      </trkpt>
      <trkpt lat="48.38346" lon="2.78422">
        <ele>82</ele>
        <time>2023-04-11T07:35:25.261Z</time>
      </trkpt>
      <trkpt lat="48.38341" lon="2.78428">
        <ele>82</ele>
        <time>2023-04-11T07:35:29.691Z</time>
      </trkpt>
      <trkpt lat="48.38336" lon="2.78436">
        <ele>81</ele>
        <time>2023-04-11T07:35:34.351Z</time>
      </trkpt>
      <trkpt lat="48.38332" lon="2.78441">
        <ele>81</ele>
        <time>2023-04-11T07:35:38.892Z</time>
      </trkpt>
      <trkpt lat="48.38328" lon="2.78446">
        <ele>81</ele>
        <time>2023-04-11T07:35:42.836Z</time>
      </trkpt>
      <trkpt lat="48.38325" lon="2.7845">
        <ele>81</ele>
        <time>2023-04-11T07:35:47.498Z</time>
      </trkpt>
      <trkpt lat="48.38322" lon="2.78455">
        <ele>81</ele>
        <time>2023-04-11T07:35:52.042Z</time>
      </trkpt>
      <trkpt lat="48.38318" lon="2.78459">
        <ele>80</ele>
        <time>2023-04-11T07:35:56.109Z</time>
      </trkpt>
      <trkpt lat="48.38314" lon="2.78466">
        <ele>80</ele>
        <time>2023-04-11T07:36:00.294Z</time>
      </trkpt>
      <trkpt lat="48.38309" lon="2.78475">
        <ele>80</ele>
        <time>2023-04-11T07:36:04.316Z</time>
      </trkpt>
      <trkpt lat="48.38303" lon="2.78479">
        <ele>80</ele>
        <time>2023-04-11T07:36:08.901Z</time>
      </trkpt>
      <trkpt lat="48.38296" lon="2.78477">
        <ele>80</ele>
        <time>2023-04-11T07:36:13.444Z</time>
      </trkpt>
      <trkpt lat="48.3829" lon="2.78475">
        <ele>79</ele>
        <time>2023-04-11T07:36:17.510Z</time>
      </trkpt>
      <trkpt lat="48.38284" lon="2.78472">
        <ele>79</ele>
        <time>2023-04-11T07:36:21.696Z</time>
      </trkpt>
      <trkpt lat="48.38278" lon="2.78468">
        <ele>79</ele>
        <time>2023-04-11T07:36:26.120Z</time>
      </trkpt>
      <trkpt lat="48.38273" lon="2.78464">
        <ele>79</ele>
        <time>2023-04-11T07:36:30.284Z</time>
      </trkpt>
      <trkpt lat="48.38267" lon="2.78461">
        <ele>79</ele>
        <time>2023-04-11T07:36:34.727Z</time>
      </trkpt>
      <trkpt lat="48.38262" lon="2.78458">
        <ele>79</ele>
        <time>2023-04-11T07:36:39.241Z</time>
      </trkpt>
      <trkpt lat="48.38255" lon="2.78454">
        <ele>79</ele>
        <time>2023-04-11T07:36:44.132Z</time>
      </trkpt>
      <trkpt lat="48.3825" lon="2.7845">
        <ele>79</ele>
        <time>2023-04-11T07:36:48.667Z</time>
      </trkpt>
      <trkpt lat="48.38245" lon="2.78447">
        <ele>79</ele>
        <time>2023-04-11T07:36:52.532Z</time>
      </trkpt>
      <trkpt lat="48.38239" lon="2.78443">
        <ele>79</ele>
        <time>2023-04-11T07:36:56.716Z</time>
      </trkpt>
      <trkpt lat="48.38232" lon="2.78441">
        <ele>79</ele>
        <time>2023-04-11T07:37:01.736Z</time>
      </trkpt>
      <trkpt lat="48.38226" lon="2.78438">
        <ele>79</ele>
        <time>2023-04-11T07:37:05.921Z</time>
      </trkpt>
      <trkpt lat="48.3822" lon="2.78436">
        <ele>79</ele>
        <time>2023-04-11T07:37:09.984Z</time>
      </trkpt>
      <trkpt lat="48.38215" lon="2.78431">
        <ele>80</ele>
        <time>2023-04-11T07:37:14.529Z</time>
      </trkpt>
      <trkpt lat="48.3821" lon="2.78427">
        <ele>80</ele>
        <time>2023-04-11T07:37:19.074Z</time>
      </trkpt>
      <trkpt lat="48.38205" lon="2.78423">
        <ele>82</ele>
        <time>2023-04-11T07:37:23.167Z</time>
      </trkpt>
      <trkpt lat="48.382" lon="2.78421">
        <ele>82</ele>
        <time>2023-04-11T07:37:27.316Z</time>
      </trkpt>
      <trkpt lat="48.38194" lon="2.78418">
        <ele>82</ele>
        <time>2023-04-11T07:37:31.273Z</time>
      </trkpt>
      <trkpt lat="48.38188" lon="2.78414">
        <ele>82</ele>
        <time>2023-04-11T07:37:35.458Z</time>
      </trkpt>
      <trkpt lat="48.38183" lon="2.78412">
        <ele>82</ele>
        <time>2023-04-11T07:37:39.642Z</time>
      </trkpt>
      <trkpt lat="48.38177" lon="2.78408">
        <ele>82</ele>
        <time>2023-04-11T07:37:43.707Z</time>
      </trkpt>
      <trkpt lat="48.38172" lon="2.78405">
        <ele>82</ele>
        <time>2023-04-11T07:37:47.772Z</time>
      </trkpt>
      <trkpt lat="48.38165" lon="2.78404">
        <ele>82</ele>
        <time>2023-04-11T07:37:52.316Z</time>
      </trkpt>
      <trkpt lat="48.3816" lon="2.78401">
        <ele>84</ele>
        <time>2023-04-11T07:37:56.264Z</time>
      </trkpt>
      <trkpt lat="48.38155" lon="2.78395">
        <ele>84</ele>
        <time>2023-04-11T07:38:00.452Z</time>
      </trkpt>
      <trkpt lat="48.38151" lon="2.78391">
        <ele>83</ele>
        <time>2023-04-11T07:38:04.879Z</time>
      </trkpt>
      <trkpt lat="48.3814" lon="2.78386">
        <ele>83</ele>
        <time>2023-04-11T07:39:30.152Z</time>
      </trkpt>
      <trkpt lat="48.3814" lon="2.78385">
        <ele>83</ele>
        <time>2023-04-11T07:39:35.146Z</time>
      </trkpt>
      <trkpt lat="48.3814" lon="2.78385">
        <ele>83</ele>
        <time>2023-04-11T07:39:39.183Z</time>
      </trkpt>
      <trkpt lat="48.38138" lon="2.78385">
        <ele>83</ele>
        <time>2023-04-11T07:39:43.702Z</time>
      </trkpt>
      <trkpt lat="48.38135" lon="2.78383">
        <ele>83</ele>
        <time>2023-04-11T07:39:47.770Z</time>
      </trkpt>
      <trkpt lat="48.38132" lon="2.78382">
        <ele>83</ele>
        <time>2023-04-11T07:39:51.718Z</time>
      </trkpt>
      <trkpt lat="48.38128" lon="2.78378">
        <ele>83</ele>
        <time>2023-04-11T07:39:57.101Z</time>
      </trkpt>
      <trkpt lat="48.38124" lon="2.78373">
        <ele>84</ele>
        <time>2023-04-11T07:40:01.046Z</time>
      </trkpt>
      <trkpt lat="48.38119" lon="2.78372">
        <ele>84</ele>
        <time>2023-04-11T07:40:05.589Z</time>
      </trkpt>
      <trkpt lat="48.38117" lon="2.78376">
        <ele>83</ele>
        <time>2023-04-11T07:40:10.013Z</time>
      </trkpt>
      <trkpt lat="48.38115" lon="2.7838">
        <ele>83</ele>
        <time>2023-04-11T07:40:14.556Z</time>
      </trkpt>
      <trkpt lat="48.38114" lon="2.78382">
        <ele>83</ele>
        <time>2023-04-11T07:40:18.620Z</time>
      </trkpt>
      <trkpt lat="48.38112" lon="2.78387">
        <ele>83</ele>
        <time>2023-04-11T07:40:23.283Z</time>
      </trkpt>
      <trkpt lat="48.38109" lon="2.78394">
        <ele>83</ele>
        <time>2023-04-11T07:40:36.913Z</time>
      </trkpt>
      <trkpt lat="48.38109" lon="2.78395">
        <ele>83</ele>
        <time>2023-04-11T07:40:41.696Z</time>
      </trkpt>
      <trkpt lat="48.38108" lon="2.78396">
        <ele>83</ele>
        <time>2023-04-11T07:40:46.459Z</time>
      </trkpt>
      <trkpt lat="48.38105" lon="2.78399">
        <ele>83</ele>
        <time>2023-04-11T07:40:50.527Z</time>
      </trkpt>
      <trkpt lat="48.38103" lon="2.78404">
        <ele>82</ele>
        <time>2023-04-11T07:40:54.714Z</time>
      </trkpt>
      <trkpt lat="48.38101" lon="2.78408">
        <ele>82</ele>
        <time>2023-04-11T07:40:58.901Z</time>
      </trkpt>
      <trkpt lat="48.38099" lon="2.78412">
        <ele>82</ele>
        <time>2023-04-11T07:41:03.219Z</time>
      </trkpt>
      <trkpt lat="48.38097" lon="2.78417">
        <ele>83</ele>
        <time>2023-04-11T07:41:07.605Z</time>
      </trkpt>
      <trkpt lat="48.38093" lon="2.78422">
        <ele>83</ele>
        <time>2023-04-11T07:41:11.821Z</time>
      </trkpt>
      <trkpt lat="48.3809" lon="2.78425">
        <ele>83</ele>
        <time>2023-04-11T07:41:15.890Z</time>
      </trkpt>
      <trkpt lat="48.38087" lon="2.78431">
        <ele>82</ele>
        <time>2023-04-11T07:41:20.077Z</time>
      </trkpt>
      <trkpt lat="48.38082" lon="2.78439">
        <ele>82</ele>
        <time>2023-04-11T07:41:24.745Z</time>
      </trkpt>
      <trkpt lat="48.38076" lon="2.78439">
        <ele>82</ele>
        <time>2023-04-11T07:41:29.292Z</time>
      </trkpt>
      <trkpt lat="48.3807" lon="2.78437">
        <ele>82</ele>
        <time>2023-04-11T07:41:33.720Z</time>
      </trkpt>
      <trkpt lat="48.38063" lon="2.78433">
        <ele>81</ele>
        <time>2023-04-11T07:41:38.459Z</time>
      </trkpt>
      <trkpt lat="48.38058" lon="2.78428">
        <ele>83</ele>
        <time>2023-04-11T07:41:42.458Z</time>
      </trkpt>
      <trkpt lat="48.38052" lon="2.78426">
        <ele>83</ele>
        <time>2023-04-11T07:41:47.021Z</time>
      </trkpt>
      <trkpt lat="48.38046" lon="2.78424">
        <ele>83</ele>
        <time>2023-04-11T07:41:51.617Z</time>
      </trkpt>
      <trkpt lat="48.38042" lon="2.78425">
        <ele>83</ele>
        <time>2023-04-11T07:41:53.890Z</time>
      </trkpt>
      <trkpt lat="48.38039" lon="2.78429">
        <ele>81</ele>
        <time>2023-04-11T07:42:01.744Z</time>
      </trkpt>
      <trkpt lat="48.38032" lon="2.7842">
        <ele>81</ele>
        <time>2023-04-11T07:42:06.449Z</time>
      </trkpt>
      <trkpt lat="48.38022" lon="2.78419">
        <ele>81</ele>
        <time>2023-04-11T07:43:27.821Z</time>
      </trkpt>
      <trkpt lat="48.38018" lon="2.78418">
        <ele>81</ele>
        <time>2023-04-11T07:43:32.316Z</time>
      </trkpt>
      <trkpt lat="48.38015" lon="2.78414">
        <ele>81</ele>
        <time>2023-04-11T07:43:36.401Z</time>
      </trkpt>
      <trkpt lat="48.38012" lon="2.78412">
        <ele>79</ele>
        <time>2023-04-11T07:43:40.523Z</time>
      </trkpt>
      <trkpt lat="48.38007" lon="2.78423">
        <ele>79</ele>
        <time>2023-04-11T07:43:45.259Z</time>
      </trkpt>
      <trkpt lat="48.38002" lon="2.78432">
        <ele>77</ele>
        <time>2023-04-11T07:43:49.841Z</time>
      </trkpt>
      <trkpt lat="48.37997" lon="2.78439">
        <ele>77</ele>
        <time>2023-04-11T07:43:53.881Z</time>
      </trkpt>
      <trkpt lat="48.37993" lon="2.78446">
        <ele>77</ele>
        <time>2023-04-11T07:43:58.080Z</time>
      </trkpt>
      <trkpt lat="48.3799" lon="2.78454">
        <ele>77</ele>
        <time>2023-04-11T07:44:02.015Z</time>
      </trkpt>
      <trkpt lat="48.37986" lon="2.78463">
        <ele>77</ele>
        <time>2023-04-11T07:44:07.142Z</time>
      </trkpt>
      <trkpt lat="48.37983" lon="2.78472">
        <ele>77</ele>
        <time>2023-04-11T07:44:11.690Z</time>
      </trkpt>
      <trkpt lat="48.37979" lon="2.78479">
        <ele>77</ele>
        <time>2023-04-11T07:44:15.620Z</time>
      </trkpt>
      <trkpt lat="48.37976" lon="2.78486">
        <ele>77</ele>
        <time>2023-04-11T07:44:19.567Z</time>
      </trkpt>
      <trkpt lat="48.37973" lon="2.78492">
        <ele>76</ele>
        <time>2023-04-11T07:44:23.633Z</time>
      </trkpt>
      <trkpt lat="48.37969" lon="2.78499">
        <ele>76</ele>
        <time>2023-04-11T07:44:28.058Z</time>
      </trkpt>
      <trkpt lat="48.37965" lon="2.78508">
        <ele>76</ele>
        <time>2023-04-11T07:44:32.483Z</time>
      </trkpt>
      <trkpt lat="48.37962" lon="2.78516">
        <ele>76</ele>
        <time>2023-04-11T07:44:36.671Z</time>
      </trkpt>
      <trkpt lat="48.37958" lon="2.78522">
        <ele>76</ele>
        <time>2023-04-11T07:44:40.739Z</time>
      </trkpt>
      <trkpt lat="48.37955" lon="2.78528">
        <ele>75</ele>
        <time>2023-04-11T07:44:44.807Z</time>
      </trkpt>
      <trkpt lat="48.37952" lon="2.78536">
        <ele>75</ele>
        <time>2023-04-11T07:44:49.593Z</time>
      </trkpt>
      <trkpt lat="48.37947" lon="2.78535">
        <ele>75</ele>
        <time>2023-04-11T07:44:53.660Z</time>
      </trkpt>
      <trkpt lat="48.37942" lon="2.78528">
        <ele>75</ele>
        <time>2023-04-11T07:44:58.220Z</time>
      </trkpt>
      <trkpt lat="48.37937" lon="2.78522">
        <ele>75</ele>
        <time>2023-04-11T07:45:02.756Z</time>
      </trkpt>
      <trkpt lat="48.37933" lon="2.78515">
        <ele>75</ele>
        <time>2023-04-11T07:45:07.263Z</time>
      </trkpt>
      <trkpt lat="48.37928" lon="2.7851">
        <ele>77</ele>
        <time>2023-04-11T07:45:11.929Z</time>
      </trkpt>
      <trkpt lat="48.37925" lon="2.78504">
        <ele>77</ele>
        <time>2023-04-11T07:45:15.877Z</time>
      </trkpt>
      <trkpt lat="48.37922" lon="2.78498">
        <ele>77</ele>
        <time>2023-04-11T07:45:20.067Z</time>
      </trkpt>
      <trkpt lat="48.37918" lon="2.78493">
        <ele>77</ele>
        <time>2023-04-11T07:45:24.498Z</time>
      </trkpt>
      <trkpt lat="48.37914" lon="2.78488">
        <ele>77</ele>
        <time>2023-04-11T07:45:28.568Z</time>
      </trkpt>
      <trkpt lat="48.37909" lon="2.78485">
        <ele>79</ele>
        <time>2023-04-11T07:45:33.165Z</time>
      </trkpt>
      <trkpt lat="48.37906" lon="2.78477">
        <ele>79</ele>
        <time>2023-04-11T07:45:37.665Z</time>
      </trkpt>
      <trkpt lat="48.37902" lon="2.78471">
        <ele>79</ele>
        <time>2023-04-11T07:45:41.734Z</time>
      </trkpt>
      <trkpt lat="48.37895" lon="2.78467">
        <ele>79</ele>
        <time>2023-04-11T07:45:45.802Z</time>
      </trkpt>
      <trkpt lat="48.37889" lon="2.7846">
        <ele>79</ele>
        <time>2023-04-11T07:45:50.470Z</time>
      </trkpt>
      <trkpt lat="48.37885" lon="2.78452">
        <ele>78</ele>
        <time>2023-04-11T07:45:55.165Z</time>
      </trkpt>
      <trkpt lat="48.37879" lon="2.78448">
        <ele>78</ele>
        <time>2023-04-11T07:45:59.924Z</time>
      </trkpt>
      <trkpt lat="48.37875" lon="2.78443">
        <ele>78</ele>
        <time>2023-04-11T07:46:04.111Z</time>
      </trkpt>
      <trkpt lat="48.37873" lon="2.78436">
        <ele>79</ele>
        <time>2023-04-11T07:46:08.298Z</time>
      </trkpt>
      <trkpt lat="48.3787" lon="2.78429">
        <ele>79</ele>
        <time>2023-04-11T07:46:12.484Z</time>
      </trkpt>
      <trkpt lat="48.37864" lon="2.78423">
        <ele>79</ele>
        <time>2023-04-11T07:46:16.908Z</time>
      </trkpt>
      <trkpt lat="48.37859" lon="2.78416">
        <ele>79</ele>
        <time>2023-04-11T07:46:21.094Z</time>
      </trkpt>
      <trkpt lat="48.37852" lon="2.78412">
        <ele>79</ele>
        <time>2023-04-11T07:46:26.099Z</time>
      </trkpt>
      <trkpt lat="48.37848" lon="2.78407">
        <ele>79</ele>
        <time>2023-04-11T07:46:30.151Z</time>
      </trkpt>
      <trkpt lat="48.37843" lon="2.784">
        <ele>81</ele>
        <time>2023-04-11T07:46:34.723Z</time>
      </trkpt>
      <trkpt lat="48.37839" lon="2.78394">
        <ele>81</ele>
        <time>2023-04-11T07:46:38.894Z</time>
      </trkpt>
      <trkpt lat="48.37834" lon="2.78391">
        <ele>81</ele>
        <time>2023-04-11T07:46:42.839Z</time>
      </trkpt>
      <trkpt lat="48.37829" lon="2.78387">
        <ele>81</ele>
        <time>2023-04-11T07:46:47.503Z</time>
      </trkpt>
      <trkpt lat="48.37824" lon="2.78382">
        <ele>81</ele>
        <time>2023-04-11T07:46:51.451Z</time>
      </trkpt>
      <trkpt lat="48.37821" lon="2.78374">
        <ele>83</ele>
        <time>2023-04-11T07:46:56.117Z</time>
      </trkpt>
      <trkpt lat="48.37816" lon="2.78369">
        <ele>83</ele>
        <time>2023-04-11T07:47:00.587Z</time>
      </trkpt>
      <trkpt lat="48.3781" lon="2.78363">
        <ele>83</ele>
        <time>2023-04-11T07:47:05.042Z</time>
      </trkpt>
      <trkpt lat="48.37805" lon="2.7836">
        <ele>83</ele>
        <time>2023-04-11T07:47:08.777Z</time>
      </trkpt>
      <trkpt lat="48.37801" lon="2.78357">
        <ele>83</ele>
        <time>2023-04-11T07:47:13.305Z</time>
      </trkpt>
      <trkpt lat="48.37798" lon="2.78353">
        <ele>83</ele>
        <time>2023-04-11T07:47:17.599Z</time>
      </trkpt>
      <trkpt lat="48.37794" lon="2.78355">
        <ele>83</ele>
        <time>2023-04-11T07:47:21.694Z</time>
      </trkpt>
      <trkpt lat="48.37793" lon="2.78365">
        <ele>83</ele>
        <time>2023-04-11T07:47:26.481Z</time>
      </trkpt>
      <trkpt lat="48.37794" lon="2.78374">
        <ele>83</ele>
        <time>2023-04-11T07:47:30.430Z</time>
      </trkpt>
      <trkpt lat="48.37794" lon="2.78383">
        <ele>83</ele>
        <time>2023-04-11T07:47:34.838Z</time>
      </trkpt>
      <trkpt lat="48.37793" lon="2.78393">
        <ele>83</ele>
        <time>2023-04-11T07:47:39.504Z</time>
      </trkpt>
      <trkpt lat="48.37793" lon="2.784">
        <ele>83</ele>
        <time>2023-04-11T07:47:43.452Z</time>
      </trkpt>
      <trkpt lat="48.37794" lon="2.78409">
        <ele>83</ele>
        <time>2023-04-11T07:47:47.517Z</time>
      </trkpt>
      <trkpt lat="48.37793" lon="2.78417">
        <ele>83</ele>
        <time>2023-04-11T07:47:51.703Z</time>
      </trkpt>
      <trkpt lat="48.3779" lon="2.78426">
        <ele>84</ele>
        <time>2023-04-11T07:47:56.429Z</time>
      </trkpt>
      <trkpt lat="48.3779" lon="2.78435">
        <ele>84</ele>
        <time>2023-04-11T07:48:00.662Z</time>
      </trkpt>
      <trkpt lat="48.37789" lon="2.78444">
        <ele>84</ele>
        <time>2023-04-11T07:48:04.836Z</time>
      </trkpt>
      <trkpt lat="48.37789" lon="2.78452">
        <ele>84</ele>
        <time>2023-04-11T07:48:08.781Z</time>
      </trkpt>
      <trkpt lat="48.37789" lon="2.7846">
        <ele>84</ele>
        <time>2023-04-11T07:48:13.316Z</time>
      </trkpt>
      <trkpt lat="48.37788" lon="2.78468">
        <ele>84</ele>
        <time>2023-04-11T07:48:17.509Z</time>
      </trkpt>
      <trkpt lat="48.37787" lon="2.78476">
        <ele>84</ele>
        <time>2023-04-11T07:48:21.456Z</time>
      </trkpt>
      <trkpt lat="48.37786" lon="2.78484">
        <ele>84</ele>
        <time>2023-04-11T07:48:25.284Z</time>
      </trkpt>
      <trkpt lat="48.37785" lon="2.78492">
        <ele>85</ele>
        <time>2023-04-11T07:48:29.316Z</time>
      </trkpt>
      <trkpt lat="48.37783" lon="2.78499">
        <ele>85</ele>
        <time>2023-04-11T07:48:33.776Z</time>
      </trkpt>
      <trkpt lat="48.37781" lon="2.78501">
        <ele>85</ele>
        <time>2023-04-11T07:48:38.316Z</time>
      </trkpt>
      <trkpt lat="48.37781" lon="2.78501">
        <ele>85</ele>
        <time>2023-04-11T07:48:42.505Z</time>
      </trkpt>
      <trkpt lat="48.37777" lon="2.78505">
        <ele>85</ele>
        <time>2023-04-11T07:48:47.155Z</time>
      </trkpt>
      <trkpt lat="48.37773" lon="2.78514">
        <ele>85</ele>
        <time>2023-04-11T07:48:51.154Z</time>
      </trkpt>
      <trkpt lat="48.37769" lon="2.7852">
        <ele>85</ele>
        <time>2023-04-11T07:48:55.281Z</time>
      </trkpt>
      <trkpt lat="48.37764" lon="2.7853">
        <ele>85</ele>
        <time>2023-04-11T07:48:59.707Z</time>
      </trkpt>
      <trkpt lat="48.37761" lon="2.78534">
        <ele>85</ele>
        <time>2023-04-11T07:49:03.655Z</time>
      </trkpt>
      <trkpt lat="48.37755" lon="2.78538">
        <ele>85</ele>
        <time>2023-04-11T07:49:08.139Z</time>
      </trkpt>
      <trkpt lat="48.3775" lon="2.78544">
        <ele>83</ele>
        <time>2023-04-11T07:49:12.268Z</time>
      </trkpt>
      <trkpt lat="48.37745" lon="2.7855">
        <ele>83</ele>
        <time>2023-04-11T07:49:16.932Z</time>
      </trkpt>
      <trkpt lat="48.3774" lon="2.78555">
        <ele>83</ele>
        <time>2023-04-11T07:49:21.119Z</time>
      </trkpt>
      <trkpt lat="48.37736" lon="2.78564">
        <ele>84</ele>
        <time>2023-04-11T07:49:25.903Z</time>
      </trkpt>
      <trkpt lat="48.37733" lon="2.78571">
        <ele>83</ele>
        <time>2023-04-11T07:49:29.851Z</time>
      </trkpt>
      <trkpt lat="48.3773" lon="2.78578">
        <ele>83</ele>
        <time>2023-04-11T07:49:33.918Z</time>
      </trkpt>
      <trkpt lat="48.3773" lon="2.78585">
        <ele>83</ele>
        <time>2023-04-11T07:49:38.701Z</time>
      </trkpt>
      <trkpt lat="48.3773" lon="2.78593">
        <ele>83</ele>
        <time>2023-04-11T07:49:43.246Z</time>
      </trkpt>
      <trkpt lat="48.37728" lon="2.78602">
        <ele>83</ele>
        <time>2023-04-11T07:49:47.912Z</time>
      </trkpt>
      <trkpt lat="48.37726" lon="2.78611">
        <ele>83</ele>
        <time>2023-04-11T07:49:52.100Z</time>
      </trkpt>
      <trkpt lat="48.37722" lon="2.78621">
        <ele>83</ele>
        <time>2023-04-11T07:49:56.650Z</time>
      </trkpt>
      <trkpt lat="48.37721" lon="2.7863">
        <ele>84</ele>
        <time>2023-04-11T07:50:01.314Z</time>
      </trkpt>
      <trkpt lat="48.3772" lon="2.78639">
        <ele>84</ele>
        <time>2023-04-11T07:50:05.503Z</time>
      </trkpt>
      <trkpt lat="48.37718" lon="2.78649">
        <ele>84</ele>
        <time>2023-04-11T07:50:10.168Z</time>
      </trkpt>
      <trkpt lat="48.37715" lon="2.78659">
        <ele>84</ele>
        <time>2023-04-11T07:50:14.692Z</time>
      </trkpt>
      <trkpt lat="48.37714" lon="2.78669">
        <ele>84</ele>
        <time>2023-04-11T07:50:19.316Z</time>
      </trkpt>
      <trkpt lat="48.37712" lon="2.78678">
        <ele>84</ele>
        <time>2023-04-11T07:50:23.884Z</time>
      </trkpt>
      <trkpt lat="48.3771" lon="2.78687">
        <ele>85</ele>
        <time>2023-04-11T07:50:27.710Z</time>
      </trkpt>
      <trkpt lat="48.37709" lon="2.78696">
        <ele>85</ele>
        <time>2023-04-11T07:50:32.256Z</time>
      </trkpt>
      <trkpt lat="48.37706" lon="2.78704">
        <ele>85</ele>
        <time>2023-04-11T07:50:36.923Z</time>
      </trkpt>
      <trkpt lat="48.37703" lon="2.78711">
        <ele>84</ele>
        <time>2023-04-11T07:50:40.869Z</time>
      </trkpt>
      <trkpt lat="48.37699" lon="2.78718">
        <ele>84</ele>
        <time>2023-04-11T07:50:44.934Z</time>
      </trkpt>
      <trkpt lat="48.37699" lon="2.78729">
        <ele>84</ele>
        <time>2023-04-11T07:50:49.716Z</time>
      </trkpt>
      <trkpt lat="48.37699" lon="2.78738">
        <ele>84</ele>
        <time>2023-04-11T07:50:54.260Z</time>
      </trkpt>
      <trkpt lat="48.377" lon="2.78749">
        <ele>84</ele>
        <time>2023-04-11T07:50:58.922Z</time>
      </trkpt>
      <trkpt lat="48.377" lon="2.78758">
        <ele>84</ele>
        <time>2023-04-11T07:51:03.108Z</time>
      </trkpt>
      <trkpt lat="48.37699" lon="2.78767">
        <ele>84</ele>
        <time>2023-04-11T07:51:07.296Z</time>
      </trkpt>
      <trkpt lat="48.37698" lon="2.78777">
        <ele>84</ele>
        <time>2023-04-11T07:51:11.840Z</time>
      </trkpt>
      <trkpt lat="48.37697" lon="2.78786">
        <ele>84</ele>
        <time>2023-04-11T07:51:16.483Z</time>
      </trkpt>
      <trkpt lat="48.37697" lon="2.78796">
        <ele>84</ele>
        <time>2023-04-11T07:51:21.025Z</time>
      </trkpt>
      <trkpt lat="48.37696" lon="2.78805">
        <ele>84</ele>
        <time>2023-04-11T07:51:26.047Z</time>
      </trkpt>
      <trkpt lat="48.37695" lon="2.78813">
        <ele>84</ele>
        <time>2023-04-11T07:51:30.112Z</time>
      </trkpt>
      <trkpt lat="48.37695" lon="2.78821">
        <ele>83</ele>
        <time>2023-04-11T07:51:34.416Z</time>
      </trkpt>
      <trkpt lat="48.37695" lon="2.78831">
        <ele>83</ele>
        <time>2023-04-11T07:51:39.081Z</time>
      </trkpt>
      <trkpt lat="48.37694" lon="2.78841">
        <ele>83</ele>
        <time>2023-04-11T07:51:43.316Z</time>
      </trkpt>
      <trkpt lat="48.37692" lon="2.7885">
        <ele>82</ele>
        <time>2023-04-11T07:51:47.811Z</time>
      </trkpt>
      <trkpt lat="48.3769" lon="2.78857">
        <ele>82</ele>
        <time>2023-04-11T07:51:52.236Z</time>
      </trkpt>
      <trkpt lat="48.37689" lon="2.78862">
        <ele>82</ele>
        <time>2023-04-11T07:51:56.302Z</time>
      </trkpt>
      <trkpt lat="48.3769" lon="2.78868">
        <ele>82</ele>
        <time>2023-04-11T07:52:00.312Z</time>
      </trkpt>
      <trkpt lat="48.37692" lon="2.78875">
        <ele>81</ele>
        <time>2023-04-11T07:52:04.500Z</time>
      </trkpt>
      <trkpt lat="48.37693" lon="2.78884">
        <ele>81</ele>
        <time>2023-04-11T07:52:08.685Z</time>
      </trkpt>
      <trkpt lat="48.37695" lon="2.78892">
        <ele>81</ele>
        <time>2023-04-11T07:52:12.631Z</time>
      </trkpt>
      <trkpt lat="48.37698" lon="2.78898">
        <ele>81</ele>
        <time>2023-04-11T07:52:16.697Z</time>
      </trkpt>
      <trkpt lat="48.37694" lon="2.78903">
        <ele>81</ele>
        <time>2023-04-11T07:52:21.159Z</time>
      </trkpt>
      <trkpt lat="48.3769" lon="2.78911">
        <ele>81</ele>
        <time>2023-04-11T07:52:24.712Z</time>
      </trkpt>
      <trkpt lat="48.37685" lon="2.78919">
        <ele>81</ele>
        <time>2023-04-11T07:52:29.316Z</time>
      </trkpt>
      <trkpt lat="48.3768" lon="2.78926">
        <ele>84</ele>
        <time>2023-04-11T07:52:33.919Z</time>
      </trkpt>
      <trkpt lat="48.37673" lon="2.7893">
        <ele>84</ele>
        <time>2023-04-11T07:52:38.466Z</time>
      </trkpt>
      <trkpt lat="48.37666" lon="2.78933">
        <ele>84</ele>
        <time>2023-04-11T07:52:43.131Z</time>
      </trkpt>
      <trkpt lat="48.37662" lon="2.78938">
        <ele>84</ele>
        <time>2023-04-11T07:52:47.153Z</time>
      </trkpt>
      <trkpt lat="48.37658" lon="2.78945">
        <ele>84</ele>
        <time>2023-04-11T07:52:51.264Z</time>
      </trkpt>
      <trkpt lat="48.37653" lon="2.78951">
        <ele>84</ele>
        <time>2023-04-11T07:52:55.448Z</time>
      </trkpt>
      <trkpt lat="48.37649" lon="2.78955">
        <ele>85</ele>
        <time>2023-04-11T07:53:00.115Z</time>
      </trkpt>
      <trkpt lat="48.37643" lon="2.78961">
        <ele>84</ele>
        <time>2023-04-11T07:53:04.625Z</time>
      </trkpt>
      <trkpt lat="48.37639" lon="2.78967">
        <ele>84</ele>
        <time>2023-04-11T07:53:08.732Z</time>
      </trkpt>
      <trkpt lat="48.37635" lon="2.78971">
        <ele>84</ele>
        <time>2023-04-11T07:53:12.905Z</time>
      </trkpt>
      <trkpt lat="48.37628" lon="2.78979">
        <ele>84</ele>
        <time>2023-04-11T07:53:18.137Z</time>
      </trkpt>
      <trkpt lat="48.37624" lon="2.78987">
        <ele>85</ele>
        <time>2023-04-11T07:53:22.143Z</time>
      </trkpt>
      <trkpt lat="48.37619" lon="2.78994">
        <ele>85</ele>
        <time>2023-04-11T07:53:26.306Z</time>
      </trkpt>
      <trkpt lat="48.37615" lon="2.79001">
        <ele>85</ele>
        <time>2023-04-11T07:53:30.492Z</time>
      </trkpt>
      <trkpt lat="48.37611" lon="2.79005">
        <ele>85</ele>
        <time>2023-04-11T07:53:34.443Z</time>
      </trkpt>
      <trkpt lat="48.37608" lon="2.79011">
        <ele>85</ele>
        <time>2023-04-11T07:53:38.512Z</time>
      </trkpt>
      <trkpt lat="48.37603" lon="2.79017">
        <ele>86</ele>
        <time>2023-04-11T07:53:42.579Z</time>
      </trkpt>
      <trkpt lat="48.37599" lon="2.79021">
        <ele>86</ele>
        <time>2023-04-11T07:53:46.648Z</time>
      </trkpt>
      <trkpt lat="48.37594" lon="2.79028">
        <ele>87</ele>
        <time>2023-04-11T07:53:51.224Z</time>
      </trkpt>
      <trkpt lat="48.37588" lon="2.79034">
        <ele>87</ele>
        <time>2023-04-11T07:53:55.737Z</time>
      </trkpt>
      <trkpt lat="48.37585" lon="2.79041">
        <ele>87</ele>
        <time>2023-04-11T07:54:00.501Z</time>
      </trkpt>
      <trkpt lat="48.37579" lon="2.79046">
        <ele>87</ele>
        <time>2023-04-11T07:54:04.466Z</time>
      </trkpt>
      <trkpt lat="48.37575" lon="2.79053">
        <ele>87</ele>
        <time>2023-04-11T07:54:08.652Z</time>
      </trkpt>
      <trkpt lat="48.37571" lon="2.79061">
        <ele>87</ele>
        <time>2023-04-11T07:54:12.841Z</time>
      </trkpt>
      <trkpt lat="48.37564" lon="2.79068">
        <ele>89</ele>
        <time>2023-04-11T07:54:18.103Z</time>
      </trkpt>
      <trkpt lat="48.37559" lon="2.79075">
        <ele>89</ele>
        <time>2023-04-11T07:54:23.155Z</time>
      </trkpt>
      <trkpt lat="48.37554" lon="2.79082">
        <ele>89</ele>
        <time>2023-04-11T07:54:27.314Z</time>
      </trkpt>
      <trkpt lat="48.3755" lon="2.79086">
        <ele>89</ele>
        <time>2023-04-11T07:54:31.483Z</time>
      </trkpt>
      <trkpt lat="48.37547" lon="2.79092">
        <ele>89</ele>
        <time>2023-04-11T07:54:36.045Z</time>
      </trkpt>
      <trkpt lat="48.37545" lon="2.79099">
        <ele>89</ele>
        <time>2023-04-11T07:54:39.973Z</time>
      </trkpt>
      <trkpt lat="48.37547" lon="2.79104">
        <ele>89</ele>
        <time>2023-04-11T07:54:44.636Z</time>
      </trkpt>
      <trkpt lat="48.37552" lon="2.79111">
        <ele>89</ele>
        <time>2023-04-11T07:54:49.063Z</time>
      </trkpt>
      <trkpt lat="48.37554" lon="2.79118">
        <ele>89</ele>
        <time>2023-04-11T07:54:53.406Z</time>
      </trkpt>
      <trkpt lat="48.37552" lon="2.79125">
        <ele>89</ele>
        <time>2023-04-11T07:54:57.787Z</time>
      </trkpt>
      <trkpt lat="48.37548" lon="2.7913">
        <ele>89</ele>
        <time>2023-04-11T07:55:01.734Z</time>
      </trkpt>
      <trkpt lat="48.37542" lon="2.79132">
        <ele>89</ele>
        <time>2023-04-11T07:55:06.442Z</time>
      </trkpt>
      <trkpt lat="48.37538" lon="2.7914">
        <ele>90</ele>
        <time>2023-04-11T07:55:10.462Z</time>
      </trkpt>
      <trkpt lat="48.37534" lon="2.79146">
        <ele>90</ele>
        <time>2023-04-11T07:55:14.526Z</time>
      </trkpt>
      <trkpt lat="48.37534" lon="2.79157">
        <ele>89</ele>
        <time>2023-04-11T07:55:19.134Z</time>
      </trkpt>
      <trkpt lat="48.37537" lon="2.79166">
        <ele>89</ele>
        <time>2023-04-11T07:55:22.656Z</time>
      </trkpt>
      <trkpt lat="48.37542" lon="2.79171">
        <ele>89</ele>
        <time>2023-04-11T07:55:27.678Z</time>
      </trkpt>
      <trkpt lat="48.37545" lon="2.79179">
        <ele>89</ele>
        <time>2023-04-11T07:55:31.806Z</time>
      </trkpt>
      <trkpt lat="48.37544" lon="2.79192">
        <ele>90</ele>
        <time>2023-04-11T07:55:36.282Z</time>
      </trkpt>
      <trkpt lat="48.37545" lon="2.79202">
        <ele>90</ele>
        <time>2023-04-11T07:55:40.474Z</time>
      </trkpt>
      <trkpt lat="48.37542" lon="2.7921">
        <ele>90</ele>
        <time>2023-04-11T07:55:44.659Z</time>
      </trkpt>
      <trkpt lat="48.37537" lon="2.79217">
        <ele>90</ele>
        <time>2023-04-11T07:55:49.303Z</time>
      </trkpt>
      <trkpt lat="48.37535" lon="2.79215">
        <ele>90</ele>
        <time>2023-04-11T07:55:54.049Z</time>
      </trkpt>
      <trkpt lat="48.37537" lon="2.79211">
        <ele>90</ele>
        <time>2023-04-11T07:56:15.724Z</time>
      </trkpt>
      <trkpt lat="48.37534" lon="2.79216">
        <ele>90</ele>
        <time>2023-04-11T07:56:19.904Z</time>
      </trkpt>
      <trkpt lat="48.37531" lon="2.79224">
        <ele>90</ele>
        <time>2023-04-11T07:56:24.316Z</time>
      </trkpt>
      <trkpt lat="48.37524" lon="2.7923">
        <ele>90</ele>
        <time>2023-04-11T07:56:29.001Z</time>
      </trkpt>
      <trkpt lat="48.37519" lon="2.79232">
        <ele>90</ele>
        <time>2023-04-11T07:56:33.670Z</time>
      </trkpt>
      <trkpt lat="48.37514" lon="2.79239">
        <ele>91</ele>
        <time>2023-04-11T07:56:37.858Z</time>
      </trkpt>
      <trkpt lat="48.37511" lon="2.79241">
        <ele>91</ele>
        <time>2023-04-11T07:56:42.568Z</time>
      </trkpt>
      <trkpt lat="48.37508" lon="2.79247">
        <ele>91</ele>
        <time>2023-04-11T07:56:46.710Z</time>
      </trkpt>
      <trkpt lat="48.37505" lon="2.79254">
        <ele>91</ele>
        <time>2023-04-11T07:56:51.137Z</time>
      </trkpt>
      <trkpt lat="48.37502" lon="2.79261">
        <ele>91</ele>
        <time>2023-04-11T07:56:55.206Z</time>
      </trkpt>
      <trkpt lat="48.37496" lon="2.79264">
        <ele>91</ele>
        <time>2023-04-11T07:56:59.285Z</time>
      </trkpt>
      <trkpt lat="48.37491" lon="2.79269">
        <ele>91</ele>
        <time>2023-04-11T07:57:03.601Z</time>
      </trkpt>
      <trkpt lat="48.37488" lon="2.79278">
        <ele>91</ele>
        <time>2023-04-11T07:57:07.899Z</time>
      </trkpt>
      <trkpt lat="48.37485" lon="2.79286">
        <ele>91</ele>
        <time>2023-04-11T07:57:11.834Z</time>
      </trkpt>
      <trkpt lat="48.3748" lon="2.79293">
        <ele>91</ele>
        <time>2023-04-11T07:57:15.781Z</time>
      </trkpt>
      <trkpt lat="48.37476" lon="2.793">
        <ele>91</ele>
        <time>2023-04-11T07:57:20.316Z</time>
      </trkpt>
      <trkpt lat="48.37471" lon="2.79307">
        <ele>91</ele>
        <time>2023-04-11T07:57:24.874Z</time>
      </trkpt>
      <trkpt lat="48.37466" lon="2.79313">
        <ele>91</ele>
        <time>2023-04-11T07:57:29.421Z</time>
      </trkpt>
      <trkpt lat="48.37461" lon="2.79318">
        <ele>91</ele>
        <time>2023-04-11T07:57:33.489Z</time>
      </trkpt>
      <trkpt lat="48.37457" lon="2.79322">
        <ele>92</ele>
        <time>2023-04-11T07:57:37.641Z</time>
      </trkpt>
      <trkpt lat="48.37455" lon="2.79321">
        <ele>92</ele>
        <time>2023-04-11T07:57:42.360Z</time>
      </trkpt>
      <trkpt lat="48.3745" lon="2.79314">
        <ele>93</ele>
        <time>2023-04-11T07:57:46.459Z</time>
      </trkpt>
      <trkpt lat="48.37447" lon="2.79307">
        <ele>93</ele>
        <time>2023-04-11T07:57:50.316Z</time>
      </trkpt>
      <trkpt lat="48.37442" lon="2.79301">
        <ele>93</ele>
        <time>2023-04-11T07:57:54.509Z</time>
      </trkpt>
      <trkpt lat="48.37437" lon="2.79295">
        <ele>93</ele>
        <time>2023-04-11T07:57:58.694Z</time>
      </trkpt>
      <trkpt lat="48.37434" lon="2.79289">
        <ele>92</ele>
        <time>2023-04-11T07:58:02.761Z</time>
      </trkpt>
      <trkpt lat="48.37431" lon="2.79282">
        <ele>92</ele>
        <time>2023-04-11T07:58:06.709Z</time>
      </trkpt>
      <trkpt lat="48.37428" lon="2.79275">
        <ele>94</ele>
        <time>2023-04-11T07:58:10.899Z</time>
      </trkpt>
      <trkpt lat="48.37424" lon="2.79268">
        <ele>94</ele>
        <time>2023-04-11T07:58:15.928Z</time>
      </trkpt>
      <trkpt lat="48.3742" lon="2.79263">
        <ele>93</ele>
        <time>2023-04-11T07:58:19.969Z</time>
      </trkpt>
      <trkpt lat="48.37416" lon="2.79257">
        <ele>93</ele>
        <time>2023-04-11T07:58:24.045Z</time>
      </trkpt>
      <trkpt lat="48.37412" lon="2.7925">
        <ele>93</ele>
        <time>2023-04-11T07:58:28.111Z</time>
      </trkpt>
      <trkpt lat="48.37408" lon="2.79242">
        <ele>93</ele>
        <time>2023-04-11T07:58:32.658Z</time>
      </trkpt>
      <trkpt lat="48.37405" lon="2.79235">
        <ele>93</ele>
        <time>2023-04-11T07:58:36.724Z</time>
      </trkpt>
      <trkpt lat="48.37402" lon="2.79227">
        <ele>95</ele>
        <time>2023-04-11T07:58:40.910Z</time>
      </trkpt>
      <trkpt lat="48.37398" lon="2.79219">
        <ele>95</ele>
        <time>2023-04-11T07:58:45.848Z</time>
      </trkpt>
      <trkpt lat="48.37394" lon="2.79212">
        <ele>95</ele>
        <time>2023-04-11T07:58:49.882Z</time>
      </trkpt>
      <trkpt lat="48.37389" lon="2.79204">
        <ele>95</ele>
        <time>2023-04-11T07:58:53.710Z</time>
      </trkpt>
      <trkpt lat="48.37384" lon="2.79197">
        <ele>95</ele>
        <time>2023-04-11T07:58:58.476Z</time>
      </trkpt>
      <trkpt lat="48.37381" lon="2.79189">
        <ele>95</ele>
        <time>2023-04-11T07:59:02.945Z</time>
      </trkpt>
      <trkpt lat="48.37378" lon="2.79183">
        <ele>95</ele>
        <time>2023-04-11T07:59:07.024Z</time>
      </trkpt>
      <trkpt lat="48.37374" lon="2.79176">
        <ele>95</ele>
        <time>2023-04-11T07:59:11.039Z</time>
      </trkpt>
      <trkpt lat="48.37371" lon="2.79169">
        <ele>95</ele>
        <time>2023-04-11T07:59:15.106Z</time>
      </trkpt>
      <trkpt lat="48.37367" lon="2.79168">
        <ele>95</ele>
        <time>2023-04-11T07:59:19.607Z</time>
      </trkpt>
      <trkpt lat="48.37365" lon="2.79176">
        <ele>95</ele>
        <time>2023-04-11T07:59:24.085Z</time>
      </trkpt>
      <trkpt lat="48.37361" lon="2.79181">
        <ele>94</ele>
        <time>2023-04-11T07:59:28.630Z</time>
      </trkpt>
      <trkpt lat="48.37358" lon="2.79189">
        <ele>94</ele>
        <time>2023-04-11T07:59:33.292Z</time>
      </trkpt>
      <trkpt lat="48.37354" lon="2.79197">
        <ele>94</ele>
        <time>2023-04-11T07:59:37.715Z</time>
      </trkpt>
      <trkpt lat="48.3735" lon="2.79203">
        <ele>94</ele>
        <time>2023-04-11T07:59:42.161Z</time>
      </trkpt>
      <trkpt lat="48.37345" lon="2.79209">
        <ele>93</ele>
        <time>2023-04-11T07:59:46.325Z</time>
      </trkpt>
      <trkpt lat="48.37339" lon="2.79214">
        <ele>93</ele>
        <time>2023-04-11T07:59:51.026Z</time>
      </trkpt>
      <trkpt lat="48.37335" lon="2.79222">
        <ele>93</ele>
        <time>2023-04-11T07:59:55.063Z</time>
      </trkpt>
      <trkpt lat="48.3733" lon="2.79228">
        <ele>93</ele>
        <time>2023-04-11T07:59:58.995Z</time>
      </trkpt>
      <trkpt lat="48.37326" lon="2.79236">
        <ele>93</ele>
        <time>2023-04-11T08:00:03.421Z</time>
      </trkpt>
      <trkpt lat="48.37325" lon="2.79244">
        <ele>94</ele>
        <time>2023-04-11T08:00:07.722Z</time>
      </trkpt>
      <trkpt lat="48.37319" lon="2.79248">
        <ele>94</ele>
        <time>2023-04-11T08:00:11.797Z</time>
      </trkpt>
      <trkpt lat="48.37315" lon="2.79251">
        <ele>94</ele>
        <time>2023-04-11T08:00:16.402Z</time>
      </trkpt>
      <trkpt lat="48.37309" lon="2.79255">
        <ele>94</ele>
        <time>2023-04-11T08:00:20.749Z</time>
      </trkpt>
      <trkpt lat="48.37304" lon="2.79261">
        <ele>94</ele>
        <time>2023-04-11T08:00:25.254Z</time>
      </trkpt>
      <trkpt lat="48.37301" lon="2.79269">
        <ele>94</ele>
        <time>2023-04-11T08:00:29.600Z</time>
      </trkpt>
      <trkpt lat="48.37303" lon="2.79278">
        <ele>94</ele>
        <time>2023-04-11T08:00:34.145Z</time>
      </trkpt>
      <trkpt lat="48.37306" lon="2.79285">
        <ele>94</ele>
        <time>2023-04-11T08:00:38.692Z</time>
      </trkpt>
      <trkpt lat="48.3731" lon="2.7929">
        <ele>94</ele>
        <time>2023-04-11T08:00:42.621Z</time>
      </trkpt>
      <trkpt lat="48.37314" lon="2.79298">
        <ele>93</ele>
        <time>2023-04-11T08:00:47.047Z</time>
      </trkpt>
      <trkpt lat="48.37317" lon="2.79304">
        <ele>93</ele>
        <time>2023-04-11T08:00:51.115Z</time>
      </trkpt>
      <trkpt lat="48.37321" lon="2.79312">
        <ele>94</ele>
        <time>2023-04-11T08:00:55.421Z</time>
      </trkpt>
      <trkpt lat="48.37325" lon="2.7932">
        <ele>94</ele>
        <time>2023-04-11T08:00:59.849Z</time>
      </trkpt>
      <trkpt lat="48.37329" lon="2.79327">
        <ele>94</ele>
        <time>2023-04-11T08:01:04.514Z</time>
      </trkpt>
      <trkpt lat="48.37333" lon="2.79335">
        <ele>94</ele>
        <time>2023-04-11T08:01:08.462Z</time>
      </trkpt>
      <trkpt lat="48.37336" lon="2.79341">
        <ele>94</ele>
        <time>2023-04-11T08:01:12.649Z</time>
      </trkpt>
      <trkpt lat="48.37339" lon="2.79349">
        <ele>94</ele>
        <time>2023-04-11T08:01:17.167Z</time>
      </trkpt>
      <trkpt lat="48.37343" lon="2.79355">
        <ele>94</ele>
        <time>2023-04-11T08:01:21.023Z</time>
      </trkpt>
      <trkpt lat="48.37346" lon="2.79362">
        <ele>94</ele>
        <time>2023-04-11T08:01:25.581Z</time>
      </trkpt>
      <trkpt lat="48.37349" lon="2.79371">
        <ele>94</ele>
        <time>2023-04-11T08:01:29.994Z</time>
      </trkpt>
      <trkpt lat="48.37353" lon="2.79378">
        <ele>93</ele>
        <time>2023-04-11T08:01:34.501Z</time>
      </trkpt>
      <trkpt lat="48.37357" lon="2.79384">
        <ele>93</ele>
        <time>2023-04-11T08:01:38.316Z</time>
      </trkpt>
      <trkpt lat="48.37358" lon="2.79393">
        <ele>93</ele>
        <time>2023-04-11T08:01:43.034Z</time>
      </trkpt>
      <trkpt lat="48.37358" lon="2.794">
        <ele>93</ele>
        <time>2023-04-11T08:01:47.102Z</time>
      </trkpt>
      <trkpt lat="48.37358" lon="2.79408">
        <ele>93</ele>
        <time>2023-04-11T08:01:50.969Z</time>
      </trkpt>
      <trkpt lat="48.37358" lon="2.79415">
        <ele>93</ele>
        <time>2023-04-11T08:01:55.115Z</time>
      </trkpt>
      <trkpt lat="48.37362" lon="2.79422">
        <ele>93</ele>
        <time>2023-04-11T08:01:59.285Z</time>
      </trkpt>
      <trkpt lat="48.37366" lon="2.79429">
        <ele>93</ele>
        <time>2023-04-11T08:02:03.490Z</time>
      </trkpt>
      <trkpt lat="48.37371" lon="2.79437">
        <ele>93</ele>
        <time>2023-04-11T08:02:08.273Z</time>
      </trkpt>
      <trkpt lat="48.37373" lon="2.79443">
        <ele>93</ele>
        <time>2023-04-11T08:02:12.745Z</time>
      </trkpt>
      <trkpt lat="48.37375" lon="2.79449">
        <ele>93</ele>
        <time>2023-04-11T08:02:16.872Z</time>
      </trkpt>
      <trkpt lat="48.37378" lon="2.79456">
        <ele>92</ele>
        <time>2023-04-11T08:02:21.059Z</time>
      </trkpt>
      <trkpt lat="48.37381" lon="2.79463">
        <ele>92</ele>
        <time>2023-04-11T08:02:25.169Z</time>
      </trkpt>
      <trkpt lat="48.37384" lon="2.7947">
        <ele>92</ele>
        <time>2023-04-11T08:02:29.192Z</time>
      </trkpt>
      <trkpt lat="48.37388" lon="2.79476">
        <ele>92</ele>
        <time>2023-04-11T08:02:33.259Z</time>
      </trkpt>
      <trkpt lat="48.37392" lon="2.79483">
        <ele>92</ele>
        <time>2023-04-11T08:02:37.446Z</time>
      </trkpt>
      <trkpt lat="48.37394" lon="2.79491">
        <ele>92</ele>
        <time>2023-04-11T08:02:41.634Z</time>
      </trkpt>
      <trkpt lat="48.37396" lon="2.79499">
        <ele>92</ele>
        <time>2023-04-11T08:02:45.584Z</time>
      </trkpt>
      <trkpt lat="48.37397" lon="2.79508">
        <ele>92</ele>
        <time>2023-04-11T08:02:50.251Z</time>
      </trkpt>
      <trkpt lat="48.37394" lon="2.79517">
        <ele>91</ele>
        <time>2023-04-11T08:02:58.866Z</time>
      </trkpt>
      <trkpt lat="48.37394" lon="2.79517">
        <ele>91</ele>
        <time>2023-04-11T08:03:03.565Z</time>
      </trkpt>
      <trkpt lat="48.37396" lon="2.79525">
        <ele>91</ele>
        <time>2023-04-11T08:03:07.699Z</time>
      </trkpt>
      <trkpt lat="48.37399" lon="2.79528">
        <ele>91</ele>
        <time>2023-04-11T08:03:11.664Z</time>
      </trkpt>
      <trkpt lat="48.37402" lon="2.79535">
        <ele>91</ele>
        <time>2023-04-11T08:03:16.809Z</time>
      </trkpt>
      <trkpt lat="48.37401" lon="2.79538">
        <ele>91</ele>
        <time>2023-04-11T08:03:25.063Z</time>
      </trkpt>
      <trkpt lat="48.374" lon="2.79539">
        <ele>91</ele>
        <time>2023-04-11T08:03:29.262Z</time>
      </trkpt>
      <trkpt lat="48.37401" lon="2.79541">
        <ele>91</ele>
        <time>2023-04-11T08:03:33.914Z</time>
      </trkpt>
      <trkpt lat="48.37401" lon="2.79547">
        <ele>90</ele>
        <time>2023-04-11T08:03:39.058Z</time>
      </trkpt>
      <trkpt lat="48.37404" lon="2.79552">
        <ele>90</ele>
        <time>2023-04-11T08:03:43.148Z</time>
      </trkpt>
      <trkpt lat="48.37405" lon="2.79559">
        <ele>90</ele>
        <time>2023-04-11T08:03:47.677Z</time>
      </trkpt>
      <trkpt lat="48.37408" lon="2.79566">
        <ele>90</ele>
        <time>2023-04-11T08:03:51.745Z</time>
      </trkpt>
      <trkpt lat="48.37413" lon="2.79573">
        <ele>89</ele>
        <time>2023-04-11T08:03:55.636Z</time>
      </trkpt>
      <trkpt lat="48.3742" lon="2.79573">
        <ele>89</ele>
        <time>2023-04-11T08:03:59.944Z</time>
      </trkpt>
      <trkpt lat="48.37424" lon="2.79568">
        <ele>90</ele>
        <time>2023-04-11T08:04:04.574Z</time>
      </trkpt>
      <trkpt lat="48.37428" lon="2.79563">
        <ele>90</ele>
        <time>2023-04-11T08:04:09.083Z</time>
      </trkpt>
      <trkpt lat="48.37432" lon="2.7956">
        <ele>89</ele>
        <time>2023-04-11T08:04:13.265Z</time>
      </trkpt>
      <trkpt lat="48.37436" lon="2.79553">
        <ele>89</ele>
        <time>2023-04-11T08:04:17.547Z</time>
      </trkpt>
      <trkpt lat="48.3744" lon="2.79546">
        <ele>89</ele>
        <time>2023-04-11T08:04:21.895Z</time>
      </trkpt>
      <trkpt lat="48.37441" lon="2.79539">
        <ele>90</ele>
        <time>2023-04-11T08:04:26.448Z</time>
      </trkpt>
      <trkpt lat="48.37445" lon="2.79534">
        <ele>90</ele>
        <time>2023-04-11T08:04:30.316Z</time>
      </trkpt>
      <trkpt lat="48.3745" lon="2.79527">
        <ele>90</ele>
        <time>2023-04-11T08:04:35.043Z</time>
      </trkpt>
      <trkpt lat="48.37454" lon="2.79522">
        <ele>90</ele>
        <time>2023-04-11T08:04:38.860Z</time>
      </trkpt>
      <trkpt lat="48.37459" lon="2.79519">
        <ele>89</ele>
        <time>2023-04-11T08:04:43.531Z</time>
      </trkpt>
      <trkpt lat="48.37463" lon="2.79526">
        <ele>89</ele>
        <time>2023-04-11T08:04:48.081Z</time>
      </trkpt>
      <trkpt lat="48.37466" lon="2.79534">
        <ele>89</ele>
        <time>2023-04-11T08:04:52.208Z</time>
      </trkpt>
      <trkpt lat="48.37467" lon="2.79542">
        <ele>89</ele>
        <time>2023-04-11T08:04:56.583Z</time>
      </trkpt>
      <trkpt lat="48.37474" lon="2.79549">
        <ele>89</ele>
        <time>2023-04-11T08:05:01.253Z</time>
      </trkpt>
      <trkpt lat="48.37475" lon="2.79558">
        <ele>89</ele>
        <time>2023-04-11T08:05:05.824Z</time>
      </trkpt>
      <trkpt lat="48.37474" lon="2.79566">
        <ele>89</ele>
        <time>2023-04-11T08:05:10.316Z</time>
      </trkpt>
      <trkpt lat="48.37474" lon="2.79575">
        <ele>89</ele>
        <time>2023-04-11T08:05:14.651Z</time>
      </trkpt>
      <trkpt lat="48.37475" lon="2.79581">
        <ele>89</ele>
        <time>2023-04-11T08:05:18.723Z</time>
      </trkpt>
      <trkpt lat="48.37476" lon="2.79589">
        <ele>89</ele>
        <time>2023-04-11T08:05:23.752Z</time>
      </trkpt>
      <trkpt lat="48.37476" lon="2.79595">
        <ele>89</ele>
        <time>2023-04-11T08:05:28.181Z</time>
      </trkpt>
      <trkpt lat="48.37473" lon="2.796">
        <ele>88</ele>
        <time>2023-04-11T08:05:32.248Z</time>
      </trkpt>
      <trkpt lat="48.37471" lon="2.79607">
        <ele>88</ele>
        <time>2023-04-11T08:05:36.919Z</time>
      </trkpt>
      <trkpt lat="48.37469" lon="2.79614">
        <ele>88</ele>
        <time>2023-04-11T08:05:41.699Z</time>
      </trkpt>
      <trkpt lat="48.37462" lon="2.79621">
        <ele>88</ele>
        <time>2023-04-11T08:05:45.768Z</time>
      </trkpt>
      <trkpt lat="48.37457" lon="2.79631">
        <ele>86</ele>
        <time>2023-04-11T08:05:50.294Z</time>
      </trkpt>
      <trkpt lat="48.37454" lon="2.79639">
        <ele>86</ele>
        <time>2023-04-11T08:05:54.470Z</time>
      </trkpt>
      <trkpt lat="48.3745" lon="2.79646">
        <ele>86</ele>
        <time>2023-04-11T08:05:58.979Z</time>
      </trkpt>
      <trkpt lat="48.37447" lon="2.79653">
        <ele>86</ele>
        <time>2023-04-11T08:06:03.068Z</time>
      </trkpt>
      <trkpt lat="48.37443" lon="2.7966">
        <ele>86</ele>
        <time>2023-04-11T08:06:07.166Z</time>
      </trkpt>
      <trkpt lat="48.37441" lon="2.7967">
        <ele>86</ele>
        <time>2023-04-11T08:06:11.685Z</time>
      </trkpt>
      <trkpt lat="48.37438" lon="2.79675">
        <ele>86</ele>
        <time>2023-04-11T08:06:15.874Z</time>
      </trkpt>
      <trkpt lat="48.37435" lon="2.79682">
        <ele>85</ele>
        <time>2023-04-11T08:06:19.824Z</time>
      </trkpt>
      <trkpt lat="48.37438" lon="2.79688">
        <ele>85</ele>
        <time>2023-04-11T08:06:24.494Z</time>
      </trkpt>
      <trkpt lat="48.37443" lon="2.79695">
        <ele>85</ele>
        <time>2023-04-11T08:06:29.040Z</time>
      </trkpt>
      <trkpt lat="48.37446" lon="2.79701">
        <ele>85</ele>
        <time>2023-04-11T08:06:33.108Z</time>
      </trkpt>
      <trkpt lat="48.37451" lon="2.79708">
        <ele>85</ele>
        <time>2023-04-11T08:06:37.656Z</time>
      </trkpt>
      <trkpt lat="48.37454" lon="2.79716">
        <ele>85</ele>
        <time>2023-04-11T08:06:41.724Z</time>
      </trkpt>
      <trkpt lat="48.37459" lon="2.79723">
        <ele>85</ele>
        <time>2023-04-11T08:06:46.869Z</time>
      </trkpt>
      <trkpt lat="48.37464" lon="2.7973">
        <ele>85</ele>
        <time>2023-04-11T08:06:51.636Z</time>
      </trkpt>
      <trkpt lat="48.37468" lon="2.79736">
        <ele>85</ele>
        <time>2023-04-11T08:06:55.686Z</time>
      </trkpt>
      <trkpt lat="48.37473" lon="2.79742">
        <ele>84</ele>
        <time>2023-04-11T08:07:00.086Z</time>
      </trkpt>
      <trkpt lat="48.37476" lon="2.79747">
        <ele>84</ele>
        <time>2023-04-11T08:07:03.942Z</time>
      </trkpt>
      <trkpt lat="48.37481" lon="2.79753">
        <ele>84</ele>
        <time>2023-04-11T08:07:08.708Z</time>
      </trkpt>
      <trkpt lat="48.37486" lon="2.79759">
        <ele>84</ele>
        <time>2023-04-11T08:07:13.136Z</time>
      </trkpt>
      <trkpt lat="48.37491" lon="2.79766">
        <ele>82</ele>
        <time>2023-04-11T08:07:17.316Z</time>
      </trkpt>
      <trkpt lat="48.37495" lon="2.79771">
        <ele>82</ele>
        <time>2023-04-11T08:07:21.511Z</time>
      </trkpt>
      <trkpt lat="48.375" lon="2.79779">
        <ele>82</ele>
        <time>2023-04-11T08:07:25.937Z</time>
      </trkpt>
      <trkpt lat="48.37504" lon="2.79784">
        <ele>82</ele>
        <time>2023-04-11T08:07:30.005Z</time>
      </trkpt>
      <trkpt lat="48.37509" lon="2.79791">
        <ele>82</ele>
        <time>2023-04-11T08:07:34.465Z</time>
      </trkpt>
      <trkpt lat="48.37512" lon="2.79797">
        <ele>81</ele>
        <time>2023-04-11T08:07:38.481Z</time>
      </trkpt>
      <trkpt lat="48.37516" lon="2.79802">
        <ele>80</ele>
        <time>2023-04-11T08:07:42.445Z</time>
      </trkpt>
      <trkpt lat="48.37521" lon="2.79809">
        <ele>80</ele>
        <time>2023-04-11T08:07:46.512Z</time>
      </trkpt>
      <trkpt lat="48.37526" lon="2.79814">
        <ele>80</ele>
        <time>2023-04-11T08:07:50.460Z</time>
      </trkpt>
      <trkpt lat="48.3753" lon="2.7982">
        <ele>79</ele>
        <time>2023-04-11T08:07:54.886Z</time>
      </trkpt>
      <trkpt lat="48.37535" lon="2.79826">
        <ele>79</ele>
        <time>2023-04-11T08:07:59.437Z</time>
      </trkpt>
      <trkpt lat="48.37539" lon="2.79832">
        <ele>79</ele>
        <time>2023-04-11T08:08:03.267Z</time>
      </trkpt>
      <trkpt lat="48.37543" lon="2.79838">
        <ele>78</ele>
        <time>2023-04-11T08:08:07.457Z</time>
      </trkpt>
      <trkpt lat="48.37547" lon="2.79839">
        <ele>78</ele>
        <time>2023-04-11T08:08:11.528Z</time>
      </trkpt>
      <trkpt lat="48.37549" lon="2.79828">
        <ele>78</ele>
        <time>2023-04-11T08:08:15.719Z</time>
      </trkpt>
      <trkpt lat="48.37552" lon="2.7982">
        <ele>78</ele>
        <time>2023-04-11T08:08:20.270Z</time>
      </trkpt>
      <trkpt lat="48.37556" lon="2.79816">
        <ele>80</ele>
        <time>2023-04-11T08:08:24.462Z</time>
      </trkpt>
      <trkpt lat="48.37559" lon="2.79807">
        <ele>80</ele>
        <time>2023-04-11T08:08:29.334Z</time>
      </trkpt>
      <trkpt lat="48.37562" lon="2.79798">
        <ele>80</ele>
        <time>2023-04-11T08:08:34.005Z</time>
      </trkpt>
      <trkpt lat="48.37566" lon="2.7979">
        <ele>81</ele>
        <time>2023-04-11T08:08:38.297Z</time>
      </trkpt>
      <trkpt lat="48.37571" lon="2.79783">
        <ele>81</ele>
        <time>2023-04-11T08:08:43.089Z</time>
      </trkpt>
      <trkpt lat="48.37571" lon="2.79782">
        <ele>81</ele>
        <time>2023-04-11T08:08:47.281Z</time>
      </trkpt>
      <trkpt lat="48.37567" lon="2.79777">
        <ele>81</ele>
        <time>2023-04-11T08:08:51.446Z</time>
      </trkpt>
      <trkpt lat="48.37563" lon="2.79771">
        <ele>81</ele>
        <time>2023-04-11T08:08:55.656Z</time>
      </trkpt>
      <trkpt lat="48.37559" lon="2.79764">
        <ele>81</ele>
        <time>2023-04-11T08:09:00.243Z</time>
      </trkpt>
      <trkpt lat="48.37561" lon="2.7976">
        <ele>82</ele>
        <time>2023-04-11T08:09:04.738Z</time>
      </trkpt>
      <trkpt lat="48.37558" lon="2.79753">
        <ele>82</ele>
        <time>2023-04-11T08:09:09.316Z</time>
      </trkpt>
      <trkpt lat="48.37554" lon="2.79745">
        <ele>82</ele>
        <time>2023-04-11T08:09:14.080Z</time>
      </trkpt>
      <trkpt lat="48.37551" lon="2.79739">
        <ele>82</ele>
        <time>2023-04-11T08:09:18.030Z</time>
      </trkpt>
      <trkpt lat="48.37548" lon="2.79732">
        <ele>84</ele>
        <time>2023-04-11T08:09:22.100Z</time>
      </trkpt>
      <trkpt lat="48.37543" lon="2.79725">
        <ele>84</ele>
        <time>2023-04-11T08:09:26.712Z</time>
      </trkpt>
      <trkpt lat="48.37538" lon="2.79718">
        <ele>84</ele>
        <time>2023-04-11T08:09:31.822Z</time>
      </trkpt>
      <trkpt lat="48.37534" lon="2.79712">
        <ele>84</ele>
        <time>2023-04-11T08:09:35.926Z</time>
      </trkpt>
      <trkpt lat="48.3753" lon="2.79704">
        <ele>85</ele>
        <time>2023-04-11T08:09:40.713Z</time>
      </trkpt>
      <trkpt lat="48.37525" lon="2.79698">
        <ele>85</ele>
        <time>2023-04-11T08:09:45.240Z</time>
      </trkpt>
      <trkpt lat="48.37521" lon="2.79693">
        <ele>85</ele>
        <time>2023-04-11T08:09:49.909Z</time>
      </trkpt>
      <trkpt lat="48.37517" lon="2.79687">
        <ele>85</ele>
        <time>2023-04-11T08:09:54.128Z</time>
      </trkpt>
      <trkpt lat="48.37512" lon="2.79682">
        <ele>86</ele>
        <time>2023-04-11T08:09:58.152Z</time>
      </trkpt>
      <trkpt lat="48.37508" lon="2.79675">
        <ele>87</ele>
        <time>2023-04-11T08:10:02.316Z</time>
      </trkpt>
      <trkpt lat="48.37503" lon="2.79668">
        <ele>87</ele>
        <time>2023-04-11T08:10:06.267Z</time>
      </trkpt>
      <trkpt lat="48.37497" lon="2.7966">
        <ele>87</ele>
        <time>2023-04-11T08:10:10.819Z</time>
      </trkpt>
      <trkpt lat="48.37493" lon="2.79654">
        <ele>87</ele>
        <time>2023-04-11T08:10:14.886Z</time>
      </trkpt>
      <trkpt lat="48.37488" lon="2.79647">
        <ele>88</ele>
        <time>2023-04-11T08:10:19.406Z</time>
      </trkpt>
      <trkpt lat="48.37485" lon="2.79641">
        <ele>87</ele>
        <time>2023-04-11T08:10:23.486Z</time>
      </trkpt>
      <trkpt lat="48.37486" lon="2.79635">
        <ele>87</ele>
        <time>2023-04-11T08:10:27.687Z</time>
      </trkpt>
      <trkpt lat="48.37489" lon="2.79629">
        <ele>88</ele>
        <time>2023-04-11T08:10:31.644Z</time>
      </trkpt>
      <trkpt lat="48.37492" lon="2.79624">
        <ele>89</ele>
        <time>2023-04-11T08:10:36.304Z</time>
      </trkpt>
      <trkpt lat="48.37496" lon="2.79621">
        <ele>89</ele>
        <time>2023-04-11T08:10:40.744Z</time>
      </trkpt>
      <trkpt lat="48.375" lon="2.79613">
        <ele>89</ele>
        <time>2023-04-11T08:10:44.967Z</time>
      </trkpt>
      <trkpt lat="48.37503" lon="2.79605">
        <ele>89</ele>
        <time>2023-04-11T08:10:49.053Z</time>
      </trkpt>
      <trkpt lat="48.37505" lon="2.79598">
        <ele>89</ele>
        <time>2023-04-11T08:10:53.423Z</time>
      </trkpt>
      <trkpt lat="48.37509" lon="2.79591">
        <ele>89</ele>
        <time>2023-04-11T08:10:57.429Z</time>
      </trkpt>
      <trkpt lat="48.37515" lon="2.79582">
        <ele>90</ele>
        <time>2023-04-11T08:11:02.095Z</time>
      </trkpt>
      <trkpt lat="48.3752" lon="2.79574">
        <ele>90</ele>
        <time>2023-04-11T08:11:06.641Z</time>
      </trkpt>
      <trkpt lat="48.37525" lon="2.79568">
        <ele>90</ele>
        <time>2023-04-11T08:11:10.710Z</time>
      </trkpt>
      <trkpt lat="48.3753" lon="2.79561">
        <ele>90</ele>
        <time>2023-04-11T08:11:15.228Z</time>
      </trkpt>
      <trkpt lat="48.37536" lon="2.79554">
        <ele>90</ele>
        <time>2023-04-11T08:11:19.427Z</time>
      </trkpt>
      <trkpt lat="48.37542" lon="2.7955">
        <ele>91</ele>
        <time>2023-04-11T08:11:23.484Z</time>
      </trkpt>
      <trkpt lat="48.37548" lon="2.79543">
        <ele>91</ele>
        <time>2023-04-11T08:11:28.276Z</time>
      </trkpt>
      <trkpt lat="48.37552" lon="2.79532">
        <ele>92</ele>
        <time>2023-04-11T08:11:32.828Z</time>
      </trkpt>
      <trkpt lat="48.37557" lon="2.79524">
        <ele>92</ele>
        <time>2023-04-11T08:11:38.082Z</time>
      </trkpt>
      <trkpt lat="48.3756" lon="2.79518">
        <ele>92</ele>
        <time>2023-04-11T08:11:41.697Z</time>
      </trkpt>
      <trkpt lat="48.37564" lon="2.79511">
        <ele>91</ele>
        <time>2023-04-11T08:11:45.891Z</time>
      </trkpt>
      <trkpt lat="48.37568" lon="2.79504">
        <ele>91</ele>
        <time>2023-04-11T08:11:50.563Z</time>
      </trkpt>
      <trkpt lat="48.37572" lon="2.79498">
        <ele>91</ele>
        <time>2023-04-11T08:11:54.516Z</time>
      </trkpt>
      <trkpt lat="48.37576" lon="2.79491">
        <ele>91</ele>
        <time>2023-04-11T08:11:58.620Z</time>
      </trkpt>
      <trkpt lat="48.3758" lon="2.79485">
        <ele>91</ele>
        <time>2023-04-11T08:12:03.101Z</time>
      </trkpt>
      <trkpt lat="48.37582" lon="2.79487">
        <ele>91</ele>
        <time>2023-04-11T08:12:07.893Z</time>
      </trkpt>
      <trkpt lat="48.37582" lon="2.79486">
        <ele>91</ele>
        <time>2023-04-11T08:12:12.026Z</time>
      </trkpt>
      <trkpt lat="48.37582" lon="2.79486">
        <ele>91</ele>
        <time>2023-04-11T08:12:16.697Z</time>
      </trkpt>
      <trkpt lat="48.37586" lon="2.79482">
        <ele>91</ele>
        <time>2023-04-11T08:12:21.251Z</time>
      </trkpt>
      <trkpt lat="48.3759" lon="2.79474">
        <ele>91</ele>
        <time>2023-04-11T08:12:25.824Z</time>
      </trkpt>
      <trkpt lat="48.37594" lon="2.79465">
        <ele>91</ele>
        <time>2023-04-11T08:12:29.876Z</time>
      </trkpt>
      <trkpt lat="48.37598" lon="2.79459">
        <ele>90</ele>
        <time>2023-04-11T08:12:33.829Z</time>
      </trkpt>
      <trkpt lat="48.37602" lon="2.79451">
        <ele>89</ele>
        <time>2023-04-11T08:12:38.442Z</time>
      </trkpt>
      <trkpt lat="48.37605" lon="2.79444">
        <ele>89</ele>
        <time>2023-04-11T08:12:42.702Z</time>
      </trkpt>
      <trkpt lat="48.37609" lon="2.79437">
        <ele>89</ele>
        <time>2023-04-11T08:12:46.642Z</time>
      </trkpt>
      <trkpt lat="48.37613" lon="2.7944">
        <ele>89</ele>
        <time>2023-04-11T08:12:51.243Z</time>
      </trkpt>
      <trkpt lat="48.37618" lon="2.79449">
        <ele>89</ele>
        <time>2023-04-11T08:12:56.156Z</time>
      </trkpt>
      <trkpt lat="48.37622" lon="2.79451">
        <ele>89</ele>
        <time>2023-04-11T08:13:00.291Z</time>
      </trkpt>
      <trkpt lat="48.37626" lon="2.79449">
        <ele>89</ele>
        <time>2023-04-11T08:13:04.306Z</time>
      </trkpt>
      <trkpt lat="48.37631" lon="2.79446">
        <ele>89</ele>
        <time>2023-04-11T08:13:08.736Z</time>
      </trkpt>
      <trkpt lat="48.37636" lon="2.79439">
        <ele>89</ele>
        <time>2023-04-11T08:13:13.524Z</time>
      </trkpt>
      <trkpt lat="48.37641" lon="2.79431">
        <ele>89</ele>
        <time>2023-04-11T08:13:18.245Z</time>
      </trkpt>
      <trkpt lat="48.37645" lon="2.79425">
        <ele>89</ele>
        <time>2023-04-11T08:13:22.266Z</time>
      </trkpt>
      <trkpt lat="48.37648" lon="2.79419">
        <ele>89</ele>
        <time>2023-04-11T08:13:27.098Z</time>
      </trkpt>
      <trkpt lat="48.3765" lon="2.79413">
        <ele>89</ele>
        <time>2023-04-11T08:13:31.183Z</time>
      </trkpt>
      <trkpt lat="48.37653" lon="2.79408">
        <ele>89</ele>
        <time>2023-04-11T08:13:35.656Z</time>
      </trkpt>
      <trkpt lat="48.37659" lon="2.7941">
        <ele>88</ele>
        <time>2023-04-11T08:13:40.265Z</time>
      </trkpt>
      <trkpt lat="48.37664" lon="2.79414">
        <ele>88</ele>
        <time>2023-04-11T08:13:44.274Z</time>
      </trkpt>
      <trkpt lat="48.3767" lon="2.79419">
        <ele>88</ele>
        <time>2023-04-11T08:13:48.464Z</time>
      </trkpt>
      <trkpt lat="48.37676" lon="2.79423">
        <ele>88</ele>
        <time>2023-04-11T08:13:52.654Z</time>
      </trkpt>
      <trkpt lat="48.37681" lon="2.79429">
        <ele>86</ele>
        <time>2023-04-11T08:13:56.724Z</time>
      </trkpt>
      <trkpt lat="48.37687" lon="2.79432">
        <ele>85</ele>
        <time>2023-04-11T08:14:01.254Z</time>
      </trkpt>
      <trkpt lat="48.37692" lon="2.79435">
        <ele>85</ele>
        <time>2023-04-11T08:14:05.920Z</time>
      </trkpt>
      <trkpt lat="48.37695" lon="2.79437">
        <ele>85</ele>
        <time>2023-04-11T08:14:10.110Z</time>
      </trkpt>
      <trkpt lat="48.37701" lon="2.7944">
        <ele>85</ele>
        <time>2023-04-11T08:14:14.740Z</time>
      </trkpt>
      <trkpt lat="48.37702" lon="2.79441">
        <ele>85</ele>
        <time>2023-04-11T08:14:19.274Z</time>
      </trkpt>
      <trkpt lat="48.37702" lon="2.79449">
        <ele>85</ele>
        <time>2023-04-11T08:14:23.922Z</time>
      </trkpt>
      <trkpt lat="48.37702" lon="2.79462">
        <ele>85</ele>
        <time>2023-04-11T08:14:28.345Z</time>
      </trkpt>
      <trkpt lat="48.37704" lon="2.79472">
        <ele>85</ele>
        <time>2023-04-11T08:14:32.419Z</time>
      </trkpt>
      <trkpt lat="48.37708" lon="2.79477">
        <ele>85</ele>
        <time>2023-04-11T08:14:36.847Z</time>
      </trkpt>
      <trkpt lat="48.37712" lon="2.79475">
        <ele>84</ele>
        <time>2023-04-11T08:14:41.395Z</time>
      </trkpt>
      <trkpt lat="48.37716" lon="2.79472">
        <ele>84</ele>
        <time>2023-04-11T08:14:45.823Z</time>
      </trkpt>
      <trkpt lat="48.37718" lon="2.79466">
        <ele>84</ele>
        <time>2023-04-11T08:14:50.316Z</time>
      </trkpt>
      <trkpt lat="48.37722" lon="2.79465">
        <ele>84</ele>
        <time>2023-04-11T08:14:54.441Z</time>
      </trkpt>
      <trkpt lat="48.37728" lon="2.79469">
        <ele>84</ele>
        <time>2023-04-11T08:14:59.108Z</time>
      </trkpt>
      <trkpt lat="48.37734" lon="2.79474">
        <ele>84</ele>
        <time>2023-04-11T08:15:03.655Z</time>
      </trkpt>
      <trkpt lat="48.3774" lon="2.79478">
        <ele>84</ele>
        <time>2023-04-11T08:15:07.724Z</time>
      </trkpt>
      <trkpt lat="48.37746" lon="2.79481">
        <ele>84</ele>
        <time>2023-04-11T08:15:12.270Z</time>
      </trkpt>
      <trkpt lat="48.37751" lon="2.79485">
        <ele>84</ele>
        <time>2023-04-11T08:15:16.459Z</time>
      </trkpt>
      <trkpt lat="48.37756" lon="2.7949">
        <ele>84</ele>
        <time>2023-04-11T08:15:20.528Z</time>
      </trkpt>
      <trkpt lat="48.37761" lon="2.79496">
        <ele>84</ele>
        <time>2023-04-11T08:15:24.580Z</time>
      </trkpt>
      <trkpt lat="48.37767" lon="2.79499">
        <ele>83</ele>
        <time>2023-04-11T08:15:29.122Z</time>
      </trkpt>
      <trkpt lat="48.37773" lon="2.79503">
        <ele>83</ele>
        <time>2023-04-11T08:15:32.863Z</time>
      </trkpt>
      <trkpt lat="48.37775" lon="2.79511">
        <ele>83</ele>
        <time>2023-04-11T08:15:37.867Z</time>
      </trkpt>
      <trkpt lat="48.37779" lon="2.79519">
        <ele>82</ele>
        <time>2023-04-11T08:15:41.880Z</time>
      </trkpt>
      <trkpt lat="48.37785" lon="2.79523">
        <ele>82</ele>
        <time>2023-04-11T08:15:46.581Z</time>
      </trkpt>
      <trkpt lat="48.37791" lon="2.79528">
        <ele>82</ele>
        <time>2023-04-11T08:15:50.418Z</time>
      </trkpt>
      <trkpt lat="48.37797" lon="2.79533">
        <ele>80</ele>
        <time>2023-04-11T08:15:54.970Z</time>
      </trkpt>
      <trkpt lat="48.37801" lon="2.79538">
        <ele>80</ele>
        <time>2023-04-11T08:15:59.042Z</time>
      </trkpt>
      <trkpt lat="48.37804" lon="2.79544">
        <ele>79</ele>
        <time>2023-04-11T08:16:03.215Z</time>
      </trkpt>
      <trkpt lat="48.3781" lon="2.79548">
        <ele>79</ele>
        <time>2023-04-11T08:16:07.730Z</time>
      </trkpt>
      <trkpt lat="48.37815" lon="2.79554">
        <ele>79</ele>
        <time>2023-04-11T08:16:12.880Z</time>
      </trkpt>
      <trkpt lat="48.3782" lon="2.79558">
        <ele>76</ele>
        <time>2023-04-11T08:16:17.072Z</time>
      </trkpt>
      <trkpt lat="48.37825" lon="2.79567">
        <ele>76</ele>
        <time>2023-04-11T08:16:21.528Z</time>
      </trkpt>
      <trkpt lat="48.37829" lon="2.79572">
        <ele>76</ele>
        <time>2023-04-11T08:16:25.679Z</time>
      </trkpt>
      <trkpt lat="48.37832" lon="2.79578">
        <ele>76</ele>
        <time>2023-04-11T08:16:29.649Z</time>
      </trkpt>
      <trkpt lat="48.37836" lon="2.79585">
        <ele>76</ele>
        <time>2023-04-11T08:16:33.599Z</time>
      </trkpt>
      <trkpt lat="48.37839" lon="2.79593">
        <ele>76</ele>
        <time>2023-04-11T08:16:38.148Z</time>
      </trkpt>
      <trkpt lat="48.37844" lon="2.796">
        <ele>76</ele>
        <time>2023-04-11T08:16:42.698Z</time>
      </trkpt>
      <trkpt lat="48.37848" lon="2.79605">
        <ele>77</ele>
        <time>2023-04-11T08:16:46.889Z</time>
      </trkpt>
      <trkpt lat="48.37854" lon="2.79612">
        <ele>77</ele>
        <time>2023-04-11T08:16:51.999Z</time>
      </trkpt>
      <trkpt lat="48.37858" lon="2.79617">
        <ele>77</ele>
        <time>2023-04-11T08:16:56.061Z</time>
      </trkpt>
      <trkpt lat="48.37862" lon="2.79623">
        <ele>77</ele>
        <time>2023-04-11T08:17:00.039Z</time>
      </trkpt>
      <trkpt lat="48.37866" lon="2.7963">
        <ele>77</ele>
        <time>2023-04-11T08:17:04.467Z</time>
      </trkpt>
      <trkpt lat="48.3787" lon="2.79637">
        <ele>77</ele>
        <time>2023-04-11T08:17:08.897Z</time>
      </trkpt>
      <trkpt lat="48.37875" lon="2.79644">
        <ele>77</ele>
        <time>2023-04-11T08:17:13.525Z</time>
      </trkpt>
      <trkpt lat="48.37879" lon="2.7965">
        <ele>75</ele>
        <time>2023-04-11T08:17:17.596Z</time>
      </trkpt>
      <trkpt lat="48.37884" lon="2.79655">
        <ele>74</ele>
        <time>2023-04-11T08:17:22.263Z</time>
      </trkpt>
      <trkpt lat="48.37889" lon="2.79661">
        <ele>74</ele>
        <time>2023-04-11T08:17:27.050Z</time>
      </trkpt>
      <trkpt lat="48.37893" lon="2.79667">
        <ele>74</ele>
        <time>2023-04-11T08:17:31.117Z</time>
      </trkpt>
      <trkpt lat="48.37898" lon="2.79672">
        <ele>74</ele>
        <time>2023-04-11T08:17:35.885Z</time>
      </trkpt>
      <trkpt lat="48.37903" lon="2.79677">
        <ele>74</ele>
        <time>2023-04-11T08:17:39.973Z</time>
      </trkpt>
      <trkpt lat="48.37909" lon="2.79683">
        <ele>71</ele>
        <time>2023-04-11T08:17:44.579Z</time>
      </trkpt>
      <trkpt lat="48.37915" lon="2.79688">
        <ele>71</ele>
        <time>2023-04-11T08:17:49.128Z</time>
      </trkpt>
      <trkpt lat="48.3792" lon="2.79694">
        <ele>71</ele>
        <time>2023-04-11T08:17:53.316Z</time>
      </trkpt>
      <trkpt lat="48.37924" lon="2.79697">
        <ele>71</ele>
        <time>2023-04-11T08:17:57.281Z</time>
      </trkpt>
      <trkpt lat="48.37929" lon="2.79701">
        <ele>71</ele>
        <time>2023-04-11T08:18:01.835Z</time>
      </trkpt>
      <trkpt lat="48.37935" lon="2.79705">
        <ele>70</ele>
        <time>2023-04-11T08:18:06.505Z</time>
      </trkpt>
      <trkpt lat="48.3794" lon="2.79706">
        <ele>70</ele>
        <time>2023-04-11T08:18:10.576Z</time>
      </trkpt>
      <trkpt lat="48.37944" lon="2.79708">
        <ele>70</ele>
        <time>2023-04-11T08:18:15.148Z</time>
      </trkpt>
      <trkpt lat="48.37947" lon="2.79716">
        <ele>70</ele>
        <time>2023-04-11T08:18:19.074Z</time>
      </trkpt>
      <trkpt lat="48.37949" lon="2.79722">
        <ele>70</ele>
        <time>2023-04-11T08:18:22.667Z</time>
      </trkpt>
      <trkpt lat="48.37953" lon="2.79728">
        <ele>70</ele>
        <time>2023-04-11T08:18:27.316Z</time>
      </trkpt>
      <trkpt lat="48.37956" lon="2.79733">
        <ele>70</ele>
        <time>2023-04-11T08:18:31.287Z</time>
      </trkpt>
      <trkpt lat="48.37959" lon="2.79736">
        <ele>72</ele>
        <time>2023-04-11T08:18:35.477Z</time>
      </trkpt>
      <trkpt lat="48.37963" lon="2.79742">
        <ele>72</ele>
        <time>2023-04-11T08:18:40.061Z</time>
      </trkpt>
      <trkpt lat="48.37965" lon="2.79751">
        <ele>72</ele>
        <time>2023-04-11T08:18:44.038Z</time>
      </trkpt>
      <trkpt lat="48.37969" lon="2.79759">
        <ele>72</ele>
        <time>2023-04-11T08:18:48.569Z</time>
      </trkpt>
      <trkpt lat="48.37974" lon="2.79764">
        <ele>71</ele>
        <time>2023-04-11T08:18:52.534Z</time>
      </trkpt>
      <trkpt lat="48.37979" lon="2.7977">
        <ele>71</ele>
        <time>2023-04-11T08:18:56.713Z</time>
      </trkpt>
      <trkpt lat="48.37983" lon="2.79776">
        <ele>71</ele>
        <time>2023-04-11T08:19:00.423Z</time>
      </trkpt>
      <trkpt lat="48.37987" lon="2.79781">
        <ele>67</ele>
        <time>2023-04-11T08:19:05.089Z</time>
      </trkpt>
      <trkpt lat="48.37989" lon="2.79785">
        <ele>67</ele>
        <time>2023-04-11T08:19:09.277Z</time>
      </trkpt>
      <trkpt lat="48.37991" lon="2.79793">
        <ele>62</ele>
        <time>2023-04-11T08:19:13.826Z</time>
      </trkpt>
      <trkpt lat="48.37993" lon="2.798">
        <ele>62</ele>
        <time>2023-04-11T08:19:18.439Z</time>
      </trkpt>
      <trkpt lat="48.37998" lon="2.79799">
        <ele>62</ele>
        <time>2023-04-11T08:19:22.906Z</time>
      </trkpt>
      <trkpt lat="48.38002" lon="2.798">
        <ele>62</ele>
        <time>2023-04-11T08:19:26.685Z</time>
      </trkpt>
      <trkpt lat="48.38006" lon="2.79802">
        <ele>62</ele>
        <time>2023-04-11T08:19:31.195Z</time>
      </trkpt>
      <trkpt lat="48.38009" lon="2.79804">
        <ele>62</ele>
        <time>2023-04-11T08:19:35.300Z</time>
      </trkpt>
      <trkpt lat="48.38013" lon="2.79804">
        <ele>62</ele>
        <time>2023-04-11T08:19:39.804Z</time>
      </trkpt>
      <trkpt lat="48.38017" lon="2.79803">
        <ele>57</ele>
        <time>2023-04-11T08:19:43.809Z</time>
      </trkpt>
      <trkpt lat="48.38022" lon="2.79799">
        <ele>57</ele>
        <time>2023-04-11T08:19:47.913Z</time>
      </trkpt>
      <trkpt lat="48.38025" lon="2.79798">
        <ele>57</ele>
        <time>2023-04-11T08:19:52.918Z</time>
      </trkpt>
      <trkpt lat="48.38028" lon="2.79794">
        <ele>57</ele>
        <time>2023-04-11T08:19:57.427Z</time>
      </trkpt>
      <trkpt lat="48.38031" lon="2.79792">
        <ele>57</ele>
        <time>2023-04-11T08:20:01.631Z</time>
      </trkpt>
      <trkpt lat="48.38036" lon="2.79793">
        <ele>57</ele>
        <time>2023-04-11T08:20:06.127Z</time>
      </trkpt>
      <trkpt lat="48.3804" lon="2.79798">
        <ele>57</ele>
        <time>2023-04-11T08:20:10.082Z</time>
      </trkpt>
      <trkpt lat="48.38048" lon="2.79805">
        <ele>54</ele>
        <time>2023-04-11T08:20:14.458Z</time>
      </trkpt>
      <trkpt lat="48.38053" lon="2.79808">
        <ele>54</ele>
        <time>2023-04-11T08:20:18.834Z</time>
      </trkpt>
      <trkpt lat="48.38057" lon="2.79811">
        <ele>54</ele>
        <time>2023-04-11T08:20:23.030Z</time>
      </trkpt>
      <trkpt lat="48.38062" lon="2.7982">
        <ele>53</ele>
        <time>2023-04-11T08:20:27.545Z</time>
      </trkpt>
      <trkpt lat="48.38065" lon="2.79828">
        <ele>53</ele>
        <time>2023-04-11T08:20:32.099Z</time>
      </trkpt>
      <trkpt lat="48.38067" lon="2.79836">
        <ele>53</ele>
        <time>2023-04-11T08:20:36.052Z</time>
      </trkpt>
      <trkpt lat="48.38071" lon="2.79842">
        <ele>51</ele>
        <time>2023-04-11T08:20:40.326Z</time>
      </trkpt>
      <trkpt lat="48.38075" lon="2.79848">
        <ele>49</ele>
        <time>2023-04-11T08:20:44.316Z</time>
      </trkpt>
      <trkpt lat="48.38078" lon="2.79853">
        <ele>49</ele>
        <time>2023-04-11T08:20:48.508Z</time>
      </trkpt>
      <trkpt lat="48.38082" lon="2.7986">
        <ele>49</ele>
        <time>2023-04-11T08:20:52.701Z</time>
      </trkpt>
      <trkpt lat="48.38086" lon="2.79868">
        <ele>49</ele>
        <time>2023-04-11T08:20:57.450Z</time>
      </trkpt>
      <trkpt lat="48.38092" lon="2.79876">
        <ele>49</ele>
        <time>2023-04-11T08:21:02.141Z</time>
      </trkpt>
      <trkpt lat="48.38097" lon="2.79883">
        <ele>49</ele>
        <time>2023-04-11T08:21:06.289Z</time>
      </trkpt>
      <trkpt lat="48.38101" lon="2.7989">
        <ele>46</ele>
        <time>2023-04-11T08:21:10.480Z</time>
      </trkpt>
      <trkpt lat="48.38106" lon="2.79896">
        <ele>46</ele>
        <time>2023-04-11T08:21:15.028Z</time>
      </trkpt>
      <trkpt lat="48.38111" lon="2.79902">
        <ele>46</ele>
        <time>2023-04-11T08:21:18.860Z</time>
      </trkpt>
      <trkpt lat="48.38114" lon="2.79908">
        <ele>46</ele>
        <time>2023-04-11T08:21:23.316Z</time>
      </trkpt>
      <trkpt lat="48.38112" lon="2.79915">
        <ele>46</ele>
        <time>2023-04-11T08:21:28.020Z</time>
      </trkpt>
      <trkpt lat="48.38106" lon="2.79915">
        <ele>46</ele>
        <time>2023-04-11T08:21:32.507Z</time>
      </trkpt>
      <trkpt lat="48.38101" lon="2.79925">
        <ele>46</ele>
        <time>2023-04-11T08:21:36.577Z</time>
      </trkpt>
      <trkpt lat="48.38096" lon="2.79934">
        <ele>48</ele>
        <time>2023-04-11T08:21:40.648Z</time>
      </trkpt>
      <trkpt lat="48.38092" lon="2.79942">
        <ele>48</ele>
        <time>2023-04-11T08:21:44.700Z</time>
      </trkpt>
      <trkpt lat="48.38088" lon="2.7995">
        <ele>48</ele>
        <time>2023-04-11T08:21:49.728Z</time>
      </trkpt>
      <trkpt lat="48.38084" lon="2.79958">
        <ele>48</ele>
        <time>2023-04-11T08:21:54.635Z</time>
      </trkpt>
      <trkpt lat="48.38079" lon="2.79966">
        <ele>48</ele>
        <time>2023-04-11T08:21:59.304Z</time>
      </trkpt>
      <trkpt lat="48.38076" lon="2.79973">
        <ele>48</ele>
        <time>2023-04-11T08:22:03.853Z</time>
      </trkpt>
      <trkpt lat="48.38072" lon="2.7998">
        <ele>48</ele>
        <time>2023-04-11T08:22:08.283Z</time>
      </trkpt>
      <trkpt lat="48.38069" lon="2.79986">
        <ele>48</ele>
        <time>2023-04-11T08:22:12.711Z</time>
      </trkpt>
      <trkpt lat="48.38067" lon="2.79994">
        <ele>48</ele>
        <time>2023-04-11T08:22:16.687Z</time>
      </trkpt>
      <trkpt lat="48.38067" lon="2.79999">
        <ele>48</ele>
        <time>2023-04-11T08:22:20.695Z</time>
      </trkpt>
      <trkpt lat="48.38063" lon="2.80001">
        <ele>48</ele>
        <time>2023-04-11T08:22:25.226Z</time>
      </trkpt>
      <trkpt lat="48.38056" lon="2.80013">
        <ele>48</ele>
        <time>2023-04-11T08:22:29.685Z</time>
      </trkpt>
      <trkpt lat="48.38051" lon="2.8002">
        <ele>48</ele>
        <time>2023-04-11T08:22:33.699Z</time>
      </trkpt>
      <trkpt lat="48.38048" lon="2.80027">
        <ele>48</ele>
        <time>2023-04-11T08:22:37.654Z</time>
      </trkpt>
      <trkpt lat="48.38044" lon="2.80036">
        <ele>48</ele>
        <time>2023-04-11T08:22:42.316Z</time>
      </trkpt>
      <trkpt lat="48.3804" lon="2.80042">
        <ele>48</ele>
        <time>2023-04-11T08:22:46.881Z</time>
      </trkpt>
      <trkpt lat="48.38035" lon="2.80049">
        <ele>48</ele>
        <time>2023-04-11T08:22:51.076Z</time>
      </trkpt>
      <trkpt lat="48.38033" lon="2.80058">
        <ele>48</ele>
        <time>2023-04-11T08:22:55.504Z</time>
      </trkpt>
      <trkpt lat="48.38029" lon="2.80062">
        <ele>48</ele>
        <time>2023-04-11T08:22:59.462Z</time>
      </trkpt>
      <trkpt lat="48.38026" lon="2.8007">
        <ele>48</ele>
        <time>2023-04-11T08:23:03.415Z</time>
      </trkpt>
      <trkpt lat="48.38022" lon="2.80077">
        <ele>48</ele>
        <time>2023-04-11T08:23:07.960Z</time>
      </trkpt>
      <trkpt lat="48.38018" lon="2.80085">
        <ele>48</ele>
        <time>2023-04-11T08:23:12.039Z</time>
      </trkpt>
      <trkpt lat="48.38014" lon="2.80091">
        <ele>48</ele>
        <time>2023-04-11T08:23:16.110Z</time>
      </trkpt>
      <trkpt lat="48.3801" lon="2.80097">
        <ele>49</ele>
        <time>2023-04-11T08:23:20.299Z</time>
      </trkpt>
      <trkpt lat="48.38007" lon="2.80105">
        <ele>49</ele>
        <time>2023-04-11T08:23:24.489Z</time>
      </trkpt>
      <trkpt lat="48.38002" lon="2.80112">
        <ele>49</ele>
        <time>2023-04-11T08:23:29.139Z</time>
      </trkpt>
      <trkpt lat="48.37999" lon="2.80119">
        <ele>49</ele>
        <time>2023-04-11T08:23:33.209Z</time>
      </trkpt>
      <trkpt lat="48.37994" lon="2.80127">
        <ele>49</ele>
        <time>2023-04-11T08:23:38.148Z</time>
      </trkpt>
      <trkpt lat="48.3799" lon="2.80135">
        <ele>49</ele>
        <time>2023-04-11T08:23:42.665Z</time>
      </trkpt>
      <trkpt lat="48.37987" lon="2.8014">
        <ele>49</ele>
        <time>2023-04-11T08:23:46.504Z</time>
      </trkpt>
      <trkpt lat="48.37983" lon="2.80148">
        <ele>50</ele>
        <time>2023-04-11T08:23:50.695Z</time>
      </trkpt>
      <trkpt lat="48.37983" lon="2.80151">
        <ele>50</ele>
        <time>2023-04-11T08:23:54.887Z</time>
      </trkpt>
      <trkpt lat="48.37975" lon="2.80158">
        <ele>50</ele>
        <time>2023-04-11T08:23:59.676Z</time>
      </trkpt>
      <trkpt lat="48.37972" lon="2.80166">
        <ele>50</ele>
        <time>2023-04-11T08:24:04.133Z</time>
      </trkpt>
      <trkpt lat="48.3797" lon="2.80175">
        <ele>50</ele>
        <time>2023-04-11T08:24:08.859Z</time>
      </trkpt>
      <trkpt lat="48.37968" lon="2.80185">
        <ele>49</ele>
        <time>2023-04-11T08:24:12.848Z</time>
      </trkpt>
      <trkpt lat="48.37965" lon="2.80192">
        <ele>49</ele>
        <time>2023-04-11T08:24:16.899Z</time>
      </trkpt>
      <trkpt lat="48.37962" lon="2.80199">
        <ele>49</ele>
        <time>2023-04-11T08:24:21.688Z</time>
      </trkpt>
      <trkpt lat="48.3796" lon="2.80202">
        <ele>49</ele>
        <time>2023-04-11T08:24:25.876Z</time>
      </trkpt>
      <trkpt lat="48.37957" lon="2.80211">
        <ele>49</ele>
        <time>2023-04-11T08:24:30.425Z</time>
      </trkpt>
      <trkpt lat="48.37952" lon="2.80218">
        <ele>49</ele>
        <time>2023-04-11T08:24:34.495Z</time>
      </trkpt>
      <trkpt lat="48.37948" lon="2.80226">
        <ele>49</ele>
        <time>2023-04-11T08:24:39.042Z</time>
      </trkpt>
      <trkpt lat="48.37945" lon="2.80235">
        <ele>49</ele>
        <time>2023-04-11T08:24:43.551Z</time>
      </trkpt>
      <trkpt lat="48.37942" lon="2.80242">
        <ele>49</ele>
        <time>2023-04-11T08:24:47.620Z</time>
      </trkpt>
      <trkpt lat="48.37938" lon="2.8025">
        <ele>49</ele>
        <time>2023-04-11T08:24:52.283Z</time>
      </trkpt>
      <trkpt lat="48.37935" lon="2.80258">
        <ele>49</ele>
        <time>2023-04-11T08:24:56.838Z</time>
      </trkpt>
      <trkpt lat="48.37932" lon="2.80265">
        <ele>48</ele>
        <time>2023-04-11T08:25:00.888Z</time>
      </trkpt>
      <trkpt lat="48.37929" lon="2.80272">
        <ele>50</ele>
        <time>2023-04-11T08:25:05.077Z</time>
      </trkpt>
      <trkpt lat="48.37925" lon="2.80279">
        <ele>50</ele>
        <time>2023-04-11T08:25:09.267Z</time>
      </trkpt>
      <trkpt lat="48.3792" lon="2.80285">
        <ele>50</ele>
        <time>2023-04-11T08:25:13.797Z</time>
      </trkpt>
      <trkpt lat="48.37917" lon="2.80293">
        <ele>49</ele>
        <time>2023-04-11T08:25:17.866Z</time>
      </trkpt>
      <trkpt lat="48.37913" lon="2.80301">
        <ele>49</ele>
        <time>2023-04-11T08:25:22.496Z</time>
      </trkpt>
      <trkpt lat="48.3791" lon="2.80306">
        <ele>49</ele>
        <time>2023-04-11T08:25:26.565Z</time>
      </trkpt>
      <trkpt lat="48.37907" lon="2.80313">
        <ele>49</ele>
        <time>2023-04-11T08:25:30.873Z</time>
      </trkpt>
      <trkpt lat="48.37903" lon="2.8032">
        <ele>50</ele>
        <time>2023-04-11T08:25:34.823Z</time>
      </trkpt>
      <trkpt lat="48.37899" lon="2.80327">
        <ele>50</ele>
        <time>2023-04-11T08:25:39.491Z</time>
      </trkpt>
      <trkpt lat="48.37895" lon="2.80335">
        <ele>50</ele>
        <time>2023-04-11T08:25:43.561Z</time>
      </trkpt>
      <trkpt lat="48.37892" lon="2.80341">
        <ele>50</ele>
        <time>2023-04-11T08:25:48.153Z</time>
      </trkpt>
      <trkpt lat="48.37889" lon="2.80348">
        <ele>49</ele>
        <time>2023-04-11T08:25:52.304Z</time>
      </trkpt>
      <trkpt lat="48.37886" lon="2.80355">
        <ele>49</ele>
        <time>2023-04-11T08:25:56.495Z</time>
      </trkpt>
      <trkpt lat="48.37882" lon="2.80361">
        <ele>49</ele>
        <time>2023-04-11T08:26:00.905Z</time>
      </trkpt>
      <trkpt lat="48.37878" lon="2.80367">
        <ele>49</ele>
        <time>2023-04-11T08:26:05.097Z</time>
      </trkpt>
      <trkpt lat="48.37875" lon="2.80375">
        <ele>49</ele>
        <time>2023-04-11T08:26:09.302Z</time>
      </trkpt>
      <trkpt lat="48.37873" lon="2.80384">
        <ele>50</ele>
        <time>2023-04-11T08:26:13.840Z</time>
      </trkpt>
      <trkpt lat="48.3787" lon="2.8039">
        <ele>50</ele>
        <time>2023-04-11T08:26:18.348Z</time>
      </trkpt>
      <trkpt lat="48.37868" lon="2.80403">
        <ele>50</ele>
        <time>2023-04-11T08:26:27.074Z</time>
      </trkpt>
      <trkpt lat="48.37868" lon="2.80404">
        <ele>50</ele>
        <time>2023-04-11T08:26:31.865Z</time>
      </trkpt>
      <trkpt lat="48.37868" lon="2.80404">
        <ele>50</ele>
        <time>2023-04-11T08:26:37.016Z</time>
      </trkpt>
      <trkpt lat="48.37867" lon="2.80406">
        <ele>50</ele>
        <time>2023-04-11T08:26:41.581Z</time>
      </trkpt>
      <trkpt lat="48.37864" lon="2.80412">
        <ele>50</ele>
        <time>2023-04-11T08:26:45.863Z</time>
      </trkpt>
      <trkpt lat="48.37861" lon="2.80418">
        <ele>50</ele>
        <time>2023-04-11T08:26:49.833Z</time>
      </trkpt>
      <trkpt lat="48.37858" lon="2.80424">
        <ele>50</ele>
        <time>2023-04-11T08:26:54.502Z</time>
      </trkpt>
      <trkpt lat="48.37859" lon="2.80433">
        <ele>50</ele>
        <time>2023-04-11T08:26:58.516Z</time>
      </trkpt>
      <trkpt lat="48.37861" lon="2.80444">
        <ele>50</ele>
        <time>2023-04-11T08:27:03.149Z</time>
      </trkpt>
      <trkpt lat="48.37863" lon="2.80455">
        <ele>50</ele>
        <time>2023-04-11T08:27:07.685Z</time>
      </trkpt>
      <trkpt lat="48.37863" lon="2.80464">
        <ele>49</ele>
        <time>2023-04-11T08:27:12.032Z</time>
      </trkpt>
      <trkpt lat="48.37863" lon="2.80473">
        <ele>49</ele>
        <time>2023-04-11T08:27:16.655Z</time>
      </trkpt>
      <trkpt lat="48.37865" lon="2.80483">
        <ele>49</ele>
        <time>2023-04-11T08:27:21.259Z</time>
      </trkpt>
      <trkpt lat="48.37866" lon="2.80493">
        <ele>50</ele>
        <time>2023-04-11T08:27:25.521Z</time>
      </trkpt>
      <trkpt lat="48.37865" lon="2.80501">
        <ele>50</ele>
        <time>2023-04-11T08:27:29.310Z</time>
      </trkpt>
      <trkpt lat="48.37867" lon="2.80509">
        <ele>50</ele>
        <time>2023-04-11T08:27:33.905Z</time>
      </trkpt>
      <trkpt lat="48.3787" lon="2.80517">
        <ele>50</ele>
        <time>2023-04-11T08:27:38.076Z</time>
      </trkpt>
      <trkpt lat="48.3787" lon="2.80526">
        <ele>50</ele>
        <time>2023-04-11T08:27:42.583Z</time>
      </trkpt>
      <trkpt lat="48.3787" lon="2.80535">
        <ele>50</ele>
        <time>2023-04-11T08:27:46.883Z</time>
      </trkpt>
      <trkpt lat="48.37872" lon="2.80543">
        <ele>51</ele>
        <time>2023-04-11T08:27:51.382Z</time>
      </trkpt>
      <trkpt lat="48.37873" lon="2.80553">
        <ele>51</ele>
        <time>2023-04-11T08:27:56.001Z</time>
      </trkpt>
      <trkpt lat="48.37874" lon="2.80561">
        <ele>51</ele>
        <time>2023-04-11T08:28:00.072Z</time>
      </trkpt>
      <trkpt lat="48.37873" lon="2.8057">
        <ele>54</ele>
        <time>2023-04-11T08:28:04.621Z</time>
      </trkpt>
      <trkpt lat="48.37874" lon="2.80579">
        <ele>54</ele>
        <time>2023-04-11T08:28:08.452Z</time>
      </trkpt>
      <trkpt lat="48.37874" lon="2.80589">
        <ele>54</ele>
        <time>2023-04-11T08:28:13.122Z</time>
      </trkpt>
      <trkpt lat="48.37874" lon="2.80598">
        <ele>56</ele>
        <time>2023-04-11T08:28:17.306Z</time>
      </trkpt>
      <trkpt lat="48.37875" lon="2.80607">
        <ele>48</ele>
        <time>2023-04-11T08:28:21.316Z</time>
      </trkpt>
      <trkpt lat="48.37877" lon="2.80617">
        <ele>48</ele>
        <time>2023-04-11T08:28:25.934Z</time>
      </trkpt>
      <trkpt lat="48.37879" lon="2.80627">
        <ele>51</ele>
        <time>2023-04-11T08:28:30.445Z</time>
      </trkpt>
      <trkpt lat="48.37881" lon="2.80638">
        <ele>51</ele>
        <time>2023-04-11T08:28:34.875Z</time>
      </trkpt>
      <trkpt lat="48.37883" lon="2.80647">
        <ele>51</ele>
        <time>2023-04-11T08:28:39.426Z</time>
      </trkpt>
      <trkpt lat="48.37883" lon="2.80653">
        <ele>53</ele>
        <time>2023-04-11T08:28:43.499Z</time>
      </trkpt>
      <trkpt lat="48.37883" lon="2.80661">
        <ele>53</ele>
        <time>2023-04-11T08:28:47.571Z</time>
      </trkpt>
      <trkpt lat="48.37885" lon="2.8067">
        <ele>53</ele>
        <time>2023-04-11T08:28:51.623Z</time>
      </trkpt>
      <trkpt lat="48.37885" lon="2.8068">
        <ele>53</ele>
        <time>2023-04-11T08:28:56.294Z</time>
      </trkpt>
      <trkpt lat="48.37886" lon="2.8069">
        <ele>55</ele>
        <time>2023-04-11T08:29:01.083Z</time>
      </trkpt>
      <trkpt lat="48.37888" lon="2.80699">
        <ele>55</ele>
        <time>2023-04-11T08:29:05.274Z</time>
      </trkpt>
      <trkpt lat="48.37889" lon="2.80709">
        <ele>54</ele>
        <time>2023-04-11T08:29:09.704Z</time>
      </trkpt>
      <trkpt lat="48.37888" lon="2.80719">
        <ele>54</ele>
        <time>2023-04-11T08:29:14.853Z</time>
      </trkpt>
      <trkpt lat="48.37888" lon="2.80727">
        <ele>54</ele>
        <time>2023-04-11T08:29:18.922Z</time>
      </trkpt>
      <trkpt lat="48.37891" lon="2.80738">
        <ele>53</ele>
        <time>2023-04-11T08:29:23.473Z</time>
      </trkpt>
      <trkpt lat="48.37894" lon="2.80748">
        <ele>53</ele>
        <time>2023-04-11T08:29:27.424Z</time>
      </trkpt>
      <trkpt lat="48.37895" lon="2.80757">
        <ele>53</ele>
        <time>2023-04-11T08:29:31.496Z</time>
      </trkpt>
      <trkpt lat="48.37894" lon="2.80766">
        <ele>52</ele>
        <time>2023-04-11T08:29:36.165Z</time>
      </trkpt>
      <trkpt lat="48.37891" lon="2.80775">
        <ele>52</ele>
        <time>2023-04-11T08:29:40.699Z</time>
      </trkpt>
      <trkpt lat="48.37889" lon="2.80779">
        <ele>52</ele>
        <time>2023-04-11T08:29:45.473Z</time>
      </trkpt>
      <trkpt lat="48.37887" lon="2.80782">
        <ele>52</ele>
        <time>2023-04-11T08:29:50.173Z</time>
      </trkpt>
      <trkpt lat="48.37883" lon="2.80785">
        <ele>52</ele>
        <time>2023-04-11T08:29:54.136Z</time>
      </trkpt>
      <trkpt lat="48.37883" lon="2.80787">
        <ele>52</ele>
        <time>2023-04-11T08:29:58.645Z</time>
      </trkpt>
      <trkpt lat="48.37881" lon="2.80787">
        <ele>52</ele>
        <time>2023-04-11T08:30:02.674Z</time>
      </trkpt>
      <trkpt lat="48.37878" lon="2.80784">
        <ele>52</ele>
        <time>2023-04-11T08:30:07.193Z</time>
      </trkpt>
      <trkpt lat="48.37866" lon="2.80787">
        <ele>55</ele>
        <time>2023-04-11T08:30:11.718Z</time>
      </trkpt>
      <trkpt lat="48.37857" lon="2.80791">
        <ele>55</ele>
        <time>2023-04-11T08:30:16.117Z</time>
      </trkpt>
      <trkpt lat="48.37849" lon="2.80796">
        <ele>53</ele>
        <time>2023-04-11T08:30:20.316Z</time>
      </trkpt>
      <trkpt lat="48.37842" lon="2.80799">
        <ele>53</ele>
        <time>2023-04-11T08:30:24.627Z</time>
      </trkpt>
      <trkpt lat="48.37837" lon="2.808">
        <ele>53</ele>
        <time>2023-04-11T08:30:28.614Z</time>
      </trkpt>
      <trkpt lat="48.37834" lon="2.80799">
        <ele>53</ele>
        <time>2023-04-11T08:30:32.872Z</time>
      </trkpt>
      <trkpt lat="48.37831" lon="2.80793">
        <ele>53</ele>
        <time>2023-04-11T08:30:36.851Z</time>
      </trkpt>
      <trkpt lat="48.37826" lon="2.80784">
        <ele>54</ele>
        <time>2023-04-11T08:30:54.697Z</time>
      </trkpt>
      <trkpt lat="48.37825" lon="2.80783">
        <ele>54</ele>
        <time>2023-04-11T08:30:58.834Z</time>
      </trkpt>
      <trkpt lat="48.37825" lon="2.80782">
        <ele>54</ele>
        <time>2023-04-11T08:31:03.303Z</time>
      </trkpt>
      <trkpt lat="48.37825" lon="2.80778">
        <ele>54</ele>
        <time>2023-04-11T08:31:07.959Z</time>
      </trkpt>
      <trkpt lat="48.37822" lon="2.80769">
        <ele>54</ele>
        <time>2023-04-11T08:31:11.825Z</time>
      </trkpt>
      <trkpt lat="48.37821" lon="2.80762">
        <ele>56</ele>
        <time>2023-04-11T08:31:16.422Z</time>
      </trkpt>
      <trkpt lat="48.3782" lon="2.80753">
        <ele>56</ele>
        <time>2023-04-11T08:31:20.916Z</time>
      </trkpt>
      <trkpt lat="48.37817" lon="2.80744">
        <ele>53</ele>
        <time>2023-04-11T08:31:25.472Z</time>
      </trkpt>
      <trkpt lat="48.37814" lon="2.80736">
        <ele>53</ele>
        <time>2023-04-11T08:31:29.547Z</time>
      </trkpt>
      <trkpt lat="48.37808" lon="2.8073">
        <ele>53</ele>
        <time>2023-04-11T08:31:33.444Z</time>
      </trkpt>
      <trkpt lat="48.37804" lon="2.80723">
        <ele>53</ele>
        <time>2023-04-11T08:31:38.117Z</time>
      </trkpt>
      <trkpt lat="48.37799" lon="2.80717">
        <ele>53</ele>
        <time>2023-04-11T08:31:42.191Z</time>
      </trkpt>
      <trkpt lat="48.37794" lon="2.80712">
        <ele>53</ele>
        <time>2023-04-11T08:31:46.265Z</time>
      </trkpt>
      <trkpt lat="48.37789" lon="2.80706">
        <ele>49</ele>
        <time>2023-04-11T08:31:50.316Z</time>
      </trkpt>
      <trkpt lat="48.37784" lon="2.80701">
        <ele>49</ele>
        <time>2023-04-11T08:31:54.620Z</time>
      </trkpt>
      <trkpt lat="48.3778" lon="2.80694">
        <ele>49</ele>
        <time>2023-04-11T08:31:58.552Z</time>
      </trkpt>
      <trkpt lat="48.37775" lon="2.8069">
        <ele>49</ele>
        <time>2023-04-11T08:32:02.987Z</time>
      </trkpt>
      <trkpt lat="48.37771" lon="2.80683">
        <ele>49</ele>
        <time>2023-04-11T08:32:07.061Z</time>
      </trkpt>
      <trkpt lat="48.37764" lon="2.80677">
        <ele>49</ele>
        <time>2023-04-11T08:32:11.614Z</time>
      </trkpt>
      <trkpt lat="48.37758" lon="2.80675">
        <ele>46</ele>
        <time>2023-04-11T08:32:15.688Z</time>
      </trkpt>
      <trkpt lat="48.37751" lon="2.80678">
        <ele>46</ele>
        <time>2023-04-11T08:32:20.321Z</time>
      </trkpt>
      <trkpt lat="48.37746" lon="2.80683">
        <ele>46</ele>
        <time>2023-04-11T08:32:24.293Z</time>
      </trkpt>
      <trkpt lat="48.37741" lon="2.80688">
        <ele>46</ele>
        <time>2023-04-11T08:32:28.929Z</time>
      </trkpt>
      <trkpt lat="48.37735" lon="2.80691">
        <ele>47</ele>
        <time>2023-04-11T08:32:33.018Z</time>
      </trkpt>
      <trkpt lat="48.37729" lon="2.80695">
        <ele>47</ele>
        <time>2023-04-11T08:32:36.971Z</time>
      </trkpt>
      <trkpt lat="48.37724" lon="2.80699">
        <ele>47</ele>
        <time>2023-04-11T08:32:41.282Z</time>
      </trkpt>
      <trkpt lat="48.37718" lon="2.80703">
        <ele>47</ele>
        <time>2023-04-11T08:32:45.596Z</time>
      </trkpt>
      <trkpt lat="48.37713" lon="2.80707">
        <ele>47</ele>
        <time>2023-04-11T08:32:49.630Z</time>
      </trkpt>
      <trkpt lat="48.37707" lon="2.80712">
        <ele>48</ele>
        <time>2023-04-11T08:32:54.063Z</time>
      </trkpt>
      <trkpt lat="48.37702" lon="2.80716">
        <ele>48</ele>
        <time>2023-04-11T08:32:58.136Z</time>
      </trkpt>
      <trkpt lat="48.37696" lon="2.80721">
        <ele>48</ele>
        <time>2023-04-11T08:33:02.688Z</time>
      </trkpt>
      <trkpt lat="48.3769" lon="2.80725">
        <ele>48</ele>
        <time>2023-04-11T08:33:07.316Z</time>
      </trkpt>
      <trkpt lat="48.37684" lon="2.80729">
        <ele>48</ele>
        <time>2023-04-11T08:33:11.906Z</time>
      </trkpt>
      <trkpt lat="48.37678" lon="2.80732">
        <ele>49</ele>
        <time>2023-04-11T08:33:16.824Z</time>
      </trkpt>
      <trkpt lat="48.37673" lon="2.80738">
        <ele>48</ele>
        <time>2023-04-11T08:33:21.328Z</time>
      </trkpt>
      <trkpt lat="48.37668" lon="2.80743">
        <ele>48</ele>
        <time>2023-04-11T08:33:25.927Z</time>
      </trkpt>
      <trkpt lat="48.37663" lon="2.80749">
        <ele>48</ele>
        <time>2023-04-11T08:33:30.100Z</time>
      </trkpt>
      <trkpt lat="48.3766" lon="2.80757">
        <ele>48</ele>
        <time>2023-04-11T08:33:34.651Z</time>
      </trkpt>
      <trkpt lat="48.3766" lon="2.80765">
        <ele>48</ele>
        <time>2023-04-11T08:33:39.084Z</time>
      </trkpt>
      <trkpt lat="48.3766" lon="2.80774">
        <ele>48</ele>
        <time>2023-04-11T08:33:43.392Z</time>
      </trkpt>
      <trkpt lat="48.37661" lon="2.80777">
        <ele>48</ele>
        <time>2023-04-11T08:33:47.822Z</time>
      </trkpt>
      <trkpt lat="48.3766" lon="2.80777">
        <ele>48</ele>
        <time>2023-04-11T08:33:51.893Z</time>
      </trkpt>
      <trkpt lat="48.3766" lon="2.80782">
        <ele>48</ele>
        <time>2023-04-11T08:33:56.684Z</time>
      </trkpt>
      <trkpt lat="48.37661" lon="2.80782">
        <ele>48</ele>
        <time>2023-04-11T08:34:01.234Z</time>
      </trkpt>
      <trkpt lat="48.37662" lon="2.80788">
        <ele>48</ele>
        <time>2023-04-11T08:34:05.905Z</time>
      </trkpt>
      <trkpt lat="48.37661" lon="2.80799">
        <ele>48</ele>
        <time>2023-04-11T08:34:10.316Z</time>
      </trkpt>
      <trkpt lat="48.37661" lon="2.80809">
        <ele>48</ele>
        <time>2023-04-11T08:34:14.270Z</time>
      </trkpt>
      <trkpt lat="48.37661" lon="2.80819">
        <ele>48</ele>
        <time>2023-04-11T08:34:18.883Z</time>
      </trkpt>
      <trkpt lat="48.3766" lon="2.80827">
        <ele>49</ele>
        <time>2023-04-11T08:34:22.834Z</time>
      </trkpt>
      <trkpt lat="48.37658" lon="2.80836">
        <ele>49</ele>
        <time>2023-04-11T08:34:28.005Z</time>
      </trkpt>
      <trkpt lat="48.37658" lon="2.80844">
        <ele>49</ele>
        <time>2023-04-11T08:34:31.933Z</time>
      </trkpt>
      <trkpt lat="48.37658" lon="2.80853">
        <ele>50</ele>
        <time>2023-04-11T08:34:36.483Z</time>
      </trkpt>
      <trkpt lat="48.37657" lon="2.80862">
        <ele>50</ele>
        <time>2023-04-11T08:34:41.174Z</time>
      </trkpt>
      <trkpt lat="48.37656" lon="2.80871">
        <ele>50</ele>
        <time>2023-04-11T08:34:45.665Z</time>
      </trkpt>
      <trkpt lat="48.37658" lon="2.80878">
        <ele>50</ele>
        <time>2023-04-11T08:35:06.180Z</time>
      </trkpt>
      <trkpt lat="48.3766" lon="2.80888">
        <ele>50</ele>
        <time>2023-04-11T08:35:10.703Z</time>
      </trkpt>
      <trkpt lat="48.37666" lon="2.80895">
        <ele>50</ele>
        <time>2023-04-11T08:35:15.199Z</time>
      </trkpt>
      <trkpt lat="48.37672" lon="2.80902">
        <ele>50</ele>
        <time>2023-04-11T08:35:19.612Z</time>
      </trkpt>
      <trkpt lat="48.37671" lon="2.8091">
        <ele>51</ele>
        <time>2023-04-11T08:35:24.286Z</time>
      </trkpt>
      <trkpt lat="48.3767" lon="2.80919">
        <ele>51</ele>
        <time>2023-04-11T08:35:28.840Z</time>
      </trkpt>
      <trkpt lat="48.37669" lon="2.80927">
        <ele>51</ele>
        <time>2023-04-11T08:35:33.156Z</time>
      </trkpt>
      <trkpt lat="48.37666" lon="2.80932">
        <ele>51</ele>
        <time>2023-04-11T08:35:37.176Z</time>
      </trkpt>
      <trkpt lat="48.37661" lon="2.80941">
        <ele>51</ele>
        <time>2023-04-11T08:35:41.663Z</time>
      </trkpt>
      <trkpt lat="48.37657" lon="2.80949">
        <ele>51</ele>
        <time>2023-04-11T08:35:45.676Z</time>
      </trkpt>
      <trkpt lat="48.37653" lon="2.8096">
        <ele>50</ele>
        <time>2023-04-11T08:35:50.470Z</time>
      </trkpt>
      <trkpt lat="48.3765" lon="2.80968">
        <ele>51</ele>
        <time>2023-04-11T08:35:54.565Z</time>
      </trkpt>
      <trkpt lat="48.37648" lon="2.80977">
        <ele>51</ele>
        <time>2023-04-11T08:35:59.118Z</time>
      </trkpt>
      <trkpt lat="48.37646" lon="2.80983">
        <ele>51</ele>
        <time>2023-04-11T08:36:02.712Z</time>
      </trkpt>
      <trkpt lat="48.37644" lon="2.8099">
        <ele>50</ele>
        <time>2023-04-11T08:36:06.905Z</time>
      </trkpt>
      <trkpt lat="48.37641" lon="2.80998">
        <ele>50</ele>
        <time>2023-04-11T08:36:10.859Z</time>
      </trkpt>
      <trkpt lat="48.37638" lon="2.81005">
        <ele>50</ele>
        <time>2023-04-11T08:36:14.933Z</time>
      </trkpt>
      <trkpt lat="48.37634" lon="2.81015">
        <ele>50</ele>
        <time>2023-04-11T08:36:19.724Z</time>
      </trkpt>
      <trkpt lat="48.37631" lon="2.81024">
        <ele>50</ele>
        <time>2023-04-11T08:36:24.849Z</time>
      </trkpt>
      <trkpt lat="48.37628" lon="2.81032">
        <ele>50</ele>
        <time>2023-04-11T08:36:28.710Z</time>
      </trkpt>
      <trkpt lat="48.37625" lon="2.8104">
        <ele>50</ele>
        <time>2023-04-11T08:36:32.744Z</time>
      </trkpt>
      <trkpt lat="48.37621" lon="2.81051">
        <ele>50</ele>
        <time>2023-04-11T08:36:37.894Z</time>
      </trkpt>
      <trkpt lat="48.37618" lon="2.8106">
        <ele>50</ele>
        <time>2023-04-11T08:36:42.316Z</time>
      </trkpt>
      <trkpt lat="48.37615" lon="2.81068">
        <ele>50</ele>
        <time>2023-04-11T08:36:47.117Z</time>
      </trkpt>
      <trkpt lat="48.37613" lon="2.81076">
        <ele>49</ele>
        <time>2023-04-11T08:36:51.842Z</time>
      </trkpt>
      <trkpt lat="48.37611" lon="2.81083">
        <ele>49</ele>
        <time>2023-04-11T08:36:56.859Z</time>
      </trkpt>
      <trkpt lat="48.37608" lon="2.8109">
        <ele>49</ele>
        <time>2023-04-11T08:37:00.473Z</time>
      </trkpt>
      <trkpt lat="48.37603" lon="2.81095">
        <ele>49</ele>
        <time>2023-04-11T08:37:04.984Z</time>
      </trkpt>
      <trkpt lat="48.37599" lon="2.81104">
        <ele>49</ele>
        <time>2023-04-11T08:37:08.990Z</time>
      </trkpt>
      <trkpt lat="48.37594" lon="2.81112">
        <ele>48</ele>
        <time>2023-04-11T08:37:13.493Z</time>
      </trkpt>
      <trkpt lat="48.3759" lon="2.81118">
        <ele>48</ele>
        <time>2023-04-11T08:37:17.654Z</time>
      </trkpt>
      <trkpt lat="48.37586" lon="2.81124">
        <ele>48</ele>
        <time>2023-04-11T08:37:21.994Z</time>
      </trkpt>
      <trkpt lat="48.37583" lon="2.81129">
        <ele>49</ele>
        <time>2023-04-11T08:37:25.997Z</time>
      </trkpt>
      <trkpt lat="48.37581" lon="2.81136">
        <ele>49</ele>
        <time>2023-04-11T08:37:29.678Z</time>
      </trkpt>
      <trkpt lat="48.37576" lon="2.81144">
        <ele>49</ele>
        <time>2023-04-11T08:37:34.037Z</time>
      </trkpt>
      <trkpt lat="48.37572" lon="2.81152">
        <ele>49</ele>
        <time>2023-04-11T08:37:38.456Z</time>
      </trkpt>
      <trkpt lat="48.37569" lon="2.81159">
        <ele>51</ele>
        <time>2023-04-11T08:37:42.254Z</time>
      </trkpt>
      <trkpt lat="48.37565" lon="2.81167">
        <ele>51</ele>
        <time>2023-04-11T08:37:46.870Z</time>
      </trkpt>
      <trkpt lat="48.37564" lon="2.81175">
        <ele>51</ele>
        <time>2023-04-11T08:37:52.100Z</time>
      </trkpt>
      <trkpt lat="48.37565" lon="2.81184">
        <ele>52</ele>
        <time>2023-04-11T08:37:55.702Z</time>
      </trkpt>
      <trkpt lat="48.37564" lon="2.8119">
        <ele>52</ele>
        <time>2023-04-11T08:38:00.496Z</time>
      </trkpt>
      <trkpt lat="48.37564" lon="2.8119">
        <ele>52</ele>
        <time>2023-04-11T08:38:05.012Z</time>
      </trkpt>
      <trkpt lat="48.37563" lon="2.81191">
        <ele>52</ele>
        <time>2023-04-11T08:38:10.140Z</time>
      </trkpt>
      <trkpt lat="48.3756" lon="2.81194">
        <ele>52</ele>
        <time>2023-04-11T08:38:13.661Z</time>
      </trkpt>
      <trkpt lat="48.37555" lon="2.81202">
        <ele>52</ele>
        <time>2023-04-11T08:38:18.573Z</time>
      </trkpt>
      <trkpt lat="48.37554" lon="2.81199">
        <ele>52</ele>
        <time>2023-04-11T08:38:23.165Z</time>
      </trkpt>
      <trkpt lat="48.37551" lon="2.81196">
        <ele>52</ele>
        <time>2023-04-11T08:38:27.744Z</time>
      </trkpt>
      <trkpt lat="48.37545" lon="2.81192">
        <ele>52</ele>
        <time>2023-04-11T08:38:31.699Z</time>
      </trkpt>
      <trkpt lat="48.37541" lon="2.81186">
        <ele>53</ele>
        <time>2023-04-11T08:38:35.776Z</time>
      </trkpt>
      <trkpt lat="48.37537" lon="2.81178">
        <ele>52</ele>
        <time>2023-04-11T08:38:40.173Z</time>
      </trkpt>
      <trkpt lat="48.37534" lon="2.81169">
        <ele>52</ele>
        <time>2023-04-11T08:38:44.650Z</time>
      </trkpt>
      <trkpt lat="48.37531" lon="2.81162">
        <ele>52</ele>
        <time>2023-04-11T08:38:49.316Z</time>
      </trkpt>
      <trkpt lat="48.37527" lon="2.81153">
        <ele>52</ele>
        <time>2023-04-11T08:38:53.997Z</time>
      </trkpt>
      <trkpt lat="48.37523" lon="2.81146">
        <ele>50</ele>
        <time>2023-04-11T08:38:58.670Z</time>
      </trkpt>
      <trkpt lat="48.37517" lon="2.81142">
        <ele>50</ele>
        <time>2023-04-11T08:39:03.316Z</time>
      </trkpt>
      <trkpt lat="48.37514" lon="2.81135">
        <ele>51</ele>
        <time>2023-04-11T08:39:07.295Z</time>
      </trkpt>
      <trkpt lat="48.37512" lon="2.81125">
        <ele>50</ele>
        <time>2023-04-11T08:39:11.727Z</time>
      </trkpt>
      <trkpt lat="48.37511" lon="2.81118">
        <ele>50</ele>
        <time>2023-04-11T08:39:15.883Z</time>
      </trkpt>
      <trkpt lat="48.37505" lon="2.81114">
        <ele>50</ele>
        <time>2023-04-11T08:39:19.742Z</time>
      </trkpt>
      <trkpt lat="48.37501" lon="2.81107">
        <ele>50</ele>
        <time>2023-04-11T08:39:24.158Z</time>
      </trkpt>
      <trkpt lat="48.37497" lon="2.81101">
        <ele>50</ele>
        <time>2023-04-11T08:39:28.165Z</time>
      </trkpt>
      <trkpt lat="48.37492" lon="2.81093">
        <ele>50</ele>
        <time>2023-04-11T08:39:32.654Z</time>
      </trkpt>
      <trkpt lat="48.37487" lon="2.81088">
        <ele>50</ele>
        <time>2023-04-11T08:39:36.708Z</time>
      </trkpt>
      <trkpt lat="48.37482" lon="2.81088">
        <ele>52</ele>
        <time>2023-04-11T08:39:41.300Z</time>
      </trkpt>
      <trkpt lat="48.37478" lon="2.81091">
        <ele>52</ele>
        <time>2023-04-11T08:39:45.322Z</time>
      </trkpt>
      <trkpt lat="48.37473" lon="2.81095">
        <ele>52</ele>
        <time>2023-04-11T08:39:58.725Z</time>
      </trkpt>
      <trkpt lat="48.37476" lon="2.81102">
        <ele>51</ele>
        <time>2023-04-11T08:40:02.917Z</time>
      </trkpt>
      <trkpt lat="48.37477" lon="2.81114">
        <ele>51</ele>
        <time>2023-04-11T08:40:07.467Z</time>
      </trkpt>
      <trkpt lat="48.37475" lon="2.81127">
        <ele>51</ele>
        <time>2023-04-11T08:40:11.419Z</time>
      </trkpt>
      <trkpt lat="48.37471" lon="2.81135">
        <ele>51</ele>
        <time>2023-04-11T08:40:15.930Z</time>
      </trkpt>
      <trkpt lat="48.37463" lon="2.81142">
        <ele>51</ele>
        <time>2023-04-11T08:40:20.121Z</time>
      </trkpt>
      <trkpt lat="48.37459" lon="2.81151">
        <ele>51</ele>
        <time>2023-04-11T08:40:24.671Z</time>
      </trkpt>
      <trkpt lat="48.37458" lon="2.81158">
        <ele>53</ele>
        <time>2023-04-11T08:40:28.743Z</time>
      </trkpt>
      <trkpt lat="48.37456" lon="2.81166">
        <ele>53</ele>
        <time>2023-04-11T08:40:32.697Z</time>
      </trkpt>
      <trkpt lat="48.37454" lon="2.81175">
        <ele>53</ele>
        <time>2023-04-11T08:40:37.490Z</time>
      </trkpt>
      <trkpt lat="48.37451" lon="2.81183">
        <ele>54</ele>
        <time>2023-04-11T08:40:41.316Z</time>
      </trkpt>
      <trkpt lat="48.37447" lon="2.81188">
        <ele>54</ele>
        <time>2023-04-11T08:40:45.840Z</time>
      </trkpt>
      <trkpt lat="48.37444" lon="2.81195">
        <ele>54</ele>
        <time>2023-04-11T08:40:49.828Z</time>
      </trkpt>
      <trkpt lat="48.37444" lon="2.81208">
        <ele>54</ele>
        <time>2023-04-11T08:40:53.900Z</time>
      </trkpt>
      <trkpt lat="48.37443" lon="2.81218">
        <ele>54</ele>
        <time>2023-04-11T08:40:58.664Z</time>
      </trkpt>
      <trkpt lat="48.37441" lon="2.81225">
        <ele>54</ele>
        <time>2023-04-11T08:41:03.120Z</time>
      </trkpt>
      <trkpt lat="48.37439" lon="2.81234">
        <ele>54</ele>
        <time>2023-04-11T08:41:07.311Z</time>
      </trkpt>
      <trkpt lat="48.37437" lon="2.81242">
        <ele>53</ele>
        <time>2023-04-11T08:41:11.463Z</time>
      </trkpt>
      <trkpt lat="48.37435" lon="2.8125">
        <ele>53</ele>
        <time>2023-04-11T08:41:15.316Z</time>
      </trkpt>
      <trkpt lat="48.37432" lon="2.81259">
        <ele>53</ele>
        <time>2023-04-11T08:41:20.085Z</time>
      </trkpt>
      <trkpt lat="48.37431" lon="2.81266">
        <ele>52</ele>
        <time>2023-04-11T08:41:24.617Z</time>
      </trkpt>
      <trkpt lat="48.37428" lon="2.81271">
        <ele>53</ele>
        <time>2023-04-11T08:41:28.691Z</time>
      </trkpt>
      <trkpt lat="48.37427" lon="2.81279">
        <ele>53</ele>
        <time>2023-04-11T08:41:32.884Z</time>
      </trkpt>
      <trkpt lat="48.37425" lon="2.81288">
        <ele>53</ele>
        <time>2023-04-11T08:41:37.446Z</time>
      </trkpt>
      <trkpt lat="48.37423" lon="2.81296">
        <ele>53</ele>
        <time>2023-04-11T08:41:41.507Z</time>
      </trkpt>
      <trkpt lat="48.3742" lon="2.81304">
        <ele>53</ele>
        <time>2023-04-11T08:41:45.697Z</time>
      </trkpt>
      <trkpt lat="48.37417" lon="2.81312">
        <ele>53</ele>
        <time>2023-04-11T08:41:49.648Z</time>
      </trkpt>
      <trkpt lat="48.37416" lon="2.81321">
        <ele>53</ele>
        <time>2023-04-11T08:41:54.146Z</time>
      </trkpt>
      <trkpt lat="48.37413" lon="2.81332">
        <ele>53</ele>
        <time>2023-04-11T08:41:58.872Z</time>
      </trkpt>
      <trkpt lat="48.3741" lon="2.81342">
        <ele>53</ele>
        <time>2023-04-11T08:42:03.859Z</time>
      </trkpt>
      <trkpt lat="48.37408" lon="2.81351">
        <ele>53</ele>
        <time>2023-04-11T08:42:08.291Z</time>
      </trkpt>
      <trkpt lat="48.37406" lon="2.81359">
        <ele>53</ele>
        <time>2023-04-11T08:42:12.424Z</time>
      </trkpt>
      <trkpt lat="48.37402" lon="2.81366">
        <ele>53</ele>
        <time>2023-04-11T08:42:16.498Z</time>
      </trkpt>
      <trkpt lat="48.37399" lon="2.81374">
        <ele>53</ele>
        <time>2023-04-11T08:42:20.810Z</time>
      </trkpt>
      <trkpt lat="48.37397" lon="2.81382">
        <ele>53</ele>
        <time>2023-04-11T08:42:25.481Z</time>
      </trkpt>
      <trkpt lat="48.37396" lon="2.81391">
        <ele>53</ele>
        <time>2023-04-11T08:42:29.432Z</time>
      </trkpt>
      <trkpt lat="48.37394" lon="2.814">
        <ele>53</ele>
        <time>2023-04-11T08:42:34.102Z</time>
      </trkpt>
      <trkpt lat="48.37394" lon="2.81409">
        <ele>53</ele>
        <time>2023-04-11T08:42:38.487Z</time>
      </trkpt>
      <trkpt lat="48.37392" lon="2.81416">
        <ele>53</ele>
        <time>2023-04-11T08:42:42.823Z</time>
      </trkpt>
      <trkpt lat="48.37388" lon="2.81424">
        <ele>53</ele>
        <time>2023-04-11T08:42:47.316Z</time>
      </trkpt>
      <trkpt lat="48.37385" lon="2.81433">
        <ele>53</ele>
        <time>2023-04-11T08:42:51.921Z</time>
      </trkpt>
      <trkpt lat="48.37383" lon="2.81448">
        <ele>53</ele>
        <time>2023-04-11T08:42:58.526Z</time>
      </trkpt>
      <trkpt lat="48.37379" lon="2.81458">
        <ele>53</ele>
        <time>2023-04-11T08:43:03.033Z</time>
      </trkpt>
      <trkpt lat="48.37374" lon="2.81466">
        <ele>54</ele>
        <time>2023-04-11T08:43:07.044Z</time>
      </trkpt>
      <trkpt lat="48.37371" lon="2.81475">
        <ele>54</ele>
        <time>2023-04-11T08:43:11.052Z</time>
      </trkpt>
      <trkpt lat="48.3737" lon="2.8148">
        <ele>54</ele>
        <time>2023-04-11T08:43:15.564Z</time>
      </trkpt>
      <trkpt lat="48.3737" lon="2.81483">
        <ele>54</ele>
        <time>2023-04-11T08:43:19.673Z</time>
      </trkpt>
      <trkpt lat="48.37369" lon="2.81488">
        <ele>55</ele>
        <time>2023-04-11T08:43:23.680Z</time>
      </trkpt>
      <trkpt lat="48.37366" lon="2.81497">
        <ele>55</ele>
        <time>2023-04-11T08:43:27.687Z</time>
      </trkpt>
      <trkpt lat="48.37363" lon="2.81506">
        <ele>55</ele>
        <time>2023-04-11T08:43:31.709Z</time>
      </trkpt>
      <trkpt lat="48.37359" lon="2.81509">
        <ele>55</ele>
        <time>2023-04-11T08:43:36.713Z</time>
      </trkpt>
      <trkpt lat="48.37355" lon="2.8151">
        <ele>55</ele>
        <time>2023-04-11T08:43:40.673Z</time>
      </trkpt>
      <trkpt lat="48.37351" lon="2.81519">
        <ele>55</ele>
        <time>2023-04-11T08:43:44.672Z</time>
      </trkpt>
      <trkpt lat="48.37351" lon="2.8153">
        <ele>55</ele>
        <time>2023-04-11T08:43:49.572Z</time>
      </trkpt>
      <trkpt lat="48.37351" lon="2.8154">
        <ele>55</ele>
        <time>2023-04-11T08:43:54.091Z</time>
      </trkpt>
      <trkpt lat="48.37351" lon="2.81548">
        <ele>54</ele>
        <time>2023-04-11T08:43:57.831Z</time>
      </trkpt>
      <trkpt lat="48.3735" lon="2.81556">
        <ele>54</ele>
        <time>2023-04-11T08:44:02.528Z</time>
      </trkpt>
      <trkpt lat="48.37348" lon="2.81564">
        <ele>54</ele>
        <time>2023-04-11T08:44:07.922Z</time>
      </trkpt>
      <trkpt lat="48.37343" lon="2.81571">
        <ele>55</ele>
        <time>2023-04-11T08:44:12.278Z</time>
      </trkpt>
      <trkpt lat="48.37339" lon="2.8158">
        <ele>55</ele>
        <time>2023-04-11T08:44:16.732Z</time>
      </trkpt>
      <trkpt lat="48.37338" lon="2.81586">
        <ele>55</ele>
        <time>2023-04-11T08:44:21.526Z</time>
      </trkpt>
      <trkpt lat="48.37338" lon="2.81593">
        <ele>55</ele>
        <time>2023-04-11T08:44:25.481Z</time>
      </trkpt>
      <trkpt lat="48.3734" lon="2.81606">
        <ele>54</ele>
        <time>2023-04-11T08:44:31.030Z</time>
      </trkpt>
      <trkpt lat="48.3734" lon="2.8161">
        <ele>54</ele>
        <time>2023-04-11T08:44:35.545Z</time>
      </trkpt>
      <trkpt lat="48.37337" lon="2.81613">
        <ele>54</ele>
        <time>2023-04-11T08:44:40.059Z</time>
      </trkpt>
      <trkpt lat="48.37332" lon="2.81623">
        <ele>54</ele>
        <time>2023-04-11T08:44:44.571Z</time>
      </trkpt>
      <trkpt lat="48.3733" lon="2.81633">
        <ele>55</ele>
        <time>2023-04-11T08:44:48.576Z</time>
      </trkpt>
      <trkpt lat="48.37326" lon="2.81642">
        <ele>55</ele>
        <time>2023-04-11T08:44:52.699Z</time>
      </trkpt>
      <trkpt lat="48.37322" lon="2.81649">
        <ele>55</ele>
        <time>2023-04-11T08:44:56.496Z</time>
      </trkpt>
      <trkpt lat="48.3732" lon="2.81656">
        <ele>56</ele>
        <time>2023-04-11T08:45:00.874Z</time>
      </trkpt>
      <trkpt lat="48.3732" lon="2.81668">
        <ele>56</ele>
        <time>2023-04-11T08:45:05.611Z</time>
      </trkpt>
      <trkpt lat="48.3732" lon="2.81679">
        <ele>56</ele>
        <time>2023-04-11T08:45:10.129Z</time>
      </trkpt>
      <trkpt lat="48.37319" lon="2.81687">
        <ele>58</ele>
        <time>2023-04-11T08:45:14.025Z</time>
      </trkpt>
      <trkpt lat="48.37317" lon="2.81699">
        <ele>58</ele>
        <time>2023-04-11T08:45:27.603Z</time>
      </trkpt>
      <trkpt lat="48.37316" lon="2.81707">
        <ele>58</ele>
        <time>2023-04-11T08:45:31.885Z</time>
      </trkpt>
      <trkpt lat="48.37313" lon="2.81714">
        <ele>56</ele>
        <time>2023-04-11T08:45:36.079Z</time>
      </trkpt>
      <trkpt lat="48.37309" lon="2.8172">
        <ele>56</ele>
        <time>2023-04-11T08:45:40.871Z</time>
      </trkpt>
      <trkpt lat="48.37305" lon="2.81726">
        <ele>56</ele>
        <time>2023-04-11T08:45:45.546Z</time>
      </trkpt>
      <trkpt lat="48.37304" lon="2.81736">
        <ele>56</ele>
        <time>2023-04-11T08:45:50.141Z</time>
      </trkpt>
      <trkpt lat="48.37303" lon="2.81748">
        <ele>55</ele>
        <time>2023-04-11T08:45:54.651Z</time>
      </trkpt>
      <trkpt lat="48.373" lon="2.81757">
        <ele>55</ele>
        <time>2023-04-11T08:45:59.685Z</time>
      </trkpt>
      <trkpt lat="48.373" lon="2.81763">
        <ele>55</ele>
        <time>2023-04-11T08:46:04.316Z</time>
      </trkpt>
      <trkpt lat="48.37299" lon="2.81767">
        <ele>53</ele>
        <time>2023-04-11T08:46:08.753Z</time>
      </trkpt>
      <trkpt lat="48.37297" lon="2.81774">
        <ele>53</ele>
        <time>2023-04-11T08:46:13.903Z</time>
      </trkpt>
      <trkpt lat="48.37289" lon="2.81777">
        <ele>53</ele>
        <time>2023-04-11T08:46:18.346Z</time>
      </trkpt>
      <trkpt lat="48.37286" lon="2.81785">
        <ele>53</ele>
        <time>2023-04-11T08:46:22.525Z</time>
      </trkpt>
      <trkpt lat="48.37283" lon="2.81794">
        <ele>52</ele>
        <time>2023-04-11T08:46:27.124Z</time>
      </trkpt>
      <trkpt lat="48.37284" lon="2.81803">
        <ele>52</ele>
        <time>2023-04-11T08:46:31.167Z</time>
      </trkpt>
      <trkpt lat="48.37288" lon="2.81814">
        <ele>52</ele>
        <time>2023-04-11T08:46:36.065Z</time>
      </trkpt>
      <trkpt lat="48.37285" lon="2.81818">
        <ele>52</ele>
        <time>2023-04-11T08:46:39.861Z</time>
      </trkpt>
      <trkpt lat="48.37283" lon="2.8182">
        <ele>51</ele>
        <time>2023-04-11T08:46:43.871Z</time>
      </trkpt>
      <trkpt lat="48.37279" lon="2.81829">
        <ele>51</ele>
        <time>2023-04-11T08:46:47.880Z</time>
      </trkpt>
      <trkpt lat="48.37281" lon="2.81838">
        <ele>51</ele>
        <time>2023-04-11T08:46:52.411Z</time>
      </trkpt>
      <trkpt lat="48.37284" lon="2.81844">
        <ele>51</ele>
        <time>2023-04-11T08:46:56.513Z</time>
      </trkpt>
      <trkpt lat="48.37282" lon="2.81853">
        <ele>50</ele>
        <time>2023-04-11T08:47:00.591Z</time>
      </trkpt>
      <trkpt lat="48.37276" lon="2.81859">
        <ele>50</ele>
        <time>2023-04-11T08:47:05.145Z</time>
      </trkpt>
      <trkpt lat="48.37271" lon="2.81864">
        <ele>50</ele>
        <time>2023-04-11T08:47:09.686Z</time>
      </trkpt>
      <trkpt lat="48.37265" lon="2.81874">
        <ele>50</ele>
        <time>2023-04-11T08:47:13.897Z</time>
      </trkpt>
      <trkpt lat="48.37264" lon="2.81876">
        <ele>49</ele>
        <time>2023-04-11T08:47:18.510Z</time>
      </trkpt>
      <trkpt lat="48.37264" lon="2.81884">
        <ele>49</ele>
        <time>2023-04-11T08:47:23.039Z</time>
      </trkpt>
      <trkpt lat="48.37263" lon="2.81892">
        <ele>50</ele>
        <time>2023-04-11T08:47:28.052Z</time>
      </trkpt>
      <trkpt lat="48.37262" lon="2.81893">
        <ele>50</ele>
        <time>2023-04-11T08:47:32.065Z</time>
      </trkpt>
      <trkpt lat="48.37256" lon="2.8192">
        <ele>48</ele>
        <time>2023-04-11T08:47:49.612Z</time>
      </trkpt>
      <trkpt lat="48.37254" lon="2.81936">
        <ele>46</ele>
        <time>2023-04-11T08:47:54.240Z</time>
      </trkpt>
      <trkpt lat="48.37253" lon="2.81946">
        <ele>46</ele>
        <time>2023-04-11T08:47:58.750Z</time>
      </trkpt>
      <trkpt lat="48.37252" lon="2.81957">
        <ele>46</ele>
        <time>2023-04-11T08:48:02.758Z</time>
      </trkpt>
      <trkpt lat="48.37252" lon="2.81962">
        <ele>46</ele>
        <time>2023-04-11T08:48:06.785Z</time>
      </trkpt>
      <trkpt lat="48.37252" lon="2.81966">
        <ele>46</ele>
        <time>2023-04-11T08:48:11.836Z</time>
      </trkpt>
      <trkpt lat="48.37252" lon="2.81979">
        <ele>46</ele>
        <time>2023-04-11T08:48:16.851Z</time>
      </trkpt>
      <trkpt lat="48.37249" lon="2.81991">
        <ele>46</ele>
        <time>2023-04-11T08:48:21.965Z</time>
      </trkpt>
      <trkpt lat="48.37248" lon="2.82002">
        <ele>46</ele>
        <time>2023-04-11T08:48:26.474Z</time>
      </trkpt>
      <trkpt lat="48.37247" lon="2.82007">
        <ele>46</ele>
        <time>2023-04-11T08:48:30.988Z</time>
      </trkpt>
      <trkpt lat="48.37247" lon="2.82004">
        <ele>46</ele>
        <time>2023-04-11T08:48:35.506Z</time>
      </trkpt>
      <trkpt lat="48.37248" lon="2.82013">
        <ele>46</ele>
        <time>2023-04-11T08:48:39.518Z</time>
      </trkpt>
      <trkpt lat="48.37248" lon="2.82025">
        <ele>47</ele>
        <time>2023-04-11T08:48:44.030Z</time>
      </trkpt>
      <trkpt lat="48.37248" lon="2.82033">
        <ele>47</ele>
        <time>2023-04-11T08:48:48.138Z</time>
      </trkpt>
      <trkpt lat="48.37248" lon="2.82041">
        <ele>47</ele>
        <time>2023-04-11T08:48:52.219Z</time>
      </trkpt>
      <trkpt lat="48.37247" lon="2.82048">
        <ele>48</ele>
        <time>2023-04-11T08:48:56.718Z</time>
      </trkpt>
      <trkpt lat="48.37247" lon="2.82049">
        <ele>48</ele>
        <time>2023-04-11T08:49:00.730Z</time>
      </trkpt>
      <trkpt lat="48.37247" lon="2.8205">
        <ele>48</ele>
        <time>2023-04-11T08:49:13.782Z</time>
      </trkpt>
      <trkpt lat="48.37247" lon="2.82051">
        <ele>48</ele>
        <time>2023-04-11T08:49:18.802Z</time>
      </trkpt>
      <trkpt lat="48.37249" lon="2.82041">
        <ele>47</ele>
        <time>2023-04-11T08:49:23.446Z</time>
      </trkpt>
      <trkpt lat="48.37251" lon="2.82032">
        <ele>47</ele>
        <time>2023-04-11T08:49:27.658Z</time>
      </trkpt>
      <trkpt lat="48.37248" lon="2.82028">
        <ele>47</ele>
        <time>2023-04-11T08:49:32.162Z</time>
      </trkpt>
      <trkpt lat="48.37238" lon="2.82032">
        <ele>47</ele>
        <time>2023-04-11T08:51:11.991Z</time>
      </trkpt>
      <trkpt lat="48.37236" lon="2.82033">
        <ele>48</ele>
        <time>2023-04-11T08:51:17.132Z</time>
      </trkpt>
      <trkpt lat="48.37235" lon="2.82034">
        <ele>48</ele>
        <time>2023-04-11T08:51:22.123Z</time>
      </trkpt>
      <trkpt lat="48.37235" lon="2.82034">
        <ele>48</ele>
        <time>2023-04-11T08:51:26.124Z</time>
      </trkpt>
      <trkpt lat="48.37234" lon="2.82035">
        <ele>48</ele>
        <time>2023-04-11T08:51:31.124Z</time>
      </trkpt>
      <trkpt lat="48.37231" lon="2.82046">
        <ele>48</ele>
        <time>2023-04-11T09:04:34.141Z</time>
      </trkpt>
      <trkpt lat="48.37231" lon="2.82046">
        <ele>48</ele>
        <time>2023-04-11T09:04:38.142Z</time>
      </trkpt>
      <trkpt lat="48.37231" lon="2.82048">
        <ele>48</ele>
        <time>2023-04-11T09:04:43.147Z</time>
      </trkpt>
      <trkpt lat="48.37232" lon="2.82048">
        <ele>48</ele>
        <time>2023-04-11T09:04:48.148Z</time>
      </trkpt>
      <trkpt lat="48.37231" lon="2.82048">
        <ele>48</ele>
        <time>2023-04-11T09:04:53.141Z</time>
      </trkpt>
      <trkpt lat="48.37231" lon="2.82047">
        <ele>48</ele>
        <time>2023-04-11T09:05:02.163Z</time>
      </trkpt>
      <trkpt lat="48.37232" lon="2.82047">
        <ele>48</ele>
        <time>2023-04-11T09:05:07.157Z</time>
      </trkpt>
      <trkpt lat="48.37235" lon="2.82049">
        <ele>48</ele>
        <time>2023-04-11T09:05:12.182Z</time>
      </trkpt>
      <trkpt lat="48.37238" lon="2.82053">
        <ele>48</ele>
        <time>2023-04-11T09:05:17.152Z</time>
      </trkpt>
      <trkpt lat="48.37242" lon="2.82048">
        <ele>48</ele>
        <time>2023-04-11T09:05:22.121Z</time>
      </trkpt>
      <trkpt lat="48.37249" lon="2.82048">
        <ele>48</ele>
        <time>2023-04-11T09:06:11.074Z</time>
      </trkpt>
      <trkpt lat="48.37248" lon="2.82058">
        <ele>48</ele>
        <time>2023-04-11T09:06:16.054Z</time>
      </trkpt>
      <trkpt lat="48.37247" lon="2.82068">
        <ele>48</ele>
        <time>2023-04-11T09:06:20.494Z</time>
      </trkpt>
      <trkpt lat="48.37246" lon="2.82077">
        <ele>49</ele>
        <time>2023-04-11T09:06:25.052Z</time>
      </trkpt>
      <trkpt lat="48.37243" lon="2.82084">
        <ele>49</ele>
        <time>2023-04-11T09:06:29.453Z</time>
      </trkpt>
      <trkpt lat="48.37239" lon="2.8209">
        <ele>49</ele>
        <time>2023-04-11T09:06:33.734Z</time>
      </trkpt>
      <trkpt lat="48.37237" lon="2.82095">
        <ele>49</ele>
        <time>2023-04-11T09:06:37.712Z</time>
      </trkpt>
      <trkpt lat="48.37232" lon="2.82097">
        <ele>49</ele>
        <time>2023-04-11T09:06:41.993Z</time>
      </trkpt>
      <trkpt lat="48.37227" lon="2.82099">
        <ele>49</ele>
        <time>2023-04-11T09:06:46.223Z</time>
      </trkpt>
      <trkpt lat="48.37221" lon="2.82104">
        <ele>49</ele>
        <time>2023-04-11T09:06:50.665Z</time>
      </trkpt>
      <trkpt lat="48.37216" lon="2.82106">
        <ele>49</ele>
        <time>2023-04-11T09:06:54.811Z</time>
      </trkpt>
      <trkpt lat="48.37213" lon="2.82115">
        <ele>49</ele>
        <time>2023-04-11T09:06:59.310Z</time>
      </trkpt>
      <trkpt lat="48.37213" lon="2.82127">
        <ele>49</ele>
        <time>2023-04-11T09:07:03.710Z</time>
      </trkpt>
      <trkpt lat="48.37212" lon="2.82134">
        <ele>49</ele>
        <time>2023-04-11T09:07:08.155Z</time>
      </trkpt>
      <trkpt lat="48.37212" lon="2.82144">
        <ele>49</ele>
        <time>2023-04-11T09:07:12.450Z</time>
      </trkpt>
      <trkpt lat="48.37209" lon="2.82152">
        <ele>49</ele>
        <time>2023-04-11T09:07:16.691Z</time>
      </trkpt>
      <trkpt lat="48.37204" lon="2.82159">
        <ele>48</ele>
        <time>2023-04-11T09:07:21.009Z</time>
      </trkpt>
      <trkpt lat="48.37203" lon="2.82167">
        <ele>48</ele>
        <time>2023-04-11T09:07:24.847Z</time>
      </trkpt>
      <trkpt lat="48.37203" lon="2.82177">
        <ele>48</ele>
        <time>2023-04-11T09:07:29.584Z</time>
      </trkpt>
      <trkpt lat="48.372" lon="2.82184">
        <ele>48</ele>
        <time>2023-04-11T09:07:33.421Z</time>
      </trkpt>
      <trkpt lat="48.37198" lon="2.82192">
        <ele>48</ele>
        <time>2023-04-11T09:07:37.820Z</time>
      </trkpt>
      <trkpt lat="48.37197" lon="2.822">
        <ele>48</ele>
        <time>2023-04-11T09:07:41.920Z</time>
      </trkpt>
      <trkpt lat="48.37196" lon="2.82204">
        <ele>48</ele>
        <time>2023-04-11T09:07:46.097Z</time>
      </trkpt>
      <trkpt lat="48.37196" lon="2.8221">
        <ele>47</ele>
        <time>2023-04-11T09:07:50.456Z</time>
      </trkpt>
      <trkpt lat="48.37198" lon="2.8221">
        <ele>47</ele>
        <time>2023-04-11T09:07:54.966Z</time>
      </trkpt>
      <trkpt lat="48.37199" lon="2.82214">
        <ele>47</ele>
        <time>2023-04-11T09:07:58.934Z</time>
      </trkpt>
      <trkpt lat="48.37197" lon="2.82213">
        <ele>47</ele>
        <time>2023-04-11T09:08:03.655Z</time>
      </trkpt>
      <trkpt lat="48.37196" lon="2.82215">
        <ele>47</ele>
        <time>2023-04-11T09:08:08.177Z</time>
      </trkpt>
      <trkpt lat="48.37194" lon="2.82218">
        <ele>47</ele>
        <time>2023-04-11T09:08:12.838Z</time>
      </trkpt>
      <trkpt lat="48.37192" lon="2.82224">
        <ele>47</ele>
        <time>2023-04-11T09:08:16.841Z</time>
      </trkpt>
      <trkpt lat="48.37192" lon="2.82233">
        <ele>47</ele>
        <time>2023-04-11T09:08:21.363Z</time>
      </trkpt>
      <trkpt lat="48.37191" lon="2.82241">
        <ele>47</ele>
        <time>2023-04-11T09:08:25.669Z</time>
      </trkpt>
      <trkpt lat="48.37188" lon="2.82249">
        <ele>47</ele>
        <time>2023-04-11T09:08:29.546Z</time>
      </trkpt>
      <trkpt lat="48.37184" lon="2.82256">
        <ele>47</ele>
        <time>2023-04-11T09:08:34.155Z</time>
      </trkpt>
      <trkpt lat="48.37181" lon="2.82264">
        <ele>47</ele>
        <time>2023-04-11T09:08:38.316Z</time>
      </trkpt>
      <trkpt lat="48.3718" lon="2.82273">
        <ele>48</ele>
        <time>2023-04-11T09:08:42.519Z</time>
      </trkpt>
      <trkpt lat="48.37178" lon="2.82281">
        <ele>48</ele>
        <time>2023-04-11T09:08:46.979Z</time>
      </trkpt>
      <trkpt lat="48.37175" lon="2.82288">
        <ele>48</ele>
        <time>2023-04-11T09:08:51.342Z</time>
      </trkpt>
      <trkpt lat="48.37172" lon="2.82296">
        <ele>48</ele>
        <time>2023-04-11T09:08:55.736Z</time>
      </trkpt>
      <trkpt lat="48.37171" lon="2.82304">
        <ele>48</ele>
        <time>2023-04-11T09:08:59.636Z</time>
      </trkpt>
      <trkpt lat="48.3717" lon="2.82311">
        <ele>48</ele>
        <time>2023-04-11T09:09:03.975Z</time>
      </trkpt>
      <trkpt lat="48.37168" lon="2.82318">
        <ele>48</ele>
        <time>2023-04-11T09:09:07.714Z</time>
      </trkpt>
      <trkpt lat="48.37165" lon="2.82324">
        <ele>48</ele>
        <time>2023-04-11T09:09:12.312Z</time>
      </trkpt>
      <trkpt lat="48.37163" lon="2.82331">
        <ele>48</ele>
        <time>2023-04-11T09:09:16.902Z</time>
      </trkpt>
      <trkpt lat="48.37161" lon="2.82338">
        <ele>48</ele>
        <time>2023-04-11T09:09:21.089Z</time>
      </trkpt>
      <trkpt lat="48.37161" lon="2.82346">
        <ele>48</ele>
        <time>2023-04-11T09:09:25.090Z</time>
      </trkpt>
      <trkpt lat="48.37161" lon="2.8235">
        <ele>49</ele>
        <time>2023-04-11T09:09:29.652Z</time>
      </trkpt>
      <trkpt lat="48.37158" lon="2.82351">
        <ele>49</ele>
        <time>2023-04-11T09:09:33.992Z</time>
      </trkpt>
      <trkpt lat="48.37158" lon="2.82353">
        <ele>49</ele>
        <time>2023-04-11T09:09:37.851Z</time>
      </trkpt>
      <trkpt lat="48.37157" lon="2.8236">
        <ele>49</ele>
        <time>2023-04-11T09:09:42.450Z</time>
      </trkpt>
      <trkpt lat="48.37154" lon="2.82369">
        <ele>49</ele>
        <time>2023-04-11T09:09:46.929Z</time>
      </trkpt>
      <trkpt lat="48.37152" lon="2.82376">
        <ele>48</ele>
        <time>2023-04-11T09:09:51.999Z</time>
      </trkpt>
      <trkpt lat="48.37149" lon="2.82383">
        <ele>48</ele>
        <time>2023-04-11T09:09:56.044Z</time>
      </trkpt>
      <trkpt lat="48.37147" lon="2.8239">
        <ele>48</ele>
        <time>2023-04-11T09:10:00.121Z</time>
      </trkpt>
      <trkpt lat="48.37144" lon="2.82394">
        <ele>48</ele>
        <time>2023-04-11T09:10:04.604Z</time>
      </trkpt>
      <trkpt lat="48.37145" lon="2.82397">
        <ele>48</ele>
        <time>2023-04-11T09:10:09.158Z</time>
      </trkpt>
      <trkpt lat="48.37145" lon="2.824">
        <ele>48</ele>
        <time>2023-04-11T09:10:13.676Z</time>
      </trkpt>
      <trkpt lat="48.37143" lon="2.82403">
        <ele>49</ele>
        <time>2023-04-11T09:10:17.694Z</time>
      </trkpt>
      <trkpt lat="48.37142" lon="2.82404">
        <ele>49</ele>
        <time>2023-04-11T09:10:22.489Z</time>
      </trkpt>
      <trkpt lat="48.37142" lon="2.8241">
        <ele>49</ele>
        <time>2023-04-11T09:10:27.046Z</time>
      </trkpt>
      <trkpt lat="48.3714" lon="2.82419">
        <ele>49</ele>
        <time>2023-04-11T09:10:31.482Z</time>
      </trkpt>
      <trkpt lat="48.37138" lon="2.82429">
        <ele>49</ele>
        <time>2023-04-11T09:10:36.279Z</time>
      </trkpt>
      <trkpt lat="48.37135" lon="2.82437">
        <ele>49</ele>
        <time>2023-04-11T09:10:40.794Z</time>
      </trkpt>
      <trkpt lat="48.37131" lon="2.82445">
        <ele>49</ele>
        <time>2023-04-11T09:10:45.111Z</time>
      </trkpt>
      <trkpt lat="48.37129" lon="2.82452">
        <ele>49</ele>
        <time>2023-04-11T09:10:49.441Z</time>
      </trkpt>
      <trkpt lat="48.37127" lon="2.8246">
        <ele>50</ele>
        <time>2023-04-11T09:10:53.826Z</time>
      </trkpt>
      <trkpt lat="48.37125" lon="2.82468">
        <ele>50</ele>
        <time>2023-04-11T09:10:58.305Z</time>
      </trkpt>
      <trkpt lat="48.37123" lon="2.82477">
        <ele>50</ele>
        <time>2023-04-11T09:11:02.305Z</time>
      </trkpt>
      <trkpt lat="48.3712" lon="2.82486">
        <ele>50</ele>
        <time>2023-04-11T09:11:06.482Z</time>
      </trkpt>
      <trkpt lat="48.37116" lon="2.82492">
        <ele>50</ele>
        <time>2023-04-11T09:11:11.124Z</time>
      </trkpt>
      <trkpt lat="48.37113" lon="2.825">
        <ele>50</ele>
        <time>2023-04-11T09:11:15.541Z</time>
      </trkpt>
      <trkpt lat="48.37112" lon="2.82509">
        <ele>50</ele>
        <time>2023-04-11T09:11:19.733Z</time>
      </trkpt>
      <trkpt lat="48.3711" lon="2.82519">
        <ele>51</ele>
        <time>2023-04-11T09:11:24.083Z</time>
      </trkpt>
      <trkpt lat="48.3711" lon="2.82527">
        <ele>51</ele>
        <time>2023-04-11T09:11:27.869Z</time>
      </trkpt>
      <trkpt lat="48.3711" lon="2.82536">
        <ele>51</ele>
        <time>2023-04-11T09:11:32.688Z</time>
      </trkpt>
      <trkpt lat="48.37109" lon="2.82544">
        <ele>51</ele>
        <time>2023-04-11T09:11:37.127Z</time>
      </trkpt>
      <trkpt lat="48.37109" lon="2.82552">
        <ele>51</ele>
        <time>2023-04-11T09:12:18.149Z</time>
      </trkpt>
      <trkpt lat="48.37111" lon="2.82553">
        <ele>51</ele>
        <time>2023-04-11T09:12:22.659Z</time>
      </trkpt>
      <trkpt lat="48.3711" lon="2.82561">
        <ele>51</ele>
        <time>2023-04-11T09:12:26.943Z</time>
      </trkpt>
      <trkpt lat="48.37108" lon="2.82564">
        <ele>51</ele>
        <time>2023-04-11T09:12:30.957Z</time>
      </trkpt>
      <trkpt lat="48.37107" lon="2.82567">
        <ele>51</ele>
        <time>2023-04-11T09:12:34.968Z</time>
      </trkpt>
      <trkpt lat="48.37107" lon="2.82569">
        <ele>51</ele>
        <time>2023-04-11T09:12:48.021Z</time>
      </trkpt>
      <trkpt lat="48.37106" lon="2.8257">
        <ele>50</ele>
        <time>2023-04-11T09:12:53.037Z</time>
      </trkpt>
      <trkpt lat="48.37106" lon="2.82575">
        <ele>50</ele>
        <time>2023-04-11T09:12:58.150Z</time>
      </trkpt>
      <trkpt lat="48.37106" lon="2.82577">
        <ele>50</ele>
        <time>2023-04-11T09:13:02.657Z</time>
      </trkpt>
      <trkpt lat="48.37106" lon="2.82581">
        <ele>50</ele>
        <time>2023-04-11T09:13:07.161Z</time>
      </trkpt>
      <trkpt lat="48.37102" lon="2.82591">
        <ele>50</ele>
        <time>2023-04-11T09:13:11.163Z</time>
      </trkpt>
      <trkpt lat="48.37101" lon="2.82602">
        <ele>49</ele>
        <time>2023-04-11T09:13:15.825Z</time>
      </trkpt>
      <trkpt lat="48.371" lon="2.82612">
        <ele>49</ele>
        <time>2023-04-11T09:13:19.745Z</time>
      </trkpt>
      <trkpt lat="48.371" lon="2.82617">
        <ele>49</ele>
        <time>2023-04-11T09:13:23.925Z</time>
      </trkpt>
      <trkpt lat="48.37099" lon="2.82625">
        <ele>49</ele>
        <time>2023-04-11T09:13:28.163Z</time>
      </trkpt>
      <trkpt lat="48.371" lon="2.82633">
        <ele>49</ele>
        <time>2023-04-11T09:13:32.626Z</time>
      </trkpt>
      <trkpt lat="48.371" lon="2.82642">
        <ele>49</ele>
        <time>2023-04-11T09:13:36.906Z</time>
      </trkpt>
      <trkpt lat="48.37101" lon="2.82649">
        <ele>49</ele>
        <time>2023-04-11T09:13:41.155Z</time>
      </trkpt>
      <trkpt lat="48.37098" lon="2.82656">
        <ele>50</ele>
        <time>2023-04-11T09:13:45.264Z</time>
      </trkpt>
      <trkpt lat="48.37095" lon="2.82663">
        <ele>50</ele>
        <time>2023-04-11T09:13:49.462Z</time>
      </trkpt>
      <trkpt lat="48.37092" lon="2.8267">
        <ele>50</ele>
        <time>2023-04-11T09:13:53.761Z</time>
      </trkpt>
      <trkpt lat="48.37089" lon="2.82679">
        <ele>50</ele>
        <time>2023-04-11T09:13:58.380Z</time>
      </trkpt>
      <trkpt lat="48.3709" lon="2.82689">
        <ele>50</ele>
        <time>2023-04-11T09:14:03.863Z</time>
      </trkpt>
      <trkpt lat="48.37094" lon="2.82694">
        <ele>50</ele>
        <time>2023-04-11T09:14:08.101Z</time>
      </trkpt>
      <trkpt lat="48.37098" lon="2.82697">
        <ele>50</ele>
        <time>2023-04-11T09:14:12.298Z</time>
      </trkpt>
      <trkpt lat="48.37103" lon="2.82702">
        <ele>50</ele>
        <time>2023-04-11T09:14:16.316Z</time>
      </trkpt>
      <trkpt lat="48.37105" lon="2.82705">
        <ele>50</ele>
        <time>2023-04-11T09:14:20.316Z</time>
      </trkpt>
      <trkpt lat="48.37111" lon="2.8271">
        <ele>49</ele>
        <time>2023-04-11T09:14:24.295Z</time>
      </trkpt>
      <trkpt lat="48.37117" lon="2.82715">
        <ele>49</ele>
        <time>2023-04-11T09:14:28.977Z</time>
      </trkpt>
      <trkpt lat="48.37122" lon="2.8272">
        <ele>49</ele>
        <time>2023-04-11T09:14:33.146Z</time>
      </trkpt>
      <trkpt lat="48.37128" lon="2.82724">
        <ele>49</ele>
        <time>2023-04-11T09:14:37.417Z</time>
      </trkpt>
      <trkpt lat="48.37133" lon="2.82728">
        <ele>49</ele>
        <time>2023-04-11T09:14:41.757Z</time>
      </trkpt>
      <trkpt lat="48.37137" lon="2.82734">
        <ele>49</ele>
        <time>2023-04-11T09:14:46.306Z</time>
      </trkpt>
      <trkpt lat="48.37143" lon="2.82739">
        <ele>49</ele>
        <time>2023-04-11T09:14:50.654Z</time>
      </trkpt>
      <trkpt lat="48.37147" lon="2.82745">
        <ele>49</ele>
        <time>2023-04-11T09:14:54.856Z</time>
      </trkpt>
      <trkpt lat="48.3715" lon="2.82751">
        <ele>49</ele>
        <time>2023-04-11T09:14:59.206Z</time>
      </trkpt>
      <trkpt lat="48.37153" lon="2.82756">
        <ele>50</ele>
        <time>2023-04-11T09:15:03.527Z</time>
      </trkpt>
      <trkpt lat="48.37158" lon="2.82761">
        <ele>50</ele>
        <time>2023-04-11T09:15:07.631Z</time>
      </trkpt>
      <trkpt lat="48.37164" lon="2.82765">
        <ele>50</ele>
        <time>2023-04-11T09:15:12.132Z</time>
      </trkpt>
      <trkpt lat="48.37168" lon="2.82769">
        <ele>50</ele>
        <time>2023-04-11T09:15:16.541Z</time>
      </trkpt>
      <trkpt lat="48.37172" lon="2.82776">
        <ele>50</ele>
        <time>2023-04-11T09:15:20.820Z</time>
      </trkpt>
      <trkpt lat="48.37178" lon="2.82779">
        <ele>50</ele>
        <time>2023-04-11T09:15:25.219Z</time>
      </trkpt>
      <trkpt lat="48.37183" lon="2.82785">
        <ele>50</ele>
        <time>2023-04-11T09:15:29.499Z</time>
      </trkpt>
      <trkpt lat="48.37187" lon="2.82792">
        <ele>50</ele>
        <time>2023-04-11T09:15:33.919Z</time>
      </trkpt>
      <trkpt lat="48.37193" lon="2.82797">
        <ele>50</ele>
        <time>2023-04-11T09:15:38.388Z</time>
      </trkpt>
      <trkpt lat="48.37198" lon="2.82803">
        <ele>50</ele>
        <time>2023-04-11T09:15:42.905Z</time>
      </trkpt>
      <trkpt lat="48.37201" lon="2.82808">
        <ele>50</ele>
        <time>2023-04-11T09:15:46.984Z</time>
      </trkpt>
      <trkpt lat="48.37205" lon="2.82815">
        <ele>50</ele>
        <time>2023-04-11T09:15:51.532Z</time>
      </trkpt>
      <trkpt lat="48.37209" lon="2.8282">
        <ele>51</ele>
        <time>2023-04-11T09:15:55.316Z</time>
      </trkpt>
      <trkpt lat="48.37214" lon="2.82827">
        <ele>51</ele>
        <time>2023-04-11T09:15:59.926Z</time>
      </trkpt>
      <trkpt lat="48.37218" lon="2.82834">
        <ele>51</ele>
        <time>2023-04-11T09:16:04.308Z</time>
      </trkpt>
      <trkpt lat="48.37223" lon="2.82841">
        <ele>51</ele>
        <time>2023-04-11T09:16:08.663Z</time>
      </trkpt>
      <trkpt lat="48.37223" lon="2.82844">
        <ele>51</ele>
        <time>2023-04-11T09:16:12.923Z</time>
      </trkpt>
      <trkpt lat="48.37227" lon="2.8285">
        <ele>51</ele>
        <time>2023-04-11T09:16:17.283Z</time>
      </trkpt>
      <trkpt lat="48.37233" lon="2.82858">
        <ele>51</ele>
        <time>2023-04-11T09:16:21.784Z</time>
      </trkpt>
      <trkpt lat="48.37237" lon="2.82865">
        <ele>52</ele>
        <time>2023-04-11T09:16:25.599Z</time>
      </trkpt>
      <trkpt lat="48.37242" lon="2.82872">
        <ele>52</ele>
        <time>2023-04-11T09:16:30.137Z</time>
      </trkpt>
      <trkpt lat="48.37245" lon="2.82878">
        <ele>54</ele>
        <time>2023-04-11T09:16:34.328Z</time>
      </trkpt>
      <trkpt lat="48.37248" lon="2.82885">
        <ele>54</ele>
        <time>2023-04-11T09:16:38.513Z</time>
      </trkpt>
      <trkpt lat="48.37252" lon="2.82893">
        <ele>54</ele>
        <time>2023-04-11T09:16:42.763Z</time>
      </trkpt>
      <trkpt lat="48.37255" lon="2.829">
        <ele>54</ele>
        <time>2023-04-11T09:16:47.109Z</time>
      </trkpt>
      <trkpt lat="48.37258" lon="2.82907">
        <ele>56</ele>
        <time>2023-04-11T09:16:51.484Z</time>
      </trkpt>
      <trkpt lat="48.37261" lon="2.82912">
        <ele>56</ele>
        <time>2023-04-11T09:16:55.879Z</time>
      </trkpt>
      <trkpt lat="48.37265" lon="2.8292">
        <ele>58</ele>
        <time>2023-04-11T09:17:00.225Z</time>
      </trkpt>
      <trkpt lat="48.37268" lon="2.82927">
        <ele>58</ele>
        <time>2023-04-11T09:17:04.316Z</time>
      </trkpt>
      <trkpt lat="48.37273" lon="2.82933">
        <ele>61</ele>
        <time>2023-04-11T09:17:08.886Z</time>
      </trkpt>
      <trkpt lat="48.37278" lon="2.8294">
        <ele>61</ele>
        <time>2023-04-11T09:17:13.843Z</time>
      </trkpt>
      <trkpt lat="48.37281" lon="2.82944">
        <ele>61</ele>
        <time>2023-04-11T09:17:17.681Z</time>
      </trkpt>
      <trkpt lat="48.37286" lon="2.82949">
        <ele>61</ele>
        <time>2023-04-11T09:17:22.837Z</time>
      </trkpt>
      <trkpt lat="48.3729" lon="2.82954">
        <ele>61</ele>
        <time>2023-04-11T09:17:27.347Z</time>
      </trkpt>
      <trkpt lat="48.37295" lon="2.82959">
        <ele>66</ele>
        <time>2023-04-11T09:17:31.735Z</time>
      </trkpt>
      <trkpt lat="48.37299" lon="2.82963">
        <ele>66</ele>
        <time>2023-04-11T09:17:35.874Z</time>
      </trkpt>
      <trkpt lat="48.37302" lon="2.82968">
        <ele>66</ele>
        <time>2023-04-11T09:17:40.072Z</time>
      </trkpt>
      <trkpt lat="48.37307" lon="2.82974">
        <ele>66</ele>
        <time>2023-04-11T09:17:44.610Z</time>
      </trkpt>
      <trkpt lat="48.37312" lon="2.82977">
        <ele>66</ele>
        <time>2023-04-11T09:17:49.009Z</time>
      </trkpt>
      <trkpt lat="48.37317" lon="2.82977">
        <ele>66</ele>
        <time>2023-04-11T09:17:52.969Z</time>
      </trkpt>
      <trkpt lat="48.37322" lon="2.82978">
        <ele>67</ele>
        <time>2023-04-11T09:17:57.789Z</time>
      </trkpt>
      <trkpt lat="48.37327" lon="2.82979">
        <ele>67</ele>
        <time>2023-04-11T09:18:01.708Z</time>
      </trkpt>
      <trkpt lat="48.37333" lon="2.82978">
        <ele>67</ele>
        <time>2023-04-11T09:18:06.449Z</time>
      </trkpt>
      <trkpt lat="48.37338" lon="2.82978">
        <ele>67</ele>
        <time>2023-04-11T09:18:10.928Z</time>
      </trkpt>
      <trkpt lat="48.37344" lon="2.82977">
        <ele>67</ele>
        <time>2023-04-11T09:18:15.468Z</time>
      </trkpt>
      <trkpt lat="48.37348" lon="2.82977">
        <ele>68</ele>
        <time>2023-04-11T09:18:19.831Z</time>
      </trkpt>
      <trkpt lat="48.37347" lon="2.82978">
        <ele>68</ele>
        <time>2023-04-11T09:18:23.844Z</time>
      </trkpt>
      <trkpt lat="48.37349" lon="2.82974">
        <ele>68</ele>
        <time>2023-04-11T09:18:28.359Z</time>
      </trkpt>
      <trkpt lat="48.37356" lon="2.82973">
        <ele>68</ele>
        <time>2023-04-11T09:18:32.867Z</time>
      </trkpt>
      <trkpt lat="48.37362" lon="2.82972">
        <ele>68</ele>
        <time>2023-04-11T09:18:37.373Z</time>
      </trkpt>
      <trkpt lat="48.37367" lon="2.82967">
        <ele>68</ele>
        <time>2023-04-11T09:19:05.029Z</time>
      </trkpt>
      <trkpt lat="48.37377" lon="2.82973">
        <ele>71</ele>
        <time>2023-04-11T09:19:09.042Z</time>
      </trkpt>
      <trkpt lat="48.37385" lon="2.82974">
        <ele>71</ele>
        <time>2023-04-11T09:19:14.054Z</time>
      </trkpt>
      <trkpt lat="48.37391" lon="2.82974">
        <ele>71</ele>
        <time>2023-04-11T09:19:18.061Z</time>
      </trkpt>
      <trkpt lat="48.37393" lon="2.82977">
        <ele>71</ele>
        <time>2023-04-11T09:19:22.067Z</time>
      </trkpt>
      <trkpt lat="48.3739" lon="2.82973">
        <ele>71</ele>
        <time>2023-04-11T09:19:27.084Z</time>
      </trkpt>
      <trkpt lat="48.37389" lon="2.82973">
        <ele>71</ele>
        <time>2023-04-11T09:19:31.113Z</time>
      </trkpt>
      <trkpt lat="48.37397" lon="2.82975">
        <ele>71</ele>
        <time>2023-04-11T09:19:35.316Z</time>
      </trkpt>
      <trkpt lat="48.37405" lon="2.82975">
        <ele>73</ele>
        <time>2023-04-11T09:19:39.328Z</time>
      </trkpt>
      <trkpt lat="48.37414" lon="2.82974">
        <ele>73</ele>
        <time>2023-04-11T09:19:43.842Z</time>
      </trkpt>
      <trkpt lat="48.3742" lon="2.82977">
        <ele>73</ele>
        <time>2023-04-11T09:19:47.848Z</time>
      </trkpt>
      <trkpt lat="48.37429" lon="2.82976">
        <ele>73</ele>
        <time>2023-04-11T09:19:51.952Z</time>
      </trkpt>
      <trkpt lat="48.37434" lon="2.82976">
        <ele>74</ele>
        <time>2023-04-11T09:19:56.455Z</time>
      </trkpt>
      <trkpt lat="48.37442" lon="2.82978">
        <ele>74</ele>
        <time>2023-04-11T09:20:00.887Z</time>
      </trkpt>
      <trkpt lat="48.37448" lon="2.82976">
        <ele>74</ele>
        <time>2023-04-11T09:20:04.835Z</time>
      </trkpt>
      <trkpt lat="48.37455" lon="2.82976">
        <ele>74</ele>
        <time>2023-04-11T09:20:09.354Z</time>
      </trkpt>
      <trkpt lat="48.37462" lon="2.82976">
        <ele>76</ele>
        <time>2023-04-11T09:20:13.773Z</time>
      </trkpt>
      <trkpt lat="48.37466" lon="2.82972">
        <ele>76</ele>
        <time>2023-04-11T09:20:20.793Z</time>
      </trkpt>
      <trkpt lat="48.37471" lon="2.82973">
        <ele>76</ele>
        <time>2023-04-11T09:20:25.409Z</time>
      </trkpt>
      <trkpt lat="48.37478" lon="2.82975">
        <ele>76</ele>
        <time>2023-04-11T09:20:29.913Z</time>
      </trkpt>
      <trkpt lat="48.37484" lon="2.82974">
        <ele>76</ele>
        <time>2023-04-11T09:20:34.916Z</time>
      </trkpt>
      <trkpt lat="48.37491" lon="2.82975">
        <ele>79</ele>
        <time>2023-04-11T09:20:39.117Z</time>
      </trkpt>
      <trkpt lat="48.37497" lon="2.82978">
        <ele>79</ele>
        <time>2023-04-11T09:20:43.477Z</time>
      </trkpt>
      <trkpt lat="48.37504" lon="2.82978">
        <ele>79</ele>
        <time>2023-04-11T09:20:47.898Z</time>
      </trkpt>
      <trkpt lat="48.3751" lon="2.82977">
        <ele>79</ele>
        <time>2023-04-11T09:20:52.337Z</time>
      </trkpt>
      <trkpt lat="48.37516" lon="2.82975">
        <ele>83</ele>
        <time>2023-04-11T09:20:56.533Z</time>
      </trkpt>
      <trkpt lat="48.37522" lon="2.82975">
        <ele>83</ele>
        <time>2023-04-11T09:21:00.611Z</time>
      </trkpt>
      <trkpt lat="48.37528" lon="2.82977">
        <ele>83</ele>
        <time>2023-04-11T09:21:05.137Z</time>
      </trkpt>
      <trkpt lat="48.37535" lon="2.82977">
        <ele>83</ele>
        <time>2023-04-11T09:21:09.665Z</time>
      </trkpt>
      <trkpt lat="48.37541" lon="2.82977">
        <ele>83</ele>
        <time>2023-04-11T09:21:14.362Z</time>
      </trkpt>
      <trkpt lat="48.37548" lon="2.82976">
        <ele>88</ele>
        <time>2023-04-11T09:21:18.497Z</time>
      </trkpt>
      <trkpt lat="48.37554" lon="2.82975">
        <ele>88</ele>
        <time>2023-04-11T09:21:22.874Z</time>
      </trkpt>
      <trkpt lat="48.3756" lon="2.82973">
        <ele>88</ele>
        <time>2023-04-11T09:21:26.995Z</time>
      </trkpt>
      <trkpt lat="48.37565" lon="2.8297">
        <ele>88</ele>
        <time>2023-04-11T09:21:31.414Z</time>
      </trkpt>
      <trkpt lat="48.37571" lon="2.82971">
        <ele>89</ele>
        <time>2023-04-11T09:21:36.092Z</time>
      </trkpt>
      <trkpt lat="48.37578" lon="2.8297">
        <ele>89</ele>
        <time>2023-04-11T09:21:40.689Z</time>
      </trkpt>
      <trkpt lat="48.37583" lon="2.82968">
        <ele>89</ele>
        <time>2023-04-11T09:21:45.184Z</time>
      </trkpt>
      <trkpt lat="48.37589" lon="2.82965">
        <ele>89</ele>
        <time>2023-04-11T09:21:49.739Z</time>
      </trkpt>
      <trkpt lat="48.37594" lon="2.82964">
        <ele>89</ele>
        <time>2023-04-11T09:21:53.693Z</time>
      </trkpt>
      <trkpt lat="48.37599" lon="2.82964">
        <ele>90</ele>
        <time>2023-04-11T09:21:58.487Z</time>
      </trkpt>
      <trkpt lat="48.37604" lon="2.82961">
        <ele>90</ele>
        <time>2023-04-11T09:22:02.683Z</time>
      </trkpt>
      <trkpt lat="48.37608" lon="2.82959">
        <ele>90</ele>
        <time>2023-04-11T09:22:07.280Z</time>
      </trkpt>
      <trkpt lat="48.37614" lon="2.8296">
        <ele>90</ele>
        <time>2023-04-11T09:22:11.716Z</time>
      </trkpt>
      <trkpt lat="48.37619" lon="2.82959">
        <ele>90</ele>
        <time>2023-04-11T09:22:15.913Z</time>
      </trkpt>
      <trkpt lat="48.37625" lon="2.82959">
        <ele>90</ele>
        <time>2023-04-11T09:22:19.911Z</time>
      </trkpt>
      <trkpt lat="48.37631" lon="2.82959">
        <ele>91</ele>
        <time>2023-04-11T09:22:24.420Z</time>
      </trkpt>
      <trkpt lat="48.37637" lon="2.82956">
        <ele>91</ele>
        <time>2023-04-11T09:22:28.908Z</time>
      </trkpt>
      <trkpt lat="48.37641" lon="2.82956">
        <ele>91</ele>
        <time>2023-04-11T09:22:32.724Z</time>
      </trkpt>
      <trkpt lat="48.37646" lon="2.82956">
        <ele>91</ele>
        <time>2023-04-11T09:22:36.921Z</time>
      </trkpt>
      <trkpt lat="48.37652" lon="2.82955">
        <ele>91</ele>
        <time>2023-04-11T09:22:41.500Z</time>
      </trkpt>
      <trkpt lat="48.37657" lon="2.82955">
        <ele>92</ele>
        <time>2023-04-11T09:22:45.913Z</time>
      </trkpt>
      <trkpt lat="48.37662" lon="2.82956">
        <ele>92</ele>
        <time>2023-04-11T09:22:50.603Z</time>
      </trkpt>
      <trkpt lat="48.37666" lon="2.82958">
        <ele>92</ele>
        <time>2023-04-11T09:22:54.647Z</time>
      </trkpt>
      <trkpt lat="48.37674" lon="2.82955">
        <ele>92</ele>
        <time>2023-04-11T09:22:59.068Z</time>
      </trkpt>
      <trkpt lat="48.3768" lon="2.82955">
        <ele>92</ele>
        <time>2023-04-11T09:23:03.447Z</time>
      </trkpt>
      <trkpt lat="48.37684" lon="2.82955">
        <ele>94</ele>
        <time>2023-04-11T09:23:07.742Z</time>
      </trkpt>
      <trkpt lat="48.37689" lon="2.82957">
        <ele>94</ele>
        <time>2023-04-11T09:23:12.227Z</time>
      </trkpt>
      <trkpt lat="48.37695" lon="2.82954">
        <ele>94</ele>
        <time>2023-04-11T09:23:16.636Z</time>
      </trkpt>
      <trkpt lat="48.37701" lon="2.82952">
        <ele>94</ele>
        <time>2023-04-11T09:23:21.115Z</time>
      </trkpt>
      <trkpt lat="48.37707" lon="2.82951">
        <ele>94</ele>
        <time>2023-04-11T09:23:25.614Z</time>
      </trkpt>
      <trkpt lat="48.37712" lon="2.82951">
        <ele>95</ele>
        <time>2023-04-11T09:23:30.103Z</time>
      </trkpt>
      <trkpt lat="48.37717" lon="2.8295">
        <ele>95</ele>
        <time>2023-04-11T09:23:34.047Z</time>
      </trkpt>
      <trkpt lat="48.37722" lon="2.8295">
        <ele>95</ele>
        <time>2023-04-11T09:23:38.547Z</time>
      </trkpt>
      <trkpt lat="48.37729" lon="2.82952">
        <ele>95</ele>
        <time>2023-04-11T09:23:43.103Z</time>
      </trkpt>
      <trkpt lat="48.37735" lon="2.82952">
        <ele>95</ele>
        <time>2023-04-11T09:23:47.150Z</time>
      </trkpt>
      <trkpt lat="48.37739" lon="2.82951">
        <ele>96</ele>
        <time>2023-04-11T09:23:51.224Z</time>
      </trkpt>
      <trkpt lat="48.37744" lon="2.82953">
        <ele>96</ele>
        <time>2023-04-11T09:23:55.714Z</time>
      </trkpt>
      <trkpt lat="48.37748" lon="2.82955">
        <ele>96</ele>
        <time>2023-04-11T09:24:00.141Z</time>
      </trkpt>
      <trkpt lat="48.37751" lon="2.82962">
        <ele>96</ele>
        <time>2023-04-11T09:24:04.494Z</time>
      </trkpt>
      <trkpt lat="48.37753" lon="2.82969">
        <ele>96</ele>
        <time>2023-04-11T09:24:08.512Z</time>
      </trkpt>
      <trkpt lat="48.37756" lon="2.82976">
        <ele>96</ele>
        <time>2023-04-11T09:24:12.832Z</time>
      </trkpt>
      <trkpt lat="48.37757" lon="2.82984">
        <ele>96</ele>
        <time>2023-04-11T09:24:17.441Z</time>
      </trkpt>
      <trkpt lat="48.37759" lon="2.82994">
        <ele>98</ele>
        <time>2023-04-11T09:24:21.825Z</time>
      </trkpt>
      <trkpt lat="48.3776" lon="2.83002">
        <ele>98</ele>
        <time>2023-04-11T09:24:26.382Z</time>
      </trkpt>
      <trkpt lat="48.37762" lon="2.8301">
        <ele>98</ele>
        <time>2023-04-11T09:24:30.316Z</time>
      </trkpt>
      <trkpt lat="48.37766" lon="2.83018">
        <ele>100</ele>
        <time>2023-04-11T09:24:34.857Z</time>
      </trkpt>
      <trkpt lat="48.37766" lon="2.83025">
        <ele>100</ele>
        <time>2023-04-11T09:24:38.899Z</time>
      </trkpt>
      <trkpt lat="48.37767" lon="2.83034">
        <ele>100</ele>
        <time>2023-04-11T09:24:43.537Z</time>
      </trkpt>
      <trkpt lat="48.37768" lon="2.83041">
        <ele>100</ele>
        <time>2023-04-11T09:24:47.635Z</time>
      </trkpt>
      <trkpt lat="48.37769" lon="2.83048">
        <ele>102</ele>
        <time>2023-04-11T09:24:51.975Z</time>
      </trkpt>
      <trkpt lat="48.37769" lon="2.83056">
        <ele>102</ele>
        <time>2023-04-11T09:24:56.053Z</time>
      </trkpt>
      <trkpt lat="48.37768" lon="2.83066">
        <ele>102</ele>
        <time>2023-04-11T09:25:00.583Z</time>
      </trkpt>
      <trkpt lat="48.37769" lon="2.83075">
        <ele>102</ele>
        <time>2023-04-11T09:25:04.867Z</time>
      </trkpt>
      <trkpt lat="48.37769" lon="2.83085">
        <ele>102</ele>
        <time>2023-04-11T09:25:08.701Z</time>
      </trkpt>
      <trkpt lat="48.37769" lon="2.83095">
        <ele>102</ele>
        <time>2023-04-11T09:25:13.374Z</time>
      </trkpt>
      <trkpt lat="48.37771" lon="2.83103">
        <ele>104</ele>
        <time>2023-04-11T09:25:17.803Z</time>
      </trkpt>
      <trkpt lat="48.37774" lon="2.83111">
        <ele>104</ele>
        <time>2023-04-11T09:25:22.039Z</time>
      </trkpt>
      <trkpt lat="48.37778" lon="2.83118">
        <ele>104</ele>
        <time>2023-04-11T09:25:26.425Z</time>
      </trkpt>
      <trkpt lat="48.37781" lon="2.83126">
        <ele>104</ele>
        <time>2023-04-11T09:25:30.659Z</time>
      </trkpt>
      <trkpt lat="48.37785" lon="2.83134">
        <ele>104</ele>
        <time>2023-04-11T09:25:35.086Z</time>
      </trkpt>
      <trkpt lat="48.37789" lon="2.83144">
        <ele>104</ele>
        <time>2023-04-11T09:25:40.007Z</time>
      </trkpt>
      <trkpt lat="48.37791" lon="2.83153">
        <ele>105</ele>
        <time>2023-04-11T09:25:44.686Z</time>
      </trkpt>
      <trkpt lat="48.37795" lon="2.83161">
        <ele>104</ele>
        <time>2023-04-11T09:25:48.982Z</time>
      </trkpt>
      <trkpt lat="48.37798" lon="2.83169">
        <ele>104</ele>
        <time>2023-04-11T09:25:53.844Z</time>
      </trkpt>
      <trkpt lat="48.37801" lon="2.83176">
        <ele>104</ele>
        <time>2023-04-11T09:25:57.849Z</time>
      </trkpt>
      <trkpt lat="48.37805" lon="2.83185">
        <ele>105</ele>
        <time>2023-04-11T09:26:02.316Z</time>
      </trkpt>
      <trkpt lat="48.37807" lon="2.83194">
        <ele>105</ele>
        <time>2023-04-11T09:26:06.702Z</time>
      </trkpt>
      <trkpt lat="48.3781" lon="2.83202">
        <ele>105</ele>
        <time>2023-04-11T09:26:10.537Z</time>
      </trkpt>
      <trkpt lat="48.37812" lon="2.83208">
        <ele>105</ele>
        <time>2023-04-11T09:26:15.222Z</time>
      </trkpt>
      <trkpt lat="48.37821" lon="2.83221">
        <ele>104</ele>
        <time>2023-04-11T09:26:24.282Z</time>
      </trkpt>
      <trkpt lat="48.37825" lon="2.83229">
        <ele>104</ele>
        <time>2023-04-11T09:26:28.254Z</time>
      </trkpt>
      <trkpt lat="48.37828" lon="2.83236">
        <ele>102</ele>
        <time>2023-04-11T09:26:32.880Z</time>
      </trkpt>
      <trkpt lat="48.37831" lon="2.83242">
        <ele>102</ele>
        <time>2023-04-11T09:26:37.223Z</time>
      </trkpt>
      <trkpt lat="48.37836" lon="2.83248">
        <ele>102</ele>
        <time>2023-04-11T09:26:41.718Z</time>
      </trkpt>
      <trkpt lat="48.3784" lon="2.83255">
        <ele>102</ele>
        <time>2023-04-11T09:26:45.672Z</time>
      </trkpt>
      <trkpt lat="48.37843" lon="2.83263">
        <ele>102</ele>
        <time>2023-04-11T09:26:50.145Z</time>
      </trkpt>
      <trkpt lat="48.37846" lon="2.83269">
        <ele>102</ele>
        <time>2023-04-11T09:26:54.061Z</time>
      </trkpt>
      <trkpt lat="48.3785" lon="2.83276">
        <ele>101</ele>
        <time>2023-04-11T09:26:58.464Z</time>
      </trkpt>
      <trkpt lat="48.37854" lon="2.83284">
        <ele>101</ele>
        <time>2023-04-11T09:27:02.744Z</time>
      </trkpt>
      <trkpt lat="48.37858" lon="2.83291">
        <ele>101</ele>
        <time>2023-04-11T09:27:07.143Z</time>
      </trkpt>
      <trkpt lat="48.37862" lon="2.83298">
        <ele>101</ele>
        <time>2023-04-11T09:27:11.858Z</time>
      </trkpt>
      <trkpt lat="48.37866" lon="2.83308">
        <ele>101</ele>
        <time>2023-04-11T09:27:15.862Z</time>
      </trkpt>
      <trkpt lat="48.3787" lon="2.83316">
        <ele>101</ele>
        <time>2023-04-11T09:27:20.597Z</time>
      </trkpt>
      <trkpt lat="48.37872" lon="2.8332">
        <ele>101</ele>
        <time>2023-04-11T09:27:24.857Z</time>
      </trkpt>
      <trkpt lat="48.37876" lon="2.83323">
        <ele>100</ele>
        <time>2023-04-11T09:27:29.532Z</time>
      </trkpt>
      <trkpt lat="48.37879" lon="2.8333">
        <ele>100</ele>
        <time>2023-04-11T09:27:33.728Z</time>
      </trkpt>
      <trkpt lat="48.37884" lon="2.83337">
        <ele>100</ele>
        <time>2023-04-11T09:27:38.283Z</time>
      </trkpt>
      <trkpt lat="48.37889" lon="2.83344">
        <ele>100</ele>
        <time>2023-04-11T09:27:42.761Z</time>
      </trkpt>
      <trkpt lat="48.37894" lon="2.83351">
        <ele>101</ele>
        <time>2023-04-11T09:27:46.677Z</time>
      </trkpt>
      <trkpt lat="48.37901" lon="2.83359">
        <ele>101</ele>
        <time>2023-04-11T09:27:51.985Z</time>
      </trkpt>
      <trkpt lat="48.37905" lon="2.83366">
        <ele>101</ele>
        <time>2023-04-11T09:27:56.031Z</time>
      </trkpt>
      <trkpt lat="48.3791" lon="2.83375">
        <ele>102</ele>
        <time>2023-04-11T09:28:00.529Z</time>
      </trkpt>
      <trkpt lat="48.37913" lon="2.83381">
        <ele>102</ele>
        <time>2023-04-11T09:28:04.604Z</time>
      </trkpt>
      <trkpt lat="48.37916" lon="2.83387">
        <ele>102</ele>
        <time>2023-04-11T09:28:09.136Z</time>
      </trkpt>
      <trkpt lat="48.37921" lon="2.83391">
        <ele>102</ele>
        <time>2023-04-11T09:28:13.278Z</time>
      </trkpt>
      <trkpt lat="48.37924" lon="2.83395">
        <ele>102</ele>
        <time>2023-04-11T09:28:18.064Z</time>
      </trkpt>
      <trkpt lat="48.37926" lon="2.83399">
        <ele>102</ele>
        <time>2023-04-11T09:28:22.030Z</time>
      </trkpt>
      <trkpt lat="48.3793" lon="2.83404">
        <ele>102</ele>
        <time>2023-04-11T09:28:26.584Z</time>
      </trkpt>
      <trkpt lat="48.37935" lon="2.83409">
        <ele>101</ele>
        <time>2023-04-11T09:28:30.659Z</time>
      </trkpt>
      <trkpt lat="48.37939" lon="2.83417">
        <ele>101</ele>
        <time>2023-04-11T09:28:35.316Z</time>
      </trkpt>
      <trkpt lat="48.37942" lon="2.83423">
        <ele>101</ele>
        <time>2023-04-11T09:28:39.699Z</time>
      </trkpt>
      <trkpt lat="48.37945" lon="2.83429">
        <ele>101</ele>
        <time>2023-04-11T09:28:44.143Z</time>
      </trkpt>
      <trkpt lat="48.37949" lon="2.83434">
        <ele>101</ele>
        <time>2023-04-11T09:28:48.479Z</time>
      </trkpt>
      <trkpt lat="48.37953" lon="2.83442">
        <ele>101</ele>
        <time>2023-04-11T09:28:52.611Z</time>
      </trkpt>
      <trkpt lat="48.37956" lon="2.8345">
        <ele>101</ele>
        <time>2023-04-11T09:28:56.684Z</time>
      </trkpt>
      <trkpt lat="48.37963" lon="2.83454">
        <ele>100</ele>
        <time>2023-04-11T09:29:01.817Z</time>
      </trkpt>
      <trkpt lat="48.37966" lon="2.83461">
        <ele>99</ele>
        <time>2023-04-11T09:29:05.892Z</time>
      </trkpt>
      <trkpt lat="48.3797" lon="2.83467">
        <ele>99</ele>
        <time>2023-04-11T09:29:09.846Z</time>
      </trkpt>
      <trkpt lat="48.37976" lon="2.83475">
        <ele>99</ele>
        <time>2023-04-11T09:29:14.280Z</time>
      </trkpt>
      <trkpt lat="48.3798" lon="2.83483">
        <ele>99</ele>
        <time>2023-04-11T09:29:19.071Z</time>
      </trkpt>
      <trkpt lat="48.37982" lon="2.83489">
        <ele>99</ele>
        <time>2023-04-11T09:29:22.663Z</time>
      </trkpt>
      <trkpt lat="48.37984" lon="2.83495">
        <ele>99</ele>
        <time>2023-04-11T09:29:27.456Z</time>
      </trkpt>
      <trkpt lat="48.37987" lon="2.83502">
        <ele>97</ele>
        <time>2023-04-11T09:29:32.186Z</time>
      </trkpt>
      <trkpt lat="48.37991" lon="2.8351">
        <ele>97</ele>
        <time>2023-04-11T09:29:36.482Z</time>
      </trkpt>
      <trkpt lat="48.37995" lon="2.83518">
        <ele>99</ele>
        <time>2023-04-11T09:29:40.677Z</time>
      </trkpt>
      <trkpt lat="48.37997" lon="2.83524">
        <ele>99</ele>
        <time>2023-04-11T09:29:44.854Z</time>
      </trkpt>
      <trkpt lat="48.38001" lon="2.83533">
        <ele>99</ele>
        <time>2023-04-11T09:29:49.642Z</time>
      </trkpt>
      <trkpt lat="48.38005" lon="2.83541">
        <ele>99</ele>
        <time>2023-04-11T09:29:53.986Z</time>
      </trkpt>
      <trkpt lat="48.38009" lon="2.83551">
        <ele>99</ele>
        <time>2023-04-11T09:29:58.504Z</time>
      </trkpt>
      <trkpt lat="48.38012" lon="2.83557">
        <ele>99</ele>
        <time>2023-04-11T09:30:02.458Z</time>
      </trkpt>
      <trkpt lat="48.38018" lon="2.83565">
        <ele>99</ele>
        <time>2023-04-11T09:30:07.012Z</time>
      </trkpt>
      <trkpt lat="48.38023" lon="2.8357">
        <ele>96</ele>
        <time>2023-04-11T09:30:10.828Z</time>
      </trkpt>
      <trkpt lat="48.38027" lon="2.83575">
        <ele>96</ele>
        <time>2023-04-11T09:30:15.426Z</time>
      </trkpt>
      <trkpt lat="48.38031" lon="2.83575">
        <ele>96</ele>
        <time>2023-04-11T09:30:19.803Z</time>
      </trkpt>
      <trkpt lat="48.38037" lon="2.83574">
        <ele>96</ele>
        <time>2023-04-11T09:30:23.756Z</time>
      </trkpt>
      <trkpt lat="48.38044" lon="2.83574">
        <ele>93</ele>
        <time>2023-04-11T09:30:28.192Z</time>
      </trkpt>
      <trkpt lat="48.3805" lon="2.83573">
        <ele>93</ele>
        <time>2023-04-11T09:30:32.688Z</time>
      </trkpt>
      <trkpt lat="48.38056" lon="2.83572">
        <ele>93</ele>
        <time>2023-04-11T09:30:36.845Z</time>
      </trkpt>
      <trkpt lat="48.38063" lon="2.83569">
        <ele>95</ele>
        <time>2023-04-11T09:30:41.443Z</time>
      </trkpt>
      <trkpt lat="48.3807" lon="2.83566">
        <ele>92</ele>
        <time>2023-04-11T09:30:45.474Z</time>
      </trkpt>
      <trkpt lat="48.38077" lon="2.83564">
        <ele>92</ele>
        <time>2023-04-11T09:30:49.948Z</time>
      </trkpt>
      <trkpt lat="48.38082" lon="2.8356">
        <ele>92</ele>
        <time>2023-04-11T09:30:54.100Z</time>
      </trkpt>
      <trkpt lat="48.38087" lon="2.83557">
        <ele>92</ele>
        <time>2023-04-11T09:30:58.283Z</time>
      </trkpt>
      <trkpt lat="48.38092" lon="2.83555">
        <ele>92</ele>
        <time>2023-04-11T09:31:02.483Z</time>
      </trkpt>
      <trkpt lat="48.38096" lon="2.83553">
        <ele>92</ele>
        <time>2023-04-11T09:31:06.867Z</time>
      </trkpt>
      <trkpt lat="48.38101" lon="2.83551">
        <ele>92</ele>
        <time>2023-04-11T09:31:10.857Z</time>
      </trkpt>
      <trkpt lat="48.38106" lon="2.83549">
        <ele>92</ele>
        <time>2023-04-11T09:31:15.941Z</time>
      </trkpt>
      <trkpt lat="48.38112" lon="2.83547">
        <ele>92</ele>
        <time>2023-04-11T09:31:19.921Z</time>
      </trkpt>
      <trkpt lat="48.38118" lon="2.83545">
        <ele>92</ele>
        <time>2023-04-11T09:31:24.323Z</time>
      </trkpt>
      <trkpt lat="48.38124" lon="2.83544">
        <ele>92</ele>
        <time>2023-04-11T09:31:28.531Z</time>
      </trkpt>
      <trkpt lat="48.38129" lon="2.83543">
        <ele>91</ele>
        <time>2023-04-11T09:31:32.844Z</time>
      </trkpt>
      <trkpt lat="48.38134" lon="2.83542">
        <ele>91</ele>
        <time>2023-04-11T09:31:36.672Z</time>
      </trkpt>
      <trkpt lat="48.38139" lon="2.8354">
        <ele>91</ele>
        <time>2023-04-11T09:31:40.866Z</time>
      </trkpt>
      <trkpt lat="48.38146" lon="2.83536">
        <ele>91</ele>
        <time>2023-04-11T09:31:45.538Z</time>
      </trkpt>
      <trkpt lat="48.38151" lon="2.83529">
        <ele>91</ele>
        <time>2023-04-11T09:31:50.089Z</time>
      </trkpt>
      <trkpt lat="48.38155" lon="2.83524">
        <ele>91</ele>
        <time>2023-04-11T09:31:53.682Z</time>
      </trkpt>
      <trkpt lat="48.38161" lon="2.83518">
        <ele>91</ele>
        <time>2023-04-11T09:31:58.316Z</time>
      </trkpt>
      <trkpt lat="48.38166" lon="2.83511">
        <ele>90</ele>
        <time>2023-04-11T09:32:02.305Z</time>
      </trkpt>
      <trkpt lat="48.3817" lon="2.83503">
        <ele>90</ele>
        <time>2023-04-11T09:32:07.081Z</time>
      </trkpt>
      <trkpt lat="48.38177" lon="2.83495">
        <ele>90</ele>
        <time>2023-04-11T09:32:11.437Z</time>
      </trkpt>
      <trkpt lat="48.38182" lon="2.83487">
        <ele>89</ele>
        <time>2023-04-11T09:32:16.049Z</time>
      </trkpt>
      <trkpt lat="48.38187" lon="2.83481">
        <ele>88</ele>
        <time>2023-04-11T09:32:20.864Z</time>
      </trkpt>
      <trkpt lat="48.38191" lon="2.83475">
        <ele>88</ele>
        <time>2023-04-11T09:32:24.913Z</time>
      </trkpt>
      <trkpt lat="48.38195" lon="2.83472">
        <ele>88</ele>
        <time>2023-04-11T09:32:29.666Z</time>
      </trkpt>
      <trkpt lat="48.38197" lon="2.83464">
        <ele>88</ele>
        <time>2023-04-11T09:32:33.967Z</time>
      </trkpt>
      <trkpt lat="48.38203" lon="2.83457">
        <ele>90</ele>
        <time>2023-04-11T09:32:38.638Z</time>
      </trkpt>
      <trkpt lat="48.38207" lon="2.83451">
        <ele>90</ele>
        <time>2023-04-11T09:32:43.069Z</time>
      </trkpt>
      <trkpt lat="48.38211" lon="2.83445">
        <ele>90</ele>
        <time>2023-04-11T09:32:46.901Z</time>
      </trkpt>
      <trkpt lat="48.38216" lon="2.83439">
        <ele>90</ele>
        <time>2023-04-11T09:32:52.031Z</time>
      </trkpt>
      <trkpt lat="48.38221" lon="2.83435">
        <ele>90</ele>
        <time>2023-04-11T09:32:56.123Z</time>
      </trkpt>
      <trkpt lat="48.38228" lon="2.83431">
        <ele>90</ele>
        <time>2023-04-11T09:33:00.672Z</time>
      </trkpt>
      <trkpt lat="48.38234" lon="2.83425">
        <ele>91</ele>
        <time>2023-04-11T09:33:05.699Z</time>
      </trkpt>
      <trkpt lat="48.3824" lon="2.83419">
        <ele>91</ele>
        <time>2023-04-11T09:33:10.316Z</time>
      </trkpt>
      <trkpt lat="48.38245" lon="2.83413">
        <ele>91</ele>
        <time>2023-04-11T09:33:14.899Z</time>
      </trkpt>
      <trkpt lat="48.38249" lon="2.83409">
        <ele>91</ele>
        <time>2023-04-11T09:33:19.103Z</time>
      </trkpt>
      <trkpt lat="48.38253" lon="2.83404">
        <ele>91</ele>
        <time>2023-04-11T09:33:22.681Z</time>
      </trkpt>
      <trkpt lat="48.38257" lon="2.83398">
        <ele>92</ele>
        <time>2023-04-11T09:33:26.750Z</time>
      </trkpt>
      <trkpt lat="48.38263" lon="2.83393">
        <ele>92</ele>
        <time>2023-04-11T09:33:31.299Z</time>
      </trkpt>
      <trkpt lat="48.38267" lon="2.83387">
        <ele>92</ele>
        <time>2023-04-11T09:33:35.732Z</time>
      </trkpt>
      <trkpt lat="48.38273" lon="2.83381">
        <ele>92</ele>
        <time>2023-04-11T09:33:40.245Z</time>
      </trkpt>
      <trkpt lat="48.38278" lon="2.83375">
        <ele>93</ele>
        <time>2023-04-11T09:33:44.593Z</time>
      </trkpt>
      <trkpt lat="48.38284" lon="2.83369">
        <ele>93</ele>
        <time>2023-04-11T09:33:49.262Z</time>
      </trkpt>
      <trkpt lat="48.3829" lon="2.83364">
        <ele>93</ele>
        <time>2023-04-11T09:33:53.964Z</time>
      </trkpt>
      <trkpt lat="48.38293" lon="2.83359">
        <ele>93</ele>
        <time>2023-04-11T09:33:58.316Z</time>
      </trkpt>
      <trkpt lat="48.38297" lon="2.83356">
        <ele>93</ele>
        <time>2023-04-11T09:34:02.908Z</time>
      </trkpt>
      <trkpt lat="48.38301" lon="2.83351">
        <ele>93</ele>
        <time>2023-04-11T09:34:07.220Z</time>
      </trkpt>
      <trkpt lat="48.38307" lon="2.83347">
        <ele>94</ele>
        <time>2023-04-11T09:34:11.270Z</time>
      </trkpt>
      <trkpt lat="48.38314" lon="2.83344">
        <ele>94</ele>
        <time>2023-04-11T09:34:15.580Z</time>
      </trkpt>
      <trkpt lat="48.3832" lon="2.8334">
        <ele>93</ele>
        <time>2023-04-11T09:34:19.410Z</time>
      </trkpt>
      <trkpt lat="48.38326" lon="2.83335">
        <ele>93</ele>
        <time>2023-04-11T09:34:24.078Z</time>
      </trkpt>
      <trkpt lat="48.3833" lon="2.83331">
        <ele>93</ele>
        <time>2023-04-11T09:34:28.147Z</time>
      </trkpt>
      <trkpt lat="48.38335" lon="2.83327">
        <ele>93</ele>
        <time>2023-04-11T09:34:32.097Z</time>
      </trkpt>
      <trkpt lat="48.38341" lon="2.83321">
        <ele>93</ele>
        <time>2023-04-11T09:34:36.766Z</time>
      </trkpt>
      <trkpt lat="48.38346" lon="2.83314">
        <ele>93</ele>
        <time>2023-04-11T09:34:41.218Z</time>
      </trkpt>
      <trkpt lat="48.38352" lon="2.83306">
        <ele>90</ele>
        <time>2023-04-11T09:34:45.707Z</time>
      </trkpt>
      <trkpt lat="48.38356" lon="2.83299">
        <ele>90</ele>
        <time>2023-04-11T09:34:50.256Z</time>
      </trkpt>
      <trkpt lat="48.38362" lon="2.83292">
        <ele>91</ele>
        <time>2023-04-11T09:34:54.804Z</time>
      </trkpt>
      <trkpt lat="48.38366" lon="2.83283">
        <ele>91</ele>
        <time>2023-04-11T09:34:59.353Z</time>
      </trkpt>
      <trkpt lat="48.38371" lon="2.8328">
        <ele>91</ele>
        <time>2023-04-11T09:35:03.302Z</time>
      </trkpt>
      <trkpt lat="48.38375" lon="2.83274">
        <ele>91</ele>
        <time>2023-04-11T09:35:07.253Z</time>
      </trkpt>
      <trkpt lat="48.3838" lon="2.83268">
        <ele>88</ele>
        <time>2023-04-11T09:35:11.316Z</time>
      </trkpt>
      <trkpt lat="48.38385" lon="2.83262">
        <ele>90</ele>
        <time>2023-04-11T09:35:15.890Z</time>
      </trkpt>
      <trkpt lat="48.3839" lon="2.83257">
        <ele>90</ele>
        <time>2023-04-11T09:35:19.942Z</time>
      </trkpt>
      <trkpt lat="48.38394" lon="2.83249">
        <ele>90</ele>
        <time>2023-04-11T09:35:24.019Z</time>
      </trkpt>
      <trkpt lat="48.38399" lon="2.83241">
        <ele>90</ele>
        <time>2023-04-11T09:35:27.731Z</time>
      </trkpt>
      <trkpt lat="48.38403" lon="2.83233">
        <ele>87</ele>
        <time>2023-04-11T09:35:31.920Z</time>
      </trkpt>
      <trkpt lat="48.38409" lon="2.83224">
        <ele>87</ele>
        <time>2023-04-11T09:35:36.467Z</time>
      </trkpt>
      <trkpt lat="48.38412" lon="2.83218">
        <ele>87</ele>
        <time>2023-04-11T09:35:40.416Z</time>
      </trkpt>
      <trkpt lat="48.38415" lon="2.8321">
        <ele>87</ele>
        <time>2023-04-11T09:35:44.845Z</time>
      </trkpt>
      <trkpt lat="48.38417" lon="2.83203">
        <ele>88</ele>
        <time>2023-04-11T09:35:48.915Z</time>
      </trkpt>
      <trkpt lat="48.3842" lon="2.83197">
        <ele>88</ele>
        <time>2023-04-11T09:35:52.745Z</time>
      </trkpt>
      <trkpt lat="48.38426" lon="2.83192">
        <ele>88</ele>
        <time>2023-04-11T09:35:57.305Z</time>
      </trkpt>
      <trkpt lat="48.38432" lon="2.83187">
        <ele>84</ele>
        <time>2023-04-11T09:36:01.485Z</time>
      </trkpt>
      <trkpt lat="48.38436" lon="2.8318">
        <ele>86</ele>
        <time>2023-04-11T09:36:05.548Z</time>
      </trkpt>
      <trkpt lat="48.38439" lon="2.83171">
        <ele>86</ele>
        <time>2023-04-11T09:36:09.316Z</time>
      </trkpt>
      <trkpt lat="48.38443" lon="2.83165">
        <ele>86</ele>
        <time>2023-04-11T09:36:13.904Z</time>
      </trkpt>
      <trkpt lat="48.38446" lon="2.83159">
        <ele>86</ele>
        <time>2023-04-11T09:36:17.972Z</time>
      </trkpt>
      <trkpt lat="48.38449" lon="2.83153">
        <ele>86</ele>
        <time>2023-04-11T09:36:23.151Z</time>
      </trkpt>
      <trkpt lat="48.38454" lon="2.83144">
        <ele>87</ele>
        <time>2023-04-11T09:36:27.670Z</time>
      </trkpt>
      <trkpt lat="48.38457" lon="2.83135">
        <ele>87</ele>
        <time>2023-04-11T09:36:31.623Z</time>
      </trkpt>
      <trkpt lat="48.38461" lon="2.83127">
        <ele>81</ele>
        <time>2023-04-11T09:36:36.144Z</time>
      </trkpt>
      <trkpt lat="48.38465" lon="2.83121">
        <ele>83</ele>
        <time>2023-04-11T09:36:40.156Z</time>
      </trkpt>
      <trkpt lat="48.3847" lon="2.83114">
        <ele>83</ele>
        <time>2023-04-11T09:36:44.669Z</time>
      </trkpt>
      <trkpt lat="48.38475" lon="2.83107">
        <ele>83</ele>
        <time>2023-04-11T09:36:48.738Z</time>
      </trkpt>
      <trkpt lat="48.38478" lon="2.831">
        <ele>83</ele>
        <time>2023-04-11T09:36:52.926Z</time>
      </trkpt>
      <trkpt lat="48.38481" lon="2.83093">
        <ele>83</ele>
        <time>2023-04-11T09:36:57.316Z</time>
      </trkpt>
      <trkpt lat="48.38484" lon="2.83085">
        <ele>83</ele>
        <time>2023-04-11T09:37:01.282Z</time>
      </trkpt>
      <trkpt lat="48.38486" lon="2.83078">
        <ele>77</ele>
        <time>2023-04-11T09:37:05.316Z</time>
      </trkpt>
      <trkpt lat="48.38489" lon="2.83071">
        <ele>77</ele>
        <time>2023-04-11T09:37:09.859Z</time>
      </trkpt>
      <trkpt lat="48.38492" lon="2.83059">
        <ele>78</ele>
        <time>2023-04-11T09:37:14.961Z</time>
      </trkpt>
      <trkpt lat="48.38495" lon="2.8305">
        <ele>78</ele>
        <time>2023-04-11T09:37:19.119Z</time>
      </trkpt>
      <trkpt lat="48.38496" lon="2.83041">
        <ele>78</ele>
        <time>2023-04-11T09:37:23.309Z</time>
      </trkpt>
      <trkpt lat="48.38499" lon="2.83031">
        <ele>78</ele>
        <time>2023-04-11T09:37:27.860Z</time>
      </trkpt>
      <trkpt lat="48.38501" lon="2.83023">
        <ele>78</ele>
        <time>2023-04-11T09:37:31.688Z</time>
      </trkpt>
      <trkpt lat="48.38504" lon="2.83015">
        <ele>78</ele>
        <time>2023-04-11T09:37:36.316Z</time>
      </trkpt>
      <trkpt lat="48.38507" lon="2.83009">
        <ele>78</ele>
        <time>2023-04-11T09:37:40.301Z</time>
      </trkpt>
      <trkpt lat="48.38511" lon="2.83002">
        <ele>78</ele>
        <time>2023-04-11T09:37:44.968Z</time>
      </trkpt>
      <trkpt lat="48.38513" lon="2.82993">
        <ele>78</ele>
        <time>2023-04-11T09:37:49.633Z</time>
      </trkpt>
      <trkpt lat="48.38516" lon="2.82984">
        <ele>74</ele>
        <time>2023-04-11T09:37:53.703Z</time>
      </trkpt>
      <trkpt lat="48.38518" lon="2.82976">
        <ele>74</ele>
        <time>2023-04-11T09:37:57.770Z</time>
      </trkpt>
      <trkpt lat="48.38521" lon="2.82969">
        <ele>74</ele>
        <time>2023-04-11T09:38:01.718Z</time>
      </trkpt>
      <trkpt lat="48.38525" lon="2.82962">
        <ele>74</ele>
        <time>2023-04-11T09:38:06.264Z</time>
      </trkpt>
      <trkpt lat="48.38529" lon="2.82956">
        <ele>74</ele>
        <time>2023-04-11T09:38:10.316Z</time>
      </trkpt>
      <trkpt lat="48.38532" lon="2.82946">
        <ele>74</ele>
        <time>2023-04-11T09:38:14.877Z</time>
      </trkpt>
      <trkpt lat="48.38536" lon="2.82938">
        <ele>74</ele>
        <time>2023-04-11T09:38:19.065Z</time>
      </trkpt>
      <trkpt lat="48.38542" lon="2.82933">
        <ele>71</ele>
        <time>2023-04-11T09:38:23.613Z</time>
      </trkpt>
      <trkpt lat="48.38545" lon="2.82927">
        <ele>70</ele>
        <time>2023-04-11T09:38:28.160Z</time>
      </trkpt>
      <trkpt lat="48.38547" lon="2.8292">
        <ele>70</ele>
        <time>2023-04-11T09:38:32.191Z</time>
      </trkpt>
      <trkpt lat="48.38552" lon="2.82913">
        <ele>70</ele>
        <time>2023-04-11T09:38:36.654Z</time>
      </trkpt>
      <trkpt lat="48.38555" lon="2.82904">
        <ele>70</ele>
        <time>2023-04-11T09:38:40.722Z</time>
      </trkpt>
      <trkpt lat="48.38559" lon="2.82896">
        <ele>69</ele>
        <time>2023-04-11T09:38:45.568Z</time>
      </trkpt>
      <trkpt lat="48.38564" lon="2.82896">
        <ele>69</ele>
        <time>2023-04-11T09:38:49.455Z</time>
      </trkpt>
      <trkpt lat="48.38568" lon="2.82896">
        <ele>69</ele>
        <time>2023-04-11T09:38:54.004Z</time>
      </trkpt>
      <trkpt lat="48.38571" lon="2.82897">
        <ele>72</ele>
        <time>2023-04-11T09:38:57.945Z</time>
      </trkpt>
      <trkpt lat="48.38577" lon="2.82897">
        <ele>72</ele>
        <time>2023-04-11T09:39:02.316Z</time>
      </trkpt>
      <trkpt lat="48.38582" lon="2.82897">
        <ele>72</ele>
        <time>2023-04-11T09:39:06.681Z</time>
      </trkpt>
      <trkpt lat="48.38586" lon="2.829">
        <ele>72</ele>
        <time>2023-04-11T09:39:10.748Z</time>
      </trkpt>
      <trkpt lat="48.38589" lon="2.82905">
        <ele>72</ele>
        <time>2023-04-11T09:39:14.698Z</time>
      </trkpt>
      <trkpt lat="48.38589" lon="2.82914">
        <ele>72</ele>
        <time>2023-04-11T09:39:19.449Z</time>
      </trkpt>
      <trkpt lat="48.38584" lon="2.82923">
        <ele>72</ele>
        <time>2023-04-11T09:39:23.790Z</time>
      </trkpt>
      <trkpt lat="48.38579" lon="2.82929">
        <ele>72</ele>
        <time>2023-04-11T09:39:28.454Z</time>
      </trkpt>
      <trkpt lat="48.38576" lon="2.82935">
        <ele>73</ele>
        <time>2023-04-11T09:39:32.521Z</time>
      </trkpt>
      <trkpt lat="48.38575" lon="2.82943">
        <ele>73</ele>
        <time>2023-04-11T09:39:36.471Z</time>
      </trkpt>
      <trkpt lat="48.38575" lon="2.82953">
        <ele>73</ele>
        <time>2023-04-11T09:39:41.016Z</time>
      </trkpt>
      <trkpt lat="48.38577" lon="2.82964">
        <ele>73</ele>
        <time>2023-04-11T09:39:45.316Z</time>
      </trkpt>
      <trkpt lat="48.38576" lon="2.82975">
        <ele>73</ele>
        <time>2023-04-11T09:39:49.724Z</time>
      </trkpt>
      <trkpt lat="48.38575" lon="2.82984">
        <ele>73</ele>
        <time>2023-04-11T09:39:53.578Z</time>
      </trkpt>
      <trkpt lat="48.38577" lon="2.82993">
        <ele>73</ele>
        <time>2023-04-11T09:39:58.152Z</time>
      </trkpt>
      <trkpt lat="48.38581" lon="2.82998">
        <ele>73</ele>
        <time>2023-04-11T09:40:02.530Z</time>
      </trkpt>
      <trkpt lat="48.38585" lon="2.83002">
        <ele>73</ele>
        <time>2023-04-11T09:40:06.477Z</time>
      </trkpt>
      <trkpt lat="48.3859" lon="2.83006">
        <ele>73</ele>
        <time>2023-04-11T09:40:11.024Z</time>
      </trkpt>
      <trkpt lat="48.38595" lon="2.83011">
        <ele>73</ele>
        <time>2023-04-11T09:40:15.451Z</time>
      </trkpt>
      <trkpt lat="48.38598" lon="2.83016">
        <ele>72</ele>
        <time>2023-04-11T09:40:19.872Z</time>
      </trkpt>
      <trkpt lat="48.38603" lon="2.8302">
        <ele>72</ele>
        <time>2023-04-11T09:40:23.694Z</time>
      </trkpt>
      <trkpt lat="48.38607" lon="2.83025">
        <ele>72</ele>
        <time>2023-04-11T09:40:28.547Z</time>
      </trkpt>
      <trkpt lat="48.38612" lon="2.83029">
        <ele>72</ele>
        <time>2023-04-11T09:40:32.827Z</time>
      </trkpt>
      <trkpt lat="48.38618" lon="2.83035">
        <ele>72</ele>
        <time>2023-04-11T09:40:36.744Z</time>
      </trkpt>
      <trkpt lat="48.3863" lon="2.83043">
        <ele>70</ele>
        <time>2023-04-11T09:41:06.663Z</time>
      </trkpt>
      <trkpt lat="48.3863" lon="2.83043">
        <ele>70</ele>
        <time>2023-04-11T09:41:11.311Z</time>
      </trkpt>
      <trkpt lat="48.38631" lon="2.83042">
        <ele>70</ele>
        <time>2023-04-11T09:41:16.096Z</time>
      </trkpt>
      <trkpt lat="48.38632" lon="2.83043">
        <ele>70</ele>
        <time>2023-04-11T09:41:19.667Z</time>
      </trkpt>
      <trkpt lat="48.38633" lon="2.83044">
        <ele>70</ele>
        <time>2023-04-11T09:41:24.352Z</time>
      </trkpt>
      <trkpt lat="48.38638" lon="2.83047">
        <ele>70</ele>
        <time>2023-04-11T09:41:28.900Z</time>
      </trkpt>
      <trkpt lat="48.38641" lon="2.83053">
        <ele>70</ele>
        <time>2023-04-11T09:41:33.690Z</time>
      </trkpt>
      <trkpt lat="48.38645" lon="2.83057">
        <ele>70</ele>
        <time>2023-04-11T09:41:37.883Z</time>
      </trkpt>
      <trkpt lat="48.38651" lon="2.83062">
        <ele>70</ele>
        <time>2023-04-11T09:41:41.714Z</time>
      </trkpt>
      <trkpt lat="48.38657" lon="2.83068">
        <ele>68</ele>
        <time>2023-04-11T09:41:46.265Z</time>
      </trkpt>
      <trkpt lat="48.38662" lon="2.83072">
        <ele>66</ele>
        <time>2023-04-11T09:41:50.316Z</time>
      </trkpt>
      <trkpt lat="48.38668" lon="2.83076">
        <ele>66</ele>
        <time>2023-04-11T09:41:54.484Z</time>
      </trkpt>
      <trkpt lat="48.3867" lon="2.8308">
        <ele>66</ele>
        <time>2023-04-11T09:41:58.840Z</time>
      </trkpt>
      <trkpt lat="48.38668" lon="2.83083">
        <ele>66</ele>
        <time>2023-04-11T09:42:02.845Z</time>
      </trkpt>
      <trkpt lat="48.38668" lon="2.83085">
        <ele>66</ele>
        <time>2023-04-11T09:42:07.856Z</time>
      </trkpt>
      <trkpt lat="48.38678" lon="2.83082">
        <ele>66</ele>
        <time>2023-04-11T09:42:11.867Z</time>
      </trkpt>
      <trkpt lat="48.38685" lon="2.83089">
        <ele>61</ele>
        <time>2023-04-11T09:42:16.377Z</time>
      </trkpt>
      <trkpt lat="48.38689" lon="2.83097">
        <ele>61</ele>
        <time>2023-04-11T09:42:20.381Z</time>
      </trkpt>
      <trkpt lat="48.38695" lon="2.83103">
        <ele>56</ele>
        <time>2023-04-11T09:42:24.643Z</time>
      </trkpt>
      <trkpt lat="48.38703" lon="2.83107">
        <ele>56</ele>
        <time>2023-04-11T09:42:29.643Z</time>
      </trkpt>
      <trkpt lat="48.38707" lon="2.83112">
        <ele>56</ele>
        <time>2023-04-11T09:42:33.646Z</time>
      </trkpt>
      <trkpt lat="48.38712" lon="2.83117">
        <ele>54</ele>
        <time>2023-04-11T09:42:37.668Z</time>
      </trkpt>
      <trkpt lat="48.38716" lon="2.83124">
        <ele>54</ele>
        <time>2023-04-11T09:42:42.420Z</time>
      </trkpt>
      <trkpt lat="48.3872" lon="2.83131">
        <ele>49</ele>
        <time>2023-04-11T09:42:46.828Z</time>
      </trkpt>
      <trkpt lat="48.38725" lon="2.83136">
        <ele>49</ele>
        <time>2023-04-11T09:42:51.490Z</time>
      </trkpt>
      <trkpt lat="48.3873" lon="2.83141">
        <ele>49</ele>
        <time>2023-04-11T09:42:55.533Z</time>
      </trkpt>
      <trkpt lat="48.38733" lon="2.83147">
        <ele>49</ele>
        <time>2023-04-11T09:42:59.774Z</time>
      </trkpt>
      <trkpt lat="48.38737" lon="2.83152">
        <ele>49</ele>
        <time>2023-04-11T09:43:04.122Z</time>
      </trkpt>
      <trkpt lat="48.3874" lon="2.83158">
        <ele>48</ele>
        <time>2023-04-11T09:43:07.913Z</time>
      </trkpt>
      <trkpt lat="48.38746" lon="2.83156">
        <ele>48</ele>
        <time>2023-04-11T09:43:12.518Z</time>
      </trkpt>
      <trkpt lat="48.3875" lon="2.83148">
        <ele>49</ele>
        <time>2023-04-11T09:43:16.626Z</time>
      </trkpt>
      <trkpt lat="48.38753" lon="2.83147">
        <ele>49</ele>
        <time>2023-04-11T09:43:20.842Z</time>
      </trkpt>
      <trkpt lat="48.38759" lon="2.83152">
        <ele>49</ele>
        <time>2023-04-11T09:43:24.801Z</time>
      </trkpt>
      <trkpt lat="48.38763" lon="2.83156">
        <ele>48</ele>
        <time>2023-04-11T09:43:29.183Z</time>
      </trkpt>
      <trkpt lat="48.38767" lon="2.83162">
        <ele>49</ele>
        <time>2023-04-11T09:43:33.316Z</time>
      </trkpt>
      <trkpt lat="48.38772" lon="2.83168">
        <ele>49</ele>
        <time>2023-04-11T09:43:37.818Z</time>
      </trkpt>
      <trkpt lat="48.38779" lon="2.83172">
        <ele>49</ele>
        <time>2023-04-11T09:43:42.875Z</time>
      </trkpt>
      <trkpt lat="48.38782" lon="2.83176">
        <ele>49</ele>
        <time>2023-04-11T09:43:46.933Z</time>
      </trkpt>
      <trkpt lat="48.38784" lon="2.83181">
        <ele>49</ele>
        <time>2023-04-11T09:43:51.448Z</time>
      </trkpt>
      <trkpt lat="48.3879" lon="2.83187">
        <ele>48</ele>
        <time>2023-04-11T09:43:55.922Z</time>
      </trkpt>
      <trkpt lat="48.38794" lon="2.83193">
        <ele>48</ele>
        <time>2023-04-11T09:43:59.877Z</time>
      </trkpt>
      <trkpt lat="48.38799" lon="2.83199">
        <ele>48</ele>
        <time>2023-04-11T09:44:04.430Z</time>
      </trkpt>
      <trkpt lat="48.38803" lon="2.83205">
        <ele>48</ele>
        <time>2023-04-11T09:44:09.085Z</time>
      </trkpt>
      <trkpt lat="48.38805" lon="2.8321">
        <ele>47</ele>
        <time>2023-04-11T09:44:13.056Z</time>
      </trkpt>
      <trkpt lat="48.38806" lon="2.83218">
        <ele>47</ele>
        <time>2023-04-11T09:44:17.608Z</time>
      </trkpt>
      <trkpt lat="48.38808" lon="2.83227">
        <ele>47</ele>
        <time>2023-04-11T09:44:22.041Z</time>
      </trkpt>
      <trkpt lat="48.38809" lon="2.83234">
        <ele>47</ele>
        <time>2023-04-11T09:44:26.113Z</time>
      </trkpt>
      <trkpt lat="48.38811" lon="2.83239">
        <ele>47</ele>
        <time>2023-04-11T09:44:30.808Z</time>
      </trkpt>
      <trkpt lat="48.38813" lon="2.83239">
        <ele>47</ele>
        <time>2023-04-11T09:44:34.861Z</time>
      </trkpt>
      <trkpt lat="48.38813" lon="2.83235">
        <ele>47</ele>
        <time>2023-04-11T09:44:49.093Z</time>
      </trkpt>
      <trkpt lat="48.38811" lon="2.8323">
        <ele>47</ele>
        <time>2023-04-11T09:44:54.160Z</time>
      </trkpt>
      <trkpt lat="48.3881" lon="2.83228">
        <ele>47</ele>
        <time>2023-04-11T09:44:57.418Z</time>
      </trkpt>
      <trkpt lat="48.3881" lon="2.83224">
        <ele>47</ele>
        <time>2023-04-11T09:45:02.616Z</time>
      </trkpt>
      <trkpt lat="48.3881" lon="2.83219">
        <ele>47</ele>
        <time>2023-04-11T09:45:06.726Z</time>
      </trkpt>
      <trkpt lat="48.3881" lon="2.83216">
        <ele>47</ele>
        <time>2023-04-11T09:45:11.383Z</time>
      </trkpt>
      <trkpt lat="48.38806" lon="2.83208">
        <ele>48</ele>
        <time>2023-04-11T09:45:16.067Z</time>
      </trkpt>
      <trkpt lat="48.38806" lon="2.83199">
        <ele>48</ele>
        <time>2023-04-11T09:45:20.189Z</time>
      </trkpt>
      <trkpt lat="48.38811" lon="2.83197">
        <ele>48</ele>
        <time>2023-04-11T09:45:24.230Z</time>
      </trkpt>
      <trkpt lat="48.38816" lon="2.8319">
        <ele>48</ele>
        <time>2023-04-11T09:45:33.150Z</time>
      </trkpt>
      <trkpt lat="48.38816" lon="2.83189">
        <ele>48</ele>
        <time>2023-04-11T09:45:38.071Z</time>
      </trkpt>
      <trkpt lat="48.38813" lon="2.83186">
        <ele>48</ele>
        <time>2023-04-11T09:45:42.650Z</time>
      </trkpt>
      <trkpt lat="48.38812" lon="2.83183">
        <ele>48</ele>
        <time>2023-04-11T09:45:47.091Z</time>
      </trkpt>
      <trkpt lat="48.38814" lon="2.83177">
        <ele>49</ele>
        <time>2023-04-11T09:45:51.951Z</time>
      </trkpt>
      <trkpt lat="48.38815" lon="2.83174">
        <ele>49</ele>
        <time>2023-04-11T09:45:56.589Z</time>
      </trkpt>
      <trkpt lat="48.38816" lon="2.83169">
        <ele>49</ele>
        <time>2023-04-11T09:46:01.135Z</time>
      </trkpt>
      <trkpt lat="48.38817" lon="2.83164">
        <ele>49</ele>
        <time>2023-04-11T09:46:04.887Z</time>
      </trkpt>
      <trkpt lat="48.38819" lon="2.83158">
        <ele>49</ele>
        <time>2023-04-11T09:46:09.685Z</time>
      </trkpt>
      <trkpt lat="48.38823" lon="2.83155">
        <ele>47</ele>
        <time>2023-04-11T09:46:13.881Z</time>
      </trkpt>
      <trkpt lat="48.38825" lon="2.83155">
        <ele>47</ele>
        <time>2023-04-11T09:46:17.956Z</time>
      </trkpt>
      <trkpt lat="48.38826" lon="2.83152">
        <ele>48</ele>
        <time>2023-04-11T09:46:22.613Z</time>
      </trkpt>
      <trkpt lat="48.38829" lon="2.83146">
        <ele>48</ele>
        <time>2023-04-11T09:46:26.849Z</time>
      </trkpt>
      <trkpt lat="48.38833" lon="2.8314">
        <ele>48</ele>
        <time>2023-04-11T09:46:31.045Z</time>
      </trkpt>
      <trkpt lat="48.38837" lon="2.83134">
        <ele>48</ele>
        <time>2023-04-11T09:46:35.645Z</time>
      </trkpt>
      <trkpt lat="48.3884" lon="2.83129">
        <ele>48</ele>
        <time>2023-04-11T09:46:39.438Z</time>
      </trkpt>
      <trkpt lat="48.38843" lon="2.83122">
        <ele>50</ele>
        <time>2023-04-11T09:46:44.017Z</time>
      </trkpt>
      <trkpt lat="48.38846" lon="2.83114">
        <ele>50</ele>
        <time>2023-04-11T09:46:48.094Z</time>
      </trkpt>
      <trkpt lat="48.38849" lon="2.83106">
        <ele>49</ele>
        <time>2023-04-11T09:46:52.709Z</time>
      </trkpt>
      <trkpt lat="48.38853" lon="2.83099">
        <ele>49</ele>
        <time>2023-04-11T09:46:57.259Z</time>
      </trkpt>
      <trkpt lat="48.38855" lon="2.83091">
        <ele>51</ele>
        <time>2023-04-11T09:47:01.872Z</time>
      </trkpt>
      <trkpt lat="48.38857" lon="2.83084">
        <ele>51</ele>
        <time>2023-04-11T09:47:06.069Z</time>
      </trkpt>
      <trkpt lat="48.38859" lon="2.83075">
        <ele>51</ele>
        <time>2023-04-11T09:47:10.564Z</time>
      </trkpt>
      <trkpt lat="48.38859" lon="2.8307">
        <ele>51</ele>
        <time>2023-04-11T09:47:14.702Z</time>
      </trkpt>
      <trkpt lat="48.38861" lon="2.83066">
        <ele>52</ele>
        <time>2023-04-11T09:47:18.897Z</time>
      </trkpt>
      <trkpt lat="48.38862" lon="2.83062">
        <ele>52</ele>
        <time>2023-04-11T09:47:22.995Z</time>
      </trkpt>
      <trkpt lat="48.38864" lon="2.83056">
        <ele>52</ele>
        <time>2023-04-11T09:47:27.130Z</time>
      </trkpt>
      <trkpt lat="48.38868" lon="2.8305">
        <ele>52</ele>
        <time>2023-04-11T09:47:31.268Z</time>
      </trkpt>
      <trkpt lat="48.38872" lon="2.83043">
        <ele>52</ele>
        <time>2023-04-11T09:47:35.761Z</time>
      </trkpt>
      <trkpt lat="48.38875" lon="2.83033">
        <ele>52</ele>
        <time>2023-04-11T09:47:40.911Z</time>
      </trkpt>
      <trkpt lat="48.38879" lon="2.83024">
        <ele>52</ele>
        <time>2023-04-11T09:47:45.647Z</time>
      </trkpt>
      <trkpt lat="48.38883" lon="2.83018">
        <ele>52</ele>
        <time>2023-04-11T09:47:49.537Z</time>
      </trkpt>
      <trkpt lat="48.38888" lon="2.83012">
        <ele>51</ele>
        <time>2023-04-11T09:47:54.316Z</time>
      </trkpt>
      <trkpt lat="48.38892" lon="2.83006">
        <ele>51</ele>
        <time>2023-04-11T09:47:58.887Z</time>
      </trkpt>
      <trkpt lat="48.38897" lon="2.82998">
        <ele>51</ele>
        <time>2023-04-11T09:48:03.220Z</time>
      </trkpt>
      <trkpt lat="48.38903" lon="2.82994">
        <ele>52</ele>
        <time>2023-04-11T09:48:07.724Z</time>
      </trkpt>
      <trkpt lat="48.38906" lon="2.82988">
        <ele>52</ele>
        <time>2023-04-11T09:48:12.169Z</time>
      </trkpt>
      <trkpt lat="48.38907" lon="2.82979">
        <ele>51</ele>
        <time>2023-04-11T09:48:15.661Z</time>
      </trkpt>
      <trkpt lat="48.38909" lon="2.82969">
        <ele>51</ele>
        <time>2023-04-11T09:48:20.316Z</time>
      </trkpt>
      <trkpt lat="48.3891" lon="2.8296">
        <ele>51</ele>
        <time>2023-04-11T09:48:24.766Z</time>
      </trkpt>
      <trkpt lat="48.38915" lon="2.82956">
        <ele>50</ele>
        <time>2023-04-11T09:48:29.316Z</time>
      </trkpt>
      <trkpt lat="48.38918" lon="2.82954">
        <ele>50</ele>
        <time>2023-04-11T09:48:33.871Z</time>
      </trkpt>
      <trkpt lat="48.38921" lon="2.82948">
        <ele>50</ele>
        <time>2023-04-11T09:48:37.888Z</time>
      </trkpt>
      <trkpt lat="48.38923" lon="2.82939">
        <ele>50</ele>
        <time>2023-04-11T09:48:42.081Z</time>
      </trkpt>
      <trkpt lat="48.38925" lon="2.82932">
        <ele>50</ele>
        <time>2023-04-11T09:48:46.784Z</time>
      </trkpt>
      <trkpt lat="48.38924" lon="2.82928">
        <ele>50</ele>
        <time>2023-04-11T09:48:50.706Z</time>
      </trkpt>
      <trkpt lat="48.38922" lon="2.82925">
        <ele>50</ele>
        <time>2023-04-11T09:48:54.899Z</time>
      </trkpt>
      <trkpt lat="48.38919" lon="2.82922">
        <ele>50</ele>
        <time>2023-04-11T09:48:58.893Z</time>
      </trkpt>
      <trkpt lat="48.3892" lon="2.82911">
        <ele>50</ele>
        <time>2023-04-11T09:49:12.181Z</time>
      </trkpt>
      <trkpt lat="48.38922" lon="2.82912">
        <ele>50</ele>
        <time>2023-04-11T09:49:16.159Z</time>
      </trkpt>
      <trkpt lat="48.38923" lon="2.82912">
        <ele>50</ele>
        <time>2023-04-11T09:49:19.690Z</time>
      </trkpt>
      <trkpt lat="48.38925" lon="2.82911">
        <ele>50</ele>
        <time>2023-04-11T09:49:24.316Z</time>
      </trkpt>
      <trkpt lat="48.38928" lon="2.82912">
        <ele>50</ele>
        <time>2023-04-11T09:49:28.890Z</time>
      </trkpt>
      <trkpt lat="48.38933" lon="2.82912">
        <ele>49</ele>
        <time>2023-04-11T09:49:33.681Z</time>
      </trkpt>
      <trkpt lat="48.38937" lon="2.82902">
        <ele>49</ele>
        <time>2023-04-11T09:49:39.004Z</time>
      </trkpt>
      <trkpt lat="48.38941" lon="2.82895">
        <ele>49</ele>
        <time>2023-04-11T09:49:43.024Z</time>
      </trkpt>
      <trkpt lat="48.38945" lon="2.82887">
        <ele>49</ele>
        <time>2023-04-11T09:49:47.696Z</time>
      </trkpt>
      <trkpt lat="48.38948" lon="2.82879">
        <ele>49</ele>
        <time>2023-04-11T09:49:52.164Z</time>
      </trkpt>
      <trkpt lat="48.38951" lon="2.82872">
        <ele>49</ele>
        <time>2023-04-11T09:49:56.661Z</time>
      </trkpt>
      <trkpt lat="48.38954" lon="2.82866">
        <ele>49</ele>
        <time>2023-04-11T09:50:00.510Z</time>
      </trkpt>
      <trkpt lat="48.38957" lon="2.82859">
        <ele>49</ele>
        <time>2023-04-11T09:50:04.704Z</time>
      </trkpt>
      <trkpt lat="48.3896" lon="2.82851">
        <ele>46</ele>
        <time>2023-04-11T09:50:09.256Z</time>
      </trkpt>
      <trkpt lat="48.38962" lon="2.82844">
        <ele>47</ele>
        <time>2023-04-11T09:50:13.698Z</time>
      </trkpt>
      <trkpt lat="48.38966" lon="2.82837">
        <ele>47</ele>
        <time>2023-04-11T09:50:17.880Z</time>
      </trkpt>
      <trkpt lat="48.38971" lon="2.8283">
        <ele>47</ele>
        <time>2023-04-11T09:50:21.833Z</time>
      </trkpt>
      <trkpt lat="48.38974" lon="2.82824">
        <ele>47</ele>
        <time>2023-04-11T09:50:26.503Z</time>
      </trkpt>
      <trkpt lat="48.38979" lon="2.82818">
        <ele>49</ele>
        <time>2023-04-11T09:50:31.053Z</time>
      </trkpt>
      <trkpt lat="48.38982" lon="2.82815">
        <ele>49</ele>
        <time>2023-04-11T09:50:35.124Z</time>
      </trkpt>
      <trkpt lat="48.38986" lon="2.82811">
        <ele>49</ele>
        <time>2023-04-11T09:50:39.316Z</time>
      </trkpt>
      <trkpt lat="48.38988" lon="2.82804">
        <ele>47</ele>
        <time>2023-04-11T09:50:43.273Z</time>
      </trkpt>
      <trkpt lat="48.38993" lon="2.82796">
        <ele>47</ele>
        <time>2023-04-11T09:50:48.307Z</time>
      </trkpt>
      <trkpt lat="48.38997" lon="2.82789">
        <ele>48</ele>
        <time>2023-04-11T09:50:53.040Z</time>
      </trkpt>
      <trkpt lat="48.38999" lon="2.82783">
        <ele>48</ele>
        <time>2023-04-11T09:50:57.585Z</time>
      </trkpt>
      <trkpt lat="48.39001" lon="2.82778">
        <ele>48</ele>
        <time>2023-04-11T09:51:01.908Z</time>
      </trkpt>
      <trkpt lat="48.39004" lon="2.82773">
        <ele>48</ele>
        <time>2023-04-11T09:51:05.861Z</time>
      </trkpt>
      <trkpt lat="48.39009" lon="2.82766">
        <ele>48</ele>
        <time>2023-04-11T09:51:10.784Z</time>
      </trkpt>
      <trkpt lat="48.39011" lon="2.82761">
        <ele>50</ele>
        <time>2023-04-11T09:51:14.647Z</time>
      </trkpt>
      <trkpt lat="48.39015" lon="2.82756">
        <ele>47</ele>
        <time>2023-04-11T09:51:19.316Z</time>
      </trkpt>
      <trkpt lat="48.3902" lon="2.82751">
        <ele>47</ele>
        <time>2023-04-11T09:51:23.710Z</time>
      </trkpt>
      <trkpt lat="48.39025" lon="2.82746">
        <ele>47</ele>
        <time>2023-04-11T09:51:28.021Z</time>
      </trkpt>
      <trkpt lat="48.39029" lon="2.82739">
        <ele>47</ele>
        <time>2023-04-11T09:51:32.451Z</time>
      </trkpt>
      <trkpt lat="48.39034" lon="2.82733">
        <ele>47</ele>
        <time>2023-04-11T09:51:37.001Z</time>
      </trkpt>
      <trkpt lat="48.39038" lon="2.82726">
        <ele>47</ele>
        <time>2023-04-11T09:51:41.603Z</time>
      </trkpt>
      <trkpt lat="48.39042" lon="2.8272">
        <ele>45</ele>
        <time>2023-04-11T09:51:46.026Z</time>
      </trkpt>
      <trkpt lat="48.39047" lon="2.82718">
        <ele>45</ele>
        <time>2023-04-11T09:51:49.874Z</time>
      </trkpt>
      <trkpt lat="48.3905" lon="2.82714">
        <ele>45</ele>
        <time>2023-04-11T09:51:54.424Z</time>
      </trkpt>
      <trkpt lat="48.39052" lon="2.82703">
        <ele>45</ele>
        <time>2023-04-11T09:51:58.978Z</time>
      </trkpt>
      <trkpt lat="48.39057" lon="2.82696">
        <ele>45</ele>
        <time>2023-04-11T09:52:03.316Z</time>
      </trkpt>
      <trkpt lat="48.39063" lon="2.82685">
        <ele>45</ele>
        <time>2023-04-11T09:52:07.726Z</time>
      </trkpt>
      <trkpt lat="48.39068" lon="2.82677">
        <ele>45</ele>
        <time>2023-04-11T09:52:12.106Z</time>
      </trkpt>
      <trkpt lat="48.39072" lon="2.82676">
        <ele>44</ele>
        <time>2023-04-11T09:52:16.114Z</time>
      </trkpt>
      <trkpt lat="48.39076" lon="2.82672">
        <ele>44</ele>
        <time>2023-04-11T09:52:20.225Z</time>
      </trkpt>
      <trkpt lat="48.39077" lon="2.8267">
        <ele>44</ele>
        <time>2023-04-11T09:52:24.737Z</time>
      </trkpt>
      <trkpt lat="48.39078" lon="2.82672">
        <ele>44</ele>
        <time>2023-04-11T09:52:29.250Z</time>
      </trkpt>
      <trkpt lat="48.39081" lon="2.82673">
        <ele>44</ele>
        <time>2023-04-11T09:52:33.261Z</time>
      </trkpt>
      <trkpt lat="48.39084" lon="2.82668">
        <ele>44</ele>
        <time>2023-04-11T09:52:37.775Z</time>
      </trkpt>
      <trkpt lat="48.39088" lon="2.82661">
        <ele>44</ele>
        <time>2023-04-11T09:52:42.279Z</time>
      </trkpt>
      <trkpt lat="48.39093" lon="2.82654">
        <ele>44</ele>
        <time>2023-04-11T09:52:46.781Z</time>
      </trkpt>
      <trkpt lat="48.39096" lon="2.82649">
        <ele>45</ele>
        <time>2023-04-11T09:52:51.022Z</time>
      </trkpt>
      <trkpt lat="48.391" lon="2.82643">
        <ele>44</ele>
        <time>2023-04-11T09:52:55.024Z</time>
      </trkpt>
      <trkpt lat="48.39104" lon="2.82638">
        <ele>44</ele>
        <time>2023-04-11T09:52:59.287Z</time>
      </trkpt>
      <trkpt lat="48.39109" lon="2.82632">
        <ele>44</ele>
        <time>2023-04-11T09:53:03.441Z</time>
      </trkpt>
      <trkpt lat="48.39113" lon="2.82627">
        <ele>44</ele>
        <time>2023-04-11T09:53:07.980Z</time>
      </trkpt>
      <trkpt lat="48.39117" lon="2.8262">
        <ele>46</ele>
        <time>2023-04-11T09:53:12.540Z</time>
      </trkpt>
      <trkpt lat="48.39118" lon="2.82613">
        <ele>46</ele>
        <time>2023-04-11T09:53:16.622Z</time>
      </trkpt>
      <trkpt lat="48.39128" lon="2.82594">
        <ele>45</ele>
        <time>2023-04-11T09:53:39.681Z</time>
      </trkpt>
      <trkpt lat="48.39131" lon="2.82592">
        <ele>45</ele>
        <time>2023-04-11T09:53:44.316Z</time>
      </trkpt>
      <trkpt lat="48.39134" lon="2.82588">
        <ele>45</ele>
        <time>2023-04-11T09:53:48.511Z</time>
      </trkpt>
      <trkpt lat="48.39137" lon="2.82581">
        <ele>45</ele>
        <time>2023-04-11T09:53:52.705Z</time>
      </trkpt>
      <trkpt lat="48.39138" lon="2.82574">
        <ele>45</ele>
        <time>2023-04-11T09:53:58.101Z</time>
      </trkpt>
      <trkpt lat="48.3914" lon="2.82566">
        <ele>45</ele>
        <time>2023-04-11T09:54:02.298Z</time>
      </trkpt>
      <trkpt lat="48.39143" lon="2.82559">
        <ele>45</ele>
        <time>2023-04-11T09:54:07.105Z</time>
      </trkpt>
      <trkpt lat="48.39148" lon="2.82551">
        <ele>45</ele>
        <time>2023-04-11T09:54:11.577Z</time>
      </trkpt>
      <trkpt lat="48.39149" lon="2.82545">
        <ele>45</ele>
        <time>2023-04-11T09:54:15.722Z</time>
      </trkpt>
      <trkpt lat="48.39154" lon="2.82537">
        <ele>43</ele>
        <time>2023-04-11T09:54:19.916Z</time>
      </trkpt>
      <trkpt lat="48.39158" lon="2.82529">
        <ele>43</ele>
        <time>2023-04-11T09:54:24.469Z</time>
      </trkpt>
      <trkpt lat="48.39162" lon="2.82523">
        <ele>43</ele>
        <time>2023-04-11T09:54:28.646Z</time>
      </trkpt>
      <trkpt lat="48.39165" lon="2.82516">
        <ele>43</ele>
        <time>2023-04-11T09:54:33.174Z</time>
      </trkpt>
      <trkpt lat="48.39169" lon="2.82509">
        <ele>44</ele>
        <time>2023-04-11T09:54:37.645Z</time>
      </trkpt>
      <trkpt lat="48.39173" lon="2.82502">
        <ele>44</ele>
        <time>2023-04-11T09:54:41.708Z</time>
      </trkpt>
      <trkpt lat="48.39176" lon="2.82496">
        <ele>44</ele>
        <time>2023-04-11T09:54:45.663Z</time>
      </trkpt>
      <trkpt lat="48.39178" lon="2.82489">
        <ele>44</ele>
        <time>2023-04-11T09:54:49.847Z</time>
      </trkpt>
      <trkpt lat="48.39181" lon="2.82481">
        <ele>37</ele>
        <time>2023-04-11T09:54:54.040Z</time>
      </trkpt>
      <trkpt lat="48.39184" lon="2.82473">
        <ele>37</ele>
        <time>2023-04-11T09:54:58.127Z</time>
      </trkpt>
      <trkpt lat="48.39185" lon="2.82463">
        <ele>37</ele>
        <time>2023-04-11T09:55:02.480Z</time>
      </trkpt>
      <trkpt lat="48.39187" lon="2.82455">
        <ele>39</ele>
        <time>2023-04-11T09:55:06.316Z</time>
      </trkpt>
      <trkpt lat="48.39186" lon="2.82446">
        <ele>39</ele>
        <time>2023-04-11T09:55:10.915Z</time>
      </trkpt>
      <trkpt lat="48.39186" lon="2.82435">
        <ele>39</ele>
        <time>2023-04-11T09:55:15.586Z</time>
      </trkpt>
      <trkpt lat="48.39189" lon="2.82427">
        <ele>41</ele>
        <time>2023-04-11T09:55:20.168Z</time>
      </trkpt>
      <trkpt lat="48.39192" lon="2.8242">
        <ele>41</ele>
        <time>2023-04-11T09:55:24.693Z</time>
      </trkpt>
      <trkpt lat="48.39194" lon="2.82412">
        <ele>41</ele>
        <time>2023-04-11T09:55:28.765Z</time>
      </trkpt>
      <trkpt lat="48.39196" lon="2.82403">
        <ele>42</ele>
        <time>2023-04-11T09:55:33.137Z</time>
      </trkpt>
      <trkpt lat="48.39197" lon="2.82394">
        <ele>42</ele>
        <time>2023-04-11T09:55:37.410Z</time>
      </trkpt>
      <trkpt lat="48.39199" lon="2.82385">
        <ele>42</ele>
        <time>2023-04-11T09:55:41.685Z</time>
      </trkpt>
      <trkpt lat="48.39201" lon="2.82377">
        <ele>42</ele>
        <time>2023-04-11T09:55:45.979Z</time>
      </trkpt>
      <trkpt lat="48.39203" lon="2.82369">
        <ele>43</ele>
        <time>2023-04-11T09:55:50.262Z</time>
      </trkpt>
      <trkpt lat="48.39204" lon="2.82361">
        <ele>43</ele>
        <time>2023-04-11T09:55:54.285Z</time>
      </trkpt>
      <trkpt lat="48.39203" lon="2.82352">
        <ele>43</ele>
        <time>2023-04-11T09:55:58.718Z</time>
      </trkpt>
      <trkpt lat="48.39201" lon="2.8234">
        <ele>44</ele>
        <time>2023-04-11T09:56:04.040Z</time>
      </trkpt>
      <trkpt lat="48.39197" lon="2.82331">
        <ele>44</ele>
        <time>2023-04-11T09:56:09.007Z</time>
      </trkpt>
      <trkpt lat="48.39193" lon="2.82325">
        <ele>44</ele>
        <time>2023-04-11T09:56:13.502Z</time>
      </trkpt>
      <trkpt lat="48.39189" lon="2.82318">
        <ele>45</ele>
        <time>2023-04-11T09:56:17.869Z</time>
      </trkpt>
      <trkpt lat="48.39186" lon="2.82311">
        <ele>45</ele>
        <time>2023-04-11T09:56:22.532Z</time>
      </trkpt>
      <trkpt lat="48.39183" lon="2.82306">
        <ele>45</ele>
        <time>2023-04-11T09:56:26.529Z</time>
      </trkpt>
      <trkpt lat="48.39179" lon="2.82302">
        <ele>50</ele>
        <time>2023-04-11T09:56:30.721Z</time>
      </trkpt>
      <trkpt lat="48.39176" lon="2.82299">
        <ele>50</ele>
        <time>2023-04-11T09:56:35.287Z</time>
      </trkpt>
      <trkpt lat="48.39172" lon="2.82294">
        <ele>50</ele>
        <time>2023-04-11T09:56:39.316Z</time>
      </trkpt>
      <trkpt lat="48.39168" lon="2.82289">
        <ele>49</ele>
        <time>2023-04-11T09:56:43.749Z</time>
      </trkpt>
      <trkpt lat="48.39164" lon="2.82282">
        <ele>49</ele>
        <time>2023-04-11T09:56:48.241Z</time>
      </trkpt>
      <trkpt lat="48.39161" lon="2.82274">
        <ele>49</ele>
        <time>2023-04-11T09:56:52.544Z</time>
      </trkpt>
      <trkpt lat="48.39164" lon="2.82266">
        <ele>49</ele>
        <time>2023-04-11T09:56:56.443Z</time>
      </trkpt>
      <trkpt lat="48.39164" lon="2.82262">
        <ele>48</ele>
        <time>2023-04-11T09:57:00.514Z</time>
      </trkpt>
      <trkpt lat="48.39165" lon="2.82254">
        <ele>48</ele>
        <time>2023-04-11T09:57:04.704Z</time>
      </trkpt>
      <trkpt lat="48.39168" lon="2.82245">
        <ele>48</ele>
        <time>2023-04-11T09:57:08.894Z</time>
      </trkpt>
      <trkpt lat="48.3917" lon="2.82239">
        <ele>48</ele>
        <time>2023-04-11T09:57:12.726Z</time>
      </trkpt>
      <trkpt lat="48.39172" lon="2.82232">
        <ele>46</ele>
        <time>2023-04-11T09:57:17.518Z</time>
      </trkpt>
      <trkpt lat="48.39173" lon="2.82228">
        <ele>46</ele>
        <time>2023-04-11T09:57:19.914Z</time>
      </trkpt>
      <trkpt lat="48.39169" lon="2.82213">
        <ele>46</ele>
        <time>2023-04-11T09:57:28.683Z</time>
      </trkpt>
      <trkpt lat="48.39171" lon="2.8221">
        <ele>46</ele>
        <time>2023-04-11T09:57:33.194Z</time>
      </trkpt>
      <trkpt lat="48.39177" lon="2.82208">
        <ele>44</ele>
        <time>2023-04-11T09:57:37.206Z</time>
      </trkpt>
      <trkpt lat="48.39182" lon="2.82201">
        <ele>43</ele>
        <time>2023-04-11T09:57:41.427Z</time>
      </trkpt>
      <trkpt lat="48.39187" lon="2.82194">
        <ele>43</ele>
        <time>2023-04-11T09:57:46.048Z</time>
      </trkpt>
      <trkpt lat="48.3919" lon="2.82185">
        <ele>43</ele>
        <time>2023-04-11T09:57:49.664Z</time>
      </trkpt>
      <trkpt lat="48.39191" lon="2.82177">
        <ele>43</ele>
        <time>2023-04-11T09:57:53.902Z</time>
      </trkpt>
      <trkpt lat="48.39192" lon="2.82167">
        <ele>43</ele>
        <time>2023-04-11T09:57:58.501Z</time>
      </trkpt>
      <trkpt lat="48.39193" lon="2.82158">
        <ele>43</ele>
        <time>2023-04-11T09:58:02.577Z</time>
      </trkpt>
      <trkpt lat="48.39196" lon="2.82149">
        <ele>43</ele>
        <time>2023-04-11T09:58:06.652Z</time>
      </trkpt>
      <trkpt lat="48.39197" lon="2.8214">
        <ele>43</ele>
        <time>2023-04-11T09:58:10.667Z</time>
      </trkpt>
      <trkpt lat="48.39199" lon="2.8213">
        <ele>43</ele>
        <time>2023-04-11T09:58:15.699Z</time>
      </trkpt>
      <trkpt lat="48.39201" lon="2.82123">
        <ele>44</ele>
        <time>2023-04-11T09:58:19.774Z</time>
      </trkpt>
      <trkpt lat="48.39203" lon="2.82115">
        <ele>44</ele>
        <time>2023-04-11T09:58:24.316Z</time>
      </trkpt>
      <trkpt lat="48.39204" lon="2.8211">
        <ele>44</ele>
        <time>2023-04-11T09:58:28.281Z</time>
      </trkpt>
      <trkpt lat="48.39205" lon="2.821">
        <ele>44</ele>
        <time>2023-04-11T09:58:32.954Z</time>
      </trkpt>
      <trkpt lat="48.39205" lon="2.82093">
        <ele>43</ele>
        <time>2023-04-11T09:58:36.790Z</time>
      </trkpt>
      <trkpt lat="48.39206" lon="2.82085">
        <ele>43</ele>
        <time>2023-04-11T09:58:41.462Z</time>
      </trkpt>
      <trkpt lat="48.39207" lon="2.82077">
        <ele>43</ele>
        <time>2023-04-11T09:58:45.644Z</time>
      </trkpt>
      <trkpt lat="48.39208" lon="2.8207">
        <ele>43</ele>
        <time>2023-04-11T09:58:49.485Z</time>
      </trkpt>
      <trkpt lat="48.39209" lon="2.82061">
        <ele>45</ele>
        <time>2023-04-11T09:58:53.674Z</time>
      </trkpt>
      <trkpt lat="48.3921" lon="2.82051">
        <ele>45</ele>
        <time>2023-04-11T09:58:59.062Z</time>
      </trkpt>
      <trkpt lat="48.39211" lon="2.82043">
        <ele>45</ele>
        <time>2023-04-11T09:59:03.013Z</time>
      </trkpt>
      <trkpt lat="48.39213" lon="2.82037">
        <ele>45</ele>
        <time>2023-04-11T09:59:07.087Z</time>
      </trkpt>
      <trkpt lat="48.39213" lon="2.82031">
        <ele>45</ele>
        <time>2023-04-11T09:59:11.598Z</time>
      </trkpt>
      <trkpt lat="48.39213" lon="2.82025">
        <ele>45</ele>
        <time>2023-04-11T09:59:15.475Z</time>
      </trkpt>
      <trkpt lat="48.39213" lon="2.82015">
        <ele>45</ele>
        <time>2023-04-11T09:59:20.145Z</time>
      </trkpt>
      <trkpt lat="48.39215" lon="2.82008">
        <ele>45</ele>
        <time>2023-04-11T09:59:24.576Z</time>
      </trkpt>
      <trkpt lat="48.39217" lon="2.82">
        <ele>45</ele>
        <time>2023-04-11T09:59:28.645Z</time>
      </trkpt>
      <trkpt lat="48.39219" lon="2.81991">
        <ele>45</ele>
        <time>2023-04-11T09:59:32.715Z</time>
      </trkpt>
      <trkpt lat="48.3922" lon="2.8198">
        <ele>46</ele>
        <time>2023-04-11T09:59:37.316Z</time>
      </trkpt>
      <trkpt lat="48.39222" lon="2.81972">
        <ele>46</ele>
        <time>2023-04-11T09:59:41.316Z</time>
      </trkpt>
      <trkpt lat="48.39224" lon="2.8196">
        <ele>46</ele>
        <time>2023-04-11T09:59:45.996Z</time>
      </trkpt>
      <trkpt lat="48.39225" lon="2.8195">
        <ele>46</ele>
        <time>2023-04-11T09:59:50.543Z</time>
      </trkpt>
      <trkpt lat="48.39227" lon="2.81942">
        <ele>46</ele>
        <time>2023-04-11T09:59:55.322Z</time>
      </trkpt>
      <trkpt lat="48.39226" lon="2.81934">
        <ele>46</ele>
        <time>2023-04-11T09:59:59.265Z</time>
      </trkpt>
      <trkpt lat="48.39225" lon="2.81924">
        <ele>45</ele>
        <time>2023-04-11T10:00:03.815Z</time>
      </trkpt>
      <trkpt lat="48.39227" lon="2.81914">
        <ele>45</ele>
        <time>2023-04-11T10:00:09.006Z</time>
      </trkpt>
      <trkpt lat="48.39228" lon="2.81906">
        <ele>45</ele>
        <time>2023-04-11T10:00:12.976Z</time>
      </trkpt>
      <trkpt lat="48.39227" lon="2.81894">
        <ele>46</ele>
        <time>2023-04-11T10:00:17.478Z</time>
      </trkpt>
      <trkpt lat="48.39227" lon="2.81884">
        <ele>46</ele>
        <time>2023-04-11T10:00:21.418Z</time>
      </trkpt>
      <trkpt lat="48.39227" lon="2.81875">
        <ele>46</ele>
        <time>2023-04-11T10:00:26.019Z</time>
      </trkpt>
      <trkpt lat="48.39225" lon="2.81865">
        <ele>46</ele>
        <time>2023-04-11T10:00:30.397Z</time>
      </trkpt>
      <trkpt lat="48.39224" lon="2.81855">
        <ele>46</ele>
        <time>2023-04-11T10:00:34.697Z</time>
      </trkpt>
      <trkpt lat="48.39224" lon="2.81848">
        <ele>46</ele>
        <time>2023-04-11T10:00:38.636Z</time>
      </trkpt>
      <trkpt lat="48.39223" lon="2.81839">
        <ele>48</ele>
        <time>2023-04-11T10:00:43.307Z</time>
      </trkpt>
      <trkpt lat="48.39222" lon="2.81831">
        <ele>48</ele>
        <time>2023-04-11T10:00:47.564Z</time>
      </trkpt>
      <trkpt lat="48.39221" lon="2.81822">
        <ele>48</ele>
        <time>2023-04-11T10:00:51.803Z</time>
      </trkpt>
      <trkpt lat="48.39222" lon="2.81815">
        <ele>48</ele>
        <time>2023-04-11T10:00:55.632Z</time>
      </trkpt>
      <trkpt lat="48.39223" lon="2.81808">
        <ele>48</ele>
        <time>2023-04-11T10:00:59.700Z</time>
      </trkpt>
      <trkpt lat="48.39226" lon="2.81801">
        <ele>48</ele>
        <time>2023-04-11T10:01:03.651Z</time>
      </trkpt>
      <trkpt lat="48.39229" lon="2.8179">
        <ele>47</ele>
        <time>2023-04-11T10:01:08.196Z</time>
      </trkpt>
      <trkpt lat="48.3923" lon="2.81781">
        <ele>47</ele>
        <time>2023-04-11T10:01:12.724Z</time>
      </trkpt>
      <trkpt lat="48.3923" lon="2.81771">
        <ele>47</ele>
        <time>2023-04-11T10:01:16.673Z</time>
      </trkpt>
      <trkpt lat="48.3923" lon="2.81758">
        <ele>44</ele>
        <time>2023-04-11T10:01:21.819Z</time>
      </trkpt>
      <trkpt lat="48.39232" lon="2.81749">
        <ele>44</ele>
        <time>2023-04-11T10:01:25.887Z</time>
      </trkpt>
      <trkpt lat="48.39231" lon="2.8174">
        <ele>44</ele>
        <time>2023-04-11T10:01:30.073Z</time>
      </trkpt>
      <trkpt lat="48.39228" lon="2.81731">
        <ele>43</ele>
        <time>2023-04-11T10:01:34.739Z</time>
      </trkpt>
      <trkpt lat="48.39227" lon="2.81722">
        <ele>43</ele>
        <time>2023-04-11T10:01:38.923Z</time>
      </trkpt>
      <trkpt lat="48.39226" lon="2.81713">
        <ele>43</ele>
        <time>2023-04-11T10:01:42.870Z</time>
      </trkpt>
      <trkpt lat="48.39226" lon="2.81705">
        <ele>43</ele>
        <time>2023-04-11T10:01:46.935Z</time>
      </trkpt>
      <trkpt lat="48.39226" lon="2.81696">
        <ele>43</ele>
        <time>2023-04-11T10:01:51.470Z</time>
      </trkpt>
      <trkpt lat="48.39226" lon="2.81684">
        <ele>43</ele>
        <time>2023-04-11T10:01:56.131Z</time>
      </trkpt>
      <trkpt lat="48.39222" lon="2.81675">
        <ele>43</ele>
        <time>2023-04-11T10:02:00.672Z</time>
      </trkpt>
      <trkpt lat="48.39217" lon="2.81669">
        <ele>43</ele>
        <time>2023-04-11T10:02:05.167Z</time>
      </trkpt>
      <trkpt lat="48.39215" lon="2.8166">
        <ele>43</ele>
        <time>2023-04-11T10:02:10.112Z</time>
      </trkpt>
      <trkpt lat="48.39217" lon="2.81652">
        <ele>43</ele>
        <time>2023-04-11T10:02:14.036Z</time>
      </trkpt>
      <trkpt lat="48.39219" lon="2.81643">
        <ele>43</ele>
        <time>2023-04-11T10:02:18.694Z</time>
      </trkpt>
      <trkpt lat="48.3922" lon="2.81636">
        <ele>43</ele>
        <time>2023-04-11T10:02:22.877Z</time>
      </trkpt>
      <trkpt lat="48.39219" lon="2.81625">
        <ele>43</ele>
        <time>2023-04-11T10:02:27.540Z</time>
      </trkpt>
      <trkpt lat="48.39216" lon="2.81616">
        <ele>44</ele>
        <time>2023-04-11T10:02:32.316Z</time>
      </trkpt>
      <trkpt lat="48.39215" lon="2.81608">
        <ele>44</ele>
        <time>2023-04-11T10:02:36.510Z</time>
      </trkpt>
      <trkpt lat="48.39216" lon="2.81598">
        <ele>44</ele>
        <time>2023-04-11T10:02:41.151Z</time>
      </trkpt>
      <trkpt lat="48.39218" lon="2.81587">
        <ele>47</ele>
        <time>2023-04-11T10:02:46.100Z</time>
      </trkpt>
      <trkpt lat="48.39216" lon="2.81576">
        <ele>47</ele>
        <time>2023-04-11T10:02:50.243Z</time>
      </trkpt>
      <trkpt lat="48.39216" lon="2.81566">
        <ele>48</ele>
        <time>2023-04-11T10:02:55.015Z</time>
      </trkpt>
      <trkpt lat="48.39214" lon="2.81556">
        <ele>48</ele>
        <time>2023-04-11T10:02:58.841Z</time>
      </trkpt>
      <trkpt lat="48.39213" lon="2.81548">
        <ele>48</ele>
        <time>2023-04-11T10:03:02.785Z</time>
      </trkpt>
      <trkpt lat="48.39211" lon="2.8154">
        <ele>48</ele>
        <time>2023-04-11T10:03:07.316Z</time>
      </trkpt>
      <trkpt lat="48.3921" lon="2.81532">
        <ele>48</ele>
        <time>2023-04-11T10:03:11.668Z</time>
      </trkpt>
      <trkpt lat="48.39208" lon="2.81524">
        <ele>47</ele>
        <time>2023-04-11T10:03:15.919Z</time>
      </trkpt>
      <trkpt lat="48.39206" lon="2.81517">
        <ele>47</ele>
        <time>2023-04-11T10:03:19.868Z</time>
      </trkpt>
      <trkpt lat="48.39203" lon="2.81511">
        <ele>46</ele>
        <time>2023-04-11T10:03:23.809Z</time>
      </trkpt>
      <trkpt lat="48.39202" lon="2.81502">
        <ele>46</ele>
        <time>2023-04-11T10:03:28.587Z</time>
      </trkpt>
      <trkpt lat="48.39201" lon="2.81494">
        <ele>46</ele>
        <time>2023-04-11T10:03:32.628Z</time>
      </trkpt>
      <trkpt lat="48.392" lon="2.81484">
        <ele>45</ele>
        <time>2023-04-11T10:03:37.169Z</time>
      </trkpt>
      <trkpt lat="48.39198" lon="2.81475">
        <ele>45</ele>
        <time>2023-04-11T10:03:41.484Z</time>
      </trkpt>
      <trkpt lat="48.39197" lon="2.81466">
        <ele>45</ele>
        <time>2023-04-11T10:03:45.651Z</time>
      </trkpt>
      <trkpt lat="48.39195" lon="2.81458">
        <ele>45</ele>
        <time>2023-04-11T10:03:49.711Z</time>
      </trkpt>
      <trkpt lat="48.39194" lon="2.81449">
        <ele>45</ele>
        <time>2023-04-11T10:03:54.351Z</time>
      </trkpt>
      <trkpt lat="48.39192" lon="2.8144">
        <ele>45</ele>
        <time>2023-04-11T10:03:58.655Z</time>
      </trkpt>
      <trkpt lat="48.39188" lon="2.81432">
        <ele>45</ele>
        <time>2023-04-11T10:04:02.833Z</time>
      </trkpt>
      <trkpt lat="48.39186" lon="2.81431">
        <ele>45</ele>
        <time>2023-04-11T10:04:06.837Z</time>
      </trkpt>
      <trkpt lat="48.39187" lon="2.81433">
        <ele>45</ele>
        <time>2023-04-11T10:04:11.340Z</time>
      </trkpt>
      <trkpt lat="48.39188" lon="2.81427">
        <ele>45</ele>
        <time>2023-04-11T10:04:15.862Z</time>
      </trkpt>
      <trkpt lat="48.39185" lon="2.81417">
        <ele>45</ele>
        <time>2023-04-11T10:04:19.867Z</time>
      </trkpt>
      <trkpt lat="48.39182" lon="2.81405">
        <ele>45</ele>
        <time>2023-04-11T10:04:24.373Z</time>
      </trkpt>
      <trkpt lat="48.39179" lon="2.81396">
        <ele>43</ele>
        <time>2023-04-11T10:04:28.878Z</time>
      </trkpt>
      <trkpt lat="48.39179" lon="2.81388">
        <ele>43</ele>
        <time>2023-04-11T10:04:33.382Z</time>
      </trkpt>
      <trkpt lat="48.39178" lon="2.81379">
        <ele>43</ele>
        <time>2023-04-11T10:04:37.906Z</time>
      </trkpt>
      <trkpt lat="48.39177" lon="2.81371">
        <ele>43</ele>
        <time>2023-04-11T10:04:41.967Z</time>
      </trkpt>
      <trkpt lat="48.39176" lon="2.81362">
        <ele>43</ele>
        <time>2023-04-11T10:04:46.669Z</time>
      </trkpt>
      <trkpt lat="48.39173" lon="2.81352">
        <ele>43</ele>
        <time>2023-04-11T10:04:51.949Z</time>
      </trkpt>
      <trkpt lat="48.39171" lon="2.81343">
        <ele>44</ele>
        <time>2023-04-11T10:04:56.210Z</time>
      </trkpt>
      <trkpt lat="48.39168" lon="2.81333">
        <ele>44</ele>
        <time>2023-04-11T10:05:00.871Z</time>
      </trkpt>
      <trkpt lat="48.39166" lon="2.81326">
        <ele>44</ele>
        <time>2023-04-11T10:05:04.876Z</time>
      </trkpt>
      <trkpt lat="48.39162" lon="2.81324">
        <ele>44</ele>
        <time>2023-04-11T10:05:09.485Z</time>
      </trkpt>
      <trkpt lat="48.39156" lon="2.81327">
        <ele>44</ele>
        <time>2023-04-11T10:05:13.991Z</time>
      </trkpt>
      <trkpt lat="48.39152" lon="2.81326">
        <ele>45</ele>
        <time>2023-04-11T10:05:17.792Z</time>
      </trkpt>
      <trkpt lat="48.39148" lon="2.81319">
        <ele>46</ele>
        <time>2023-04-11T10:05:22.309Z</time>
      </trkpt>
      <trkpt lat="48.39145" lon="2.81312">
        <ele>46</ele>
        <time>2023-04-11T10:05:26.862Z</time>
      </trkpt>
      <trkpt lat="48.39144" lon="2.81306">
        <ele>46</ele>
        <time>2023-04-11T10:05:31.056Z</time>
      </trkpt>
      <trkpt lat="48.39143" lon="2.81298">
        <ele>46</ele>
        <time>2023-04-11T10:05:35.469Z</time>
      </trkpt>
      <trkpt lat="48.39141" lon="2.81291">
        <ele>46</ele>
        <time>2023-04-11T10:05:39.421Z</time>
      </trkpt>
      <trkpt lat="48.39139" lon="2.81283">
        <ele>46</ele>
        <time>2023-04-11T10:05:44.050Z</time>
      </trkpt>
      <trkpt lat="48.39137" lon="2.81276">
        <ele>46</ele>
        <time>2023-04-11T10:05:47.883Z</time>
      </trkpt>
      <trkpt lat="48.39136" lon="2.81268">
        <ele>46</ele>
        <time>2023-04-11T10:05:52.073Z</time>
      </trkpt>
      <trkpt lat="48.39133" lon="2.81261">
        <ele>45</ele>
        <time>2023-04-11T10:05:56.181Z</time>
      </trkpt>
      <trkpt lat="48.39129" lon="2.81251">
        <ele>45</ele>
        <time>2023-04-11T10:06:00.689Z</time>
      </trkpt>
      <trkpt lat="48.39126" lon="2.81242">
        <ele>45</ele>
        <time>2023-04-11T10:06:05.266Z</time>
      </trkpt>
      <trkpt lat="48.39124" lon="2.81232">
        <ele>45</ele>
        <time>2023-04-11T10:06:09.902Z</time>
      </trkpt>
      <trkpt lat="48.39123" lon="2.81224">
        <ele>45</ele>
        <time>2023-04-11T10:06:13.731Z</time>
      </trkpt>
      <trkpt lat="48.3912" lon="2.81215">
        <ele>45</ele>
        <time>2023-04-11T10:06:18.278Z</time>
      </trkpt>
      <trkpt lat="48.39118" lon="2.81206">
        <ele>44</ele>
        <time>2023-04-11T10:06:22.466Z</time>
      </trkpt>
      <trkpt lat="48.39115" lon="2.81197">
        <ele>44</ele>
        <time>2023-04-11T10:06:26.533Z</time>
      </trkpt>
      <trkpt lat="48.39115" lon="2.81188">
        <ele>44</ele>
        <time>2023-04-11T10:06:30.720Z</time>
      </trkpt>
      <trkpt lat="48.39113" lon="2.8118">
        <ele>44</ele>
        <time>2023-04-11T10:06:34.905Z</time>
      </trkpt>
      <trkpt lat="48.39109" lon="2.81171">
        <ele>44</ele>
        <time>2023-04-11T10:06:40.152Z</time>
      </trkpt>
      <trkpt lat="48.39106" lon="2.81163">
        <ele>44</ele>
        <time>2023-04-11T10:06:44.714Z</time>
      </trkpt>
      <trkpt lat="48.39104" lon="2.81154">
        <ele>44</ele>
        <time>2023-04-11T10:06:49.737Z</time>
      </trkpt>
      <trkpt lat="48.39102" lon="2.81145">
        <ele>44</ele>
        <time>2023-04-11T10:06:54.282Z</time>
      </trkpt>
      <trkpt lat="48.39099" lon="2.81138">
        <ele>44</ele>
        <time>2023-04-11T10:06:58.807Z</time>
      </trkpt>
      <trkpt lat="48.39094" lon="2.81128">
        <ele>46</ele>
        <time>2023-04-11T10:07:03.611Z</time>
      </trkpt>
      <trkpt lat="48.39088" lon="2.8112">
        <ele>45</ele>
        <time>2023-04-11T10:07:08.229Z</time>
      </trkpt>
      <trkpt lat="48.39089" lon="2.81112">
        <ele>45</ele>
        <time>2023-04-11T10:07:12.910Z</time>
      </trkpt>
      <trkpt lat="48.39087" lon="2.8111">
        <ele>45</ele>
        <time>2023-04-11T10:07:17.922Z</time>
      </trkpt>
      <trkpt lat="48.39083" lon="2.81112">
        <ele>45</ele>
        <time>2023-04-11T10:07:21.933Z</time>
      </trkpt>
      <trkpt lat="48.39079" lon="2.81113">
        <ele>45</ele>
        <time>2023-04-11T10:07:26.949Z</time>
      </trkpt>
      <trkpt lat="48.39071" lon="2.81107">
        <ele>45</ele>
        <time>2023-04-11T10:07:31.966Z</time>
      </trkpt>
      <trkpt lat="48.39071" lon="2.81096">
        <ele>43</ele>
        <time>2023-04-11T10:07:36.475Z</time>
      </trkpt>
      <trkpt lat="48.3907" lon="2.8109">
        <ele>43</ele>
        <time>2023-04-11T10:07:40.479Z</time>
      </trkpt>
      <trkpt lat="48.39069" lon="2.81082">
        <ele>44</ele>
        <time>2023-04-11T10:07:44.858Z</time>
      </trkpt>
      <trkpt lat="48.39067" lon="2.81075">
        <ele>44</ele>
        <time>2023-04-11T10:07:49.298Z</time>
      </trkpt>
      <trkpt lat="48.39063" lon="2.81068">
        <ele>43</ele>
        <time>2023-04-11T10:07:53.673Z</time>
      </trkpt>
      <trkpt lat="48.3906" lon="2.81061">
        <ele>43</ele>
        <time>2023-04-11T10:07:57.610Z</time>
      </trkpt>
      <trkpt lat="48.39057" lon="2.81056">
        <ele>43</ele>
        <time>2023-04-11T10:08:02.047Z</time>
      </trkpt>
      <trkpt lat="48.39054" lon="2.81052">
        <ele>43</ele>
        <time>2023-04-11T10:08:46.146Z</time>
      </trkpt>
      <trkpt lat="48.39054" lon="2.81045">
        <ele>43</ele>
        <time>2023-04-11T10:08:50.559Z</time>
      </trkpt>
      <trkpt lat="48.39049" lon="2.81038">
        <ele>43</ele>
        <time>2023-04-11T10:08:54.631Z</time>
      </trkpt>
      <trkpt lat="48.39046" lon="2.8103">
        <ele>43</ele>
        <time>2023-04-11T10:08:59.365Z</time>
      </trkpt>
      <trkpt lat="48.39041" lon="2.81021">
        <ele>44</ele>
        <time>2023-04-11T10:09:03.258Z</time>
      </trkpt>
      <trkpt lat="48.39039" lon="2.81012">
        <ele>43</ele>
        <time>2023-04-11T10:09:21.049Z</time>
      </trkpt>
      <trkpt lat="48.3904" lon="2.81019">
        <ele>44</ele>
        <time>2023-04-11T10:09:25.646Z</time>
      </trkpt>
      <trkpt lat="48.39042" lon="2.81028">
        <ele>43</ele>
        <time>2023-04-11T10:09:29.636Z</time>
      </trkpt>
      <trkpt lat="48.39045" lon="2.81038">
        <ele>43</ele>
        <time>2023-04-11T10:09:33.690Z</time>
      </trkpt>
      <trkpt lat="48.39047" lon="2.81047">
        <ele>43</ele>
        <time>2023-04-11T10:09:37.881Z</time>
      </trkpt>
      <trkpt lat="48.39049" lon="2.81057">
        <ele>43</ele>
        <time>2023-04-11T10:09:42.432Z</time>
      </trkpt>
      <trkpt lat="48.39052" lon="2.81063">
        <ele>43</ele>
        <time>2023-04-11T10:09:46.964Z</time>
      </trkpt>
      <trkpt lat="48.39056" lon="2.81069">
        <ele>43</ele>
        <time>2023-04-11T10:09:50.814Z</time>
      </trkpt>
      <trkpt lat="48.39058" lon="2.81076">
        <ele>44</ele>
        <time>2023-04-11T10:09:54.884Z</time>
      </trkpt>
      <trkpt lat="48.39055" lon="2.81078">
        <ele>44</ele>
        <time>2023-04-11T10:10:25.864Z</time>
      </trkpt>
      <trkpt lat="48.39055" lon="2.81076">
        <ele>44</ele>
        <time>2023-04-11T10:10:30.133Z</time>
      </trkpt>
      <trkpt lat="48.39054" lon="2.81076">
        <ele>44</ele>
        <time>2023-04-11T10:10:34.160Z</time>
      </trkpt>
      <trkpt lat="48.39051" lon="2.81079">
        <ele>44</ele>
        <time>2023-04-11T10:10:38.301Z</time>
      </trkpt>
      <trkpt lat="48.39045" lon="2.81079">
        <ele>44</ele>
        <time>2023-04-11T10:10:42.316Z</time>
      </trkpt>
      <trkpt lat="48.39039" lon="2.81081">
        <ele>45</ele>
        <time>2023-04-11T10:10:46.625Z</time>
      </trkpt>
      <trkpt lat="48.39034" lon="2.81084">
        <ele>45</ele>
        <time>2023-04-11T10:10:50.695Z</time>
      </trkpt>
      <trkpt lat="48.39029" lon="2.81088">
        <ele>45</ele>
        <time>2023-04-11T10:10:55.124Z</time>
      </trkpt>
      <trkpt lat="48.39025" lon="2.8109">
        <ele>45</ele>
        <time>2023-04-11T10:10:59.220Z</time>
      </trkpt>
      <trkpt lat="48.39019" lon="2.81095">
        <ele>45</ele>
        <time>2023-04-11T10:11:03.733Z</time>
      </trkpt>
      <trkpt lat="48.39013" lon="2.81097">
        <ele>47</ele>
        <time>2023-04-11T10:11:08.247Z</time>
      </trkpt>
      <trkpt lat="48.39007" lon="2.81098">
        <ele>47</ele>
        <time>2023-04-11T10:11:12.716Z</time>
      </trkpt>
      <trkpt lat="48.39001" lon="2.81099">
        <ele>47</ele>
        <time>2023-04-11T10:11:16.729Z</time>
      </trkpt>
      <trkpt lat="48.38995" lon="2.81101">
        <ele>47</ele>
        <time>2023-04-11T10:11:21.164Z</time>
      </trkpt>
      <trkpt lat="48.38989" lon="2.81104">
        <ele>47</ele>
        <time>2023-04-11T10:11:25.588Z</time>
      </trkpt>
      <trkpt lat="48.38985" lon="2.81105">
        <ele>47</ele>
        <time>2023-04-11T10:11:29.428Z</time>
      </trkpt>
      <trkpt lat="48.38979" lon="2.81108">
        <ele>47</ele>
        <time>2023-04-11T10:11:34.103Z</time>
      </trkpt>
      <trkpt lat="48.38974" lon="2.8111">
        <ele>47</ele>
        <time>2023-04-11T10:11:38.527Z</time>
      </trkpt>
      <trkpt lat="48.38969" lon="2.81111">
        <ele>47</ele>
        <time>2023-04-11T10:11:42.730Z</time>
      </trkpt>
      <trkpt lat="48.38964" lon="2.81113">
        <ele>47</ele>
        <time>2023-04-11T10:11:46.921Z</time>
      </trkpt>
      <trkpt lat="48.38958" lon="2.81114">
        <ele>47</ele>
        <time>2023-04-11T10:11:51.471Z</time>
      </trkpt>
      <trkpt lat="48.38952" lon="2.81116">
        <ele>47</ele>
        <time>2023-04-11T10:11:56.141Z</time>
      </trkpt>
      <trkpt lat="48.38946" lon="2.81117">
        <ele>47</ele>
        <time>2023-04-11T10:12:00.701Z</time>
      </trkpt>
      <trkpt lat="48.38941" lon="2.81121">
        <ele>47</ele>
        <time>2023-04-11T10:12:04.985Z</time>
      </trkpt>
      <trkpt lat="48.38938" lon="2.81127">
        <ele>48</ele>
        <time>2023-04-11T10:12:08.717Z</time>
      </trkpt>
      <trkpt lat="48.38932" lon="2.81129">
        <ele>48</ele>
        <time>2023-04-11T10:12:13.237Z</time>
      </trkpt>
      <trkpt lat="48.38927" lon="2.81136">
        <ele>48</ele>
        <time>2023-04-11T10:12:17.697Z</time>
      </trkpt>
      <trkpt lat="48.38921" lon="2.81143">
        <ele>48</ele>
        <time>2023-04-11T10:12:22.728Z</time>
      </trkpt>
      <trkpt lat="48.38916" lon="2.81147">
        <ele>48</ele>
        <time>2023-04-11T10:12:27.316Z</time>
      </trkpt>
      <trkpt lat="48.38914" lon="2.81149">
        <ele>48</ele>
        <time>2023-04-11T10:12:31.468Z</time>
      </trkpt>
      <trkpt lat="48.38908" lon="2.81146">
        <ele>48</ele>
        <time>2023-04-11T10:12:35.843Z</time>
      </trkpt>
      <trkpt lat="48.38902" lon="2.81145">
        <ele>50</ele>
        <time>2023-04-11T10:12:39.848Z</time>
      </trkpt>
      <trkpt lat="48.38895" lon="2.81141">
        <ele>50</ele>
        <time>2023-04-11T10:12:44.879Z</time>
      </trkpt>
      <trkpt lat="48.3889" lon="2.81143">
        <ele>50</ele>
        <time>2023-04-11T10:12:49.432Z</time>
      </trkpt>
      <trkpt lat="48.38885" lon="2.81146">
        <ele>50</ele>
        <time>2023-04-11T10:12:53.316Z</time>
      </trkpt>
      <trkpt lat="48.38879" lon="2.81147">
        <ele>50</ele>
        <time>2023-04-11T10:12:57.859Z</time>
      </trkpt>
      <trkpt lat="48.38873" lon="2.8115">
        <ele>51</ele>
        <time>2023-04-11T10:13:02.070Z</time>
      </trkpt>
      <trkpt lat="48.38867" lon="2.81153">
        <ele>52</ele>
        <time>2023-04-11T10:13:06.664Z</time>
      </trkpt>
      <trkpt lat="48.38862" lon="2.81155">
        <ele>52</ele>
        <time>2023-04-11T10:13:10.645Z</time>
      </trkpt>
      <trkpt lat="48.38856" lon="2.81157">
        <ele>52</ele>
        <time>2023-04-11T10:13:14.596Z</time>
      </trkpt>
      <trkpt lat="48.3885" lon="2.81159">
        <ele>52</ele>
        <time>2023-04-11T10:13:19.148Z</time>
      </trkpt>
      <trkpt lat="48.38844" lon="2.8116">
        <ele>52</ele>
        <time>2023-04-11T10:13:23.061Z</time>
      </trkpt>
      <trkpt lat="48.38838" lon="2.81161">
        <ele>52</ele>
        <time>2023-04-11T10:13:27.613Z</time>
      </trkpt>
      <trkpt lat="48.38832" lon="2.81163">
        <ele>52</ele>
        <time>2023-04-11T10:13:31.564Z</time>
      </trkpt>
      <trkpt lat="48.38827" lon="2.81165">
        <ele>52</ele>
        <time>2023-04-11T10:13:35.993Z</time>
      </trkpt>
      <trkpt lat="48.38812" lon="2.81166">
        <ele>52</ele>
        <time>2023-04-11T10:13:53.120Z</time>
      </trkpt>
      <trkpt lat="48.3881" lon="2.8116">
        <ele>52</ele>
        <time>2023-04-11T10:13:57.642Z</time>
      </trkpt>
      <trkpt lat="48.38808" lon="2.81152">
        <ele>53</ele>
        <time>2023-04-11T10:14:01.504Z</time>
      </trkpt>
      <trkpt lat="48.38808" lon="2.81145">
        <ele>53</ele>
        <time>2023-04-11T10:14:05.697Z</time>
      </trkpt>
      <trkpt lat="48.38809" lon="2.81135">
        <ele>53</ele>
        <time>2023-04-11T10:14:10.839Z</time>
      </trkpt>
      <trkpt lat="48.3881" lon="2.81128">
        <ele>53</ele>
        <time>2023-04-11T10:14:14.860Z</time>
      </trkpt>
      <trkpt lat="48.3881" lon="2.81119">
        <ele>53</ele>
        <time>2023-04-11T10:14:18.931Z</time>
      </trkpt>
      <trkpt lat="48.38813" lon="2.81111">
        <ele>53</ele>
        <time>2023-04-11T10:14:22.883Z</time>
      </trkpt>
      <trkpt lat="48.38809" lon="2.81098">
        <ele>53</ele>
        <time>2023-04-11T10:14:27.675Z</time>
      </trkpt>
      <trkpt lat="48.38807" lon="2.81089">
        <ele>53</ele>
        <time>2023-04-11T10:14:32.218Z</time>
      </trkpt>
      <trkpt lat="48.38805" lon="2.81081">
        <ele>53</ele>
        <time>2023-04-11T10:14:36.301Z</time>
      </trkpt>
      <trkpt lat="48.38803" lon="2.81073">
        <ele>53</ele>
        <time>2023-04-11T10:14:40.493Z</time>
      </trkpt>
      <trkpt lat="48.38801" lon="2.81063">
        <ele>53</ele>
        <time>2023-04-11T10:14:44.924Z</time>
      </trkpt>
      <trkpt lat="48.38799" lon="2.81056">
        <ele>53</ele>
        <time>2023-04-11T10:14:48.876Z</time>
      </trkpt>
      <trkpt lat="48.38797" lon="2.81046">
        <ele>53</ele>
        <time>2023-04-11T10:14:53.511Z</time>
      </trkpt>
      <trkpt lat="48.38795" lon="2.81039">
        <ele>52</ele>
        <time>2023-04-11T10:14:57.702Z</time>
      </trkpt>
      <trkpt lat="48.38794" lon="2.81032">
        <ele>52</ele>
        <time>2023-04-11T10:15:01.654Z</time>
      </trkpt>
      <trkpt lat="48.38797" lon="2.8103">
        <ele>52</ele>
        <time>2023-04-11T10:15:05.724Z</time>
      </trkpt>
      <trkpt lat="48.38804" lon="2.8103">
        <ele>52</ele>
        <time>2023-04-11T10:15:10.153Z</time>
      </trkpt>
      <trkpt lat="48.3881" lon="2.81027">
        <ele>52</ele>
        <time>2023-04-11T10:15:14.157Z</time>
      </trkpt>
      <trkpt lat="48.38816" lon="2.81024">
        <ele>52</ele>
        <time>2023-04-11T10:15:18.297Z</time>
      </trkpt>
      <trkpt lat="48.3882" lon="2.81021">
        <ele>52</ele>
        <time>2023-04-11T10:15:22.316Z</time>
      </trkpt>
      <trkpt lat="48.38821" lon="2.8102">
        <ele>52</ele>
        <time>2023-04-11T10:15:26.923Z</time>
      </trkpt>
      <trkpt lat="48.38819" lon="2.81014">
        <ele>52</ele>
        <time>2023-04-11T10:15:31.388Z</time>
      </trkpt>
      <trkpt lat="48.38818" lon="2.81005">
        <ele>51</ele>
        <time>2023-04-11T10:15:35.424Z</time>
      </trkpt>
      <trkpt lat="48.3882" lon="2.80995">
        <ele>50</ele>
        <time>2023-04-11T10:15:40.094Z</time>
      </trkpt>
      <trkpt lat="48.3882" lon="2.80985">
        <ele>49</ele>
        <time>2023-04-11T10:15:44.286Z</time>
      </trkpt>
      <trkpt lat="48.38819" lon="2.80978">
        <ele>50</ele>
        <time>2023-04-11T10:15:48.476Z</time>
      </trkpt>
      <trkpt lat="48.38819" lon="2.80971">
        <ele>50</ele>
        <time>2023-04-11T10:15:52.428Z</time>
      </trkpt>
      <trkpt lat="48.38822" lon="2.80966">
        <ele>49</ele>
        <time>2023-04-11T10:15:56.982Z</time>
      </trkpt>
      <trkpt lat="48.38826" lon="2.80962">
        <ele>49</ele>
        <time>2023-04-11T10:16:00.933Z</time>
      </trkpt>
      <trkpt lat="48.38823" lon="2.80954">
        <ele>48</ele>
        <time>2023-04-11T10:16:05.527Z</time>
      </trkpt>
      <trkpt lat="48.38822" lon="2.80946">
        <ele>48</ele>
        <time>2023-04-11T10:16:09.618Z</time>
      </trkpt>
      <trkpt lat="48.3882" lon="2.80941">
        <ele>48</ele>
        <time>2023-04-11T10:16:14.889Z</time>
      </trkpt>
      <trkpt lat="48.38819" lon="2.8094">
        <ele>49</ele>
        <time>2023-04-11T10:16:19.668Z</time>
      </trkpt>
      <trkpt lat="48.38818" lon="2.80939">
        <ele>49</ele>
        <time>2023-04-11T10:16:23.633Z</time>
      </trkpt>
      <trkpt lat="48.38821" lon="2.80931">
        <ele>48</ele>
        <time>2023-04-11T10:16:28.146Z</time>
      </trkpt>
      <trkpt lat="48.38826" lon="2.80922">
        <ele>48</ele>
        <time>2023-04-11T10:16:32.258Z</time>
      </trkpt>
      <trkpt lat="48.38832" lon="2.809">
        <ele>49</ele>
        <time>2023-04-11T10:16:50.683Z</time>
      </trkpt>
      <trkpt lat="48.38828" lon="2.80894">
        <ele>49</ele>
        <time>2023-04-11T10:16:54.755Z</time>
      </trkpt>
      <trkpt lat="48.38826" lon="2.80887">
        <ele>49</ele>
        <time>2023-04-11T10:16:59.900Z</time>
      </trkpt>
      <trkpt lat="48.38827" lon="2.80877">
        <ele>49</ele>
        <time>2023-04-11T10:17:04.105Z</time>
      </trkpt>
      <trkpt lat="48.38829" lon="2.80865">
        <ele>49</ele>
        <time>2023-04-11T10:17:08.823Z</time>
      </trkpt>
      <trkpt lat="48.38831" lon="2.80855">
        <ele>49</ele>
        <time>2023-04-11T10:17:12.843Z</time>
      </trkpt>
      <trkpt lat="48.38837" lon="2.80849">
        <ele>49</ele>
        <time>2023-04-11T10:17:17.276Z</time>
      </trkpt>
      <trkpt lat="48.38844" lon="2.80844">
        <ele>49</ele>
        <time>2023-04-11T10:17:21.709Z</time>
      </trkpt>
      <trkpt lat="48.38848" lon="2.80838">
        <ele>48</ele>
        <time>2023-04-11T10:17:26.379Z</time>
      </trkpt>
      <trkpt lat="48.38851" lon="2.80832">
        <ele>48</ele>
        <time>2023-04-11T10:17:30.316Z</time>
      </trkpt>
      <trkpt lat="48.38855" lon="2.80825">
        <ele>48</ele>
        <time>2023-04-11T10:17:34.809Z</time>
      </trkpt>
      <trkpt lat="48.38858" lon="2.80818">
        <ele>47</ele>
        <time>2023-04-11T10:17:39.316Z</time>
      </trkpt>
      <trkpt lat="48.38859" lon="2.80813">
        <ele>47</ele>
        <time>2023-04-11T10:17:43.510Z</time>
      </trkpt>
      <trkpt lat="48.38865" lon="2.80804">
        <ele>47</ele>
        <time>2023-04-11T10:18:01.629Z</time>
      </trkpt>
      <trkpt lat="48.38867" lon="2.80807">
        <ele>47</ele>
        <time>2023-04-11T10:18:06.146Z</time>
      </trkpt>
      <trkpt lat="48.3887" lon="2.80813">
        <ele>47</ele>
        <time>2023-04-11T10:18:10.657Z</time>
      </trkpt>
      <trkpt lat="48.38872" lon="2.80811">
        <ele>47</ele>
        <time>2023-04-11T10:18:14.760Z</time>
      </trkpt>
      <trkpt lat="48.38872" lon="2.80808">
        <ele>47</ele>
        <time>2023-04-11T10:18:18.679Z</time>
      </trkpt>
      <trkpt lat="48.38872" lon="2.80804">
        <ele>47</ele>
        <time>2023-04-11T10:18:32.414Z</time>
      </trkpt>
      <trkpt lat="48.38871" lon="2.80798">
        <ele>47</ele>
        <time>2023-04-11T10:18:36.983Z</time>
      </trkpt>
      <trkpt lat="48.38868" lon="2.80792">
        <ele>47</ele>
        <time>2023-04-11T10:18:41.049Z</time>
      </trkpt>
      <trkpt lat="48.38869" lon="2.80788">
        <ele>47</ele>
        <time>2023-04-11T10:18:46.163Z</time>
      </trkpt>
      <trkpt lat="48.38873" lon="2.80785">
        <ele>47</ele>
        <time>2023-04-11T10:18:50.259Z</time>
      </trkpt>
      <trkpt lat="48.38872" lon="2.80779">
        <ele>47</ele>
        <time>2023-04-11T10:18:54.275Z</time>
      </trkpt>
      <trkpt lat="48.38867" lon="2.80779">
        <ele>47</ele>
        <time>2023-04-11T10:18:58.316Z</time>
      </trkpt>
      <trkpt lat="48.38871" lon="2.80771">
        <ele>47</ele>
        <time>2023-04-11T10:19:02.904Z</time>
      </trkpt>
      <trkpt lat="48.38875" lon="2.80763">
        <ele>44</ele>
        <time>2023-04-11T10:19:07.301Z</time>
      </trkpt>
      <trkpt lat="48.38877" lon="2.80757">
        <ele>44</ele>
        <time>2023-04-11T10:19:11.254Z</time>
      </trkpt>
      <trkpt lat="48.3888" lon="2.80762">
        <ele>44</ele>
        <time>2023-04-11T10:19:15.450Z</time>
      </trkpt>
      <trkpt lat="48.3888" lon="2.80765">
        <ele>45</ele>
        <time>2023-04-11T10:19:19.986Z</time>
      </trkpt>
      <trkpt lat="48.38883" lon="2.80759">
        <ele>44</ele>
        <time>2023-04-11T10:19:24.062Z</time>
      </trkpt>
      <trkpt lat="48.38889" lon="2.80754">
        <ele>44</ele>
        <time>2023-04-11T10:19:28.258Z</time>
      </trkpt>
      <trkpt lat="48.38896" lon="2.80756">
        <ele>44</ele>
        <time>2023-04-11T10:19:32.316Z</time>
      </trkpt>
      <trkpt lat="48.38901" lon="2.8076">
        <ele>44</ele>
        <time>2023-04-11T10:19:36.290Z</time>
      </trkpt>
      <trkpt lat="48.38905" lon="2.80764">
        <ele>45</ele>
        <time>2023-04-11T10:19:40.484Z</time>
      </trkpt>
      <trkpt lat="48.38908" lon="2.80768">
        <ele>45</ele>
        <time>2023-04-11T10:19:44.438Z</time>
      </trkpt>
      <trkpt lat="48.38915" lon="2.80781">
        <ele>45</ele>
        <time>2023-04-11T10:20:10.747Z</time>
      </trkpt>
      <trkpt lat="48.38915" lon="2.80781">
        <ele>45</ele>
        <time>2023-04-11T10:20:15.148Z</time>
      </trkpt>
      <trkpt lat="48.38916" lon="2.8078">
        <ele>45</ele>
        <time>2023-04-11T10:20:19.702Z</time>
      </trkpt>
      <trkpt lat="48.38917" lon="2.8078">
        <ele>45</ele>
        <time>2023-04-11T10:20:24.359Z</time>
      </trkpt>
      <trkpt lat="48.38922" lon="2.80779">
        <ele>45</ele>
        <time>2023-04-11T10:20:28.436Z</time>
      </trkpt>
      <trkpt lat="48.38929" lon="2.80778">
        <ele>45</ele>
        <time>2023-04-11T10:20:33.288Z</time>
      </trkpt>
      <trkpt lat="48.38938" lon="2.80774">
        <ele>43</ele>
        <time>2023-04-11T10:20:37.692Z</time>
      </trkpt>
      <trkpt lat="48.38941" lon="2.80768">
        <ele>43</ele>
        <time>2023-04-11T10:20:41.853Z</time>
      </trkpt>
      <trkpt lat="48.38942" lon="2.80769">
        <ele>43</ele>
        <time>2023-04-11T10:20:46.882Z</time>
      </trkpt>
      <trkpt lat="48.38945" lon="2.80768">
        <ele>43</ele>
        <time>2023-04-11T10:20:51.897Z</time>
      </trkpt>
      <trkpt lat="48.38948" lon="2.80761">
        <ele>43</ele>
        <time>2023-04-11T10:20:56.400Z</time>
      </trkpt>
      <trkpt lat="48.38953" lon="2.80754">
        <ele>43</ele>
        <time>2023-04-11T10:21:00.900Z</time>
      </trkpt>
      <trkpt lat="48.38958" lon="2.80748">
        <ele>43</ele>
        <time>2023-04-11T10:21:04.839Z</time>
      </trkpt>
      <trkpt lat="48.38961" lon="2.80742">
        <ele>42</ele>
        <time>2023-04-11T10:21:09.478Z</time>
      </trkpt>
      <trkpt lat="48.38966" lon="2.80736">
        <ele>42</ele>
        <time>2023-04-11T10:21:14.035Z</time>
      </trkpt>
      <trkpt lat="48.38971" lon="2.80734">
        <ele>44</ele>
        <time>2023-04-11T10:21:18.554Z</time>
      </trkpt>
      <trkpt lat="48.38976" lon="2.8073">
        <ele>44</ele>
        <time>2023-04-11T10:21:22.944Z</time>
      </trkpt>
      <trkpt lat="48.3898" lon="2.80725">
        <ele>44</ele>
        <time>2023-04-11T10:21:26.709Z</time>
      </trkpt>
      <trkpt lat="48.38985" lon="2.8072">
        <ele>44</ele>
        <time>2023-04-11T10:21:31.767Z</time>
      </trkpt>
      <trkpt lat="48.38989" lon="2.80713">
        <ele>45</ele>
        <time>2023-04-11T10:21:35.561Z</time>
      </trkpt>
      <trkpt lat="48.38994" lon="2.80707">
        <ele>45</ele>
        <time>2023-04-11T10:21:40.141Z</time>
      </trkpt>
      <trkpt lat="48.38999" lon="2.80702">
        <ele>45</ele>
        <time>2023-04-11T10:21:44.429Z</time>
      </trkpt>
      <trkpt lat="48.39003" lon="2.80697">
        <ele>45</ele>
        <time>2023-04-11T10:21:48.502Z</time>
      </trkpt>
      <trkpt lat="48.39009" lon="2.80692">
        <ele>45</ele>
        <time>2023-04-11T10:21:53.054Z</time>
      </trkpt>
      <trkpt lat="48.39013" lon="2.80687">
        <ele>45</ele>
        <time>2023-04-11T10:21:57.249Z</time>
      </trkpt>
      <trkpt lat="48.39018" lon="2.80682">
        <ele>46</ele>
        <time>2023-04-11T10:22:01.684Z</time>
      </trkpt>
      <trkpt lat="48.39024" lon="2.80675">
        <ele>46</ele>
        <time>2023-04-11T10:22:06.478Z</time>
      </trkpt>
      <trkpt lat="48.3903" lon="2.8067">
        <ele>46</ele>
        <time>2023-04-11T10:22:11.137Z</time>
      </trkpt>
      <trkpt lat="48.39036" lon="2.80662">
        <ele>46</ele>
        <time>2023-04-11T10:22:15.705Z</time>
      </trkpt>
      <trkpt lat="48.39041" lon="2.80656">
        <ele>46</ele>
        <time>2023-04-11T10:22:20.497Z</time>
      </trkpt>
      <trkpt lat="48.39045" lon="2.8065">
        <ele>53</ele>
        <time>2023-04-11T10:22:24.660Z</time>
      </trkpt>
      <trkpt lat="48.39047" lon="2.80643">
        <ele>53</ele>
        <time>2023-04-11T10:22:28.641Z</time>
      </trkpt>
      <trkpt lat="48.39047" lon="2.80641">
        <ele>53</ele>
        <time>2023-04-11T10:22:32.712Z</time>
      </trkpt>
      <trkpt lat="48.39047" lon="2.80642">
        <ele>53</ele>
        <time>2023-04-11T10:22:38.062Z</time>
      </trkpt>
      <trkpt lat="48.39047" lon="2.80641">
        <ele>53</ele>
        <time>2023-04-11T10:22:42.255Z</time>
      </trkpt>
      <trkpt lat="48.39049" lon="2.80635">
        <ele>53</ele>
        <time>2023-04-11T10:22:46.446Z</time>
      </trkpt>
      <trkpt lat="48.3905" lon="2.80627">
        <ele>53</ele>
        <time>2023-04-11T10:22:51.118Z</time>
      </trkpt>
      <trkpt lat="48.39049" lon="2.8062">
        <ele>56</ele>
        <time>2023-04-11T10:22:54.712Z</time>
      </trkpt>
      <trkpt lat="48.39046" lon="2.80612">
        <ele>56</ele>
        <time>2023-04-11T10:22:59.504Z</time>
      </trkpt>
      <trkpt lat="48.39042" lon="2.80607">
        <ele>56</ele>
        <time>2023-04-11T10:23:04.118Z</time>
      </trkpt>
      <trkpt lat="48.39039" lon="2.80601">
        <ele>50</ele>
        <time>2023-04-11T10:23:08.313Z</time>
      </trkpt>
      <trkpt lat="48.39035" lon="2.80594">
        <ele>53</ele>
        <time>2023-04-11T10:23:12.851Z</time>
      </trkpt>
      <trkpt lat="48.39031" lon="2.80589">
        <ele>53</ele>
        <time>2023-04-11T10:23:16.940Z</time>
      </trkpt>
      <trkpt lat="48.39028" lon="2.80583">
        <ele>53</ele>
        <time>2023-04-11T10:23:21.127Z</time>
      </trkpt>
      <trkpt lat="48.39026" lon="2.80579">
        <ele>53</ele>
        <time>2023-04-11T10:23:25.448Z</time>
      </trkpt>
      <trkpt lat="48.39019" lon="2.80578">
        <ele>53</ele>
        <time>2023-04-11T10:23:29.523Z</time>
      </trkpt>
      <trkpt lat="48.39013" lon="2.80577">
        <ele>48</ele>
        <time>2023-04-11T10:23:33.837Z</time>
      </trkpt>
      <trkpt lat="48.39007" lon="2.80575">
        <ele>48</ele>
        <time>2023-04-11T10:23:38.331Z</time>
      </trkpt>
      <trkpt lat="48.39003" lon="2.80571">
        <ele>48</ele>
        <time>2023-04-11T10:23:42.316Z</time>
      </trkpt>
      <trkpt lat="48.38998" lon="2.80568">
        <ele>49</ele>
        <time>2023-04-11T10:23:46.898Z</time>
      </trkpt>
      <trkpt lat="48.38993" lon="2.80564">
        <ele>49</ele>
        <time>2023-04-11T10:23:51.373Z</time>
      </trkpt>
      <trkpt lat="48.38989" lon="2.80557">
        <ele>49</ele>
        <time>2023-04-11T10:23:55.401Z</time>
      </trkpt>
      <trkpt lat="48.38985" lon="2.8055">
        <ele>45</ele>
        <time>2023-04-11T10:23:59.476Z</time>
      </trkpt>
      <trkpt lat="48.3898" lon="2.80543">
        <ele>45</ele>
        <time>2023-04-11T10:24:03.311Z</time>
      </trkpt>
      <trkpt lat="48.38975" lon="2.80537">
        <ele>45</ele>
        <time>2023-04-11T10:24:07.984Z</time>
      </trkpt>
      <trkpt lat="48.38971" lon="2.8053">
        <ele>45</ele>
        <time>2023-04-11T10:24:12.441Z</time>
      </trkpt>
      <trkpt lat="48.38967" lon="2.80524">
        <ele>45</ele>
        <time>2023-04-11T10:24:16.453Z</time>
      </trkpt>
      <trkpt lat="48.38962" lon="2.80516">
        <ele>45</ele>
        <time>2023-04-11T10:24:20.608Z</time>
      </trkpt>
      <trkpt lat="48.38958" lon="2.80509">
        <ele>44</ele>
        <time>2023-04-11T10:24:24.661Z</time>
      </trkpt>
      <trkpt lat="48.38955" lon="2.80503">
        <ele>44</ele>
        <time>2023-04-11T10:24:28.674Z</time>
      </trkpt>
      <trkpt lat="48.38951" lon="2.80496">
        <ele>44</ele>
        <time>2023-04-11T10:24:32.747Z</time>
      </trkpt>
      <trkpt lat="48.38948" lon="2.80489">
        <ele>44</ele>
        <time>2023-04-11T10:24:36.702Z</time>
      </trkpt>
      <trkpt lat="48.38945" lon="2.80483">
        <ele>44</ele>
        <time>2023-04-11T10:24:40.718Z</time>
      </trkpt>
      <trkpt lat="48.38937" lon="2.8047">
        <ele>44</ele>
        <time>2023-04-11T10:24:48.233Z</time>
      </trkpt>
      <trkpt lat="48.38933" lon="2.80462">
        <ele>44</ele>
        <time>2023-04-11T10:24:52.744Z</time>
      </trkpt>
      <trkpt lat="48.38929" lon="2.80458">
        <ele>45</ele>
        <time>2023-04-11T10:24:56.749Z</time>
      </trkpt>
      <trkpt lat="48.38924" lon="2.8045">
        <ele>45</ele>
        <time>2023-04-11T10:25:01.099Z</time>
      </trkpt>
      <trkpt lat="48.3892" lon="2.80444">
        <ele>45</ele>
        <time>2023-04-11T10:25:04.824Z</time>
      </trkpt>
      <trkpt lat="48.38915" lon="2.80436">
        <ele>45</ele>
        <time>2023-04-11T10:25:09.261Z</time>
      </trkpt>
      <trkpt lat="48.38911" lon="2.80427">
        <ele>46</ele>
        <time>2023-04-11T10:25:13.818Z</time>
      </trkpt>
      <trkpt lat="48.38906" lon="2.80419">
        <ele>46</ele>
        <time>2023-04-11T10:25:18.658Z</time>
      </trkpt>
      <trkpt lat="48.38903" lon="2.80411">
        <ele>46</ele>
        <time>2023-04-11T10:25:23.255Z</time>
      </trkpt>
      <trkpt lat="48.38899" lon="2.80403">
        <ele>44</ele>
        <time>2023-04-11T10:25:27.691Z</time>
      </trkpt>
      <trkpt lat="48.38896" lon="2.80397">
        <ele>43</ele>
        <time>2023-04-11T10:25:31.645Z</time>
      </trkpt>
      <trkpt lat="48.38893" lon="2.80389">
        <ele>43</ele>
        <time>2023-04-11T10:25:36.080Z</time>
      </trkpt>
      <trkpt lat="48.38889" lon="2.80382">
        <ele>43</ele>
        <time>2023-04-11T10:25:40.222Z</time>
      </trkpt>
      <trkpt lat="48.38886" lon="2.80373">
        <ele>42</ele>
        <time>2023-04-11T10:25:44.705Z</time>
      </trkpt>
      <trkpt lat="48.38881" lon="2.80366">
        <ele>42</ele>
        <time>2023-04-11T10:25:48.858Z</time>
      </trkpt>
      <trkpt lat="48.38879" lon="2.8036">
        <ele>42</ele>
        <time>2023-04-11T10:25:52.772Z</time>
      </trkpt>
      <trkpt lat="48.38877" lon="2.80352">
        <ele>42</ele>
        <time>2023-04-11T10:25:57.316Z</time>
      </trkpt>
      <trkpt lat="48.38874" lon="2.80345">
        <ele>42</ele>
        <time>2023-04-11T10:26:01.255Z</time>
      </trkpt>
      <trkpt lat="48.38872" lon="2.80338">
        <ele>42</ele>
        <time>2023-04-11T10:26:05.882Z</time>
      </trkpt>
      <trkpt lat="48.3887" lon="2.80328">
        <ele>42</ele>
        <time>2023-04-11T10:26:09.906Z</time>
      </trkpt>
      <trkpt lat="48.38867" lon="2.80322">
        <ele>42</ele>
        <time>2023-04-11T10:26:13.921Z</time>
      </trkpt>
      <trkpt lat="48.38865" lon="2.80312">
        <ele>42</ele>
        <time>2023-04-11T10:26:18.715Z</time>
      </trkpt>
      <trkpt lat="48.38864" lon="2.80303">
        <ele>42</ele>
        <time>2023-04-11T10:26:23.062Z</time>
      </trkpt>
      <trkpt lat="48.38862" lon="2.80296">
        <ele>42</ele>
        <time>2023-04-11T10:26:27.106Z</time>
      </trkpt>
      <trkpt lat="48.3886" lon="2.80285">
        <ele>43</ele>
        <time>2023-04-11T10:26:31.518Z</time>
      </trkpt>
      <trkpt lat="48.38858" lon="2.80277">
        <ele>43</ele>
        <time>2023-04-11T10:26:35.590Z</time>
      </trkpt>
      <trkpt lat="48.38857" lon="2.80268">
        <ele>43</ele>
        <time>2023-04-11T10:26:40.177Z</time>
      </trkpt>
      <trkpt lat="48.38856" lon="2.80258">
        <ele>44</ele>
        <time>2023-04-11T10:26:44.683Z</time>
      </trkpt>
      <trkpt lat="48.38855" lon="2.80249">
        <ele>44</ele>
        <time>2023-04-11T10:26:48.644Z</time>
      </trkpt>
      <trkpt lat="48.38855" lon="2.8024">
        <ele>44</ele>
        <time>2023-04-11T10:26:53.087Z</time>
      </trkpt>
      <trkpt lat="48.38855" lon="2.80232">
        <ele>44</ele>
        <time>2023-04-11T10:26:57.226Z</time>
      </trkpt>
      <trkpt lat="48.38855" lon="2.80223">
        <ele>44</ele>
        <time>2023-04-11T10:27:01.694Z</time>
      </trkpt>
      <trkpt lat="48.38854" lon="2.80216">
        <ele>44</ele>
        <time>2023-04-11T10:27:05.645Z</time>
      </trkpt>
      <trkpt lat="48.38853" lon="2.80209">
        <ele>44</ele>
        <time>2023-04-11T10:27:10.239Z</time>
      </trkpt>
      <trkpt lat="48.38852" lon="2.80198">
        <ele>45</ele>
        <time>2023-04-11T10:27:14.728Z</time>
      </trkpt>
      <trkpt lat="48.38851" lon="2.80189">
        <ele>45</ele>
        <time>2023-04-11T10:27:19.158Z</time>
      </trkpt>
      <trkpt lat="48.38851" lon="2.80178">
        <ele>46</ele>
        <time>2023-04-11T10:27:23.706Z</time>
      </trkpt>
      <trkpt lat="48.38852" lon="2.80164">
        <ele>46</ele>
        <time>2023-04-11T10:27:28.493Z</time>
      </trkpt>
      <trkpt lat="48.38852" lon="2.80154">
        <ele>46</ele>
        <time>2023-04-11T10:27:33.144Z</time>
      </trkpt>
      <trkpt lat="48.38852" lon="2.80145">
        <ele>48</ele>
        <time>2023-04-11T10:27:37.322Z</time>
      </trkpt>
      <trkpt lat="48.38852" lon="2.80135">
        <ele>48</ele>
        <time>2023-04-11T10:27:41.499Z</time>
      </trkpt>
      <trkpt lat="48.38854" lon="2.80125">
        <ele>50</ele>
        <time>2023-04-11T10:27:45.806Z</time>
      </trkpt>
      <trkpt lat="48.38855" lon="2.80115">
        <ele>50</ele>
        <time>2023-04-11T10:27:50.505Z</time>
      </trkpt>
      <trkpt lat="48.38856" lon="2.80106">
        <ele>50</ele>
        <time>2023-04-11T10:27:54.863Z</time>
      </trkpt>
      <trkpt lat="48.38857" lon="2.80098">
        <ele>50</ele>
        <time>2023-04-11T10:27:58.850Z</time>
      </trkpt>
      <trkpt lat="48.38859" lon="2.80089">
        <ele>50</ele>
        <time>2023-04-11T10:28:03.362Z</time>
      </trkpt>
      <trkpt lat="48.3886" lon="2.80082">
        <ele>50</ele>
        <time>2023-04-11T10:28:07.672Z</time>
      </trkpt>
      <trkpt lat="48.38861" lon="2.80073">
        <ele>50</ele>
        <time>2023-04-11T10:28:12.162Z</time>
      </trkpt>
      <trkpt lat="48.38862" lon="2.80064">
        <ele>48</ele>
        <time>2023-04-11T10:28:16.292Z</time>
      </trkpt>
      <trkpt lat="48.38862" lon="2.80053">
        <ele>48</ele>
        <time>2023-04-11T10:28:20.722Z</time>
      </trkpt>
      <trkpt lat="48.38863" lon="2.80043">
        <ele>48</ele>
        <time>2023-04-11T10:28:25.261Z</time>
      </trkpt>
      <trkpt lat="48.38865" lon="2.80034">
        <ele>45</ele>
        <time>2023-04-11T10:28:29.698Z</time>
      </trkpt>
      <trkpt lat="48.38866" lon="2.80028">
        <ele>45</ele>
        <time>2023-04-11T10:28:33.868Z</time>
      </trkpt>
      <trkpt lat="48.38868" lon="2.80018">
        <ele>45</ele>
        <time>2023-04-11T10:28:38.426Z</time>
      </trkpt>
      <trkpt lat="48.38869" lon="2.8001">
        <ele>45</ele>
        <time>2023-04-11T10:28:42.962Z</time>
      </trkpt>
      <trkpt lat="48.3887" lon="2.80001">
        <ele>45</ele>
        <time>2023-04-11T10:28:47.624Z</time>
      </trkpt>
      <trkpt lat="48.38871" lon="2.79992">
        <ele>45</ele>
        <time>2023-04-11T10:28:52Z</time>
      </trkpt>
      <trkpt lat="48.38872" lon="2.79984">
        <ele>44</ele>
        <time>2023-04-11T10:28:55.887Z</time>
      </trkpt>
      <trkpt lat="48.38873" lon="2.79973">
        <ele>44</ele>
        <time>2023-04-11T10:28:59.836Z</time>
      </trkpt>
      <trkpt lat="48.38874" lon="2.79964">
        <ele>44</ele>
        <time>2023-04-11T10:29:03.905Z</time>
      </trkpt>
      <trkpt lat="48.38872" lon="2.79955">
        <ele>44</ele>
        <time>2023-04-11T10:29:08.692Z</time>
      </trkpt>
      <trkpt lat="48.38873" lon="2.79946">
        <ele>44</ele>
        <time>2023-04-11T10:29:13.149Z</time>
      </trkpt>
      <trkpt lat="48.38872" lon="2.79926">
        <ele>43</ele>
        <time>2023-04-11T10:29:30.881Z</time>
      </trkpt>
      <trkpt lat="48.38878" lon="2.79923">
        <ele>43</ele>
        <time>2023-04-11T10:29:34.975Z</time>
      </trkpt>
      <trkpt lat="48.38881" lon="2.79912">
        <ele>43</ele>
        <time>2023-04-11T10:29:39.085Z</time>
      </trkpt>
      <trkpt lat="48.38882" lon="2.79902">
        <ele>43</ele>
        <time>2023-04-11T10:29:43.210Z</time>
      </trkpt>
      <trkpt lat="48.38875" lon="2.79898">
        <ele>43</ele>
        <time>2023-04-11T10:29:47.818Z</time>
      </trkpt>
      <trkpt lat="48.3887" lon="2.79888">
        <ele>43</ele>
        <time>2023-04-11T10:29:52.350Z</time>
      </trkpt>
      <trkpt lat="48.38873" lon="2.79878">
        <ele>43</ele>
        <time>2023-04-11T10:29:56.889Z</time>
      </trkpt>
      <trkpt lat="48.38876" lon="2.79866">
        <ele>44</ele>
        <time>2023-04-11T10:30:01.927Z</time>
      </trkpt>
      <trkpt lat="48.38879" lon="2.79853">
        <ele>44</ele>
        <time>2023-04-11T10:30:05.920Z</time>
      </trkpt>
      <trkpt lat="48.38879" lon="2.79845">
        <ele>46</ele>
        <time>2023-04-11T10:30:10.535Z</time>
      </trkpt>
      <trkpt lat="48.3888" lon="2.79835">
        <ele>46</ele>
        <time>2023-04-11T10:30:14.652Z</time>
      </trkpt>
      <trkpt lat="48.38882" lon="2.79827">
        <ele>46</ele>
        <time>2023-04-11T10:30:18.847Z</time>
      </trkpt>
      <trkpt lat="48.38885" lon="2.7982">
        <ele>46</ele>
        <time>2023-04-11T10:30:22.841Z</time>
      </trkpt>
      <trkpt lat="48.38885" lon="2.79809">
        <ele>47</ele>
        <time>2023-04-11T10:30:27.845Z</time>
      </trkpt>
      <trkpt lat="48.38884" lon="2.79801">
        <ele>47</ele>
        <time>2023-04-11T10:30:31.889Z</time>
      </trkpt>
      <trkpt lat="48.38884" lon="2.79793">
        <ele>47</ele>
        <time>2023-04-11T10:30:36.080Z</time>
      </trkpt>
      <trkpt lat="48.38885" lon="2.79783">
        <ele>48</ele>
        <time>2023-04-11T10:30:40.711Z</time>
      </trkpt>
      <trkpt lat="48.38884" lon="2.79775">
        <ele>48</ele>
        <time>2023-04-11T10:30:44.862Z</time>
      </trkpt>
      <trkpt lat="48.38885" lon="2.79763">
        <ele>49</ele>
        <time>2023-04-11T10:30:49.472Z</time>
      </trkpt>
      <trkpt lat="48.38888" lon="2.7975">
        <ele>49</ele>
        <time>2023-04-11T10:30:54.801Z</time>
      </trkpt>
      <trkpt lat="48.38888" lon="2.79741">
        <ele>49</ele>
        <time>2023-04-11T10:30:58.690Z</time>
      </trkpt>
      <trkpt lat="48.38889" lon="2.79732">
        <ele>50</ele>
        <time>2023-04-11T10:31:03.172Z</time>
      </trkpt>
      <trkpt lat="48.38888" lon="2.79724">
        <ele>50</ele>
        <time>2023-04-11T10:31:07.646Z</time>
      </trkpt>
      <trkpt lat="48.38888" lon="2.79715">
        <ele>50</ele>
        <time>2023-04-11T10:31:11.715Z</time>
      </trkpt>
      <trkpt lat="48.38888" lon="2.79707">
        <ele>50</ele>
        <time>2023-04-11T10:31:16.260Z</time>
      </trkpt>
      <trkpt lat="48.38889" lon="2.797">
        <ele>50</ele>
        <time>2023-04-11T10:31:20.325Z</time>
      </trkpt>
      <trkpt lat="48.38887" lon="2.79693">
        <ele>50</ele>
        <time>2023-04-11T10:31:24.478Z</time>
      </trkpt>
      <trkpt lat="48.38889" lon="2.79685">
        <ele>50</ele>
        <time>2023-04-11T10:31:28.452Z</time>
      </trkpt>
      <trkpt lat="48.3889" lon="2.79675">
        <ele>50</ele>
        <time>2023-04-11T10:31:33.044Z</time>
      </trkpt>
      <trkpt lat="48.3889" lon="2.79666">
        <ele>50</ele>
        <time>2023-04-11T10:31:37.096Z</time>
      </trkpt>
      <trkpt lat="48.38892" lon="2.79654">
        <ele>50</ele>
        <time>2023-04-11T10:31:41.486Z</time>
      </trkpt>
      <trkpt lat="48.38894" lon="2.79645">
        <ele>49</ele>
        <time>2023-04-11T10:31:45.474Z</time>
      </trkpt>
      <trkpt lat="48.38897" lon="2.79637">
        <ele>49</ele>
        <time>2023-04-11T10:31:49.664Z</time>
      </trkpt>
      <trkpt lat="48.38899" lon="2.79636">
        <ele>49</ele>
        <time>2023-04-11T10:31:51.316Z</time>
      </trkpt>
      <trkpt lat="48.389" lon="2.79631">
        <ele>49</ele>
        <time>2023-04-11T10:31:59.928Z</time>
      </trkpt>
      <trkpt lat="48.38902" lon="2.79629">
        <ele>49</ele>
        <time>2023-04-11T10:32:03.941Z</time>
      </trkpt>
      <trkpt lat="48.38904" lon="2.79619">
        <ele>51</ele>
        <time>2023-04-11T10:32:08.742Z</time>
      </trkpt>
      <trkpt lat="48.38905" lon="2.79611">
        <ele>51</ele>
        <time>2023-04-11T10:32:13.690Z</time>
      </trkpt>
      <trkpt lat="48.38905" lon="2.79601">
        <ele>51</ele>
        <time>2023-04-11T10:32:17.624Z</time>
      </trkpt>
      <trkpt lat="48.38908" lon="2.79592">
        <ele>51</ele>
        <time>2023-04-11T10:32:22.299Z</time>
      </trkpt>
      <trkpt lat="48.3891" lon="2.79584">
        <ele>51</ele>
        <time>2023-04-11T10:32:26.680Z</time>
      </trkpt>
      <trkpt lat="48.38912" lon="2.79578">
        <ele>51</ele>
        <time>2023-04-11T10:32:30.683Z</time>
      </trkpt>
      <trkpt lat="48.38915" lon="2.7957">
        <ele>51</ele>
        <time>2023-04-11T10:32:34.878Z</time>
      </trkpt>
      <trkpt lat="48.38919" lon="2.79561">
        <ele>50</ele>
        <time>2023-04-11T10:32:38.950Z</time>
      </trkpt>
      <trkpt lat="48.38922" lon="2.79553">
        <ele>50</ele>
        <time>2023-04-11T10:32:43.619Z</time>
      </trkpt>
      <trkpt lat="48.38925" lon="2.79544">
        <ele>50</ele>
        <time>2023-04-11T10:32:48.168Z</time>
      </trkpt>
      <trkpt lat="48.38925" lon="2.79536">
        <ele>50</ele>
        <time>2023-04-11T10:32:52.121Z</time>
      </trkpt>
      <trkpt lat="48.38925" lon="2.79529">
        <ele>50</ele>
        <time>2023-04-11T10:32:55.713Z</time>
      </trkpt>
      <trkpt lat="48.38928" lon="2.7952">
        <ele>50</ele>
        <time>2023-04-11T10:33:00.260Z</time>
      </trkpt>
      <trkpt lat="48.38932" lon="2.79513">
        <ele>52</ele>
        <time>2023-04-11T10:33:04.817Z</time>
      </trkpt>
      <trkpt lat="48.38934" lon="2.79505">
        <ele>52</ele>
        <time>2023-04-11T10:33:08.875Z</time>
      </trkpt>
      <trkpt lat="48.38936" lon="2.79494">
        <ele>52</ele>
        <time>2023-04-11T10:33:13.663Z</time>
      </trkpt>
      <trkpt lat="48.38936" lon="2.79484">
        <ele>50</ele>
        <time>2023-04-11T10:33:18.090Z</time>
      </trkpt>
      <trkpt lat="48.38936" lon="2.79477">
        <ele>50</ele>
        <time>2023-04-11T10:33:22.280Z</time>
      </trkpt>
      <trkpt lat="48.38936" lon="2.79471">
        <ele>50</ele>
        <time>2023-04-11T10:33:26.289Z</time>
      </trkpt>
      <trkpt lat="48.38937" lon="2.79461">
        <ele>50</ele>
        <time>2023-04-11T10:33:30.836Z</time>
      </trkpt>
      <trkpt lat="48.38941" lon="2.79452">
        <ele>50</ele>
        <time>2023-04-11T10:33:34.895Z</time>
      </trkpt>
      <trkpt lat="48.38945" lon="2.79443">
        <ele>50</ele>
        <time>2023-04-11T10:33:38.964Z</time>
      </trkpt>
      <trkpt lat="48.38949" lon="2.79438">
        <ele>50</ele>
        <time>2023-04-11T10:33:42.672Z</time>
      </trkpt>
      <trkpt lat="48.38951" lon="2.79431">
        <ele>50</ele>
        <time>2023-04-11T10:33:46.859Z</time>
      </trkpt>
      <trkpt lat="48.38951" lon="2.79421">
        <ele>50</ele>
        <time>2023-04-11T10:33:51.524Z</time>
      </trkpt>
      <trkpt lat="48.38951" lon="2.79411">
        <ele>50</ele>
        <time>2023-04-11T10:33:55.711Z</time>
      </trkpt>
      <trkpt lat="48.38952" lon="2.79401">
        <ele>50</ele>
        <time>2023-04-11T10:34:00.316Z</time>
      </trkpt>
      <trkpt lat="48.38953" lon="2.79394">
        <ele>50</ele>
        <time>2023-04-11T10:34:04.923Z</time>
      </trkpt>
      <trkpt lat="48.38955" lon="2.79385">
        <ele>50</ele>
        <time>2023-04-11T10:34:08.872Z</time>
      </trkpt>
      <trkpt lat="48.38957" lon="2.79378">
        <ele>50</ele>
        <time>2023-04-11T10:34:13.062Z</time>
      </trkpt>
      <trkpt lat="48.38958" lon="2.79373">
        <ele>49</ele>
        <time>2023-04-11T10:34:17.155Z</time>
      </trkpt>
      <trkpt lat="48.3896" lon="2.79366">
        <ele>49</ele>
        <time>2023-04-11T10:34:21.675Z</time>
      </trkpt>
      <trkpt lat="48.38963" lon="2.79359">
        <ele>49</ele>
        <time>2023-04-11T10:34:25.744Z</time>
      </trkpt>
      <trkpt lat="48.38968" lon="2.79355">
        <ele>49</ele>
        <time>2023-04-11T10:34:30.295Z</time>
      </trkpt>
      <trkpt lat="48.38971" lon="2.79347">
        <ele>49</ele>
        <time>2023-04-11T10:34:34.670Z</time>
      </trkpt>
      <trkpt lat="48.38975" lon="2.79338">
        <ele>49</ele>
        <time>2023-04-11T10:34:38.738Z</time>
      </trkpt>
      <trkpt lat="48.38974" lon="2.79329">
        <ele>49</ele>
        <time>2023-04-11T10:34:42.928Z</time>
      </trkpt>
      <trkpt lat="48.38974" lon="2.79321">
        <ele>49</ele>
        <time>2023-04-11T10:34:46.941Z</time>
      </trkpt>
      <trkpt lat="48.38975" lon="2.79312">
        <ele>49</ele>
        <time>2023-04-11T10:34:51.010Z</time>
      </trkpt>
      <trkpt lat="48.38977" lon="2.79303">
        <ele>49</ele>
        <time>2023-04-11T10:34:55.678Z</time>
      </trkpt>
      <trkpt lat="48.38982" lon="2.79292">
        <ele>49</ele>
        <time>2023-04-11T10:35:00.825Z</time>
      </trkpt>
      <trkpt lat="48.38986" lon="2.7928">
        <ele>50</ele>
        <time>2023-04-11T10:35:06.092Z</time>
      </trkpt>
      <trkpt lat="48.38988" lon="2.79272">
        <ele>50</ele>
        <time>2023-04-11T10:35:09.685Z</time>
      </trkpt>
      <trkpt lat="48.3899" lon="2.79261">
        <ele>49</ele>
        <time>2023-04-11T10:35:14.712Z</time>
      </trkpt>
      <trkpt lat="48.38993" lon="2.79253">
        <ele>49</ele>
        <time>2023-04-11T10:35:18.900Z</time>
      </trkpt>
      <trkpt lat="48.38996" lon="2.79243">
        <ele>49</ele>
        <time>2023-04-11T10:35:23.446Z</time>
      </trkpt>
      <trkpt lat="48.39" lon="2.79238">
        <ele>49</ele>
        <time>2023-04-11T10:35:27.477Z</time>
      </trkpt>
      <trkpt lat="48.39" lon="2.79231">
        <ele>48</ele>
        <time>2023-04-11T10:35:32.121Z</time>
      </trkpt>
      <trkpt lat="48.39003" lon="2.79222">
        <ele>48</ele>
        <time>2023-04-11T10:35:36.628Z</time>
      </trkpt>
      <trkpt lat="48.39008" lon="2.79209">
        <ele>48</ele>
        <time>2023-04-11T10:35:42.070Z</time>
      </trkpt>
      <trkpt lat="48.39013" lon="2.792">
        <ele>47</ele>
        <time>2023-04-11T10:35:46.447Z</time>
      </trkpt>
      <trkpt lat="48.39014" lon="2.79192">
        <ele>48</ele>
        <time>2023-04-11T10:35:50.451Z</time>
      </trkpt>
      <trkpt lat="48.39014" lon="2.7918">
        <ele>47</ele>
        <time>2023-04-11T10:35:54.974Z</time>
      </trkpt>
      <trkpt lat="48.39016" lon="2.79173">
        <ele>47</ele>
        <time>2023-04-11T10:35:58.978Z</time>
      </trkpt>
      <trkpt lat="48.39017" lon="2.79165">
        <ele>47</ele>
        <time>2023-04-11T10:36:03.541Z</time>
      </trkpt>
      <trkpt lat="48.3902" lon="2.7916">
        <ele>47</ele>
        <time>2023-04-11T10:36:08.042Z</time>
      </trkpt>
      <trkpt lat="48.39023" lon="2.79154">
        <ele>47</ele>
        <time>2023-04-11T10:36:12.964Z</time>
      </trkpt>
      <trkpt lat="48.39025" lon="2.79147">
        <ele>46</ele>
        <time>2023-04-11T10:36:17.284Z</time>
      </trkpt>
      <trkpt lat="48.39029" lon="2.79139">
        <ele>46</ele>
        <time>2023-04-11T10:36:22.025Z</time>
      </trkpt>
      <trkpt lat="48.39035" lon="2.79132">
        <ele>46</ele>
        <time>2023-04-11T10:36:26.885Z</time>
      </trkpt>
      <trkpt lat="48.39037" lon="2.79124">
        <ele>46</ele>
        <time>2023-04-11T10:36:30.725Z</time>
      </trkpt>
      <trkpt lat="48.39039" lon="2.79116">
        <ele>46</ele>
        <time>2023-04-11T10:36:35.137Z</time>
      </trkpt>
      <trkpt lat="48.39043" lon="2.79108">
        <ele>47</ele>
        <time>2023-04-11T10:36:39.566Z</time>
      </trkpt>
      <trkpt lat="48.39044" lon="2.791">
        <ele>47</ele>
        <time>2023-04-11T10:36:43.649Z</time>
      </trkpt>
      <trkpt lat="48.39047" lon="2.79091">
        <ele>46</ele>
        <time>2023-04-11T10:36:47.664Z</time>
      </trkpt>
      <trkpt lat="48.39053" lon="2.7909">
        <ele>46</ele>
        <time>2023-04-11T11:19:00.179Z</time>
      </trkpt>
      <trkpt lat="48.39053" lon="2.79088">
        <ele>46</ele>
        <time>2023-04-11T11:19:05.184Z</time>
      </trkpt>
      <trkpt lat="48.39052" lon="2.79086">
        <ele>46</ele>
        <time>2023-04-11T11:19:09.887Z</time>
      </trkpt>
      <trkpt lat="48.39055" lon="2.79083">
        <ele>46</ele>
        <time>2023-04-11T11:19:14.552Z</time>
      </trkpt>
      <trkpt lat="48.39057" lon="2.79076">
        <ele>46</ele>
        <time>2023-04-11T11:19:18.505Z</time>
      </trkpt>
      <trkpt lat="48.39059" lon="2.79071">
        <ele>46</ele>
        <time>2023-04-11T11:19:23.057Z</time>
      </trkpt>
      <trkpt lat="48.39061" lon="2.79068">
        <ele>45</ele>
        <time>2023-04-11T11:19:27.126Z</time>
      </trkpt>
      <trkpt lat="48.39065" lon="2.7907">
        <ele>46</ele>
        <time>2023-04-11T11:19:31.315Z</time>
      </trkpt>
      <trkpt lat="48.39069" lon="2.7907">
        <ele>49</ele>
        <time>2023-04-11T11:19:35.484Z</time>
      </trkpt>
      <trkpt lat="48.39074" lon="2.7907">
        <ele>49</ele>
        <time>2023-04-11T11:19:39.675Z</time>
      </trkpt>
      <trkpt lat="48.39076" lon="2.79062">
        <ele>48</ele>
        <time>2023-04-11T11:19:44.386Z</time>
      </trkpt>
      <trkpt lat="48.39078" lon="2.79055">
        <ele>48</ele>
        <time>2023-04-11T11:19:48.805Z</time>
      </trkpt>
      <trkpt lat="48.39082" lon="2.79052">
        <ele>48</ele>
        <time>2023-04-11T11:19:52.725Z</time>
      </trkpt>
      <trkpt lat="48.39084" lon="2.79049">
        <ele>48</ele>
        <time>2023-04-11T11:19:56.678Z</time>
      </trkpt>
      <trkpt lat="48.39086" lon="2.79048">
        <ele>48</ele>
        <time>2023-04-11T11:20:01.316Z</time>
      </trkpt>
      <trkpt lat="48.39091" lon="2.79046">
        <ele>48</ele>
        <time>2023-04-11T11:20:05.316Z</time>
      </trkpt>
      <trkpt lat="48.39097" lon="2.79047">
        <ele>48</ele>
        <time>2023-04-11T11:20:09.829Z</time>
      </trkpt>
      <trkpt lat="48.39102" lon="2.79051">
        <ele>48</ele>
        <time>2023-04-11T11:20:13.900Z</time>
      </trkpt>
      <trkpt lat="48.39107" lon="2.79052">
        <ele>48</ele>
        <time>2023-04-11T11:20:18.053Z</time>
      </trkpt>
      <trkpt lat="48.39111" lon="2.79052">
        <ele>48</ele>
        <time>2023-04-11T11:20:22.581Z</time>
      </trkpt>
      <trkpt lat="48.39117" lon="2.79053">
        <ele>48</ele>
        <time>2023-04-11T11:20:27.170Z</time>
      </trkpt>
      <trkpt lat="48.39124" lon="2.79052">
        <ele>48</ele>
        <time>2023-04-11T11:20:31.662Z</time>
      </trkpt>
      <trkpt lat="48.3913" lon="2.79053">
        <ele>48</ele>
        <time>2023-04-11T11:20:35.732Z</time>
      </trkpt>
      <trkpt lat="48.39135" lon="2.79052">
        <ele>48</ele>
        <time>2023-04-11T11:20:39.922Z</time>
      </trkpt>
      <trkpt lat="48.3914" lon="2.79047">
        <ele>48</ele>
        <time>2023-04-11T11:20:43.898Z</time>
      </trkpt>
      <trkpt lat="48.39142" lon="2.79039">
        <ele>47</ele>
        <time>2023-04-11T11:20:48.407Z</time>
      </trkpt>
      <trkpt lat="48.3915" lon="2.79036">
        <ele>47</ele>
        <time>2023-04-11T11:20:52.916Z</time>
      </trkpt>
      <trkpt lat="48.39155" lon="2.79037">
        <ele>45</ele>
        <time>2023-04-11T11:20:57.129Z</time>
      </trkpt>
      <trkpt lat="48.39161" lon="2.79039">
        <ele>45</ele>
        <time>2023-04-11T11:21:01.546Z</time>
      </trkpt>
      <trkpt lat="48.39167" lon="2.79042">
        <ele>46</ele>
        <time>2023-04-11T11:21:06.161Z</time>
      </trkpt>
      <trkpt lat="48.39171" lon="2.79042">
        <ele>46</ele>
        <time>2023-04-11T11:21:10.882Z</time>
      </trkpt>
      <trkpt lat="48.39177" lon="2.79041">
        <ele>45</ele>
        <time>2023-04-11T11:21:15.129Z</time>
      </trkpt>
      <trkpt lat="48.39181" lon="2.79042">
        <ele>45</ele>
        <time>2023-04-11T11:21:19.521Z</time>
      </trkpt>
      <trkpt lat="48.39184" lon="2.79045">
        <ele>45</ele>
        <time>2023-04-11T11:21:24.013Z</time>
      </trkpt>
      <trkpt lat="48.39188" lon="2.79048">
        <ele>45</ele>
        <time>2023-04-11T11:21:27.927Z</time>
      </trkpt>
      <trkpt lat="48.39196" lon="2.79049">
        <ele>45</ele>
        <time>2023-04-11T11:21:32.688Z</time>
      </trkpt>
      <trkpt lat="48.39202" lon="2.79045">
        <ele>45</ele>
        <time>2023-04-11T11:21:36.665Z</time>
      </trkpt>
      <trkpt lat="48.39208" lon="2.79046">
        <ele>45</ele>
        <time>2023-04-11T11:21:40.736Z</time>
      </trkpt>
      <trkpt lat="48.39214" lon="2.79045">
        <ele>45</ele>
        <time>2023-04-11T11:21:45.286Z</time>
      </trkpt>
      <trkpt lat="48.39219" lon="2.79046">
        <ele>45</ele>
        <time>2023-04-11T11:21:49.476Z</time>
      </trkpt>
      <trkpt lat="48.39226" lon="2.79047">
        <ele>45</ele>
        <time>2023-04-11T11:21:53.787Z</time>
      </trkpt>
      <trkpt lat="48.39231" lon="2.79048">
        <ele>45</ele>
        <time>2023-04-11T11:21:58.446Z</time>
      </trkpt>
      <trkpt lat="48.39237" lon="2.79048">
        <ele>45</ele>
        <time>2023-04-11T11:22:03.116Z</time>
      </trkpt>
      <trkpt lat="48.39242" lon="2.79047">
        <ele>45</ele>
        <time>2023-04-11T11:22:07.598Z</time>
      </trkpt>
      <trkpt lat="48.39247" lon="2.79044">
        <ele>45</ele>
        <time>2023-04-11T11:22:11.616Z</time>
      </trkpt>
      <trkpt lat="48.39252" lon="2.79047">
        <ele>45</ele>
        <time>2023-04-11T11:22:15.566Z</time>
      </trkpt>
      <trkpt lat="48.39258" lon="2.79044">
        <ele>45</ele>
        <time>2023-04-11T11:22:20.156Z</time>
      </trkpt>
      <trkpt lat="48.39263" lon="2.79045">
        <ele>45</ele>
        <time>2023-04-11T11:22:24.666Z</time>
      </trkpt>
      <trkpt lat="48.39268" lon="2.79048">
        <ele>46</ele>
        <time>2023-04-11T11:22:28.739Z</time>
      </trkpt>
      <trkpt lat="48.39273" lon="2.79048">
        <ele>46</ele>
        <time>2023-04-11T11:22:32.688Z</time>
      </trkpt>
      <trkpt lat="48.39281" lon="2.79047">
        <ele>46</ele>
        <time>2023-04-11T11:22:37.715Z</time>
      </trkpt>
      <trkpt lat="48.39287" lon="2.79047">
        <ele>46</ele>
        <time>2023-04-11T11:22:42.142Z</time>
      </trkpt>
      <trkpt lat="48.39294" lon="2.79043">
        <ele>47</ele>
        <time>2023-04-11T11:22:46.181Z</time>
      </trkpt>
      <trkpt lat="48.39301" lon="2.79042">
        <ele>47</ele>
        <time>2023-04-11T11:22:50.518Z</time>
      </trkpt>
      <trkpt lat="48.39307" lon="2.79039">
        <ele>44</ele>
        <time>2023-04-11T11:22:54.705Z</time>
      </trkpt>
      <trkpt lat="48.39313" lon="2.79038">
        <ele>44</ele>
        <time>2023-04-11T11:22:59.489Z</time>
      </trkpt>
      <trkpt lat="48.39319" lon="2.79041">
        <ele>44</ele>
        <time>2023-04-11T11:23:03.675Z</time>
      </trkpt>
      <trkpt lat="48.39325" lon="2.79044">
        <ele>46</ele>
        <time>2023-04-11T11:23:07.743Z</time>
      </trkpt>
      <trkpt lat="48.3933" lon="2.79045">
        <ele>46</ele>
        <time>2023-04-11T11:23:11.691Z</time>
      </trkpt>
      <trkpt lat="48.39336" lon="2.79044">
        <ele>46</ele>
        <time>2023-04-11T11:23:16.316Z</time>
      </trkpt>
      <trkpt lat="48.39342" lon="2.79044">
        <ele>46</ele>
        <time>2023-04-11T11:23:20.905Z</time>
      </trkpt>
      <trkpt lat="48.39347" lon="2.79043">
        <ele>46</ele>
        <time>2023-04-11T11:23:25.419Z</time>
      </trkpt>
      <trkpt lat="48.39353" lon="2.7904">
        <ele>43</ele>
        <time>2023-04-11T11:23:29.747Z</time>
      </trkpt>
      <trkpt lat="48.39361" lon="2.7904">
        <ele>43</ele>
        <time>2023-04-11T11:23:34.297Z</time>
      </trkpt>
      <trkpt lat="48.39367" lon="2.79044">
        <ele>44</ele>
        <time>2023-04-11T11:23:38.439Z</time>
      </trkpt>
      <trkpt lat="48.39373" lon="2.79045">
        <ele>44</ele>
        <time>2023-04-11T11:23:42.437Z</time>
      </trkpt>
      <trkpt lat="48.39378" lon="2.79046">
        <ele>43</ele>
        <time>2023-04-11T11:23:46.459Z</time>
      </trkpt>
      <trkpt lat="48.39384" lon="2.79047">
        <ele>43</ele>
        <time>2023-04-11T11:23:50.914Z</time>
      </trkpt>
      <trkpt lat="48.3939" lon="2.79047">
        <ele>43</ele>
        <time>2023-04-11T11:23:55.316Z</time>
      </trkpt>
      <trkpt lat="48.39396" lon="2.79049">
        <ele>43</ele>
        <time>2023-04-11T11:23:59.890Z</time>
      </trkpt>
      <trkpt lat="48.39401" lon="2.7905">
        <ele>43</ele>
        <time>2023-04-11T11:24:04.080Z</time>
      </trkpt>
      <trkpt lat="48.39407" lon="2.79051">
        <ele>44</ele>
        <time>2023-04-11T11:24:08.690Z</time>
      </trkpt>
      <trkpt lat="48.39414" lon="2.79054">
        <ele>44</ele>
        <time>2023-04-11T11:24:13.953Z</time>
      </trkpt>
      <trkpt lat="48.3942" lon="2.79053">
        <ele>44</ele>
        <time>2023-04-11T11:24:17.785Z</time>
      </trkpt>
      <trkpt lat="48.39426" lon="2.79054">
        <ele>44</ele>
        <time>2023-04-11T11:24:22.284Z</time>
      </trkpt>
      <trkpt lat="48.39432" lon="2.79054">
        <ele>45</ele>
        <time>2023-04-11T11:24:26.762Z</time>
      </trkpt>
      <trkpt lat="48.39435" lon="2.79054">
        <ele>45</ele>
        <time>2023-04-11T11:24:30.714Z</time>
      </trkpt>
      <trkpt lat="48.3944" lon="2.79053">
        <ele>45</ele>
        <time>2023-04-11T11:24:34.766Z</time>
      </trkpt>
      <trkpt lat="48.39448" lon="2.79055">
        <ele>45</ele>
        <time>2023-04-11T11:24:39.314Z</time>
      </trkpt>
      <trkpt lat="48.39454" lon="2.79059">
        <ele>45</ele>
        <time>2023-04-11T11:24:44.083Z</time>
      </trkpt>
      <trkpt lat="48.3946" lon="2.7906">
        <ele>46</ele>
        <time>2023-04-11T11:24:48.287Z</time>
      </trkpt>
      <trkpt lat="48.39465" lon="2.7906">
        <ele>46</ele>
        <time>2023-04-11T11:24:52.357Z</time>
      </trkpt>
      <trkpt lat="48.39471" lon="2.79063">
        <ele>46</ele>
        <time>2023-04-11T11:24:56.425Z</time>
      </trkpt>
      <trkpt lat="48.39477" lon="2.79065">
        <ele>46</ele>
        <time>2023-04-11T11:25:01.089Z</time>
      </trkpt>
      <trkpt lat="48.39483" lon="2.79066">
        <ele>46</ele>
        <time>2023-04-11T11:25:05.725Z</time>
      </trkpt>
      <trkpt lat="48.39488" lon="2.79068">
        <ele>44</ele>
        <time>2023-04-11T11:25:09.911Z</time>
      </trkpt>
      <trkpt lat="48.39494" lon="2.79068">
        <ele>44</ele>
        <time>2023-04-11T11:25:13.857Z</time>
      </trkpt>
      <trkpt lat="48.39501" lon="2.79068">
        <ele>44</ele>
        <time>2023-04-11T11:25:18.483Z</time>
      </trkpt>
      <trkpt lat="48.39508" lon="2.79066">
        <ele>44</ele>
        <time>2023-04-11T11:25:22.946Z</time>
      </trkpt>
      <trkpt lat="48.39513" lon="2.79066">
        <ele>44</ele>
        <time>2023-04-11T11:25:39.694Z</time>
      </trkpt>
      <trkpt lat="48.39516" lon="2.79067">
        <ele>43</ele>
        <time>2023-04-11T11:25:44.316Z</time>
      </trkpt>
      <trkpt lat="48.39525" lon="2.7907">
        <ele>44</ele>
        <time>2023-04-11T11:25:48.668Z</time>
      </trkpt>
      <trkpt lat="48.39532" lon="2.79072">
        <ele>44</ele>
        <time>2023-04-11T11:25:53.154Z</time>
      </trkpt>
      <trkpt lat="48.39538" lon="2.79075">
        <ele>44</ele>
        <time>2023-04-11T11:25:56.687Z</time>
      </trkpt>
      <trkpt lat="48.39543" lon="2.79075">
        <ele>44</ele>
        <time>2023-04-11T11:26:01.316Z</time>
      </trkpt>
      <trkpt lat="48.39549" lon="2.79077">
        <ele>44</ele>
        <time>2023-04-11T11:26:05.840Z</time>
      </trkpt>
      <trkpt lat="48.39553" lon="2.79078">
        <ele>44</ele>
        <time>2023-04-11T11:26:10.154Z</time>
      </trkpt>
      <trkpt lat="48.39559" lon="2.79082">
        <ele>44</ele>
        <time>2023-04-11T11:26:14.721Z</time>
      </trkpt>
      <trkpt lat="48.39565" lon="2.79085">
        <ele>44</ele>
        <time>2023-04-11T11:26:18.906Z</time>
      </trkpt>
      <trkpt lat="48.39572" lon="2.79087">
        <ele>43</ele>
        <time>2023-04-11T11:26:23.504Z</time>
      </trkpt>
      <trkpt lat="48.39578" lon="2.79088">
        <ele>43</ele>
        <time>2023-04-11T11:26:27.880Z</time>
      </trkpt>
      <trkpt lat="48.39583" lon="2.7909">
        <ele>43</ele>
        <time>2023-04-11T11:26:32.038Z</time>
      </trkpt>
      <trkpt lat="48.39587" lon="2.79092">
        <ele>43</ele>
        <time>2023-04-11T11:26:36.013Z</time>
      </trkpt>
      <trkpt lat="48.39594" lon="2.79094">
        <ele>43</ele>
        <time>2023-04-11T11:26:41.069Z</time>
      </trkpt>
      <trkpt lat="48.396" lon="2.79094">
        <ele>42</ele>
        <time>2023-04-11T11:26:45.100Z</time>
      </trkpt>
      <trkpt lat="48.39606" lon="2.79095">
        <ele>42</ele>
        <time>2023-04-11T11:26:49.287Z</time>
      </trkpt>
      <trkpt lat="48.39611" lon="2.79097">
        <ele>42</ele>
        <time>2023-04-11T11:26:53.832Z</time>
      </trkpt>
      <trkpt lat="48.39617" lon="2.79098">
        <ele>44</ele>
        <time>2023-04-11T11:26:57.898Z</time>
      </trkpt>
      <trkpt lat="48.39622" lon="2.79099">
        <ele>44</ele>
        <time>2023-04-11T11:27:01.965Z</time>
      </trkpt>
      <trkpt lat="48.39628" lon="2.79101">
        <ele>44</ele>
        <time>2023-04-11T11:27:06.622Z</time>
      </trkpt>
      <trkpt lat="48.39634" lon="2.79104">
        <ele>44</ele>
        <time>2023-04-11T11:27:11.287Z</time>
      </trkpt>
      <trkpt lat="48.39641" lon="2.79106">
        <ele>44</ele>
        <time>2023-04-11T11:27:15.833Z</time>
      </trkpt>
      <trkpt lat="48.39649" lon="2.7911">
        <ele>44</ele>
        <time>2023-04-11T11:27:20.975Z</time>
      </trkpt>
      <trkpt lat="48.39655" lon="2.79112">
        <ele>43</ele>
        <time>2023-04-11T11:27:25.640Z</time>
      </trkpt>
      <trkpt lat="48.39661" lon="2.79111">
        <ele>43</ele>
        <time>2023-04-11T11:27:29.705Z</time>
      </trkpt>
      <trkpt lat="48.39666" lon="2.79114">
        <ele>43</ele>
        <time>2023-04-11T11:27:33.891Z</time>
      </trkpt>
      <trkpt lat="48.39671" lon="2.79114">
        <ele>43</ele>
        <time>2023-04-11T11:27:37.839Z</time>
      </trkpt>
      <trkpt lat="48.39679" lon="2.79116">
        <ele>43</ele>
        <time>2023-04-11T11:27:42.503Z</time>
      </trkpt>
      <trkpt lat="48.39685" lon="2.79117">
        <ele>44</ele>
        <time>2023-04-11T11:27:46.982Z</time>
      </trkpt>
      <trkpt lat="48.39691" lon="2.79122">
        <ele>44</ele>
        <time>2023-04-11T11:27:51.119Z</time>
      </trkpt>
      <trkpt lat="48.39694" lon="2.79124">
        <ele>44</ele>
        <time>2023-04-11T11:27:55.306Z</time>
      </trkpt>
      <trkpt lat="48.39701" lon="2.79126">
        <ele>44</ele>
        <time>2023-04-11T11:27:59.734Z</time>
      </trkpt>
      <trkpt lat="48.39706" lon="2.7913">
        <ele>44</ele>
        <time>2023-04-11T11:28:03.921Z</time>
      </trkpt>
      <trkpt lat="48.39712" lon="2.79133">
        <ele>46</ele>
        <time>2023-04-11T11:28:08.440Z</time>
      </trkpt>
      <trkpt lat="48.39718" lon="2.79135">
        <ele>46</ele>
        <time>2023-04-11T11:28:13.014Z</time>
      </trkpt>
      <trkpt lat="48.39723" lon="2.79137">
        <ele>46</ele>
        <time>2023-04-11T11:28:17.645Z</time>
      </trkpt>
      <trkpt lat="48.39729" lon="2.79138">
        <ele>46</ele>
        <time>2023-04-11T11:28:22.035Z</time>
      </trkpt>
      <trkpt lat="48.39736" lon="2.79142">
        <ele>46</ele>
        <time>2023-04-11T11:28:26.643Z</time>
      </trkpt>
      <trkpt lat="48.39741" lon="2.79144">
        <ele>46</ele>
        <time>2023-04-11T11:28:30.593Z</time>
      </trkpt>
      <trkpt lat="48.39746" lon="2.79147">
        <ele>46</ele>
        <time>2023-04-11T11:28:34.541Z</time>
      </trkpt>
      <trkpt lat="48.3975" lon="2.79149">
        <ele>46</ele>
        <time>2023-04-11T11:28:39.087Z</time>
      </trkpt>
      <trkpt lat="48.39755" lon="2.79152">
        <ele>46</ele>
        <time>2023-04-11T11:28:43.273Z</time>
      </trkpt>
      <trkpt lat="48.39761" lon="2.79154">
        <ele>47</ele>
        <time>2023-04-11T11:28:47.820Z</time>
      </trkpt>
      <trkpt lat="48.39767" lon="2.79155">
        <ele>46</ele>
        <time>2023-04-11T11:28:51.767Z</time>
      </trkpt>
      <trkpt lat="48.39773" lon="2.79157">
        <ele>46</ele>
        <time>2023-04-11T11:28:56.313Z</time>
      </trkpt>
      <trkpt lat="48.39779" lon="2.7916">
        <ele>46</ele>
        <time>2023-04-11T11:29:00.858Z</time>
      </trkpt>
      <trkpt lat="48.39784" lon="2.79163">
        <ele>46</ele>
        <time>2023-04-11T11:29:04.923Z</time>
      </trkpt>
      <trkpt lat="48.3979" lon="2.79165">
        <ele>46</ele>
        <time>2023-04-11T11:29:09.707Z</time>
      </trkpt>
      <trkpt lat="48.39795" lon="2.79169">
        <ele>45</ele>
        <time>2023-04-11T11:29:14.163Z</time>
      </trkpt>
      <trkpt lat="48.39801" lon="2.79173">
        <ele>45</ele>
        <time>2023-04-11T11:29:18.677Z</time>
      </trkpt>
      <trkpt lat="48.39806" lon="2.79176">
        <ele>45</ele>
        <time>2023-04-11T11:29:23.173Z</time>
      </trkpt>
      <trkpt lat="48.39812" lon="2.79179">
        <ele>45</ele>
        <time>2023-04-11T11:29:27.288Z</time>
      </trkpt>
      <trkpt lat="48.39818" lon="2.79182">
        <ele>44</ele>
        <time>2023-04-11T11:29:32.072Z</time>
      </trkpt>
      <trkpt lat="48.39822" lon="2.79187">
        <ele>43</ele>
        <time>2023-04-11T11:29:36.163Z</time>
      </trkpt>
      <trkpt lat="48.39827" lon="2.7919">
        <ele>43</ele>
        <time>2023-04-11T11:29:40.683Z</time>
      </trkpt>
      <trkpt lat="48.39833" lon="2.79193">
        <ele>43</ele>
        <time>2023-04-11T11:29:44.748Z</time>
      </trkpt>
      <trkpt lat="48.39838" lon="2.79198">
        <ele>43</ele>
        <time>2023-04-11T11:29:48.695Z</time>
      </trkpt>
      <trkpt lat="48.39842" lon="2.79204">
        <ele>43</ele>
        <time>2023-04-11T11:29:52.861Z</time>
      </trkpt>
      <trkpt lat="48.39848" lon="2.79208">
        <ele>43</ele>
        <time>2023-04-11T11:29:57.265Z</time>
      </trkpt>
      <trkpt lat="48.39854" lon="2.79213">
        <ele>43</ele>
        <time>2023-04-11T11:30:01.708Z</time>
      </trkpt>
      <trkpt lat="48.39858" lon="2.79219">
        <ele>43</ele>
        <time>2023-04-11T11:30:06.485Z</time>
      </trkpt>
      <trkpt lat="48.39864" lon="2.79224">
        <ele>43</ele>
        <time>2023-04-11T11:30:11.036Z</time>
      </trkpt>
      <trkpt lat="48.39869" lon="2.79228">
        <ele>43</ele>
        <time>2023-04-11T11:30:16.058Z</time>
      </trkpt>
      <trkpt lat="48.39874" lon="2.79232">
        <ele>43</ele>
        <time>2023-04-11T11:30:20.723Z</time>
      </trkpt>
      <trkpt lat="48.39878" lon="2.79236">
        <ele>43</ele>
        <time>2023-04-11T11:30:25.186Z</time>
      </trkpt>
      <trkpt lat="48.39884" lon="2.79242">
        <ele>44</ele>
        <time>2023-04-11T11:30:29.692Z</time>
      </trkpt>
      <trkpt lat="48.3989" lon="2.79246">
        <ele>44</ele>
        <time>2023-04-11T11:30:33.519Z</time>
      </trkpt>
      <trkpt lat="48.39895" lon="2.7925">
        <ele>44</ele>
        <time>2023-04-11T11:30:38.183Z</time>
      </trkpt>
      <trkpt lat="48.39901" lon="2.79255">
        <ele>44</ele>
        <time>2023-04-11T11:30:42.248Z</time>
      </trkpt>
      <trkpt lat="48.39907" lon="2.79259">
        <ele>45</ele>
        <time>2023-04-11T11:30:46.910Z</time>
      </trkpt>
      <trkpt lat="48.39912" lon="2.79265">
        <ele>45</ele>
        <time>2023-04-11T11:30:51.452Z</time>
      </trkpt>
      <trkpt lat="48.39917" lon="2.7927">
        <ele>45</ele>
        <time>2023-04-11T11:30:56.116Z</time>
      </trkpt>
      <trkpt lat="48.39925" lon="2.79275">
        <ele>45</ele>
        <time>2023-04-11T11:31:00.660Z</time>
      </trkpt>
      <trkpt lat="48.39931" lon="2.7928">
        <ele>45</ele>
        <time>2023-04-11T11:31:05.683Z</time>
      </trkpt>
      <trkpt lat="48.39937" lon="2.79285">
        <ele>45</ele>
        <time>2023-04-11T11:31:10.465Z</time>
      </trkpt>
      <trkpt lat="48.39939" lon="2.79292">
        <ele>46</ele>
        <time>2023-04-11T11:31:15.006Z</time>
      </trkpt>
      <trkpt lat="48.39938" lon="2.79296">
        <ele>46</ele>
        <time>2023-04-11T11:31:19.070Z</time>
      </trkpt>
      <trkpt lat="48.39934" lon="2.79303">
        <ele>46</ele>
        <time>2023-04-11T11:31:23.176Z</time>
      </trkpt>
      <trkpt lat="48.39936" lon="2.79307">
        <ele>46</ele>
        <time>2023-04-11T11:31:27.258Z</time>
      </trkpt>
      <trkpt lat="48.3994" lon="2.7931">
        <ele>46</ele>
        <time>2023-04-11T11:31:31.242Z</time>
      </trkpt>
      <trkpt lat="48.39942" lon="2.79308">
        <ele>46</ele>
        <time>2023-04-11T11:31:35.903Z</time>
      </trkpt>
      <trkpt lat="48.39945" lon="2.79311">
        <ele>46</ele>
        <time>2023-04-11T11:31:40.665Z</time>
      </trkpt>
      <trkpt lat="48.39952" lon="2.79319">
        <ele>46</ele>
        <time>2023-04-11T11:31:45.685Z</time>
      </trkpt>
      <trkpt lat="48.39958" lon="2.79327">
        <ele>46</ele>
        <time>2023-04-11T11:31:50.643Z</time>
      </trkpt>
      <trkpt lat="48.39962" lon="2.79331">
        <ele>46</ele>
        <time>2023-04-11T11:31:54.656Z</time>
      </trkpt>
      <trkpt lat="48.39967" lon="2.79336">
        <ele>46</ele>
        <time>2023-04-11T11:31:59.316Z</time>
      </trkpt>
      <trkpt lat="48.39971" lon="2.7934">
        <ele>46</ele>
        <time>2023-04-11T11:32:03.463Z</time>
      </trkpt>
      <trkpt lat="48.39977" lon="2.79344">
        <ele>46</ele>
        <time>2023-04-11T11:32:07.436Z</time>
      </trkpt>
      <trkpt lat="48.39981" lon="2.79349">
        <ele>46</ele>
        <time>2023-04-11T11:32:11.502Z</time>
      </trkpt>
      <trkpt lat="48.39985" lon="2.79353">
        <ele>46</ele>
        <time>2023-04-11T11:32:15.689Z</time>
      </trkpt>
      <trkpt lat="48.3999" lon="2.79358">
        <ele>45</ele>
        <time>2023-04-11T11:32:20.235Z</time>
      </trkpt>
      <trkpt lat="48.39995" lon="2.79359">
        <ele>45</ele>
        <time>2023-04-11T11:32:24.302Z</time>
      </trkpt>
      <trkpt lat="48.40001" lon="2.79363">
        <ele>45</ele>
        <time>2023-04-11T11:32:28.489Z</time>
      </trkpt>
      <trkpt lat="48.40007" lon="2.79366">
        <ele>45</ele>
        <time>2023-04-11T11:32:32.675Z</time>
      </trkpt>
      <trkpt lat="48.40012" lon="2.7937">
        <ele>45</ele>
        <time>2023-04-11T11:32:37.322Z</time>
      </trkpt>
      <trkpt lat="48.40017" lon="2.79373">
        <ele>44</ele>
        <time>2023-04-11T11:32:41.316Z</time>
      </trkpt>
      <trkpt lat="48.40022" lon="2.79378">
        <ele>45</ele>
        <time>2023-04-11T11:32:45.932Z</time>
      </trkpt>
      <trkpt lat="48.40026" lon="2.79383">
        <ele>45</ele>
        <time>2023-04-11T11:32:50.118Z</time>
      </trkpt>
      <trkpt lat="48.40031" lon="2.79387">
        <ele>45</ele>
        <time>2023-04-11T11:32:54.306Z</time>
      </trkpt>
      <trkpt lat="48.40037" lon="2.79394">
        <ele>45</ele>
        <time>2023-04-11T11:32:58.936Z</time>
      </trkpt>
      <trkpt lat="48.40042" lon="2.794">
        <ele>44</ele>
        <time>2023-04-11T11:33:03.566Z</time>
      </trkpt>
      <trkpt lat="48.40048" lon="2.79405">
        <ele>45</ele>
        <time>2023-04-11T11:33:08.142Z</time>
      </trkpt>
      <trkpt lat="48.40054" lon="2.79411">
        <ele>45</ele>
        <time>2023-04-11T11:33:12.645Z</time>
      </trkpt>
      <trkpt lat="48.40058" lon="2.79416">
        <ele>45</ele>
        <time>2023-04-11T11:33:17.146Z</time>
      </trkpt>
      <trkpt lat="48.40063" lon="2.79421">
        <ele>45</ele>
        <time>2023-04-11T11:33:21.142Z</time>
      </trkpt>
      <trkpt lat="48.40068" lon="2.79427">
        <ele>45</ele>
        <time>2023-04-11T11:33:25.647Z</time>
      </trkpt>
      <trkpt lat="48.40073" lon="2.79434">
        <ele>45</ele>
        <time>2023-04-11T11:33:30.157Z</time>
      </trkpt>
      <trkpt lat="48.40077" lon="2.7944">
        <ele>45</ele>
        <time>2023-04-11T11:33:34.288Z</time>
      </trkpt>
      <trkpt lat="48.40082" lon="2.79445">
        <ele>45</ele>
        <time>2023-04-11T11:33:38.479Z</time>
      </trkpt>
      <trkpt lat="48.40087" lon="2.79446">
        <ele>45</ele>
        <time>2023-04-11T11:33:42.647Z</time>
      </trkpt>
      <trkpt lat="48.40092" lon="2.79451">
        <ele>45</ele>
        <time>2023-04-11T11:33:46.491Z</time>
      </trkpt>
      <trkpt lat="48.40096" lon="2.79455">
        <ele>45</ele>
        <time>2023-04-11T11:33:51.155Z</time>
      </trkpt>
      <trkpt lat="48.401" lon="2.7946">
        <ele>46</ele>
        <time>2023-04-11T11:33:55.701Z</time>
      </trkpt>
      <trkpt lat="48.40106" lon="2.79467">
        <ele>46</ele>
        <time>2023-04-11T11:34:00.685Z</time>
      </trkpt>
      <trkpt lat="48.40112" lon="2.79472">
        <ele>46</ele>
        <time>2023-04-11T11:34:05.175Z</time>
      </trkpt>
      <trkpt lat="48.40118" lon="2.79476">
        <ele>46</ele>
        <time>2023-04-11T11:34:09.693Z</time>
      </trkpt>
      <trkpt lat="48.40122" lon="2.7948">
        <ele>46</ele>
        <time>2023-04-11T11:34:14.316Z</time>
      </trkpt>
      <trkpt lat="48.40127" lon="2.79484">
        <ele>44</ele>
        <time>2023-04-11T11:34:18.303Z</time>
      </trkpt>
      <trkpt lat="48.40133" lon="2.79487">
        <ele>46</ele>
        <time>2023-04-11T11:34:23.087Z</time>
      </trkpt>
      <trkpt lat="48.40138" lon="2.79488">
        <ele>46</ele>
        <time>2023-04-11T11:34:27.480Z</time>
      </trkpt>
      <trkpt lat="48.40143" lon="2.79493">
        <ele>46</ele>
        <time>2023-04-11T11:34:31.945Z</time>
      </trkpt>
      <trkpt lat="48.40147" lon="2.79497">
        <ele>46</ele>
        <time>2023-04-11T11:34:35.892Z</time>
      </trkpt>
      <trkpt lat="48.40152" lon="2.79499">
        <ele>46</ele>
        <time>2023-04-11T11:34:41.177Z</time>
      </trkpt>
      <trkpt lat="48.40157" lon="2.79505">
        <ele>45</ele>
        <time>2023-04-11T11:34:45.701Z</time>
      </trkpt>
      <trkpt lat="48.40161" lon="2.79509">
        <ele>45</ele>
        <time>2023-04-11T11:34:49.890Z</time>
      </trkpt>
      <trkpt lat="48.40165" lon="2.79513">
        <ele>45</ele>
        <time>2023-04-11T11:34:53.841Z</time>
      </trkpt>
      <trkpt lat="48.4017" lon="2.79517">
        <ele>47</ele>
        <time>2023-04-11T11:34:58.508Z</time>
      </trkpt>
      <trkpt lat="48.40175" lon="2.79523">
        <ele>47</ele>
        <time>2023-04-11T11:35:03.137Z</time>
      </trkpt>
      <trkpt lat="48.4018" lon="2.79529">
        <ele>47</ele>
        <time>2023-04-11T11:35:07.667Z</time>
      </trkpt>
      <trkpt lat="48.40184" lon="2.79536">
        <ele>47</ele>
        <time>2023-04-11T11:35:12.817Z</time>
      </trkpt>
      <trkpt lat="48.4019" lon="2.79541">
        <ele>47</ele>
        <time>2023-04-11T11:35:17.316Z</time>
      </trkpt>
      <trkpt lat="48.40195" lon="2.79543">
        <ele>47</ele>
        <time>2023-04-11T11:35:21.316Z</time>
      </trkpt>
      <trkpt lat="48.402" lon="2.79546">
        <ele>47</ele>
        <time>2023-04-11T11:35:25.506Z</time>
      </trkpt>
      <trkpt lat="48.40205" lon="2.79549">
        <ele>47</ele>
        <time>2023-04-11T11:35:30.135Z</time>
      </trkpt>
      <trkpt lat="48.4021" lon="2.79554">
        <ele>45</ele>
        <time>2023-04-11T11:35:34.447Z</time>
      </trkpt>
      <trkpt lat="48.40216" lon="2.79559">
        <ele>45</ele>
        <time>2023-04-11T11:35:38.878Z</time>
      </trkpt>
      <trkpt lat="48.40219" lon="2.79562">
        <ele>45</ele>
        <time>2023-04-11T11:35:42.827Z</time>
      </trkpt>
      <trkpt lat="48.40223" lon="2.79565">
        <ele>45</ele>
        <time>2023-04-11T11:35:47.494Z</time>
      </trkpt>
      <trkpt lat="48.40227" lon="2.79569">
        <ele>45</ele>
        <time>2023-04-11T11:35:51.672Z</time>
      </trkpt>
      <trkpt lat="48.40233" lon="2.79573">
        <ele>46</ele>
        <time>2023-04-11T11:35:55.740Z</time>
      </trkpt>
      <trkpt lat="48.40238" lon="2.79578">
        <ele>45</ele>
        <time>2023-04-11T11:36:00.287Z</time>
      </trkpt>
      <trkpt lat="48.40241" lon="2.7958">
        <ele>45</ele>
        <time>2023-04-11T11:36:04.438Z</time>
      </trkpt>
      <trkpt lat="48.40242" lon="2.79579">
        <ele>45</ele>
        <time>2023-04-11T11:36:09.108Z</time>
      </trkpt>
      <trkpt lat="48.40247" lon="2.79583">
        <ele>45</ele>
        <time>2023-04-11T11:36:13.057Z</time>
      </trkpt>
      <trkpt lat="48.40253" lon="2.79589">
        <ele>45</ele>
        <time>2023-04-11T11:36:17.487Z</time>
      </trkpt>
      <trkpt lat="48.40256" lon="2.79595">
        <ele>45</ele>
        <time>2023-04-11T11:36:21.676Z</time>
      </trkpt>
      <trkpt lat="48.40261" lon="2.796">
        <ele>47</ele>
        <time>2023-04-11T11:36:26.284Z</time>
      </trkpt>
      <trkpt lat="48.40266" lon="2.79605">
        <ele>47</ele>
        <time>2023-04-11T11:36:30.293Z</time>
      </trkpt>
      <trkpt lat="48.40271" lon="2.79609">
        <ele>47</ele>
        <time>2023-04-11T11:36:34.364Z</time>
      </trkpt>
      <trkpt lat="48.40278" lon="2.79612">
        <ele>47</ele>
        <time>2023-04-11T11:36:38.792Z</time>
      </trkpt>
      <trkpt lat="48.40283" lon="2.79613">
        <ele>47</ele>
        <time>2023-04-11T11:36:42.742Z</time>
      </trkpt>
      <trkpt lat="48.40289" lon="2.79616">
        <ele>47</ele>
        <time>2023-04-11T11:36:47.649Z</time>
      </trkpt>
      <trkpt lat="48.40294" lon="2.79619">
        <ele>47</ele>
        <time>2023-04-11T11:36:52.316Z</time>
      </trkpt>
      <trkpt lat="48.40299" lon="2.7962">
        <ele>47</ele>
        <time>2023-04-11T11:36:56.989Z</time>
      </trkpt>
      <trkpt lat="48.40304" lon="2.79625">
        <ele>47</ele>
        <time>2023-04-11T11:37:01.479Z</time>
      </trkpt>
      <trkpt lat="48.40304" lon="2.7963">
        <ele>47</ele>
        <time>2023-04-11T11:37:05.509Z</time>
      </trkpt>
      <trkpt lat="48.40314" lon="2.7963">
        <ele>47</ele>
        <time>2023-04-11T11:37:09.701Z</time>
      </trkpt>
      <trkpt lat="48.40318" lon="2.79631">
        <ele>47</ele>
        <time>2023-04-11T11:37:14.316Z</time>
      </trkpt>
      <trkpt lat="48.40322" lon="2.79633">
        <ele>46</ele>
        <time>2023-04-11T11:37:18.726Z</time>
      </trkpt>
      <trkpt lat="48.40327" lon="2.79637">
        <ele>46</ele>
        <time>2023-04-11T11:37:22.738Z</time>
      </trkpt>
      <trkpt lat="48.40334" lon="2.79642">
        <ele>46</ele>
        <time>2023-04-11T11:37:27.881Z</time>
      </trkpt>
      <trkpt lat="48.4034" lon="2.79648">
        <ele>46</ele>
        <time>2023-04-11T11:37:32.078Z</time>
      </trkpt>
      <trkpt lat="48.40345" lon="2.79652">
        <ele>46</ele>
        <time>2023-04-11T11:37:36.160Z</time>
      </trkpt>
      <trkpt lat="48.40351" lon="2.79655">
        <ele>48</ele>
        <time>2023-04-11T11:37:40.678Z</time>
      </trkpt>
      <trkpt lat="48.40357" lon="2.79659">
        <ele>48</ele>
        <time>2023-04-11T11:37:45.265Z</time>
      </trkpt>
      <trkpt lat="48.40363" lon="2.79663">
        <ele>48</ele>
        <time>2023-04-11T11:37:49.650Z</time>
      </trkpt>
      <trkpt lat="48.40368" lon="2.79666">
        <ele>48</ele>
        <time>2023-04-11T11:37:53.719Z</time>
      </trkpt>
      <trkpt lat="48.40376" lon="2.79666">
        <ele>48</ele>
        <time>2023-04-11T11:37:58.271Z</time>
      </trkpt>
      <trkpt lat="48.40381" lon="2.79669">
        <ele>48</ele>
        <time>2023-04-11T11:38:02.316Z</time>
      </trkpt>
      <trkpt lat="48.40387" lon="2.79671">
        <ele>48</ele>
        <time>2023-04-11T11:38:06.884Z</time>
      </trkpt>
      <trkpt lat="48.40393" lon="2.79672">
        <ele>48</ele>
        <time>2023-04-11T11:38:11.371Z</time>
      </trkpt>
      <trkpt lat="48.40398" lon="2.79677">
        <ele>48</ele>
        <time>2023-04-11T11:38:15.442Z</time>
      </trkpt>
      <trkpt lat="48.40401" lon="2.79679">
        <ele>48</ele>
        <time>2023-04-11T11:38:20.112Z</time>
      </trkpt>
      <trkpt lat="48.404" lon="2.79679">
        <ele>48</ele>
        <time>2023-04-11T11:38:24.060Z</time>
      </trkpt>
      <trkpt lat="48.40399" lon="2.79683">
        <ele>49</ele>
        <time>2023-04-11T11:38:28.487Z</time>
      </trkpt>
      <trkpt lat="48.40399" lon="2.79687">
        <ele>49</ele>
        <time>2023-04-11T11:38:33.155Z</time>
      </trkpt>
      <trkpt lat="48.40402" lon="2.79693">
        <ele>49</ele>
        <time>2023-04-11T11:38:37.105Z</time>
      </trkpt>
      <trkpt lat="48.404" lon="2.797">
        <ele>49</ele>
        <time>2023-04-11T11:38:41.296Z</time>
      </trkpt>
      <trkpt lat="48.404" lon="2.79709">
        <ele>49</ele>
        <time>2023-04-11T11:38:46.083Z</time>
      </trkpt>
      <trkpt lat="48.40401" lon="2.79716">
        <ele>49</ele>
        <time>2023-04-11T11:38:50.272Z</time>
      </trkpt>
      <trkpt lat="48.40404" lon="2.7972">
        <ele>48</ele>
        <time>2023-04-11T11:38:54.461Z</time>
      </trkpt>
      <trkpt lat="48.40409" lon="2.79726">
        <ele>48</ele>
        <time>2023-04-11T11:38:58.649Z</time>
      </trkpt>
      <trkpt lat="48.40416" lon="2.79731">
        <ele>48</ele>
        <time>2023-04-11T11:39:02.716Z</time>
      </trkpt>
      <trkpt lat="48.40421" lon="2.79733">
        <ele>48</ele>
        <time>2023-04-11T11:39:06.785Z</time>
      </trkpt>
      <trkpt lat="48.40427" lon="2.79735">
        <ele>48</ele>
        <time>2023-04-11T11:39:11.316Z</time>
      </trkpt>
      <trkpt lat="48.40433" lon="2.7974">
        <ele>47</ele>
        <time>2023-04-11T11:39:15.758Z</time>
      </trkpt>
      <trkpt lat="48.40439" lon="2.79743">
        <ele>47</ele>
        <time>2023-04-11T11:39:20.305Z</time>
      </trkpt>
      <trkpt lat="48.40445" lon="2.79744">
        <ele>47</ele>
        <time>2023-04-11T11:39:25.090Z</time>
      </trkpt>
      <trkpt lat="48.40445" lon="2.79741">
        <ele>47</ele>
        <time>2023-04-11T11:39:29.718Z</time>
      </trkpt>
      <trkpt lat="48.40444" lon="2.79749">
        <ele>47</ele>
        <time>2023-04-11T11:39:33.668Z</time>
      </trkpt>
      <trkpt lat="48.40444" lon="2.79757">
        <ele>47</ele>
        <time>2023-04-11T11:39:37.738Z</time>
      </trkpt>
      <trkpt lat="48.40445" lon="2.79764">
        <ele>47</ele>
        <time>2023-04-11T11:39:42.271Z</time>
      </trkpt>
      <trkpt lat="48.40447" lon="2.79773">
        <ele>48</ele>
        <time>2023-04-11T11:39:46.940Z</time>
      </trkpt>
      <trkpt lat="48.40458" lon="2.79776">
        <ele>48</ele>
        <time>2023-04-11T11:39:50.890Z</time>
      </trkpt>
      <trkpt lat="48.40462" lon="2.79778">
        <ele>48</ele>
        <time>2023-04-11T11:39:55.439Z</time>
      </trkpt>
      <trkpt lat="48.40465" lon="2.79778">
        <ele>48</ele>
        <time>2023-04-11T11:39:59.917Z</time>
      </trkpt>
      <trkpt lat="48.4047" lon="2.79776">
        <ele>48</ele>
        <time>2023-04-11T11:40:04.163Z</time>
      </trkpt>
      <trkpt lat="48.4048" lon="2.79779">
        <ele>48</ele>
        <time>2023-04-11T11:40:09.088Z</time>
      </trkpt>
      <trkpt lat="48.40487" lon="2.79784">
        <ele>48</ele>
        <time>2023-04-11T11:40:12.689Z</time>
      </trkpt>
      <trkpt lat="48.40494" lon="2.79786">
        <ele>48</ele>
        <time>2023-04-11T11:40:17.231Z</time>
      </trkpt>
      <trkpt lat="48.40498" lon="2.79789">
        <ele>48</ele>
        <time>2023-04-11T11:40:21.292Z</time>
      </trkpt>
      <trkpt lat="48.40503" lon="2.79794">
        <ele>51</ele>
        <time>2023-04-11T11:40:25.454Z</time>
      </trkpt>
      <trkpt lat="48.40509" lon="2.79797">
        <ele>51</ele>
        <time>2023-04-11T11:40:29.459Z</time>
      </trkpt>
      <trkpt lat="48.40515" lon="2.79798">
        <ele>50</ele>
        <time>2023-04-11T11:40:34.005Z</time>
      </trkpt>
      <trkpt lat="48.40521" lon="2.79801">
        <ele>50</ele>
        <time>2023-04-11T11:40:38.367Z</time>
      </trkpt>
      <trkpt lat="48.40526" lon="2.79803">
        <ele>50</ele>
        <time>2023-04-11T11:40:42.504Z</time>
      </trkpt>
      <trkpt lat="48.40532" lon="2.79806">
        <ele>50</ele>
        <time>2023-04-11T11:40:47.062Z</time>
      </trkpt>
      <trkpt lat="48.40536" lon="2.7981">
        <ele>50</ele>
        <time>2023-04-11T11:40:51.567Z</time>
      </trkpt>
      <trkpt lat="48.40538" lon="2.79812">
        <ele>50</ele>
        <time>2023-04-11T11:40:56.072Z</time>
      </trkpt>
      <trkpt lat="48.40542" lon="2.79813">
        <ele>50</ele>
        <time>2023-04-11T11:41:00.452Z</time>
      </trkpt>
      <trkpt lat="48.4055" lon="2.79806">
        <ele>50</ele>
        <time>2023-04-11T11:41:04.527Z</time>
      </trkpt>
      <trkpt lat="48.40553" lon="2.79809">
        <ele>50</ele>
        <time>2023-04-11T11:41:08.719Z</time>
      </trkpt>
      <trkpt lat="48.40556" lon="2.79814">
        <ele>50</ele>
        <time>2023-04-11T11:41:12.912Z</time>
      </trkpt>
      <trkpt lat="48.40562" lon="2.79814">
        <ele>50</ele>
        <time>2023-04-11T11:41:17.105Z</time>
      </trkpt>
      <trkpt lat="48.40567" lon="2.79815">
        <ele>50</ele>
        <time>2023-04-11T11:41:22.162Z</time>
      </trkpt>
      <trkpt lat="48.40569" lon="2.79822">
        <ele>52</ele>
        <time>2023-04-11T11:41:26.913Z</time>
      </trkpt>
      <trkpt lat="48.4057" lon="2.79822">
        <ele>52</ele>
        <time>2023-04-11T11:41:31.102Z</time>
      </trkpt>
      <trkpt lat="48.40571" lon="2.79815">
        <ele>49</ele>
        <time>2023-04-11T11:41:35.737Z</time>
      </trkpt>
      <trkpt lat="48.40567" lon="2.79812">
        <ele>50</ele>
        <time>2023-04-11T11:41:39.741Z</time>
      </trkpt>
      <trkpt lat="48.4056" lon="2.79807">
        <ele>50</ele>
        <time>2023-04-11T11:41:44.305Z</time>
      </trkpt>
      <trkpt lat="48.40554" lon="2.79807">
        <ele>50</ele>
        <time>2023-04-11T11:41:48.446Z</time>
      </trkpt>
      <trkpt lat="48.40548" lon="2.7981">
        <ele>50</ele>
        <time>2023-04-11T11:41:52.951Z</time>
      </trkpt>
      <trkpt lat="48.40544" lon="2.79821">
        <ele>52</ele>
        <time>2023-04-11T11:41:57.555Z</time>
      </trkpt>
      <trkpt lat="48.40541" lon="2.79828">
        <ele>52</ele>
        <time>2023-04-11T11:42:02.058Z</time>
      </trkpt>
      <trkpt lat="48.40538" lon="2.79834">
        <ele>52</ele>
        <time>2023-04-11T11:42:06.063Z</time>
      </trkpt>
      <trkpt lat="48.40535" lon="2.79843">
        <ele>52</ele>
        <time>2023-04-11T11:42:10.068Z</time>
      </trkpt>
      <trkpt lat="48.40532" lon="2.79849">
        <ele>53</ele>
        <time>2023-04-11T11:42:14.171Z</time>
      </trkpt>
      <trkpt lat="48.4053" lon="2.79859">
        <ele>53</ele>
        <time>2023-04-11T11:42:18.692Z</time>
      </trkpt>
      <trkpt lat="48.4053" lon="2.79867">
        <ele>53</ele>
        <time>2023-04-11T11:42:22.796Z</time>
      </trkpt>
      <trkpt lat="48.4053" lon="2.79874">
        <ele>53</ele>
        <time>2023-04-11T11:42:26.801Z</time>
      </trkpt>
      <trkpt lat="48.40534" lon="2.79878">
        <ele>53</ele>
        <time>2023-04-11T11:42:31.806Z</time>
      </trkpt>
      <trkpt lat="48.40539" lon="2.7988">
        <ele>53</ele>
        <time>2023-04-11T11:42:35.811Z</time>
      </trkpt>
      <trkpt lat="48.40543" lon="2.79886">
        <ele>52</ele>
        <time>2023-04-11T11:42:40.316Z</time>
      </trkpt>
      <trkpt lat="48.40547" lon="2.79891">
        <ele>52</ele>
        <time>2023-04-11T11:42:44.437Z</time>
      </trkpt>
      <trkpt lat="48.40549" lon="2.79898">
        <ele>52</ele>
        <time>2023-04-11T11:42:48.944Z</time>
      </trkpt>
      <trkpt lat="48.40549" lon="2.79908">
        <ele>53</ele>
        <time>2023-04-11T11:42:53.452Z</time>
      </trkpt>
      <trkpt lat="48.40551" lon="2.79914">
        <ele>53</ele>
        <time>2023-04-11T11:42:57.458Z</time>
      </trkpt>
      <trkpt lat="48.40558" lon="2.79916">
        <ele>53</ele>
        <time>2023-04-11T11:43:01.564Z</time>
      </trkpt>
      <trkpt lat="48.40562" lon="2.79917">
        <ele>53</ele>
        <time>2023-04-11T11:43:06.070Z</time>
      </trkpt>
      <trkpt lat="48.40567" lon="2.79916">
        <ele>53</ele>
        <time>2023-04-11T11:43:10.073Z</time>
      </trkpt>
      <trkpt lat="48.40572" lon="2.79907">
        <ele>52</ele>
        <time>2023-04-11T11:43:14.578Z</time>
      </trkpt>
      <trkpt lat="48.40576" lon="2.79896">
        <ele>52</ele>
        <time>2023-04-11T11:43:19.783Z</time>
      </trkpt>
      <trkpt lat="48.4058" lon="2.79888">
        <ele>52</ele>
        <time>2023-04-11T11:43:23.804Z</time>
      </trkpt>
      <trkpt lat="48.40582" lon="2.79878">
        <ele>52</ele>
        <time>2023-04-11T11:43:27.810Z</time>
      </trkpt>
      <trkpt lat="48.40582" lon="2.7987">
        <ele>52</ele>
        <time>2023-04-11T11:43:32.316Z</time>
      </trkpt>
      <trkpt lat="48.40584" lon="2.79861">
        <ele>52</ele>
        <time>2023-04-11T11:43:36.445Z</time>
      </trkpt>
      <trkpt lat="48.40587" lon="2.79853">
        <ele>52</ele>
        <time>2023-04-11T11:43:40.316Z</time>
      </trkpt>
      <trkpt lat="48.40589" lon="2.79843">
        <ele>52</ele>
        <time>2023-04-11T11:43:44.834Z</time>
      </trkpt>
      <trkpt lat="48.40589" lon="2.79835">
        <ele>52</ele>
        <time>2023-04-11T11:43:48.869Z</time>
      </trkpt>
      <trkpt lat="48.40588" lon="2.79825">
        <ele>52</ele>
        <time>2023-04-11T11:43:53.661Z</time>
      </trkpt>
      <trkpt lat="48.40589" lon="2.79818">
        <ele>49</ele>
        <time>2023-04-11T11:43:57.497Z</time>
      </trkpt>
      <trkpt lat="48.40589" lon="2.7981">
        <ele>49</ele>
        <time>2023-04-11T11:44:02.110Z</time>
      </trkpt>
      <trkpt lat="48.40588" lon="2.798">
        <ele>49</ele>
        <time>2023-04-11T11:44:06.660Z</time>
      </trkpt>
      <trkpt lat="48.40589" lon="2.7979">
        <ele>48</ele>
        <time>2023-04-11T11:44:11.293Z</time>
      </trkpt>
      <trkpt lat="48.4059" lon="2.79781">
        <ele>48</ele>
        <time>2023-04-11T11:44:15.843Z</time>
      </trkpt>
      <trkpt lat="48.4059" lon="2.79771">
        <ele>48</ele>
        <time>2023-04-11T11:44:21.109Z</time>
      </trkpt>
      <trkpt lat="48.40592" lon="2.79761">
        <ele>46</ele>
        <time>2023-04-11T11:44:26.159Z</time>
      </trkpt>
      <trkpt lat="48.40593" lon="2.79752">
        <ele>46</ele>
        <time>2023-04-11T11:44:30.284Z</time>
      </trkpt>
      <trkpt lat="48.40594" lon="2.79744">
        <ele>46</ele>
        <time>2023-04-11T11:44:34.271Z</time>
      </trkpt>
      <trkpt lat="48.40594" lon="2.79737">
        <ele>46</ele>
        <time>2023-04-11T11:44:38.817Z</time>
      </trkpt>
      <trkpt lat="48.40596" lon="2.79729">
        <ele>46</ele>
        <time>2023-04-11T11:44:44.082Z</time>
      </trkpt>
      <trkpt lat="48.40596" lon="2.79723">
        <ele>46</ele>
        <time>2023-04-11T11:44:48.030Z</time>
      </trkpt>
      <trkpt lat="48.40596" lon="2.79712">
        <ele>46</ele>
        <time>2023-04-11T11:44:52.697Z</time>
      </trkpt>
      <trkpt lat="48.40596" lon="2.79703">
        <ele>46</ele>
        <time>2023-04-11T11:44:57.316Z</time>
      </trkpt>
      <trkpt lat="48.40596" lon="2.79694">
        <ele>46</ele>
        <time>2023-04-11T11:45:01.311Z</time>
      </trkpt>
      <trkpt lat="48.40595" lon="2.79686">
        <ele>46</ele>
        <time>2023-04-11T11:45:05.501Z</time>
      </trkpt>
      <trkpt lat="48.40592" lon="2.79678">
        <ele>47</ele>
        <time>2023-04-11T11:45:10.135Z</time>
      </trkpt>
      <trkpt lat="48.40592" lon="2.79671">
        <ele>47</ele>
        <time>2023-04-11T11:45:14.285Z</time>
      </trkpt>
      <trkpt lat="48.40591" lon="2.79663">
        <ele>47</ele>
        <time>2023-04-11T11:45:18.417Z</time>
      </trkpt>
      <trkpt lat="48.4059" lon="2.79655">
        <ele>47</ele>
        <time>2023-04-11T11:45:23.060Z</time>
      </trkpt>
      <trkpt lat="48.40591" lon="2.79646">
        <ele>47</ele>
        <time>2023-04-11T11:45:27.500Z</time>
      </trkpt>
      <trkpt lat="48.40591" lon="2.79639">
        <ele>47</ele>
        <time>2023-04-11T11:45:31.864Z</time>
      </trkpt>
      <trkpt lat="48.40591" lon="2.79633">
        <ele>47</ele>
        <time>2023-04-11T11:45:35.901Z</time>
      </trkpt>
      <trkpt lat="48.4059" lon="2.79628">
        <ele>47</ele>
        <time>2023-04-11T11:45:40.092Z</time>
      </trkpt>
      <trkpt lat="48.40591" lon="2.79621">
        <ele>48</ele>
        <time>2023-04-11T11:45:44.043Z</time>
      </trkpt>
      <trkpt lat="48.40594" lon="2.79614">
        <ele>48</ele>
        <time>2023-04-11T11:45:49.131Z</time>
      </trkpt>
      <trkpt lat="48.40594" lon="2.79605">
        <ele>48</ele>
        <time>2023-04-11T11:45:53.302Z</time>
      </trkpt>
      <trkpt lat="48.40593" lon="2.79595">
        <ele>48</ele>
        <time>2023-04-11T11:45:57.832Z</time>
      </trkpt>
      <trkpt lat="48.40593" lon="2.79587">
        <ele>48</ele>
        <time>2023-04-11T11:46:01.662Z</time>
      </trkpt>
      <trkpt lat="48.40593" lon="2.7958">
        <ele>48</ele>
        <time>2023-04-11T11:46:06.312Z</time>
      </trkpt>
      <trkpt lat="48.40596" lon="2.79572">
        <ele>48</ele>
        <time>2023-04-11T11:46:10.316Z</time>
      </trkpt>
      <trkpt lat="48.40598" lon="2.79565">
        <ele>50</ele>
        <time>2023-04-11T11:46:14.277Z</time>
      </trkpt>
      <trkpt lat="48.406" lon="2.79557">
        <ele>50</ele>
        <time>2023-04-11T11:46:18.448Z</time>
      </trkpt>
      <trkpt lat="48.40601" lon="2.7955">
        <ele>50</ele>
        <time>2023-04-11T11:46:23.101Z</time>
      </trkpt>
      <trkpt lat="48.40601" lon="2.7954">
        <ele>49</ele>
        <time>2023-04-11T11:46:28.165Z</time>
      </trkpt>
      <trkpt lat="48.40602" lon="2.7953">
        <ele>49</ele>
        <time>2023-04-11T11:46:32.741Z</time>
      </trkpt>
      <trkpt lat="48.406" lon="2.79522">
        <ele>49</ele>
        <time>2023-04-11T11:46:37.051Z</time>
      </trkpt>
      <trkpt lat="48.406" lon="2.79514">
        <ele>49</ele>
        <time>2023-04-11T11:46:41.481Z</time>
      </trkpt>
      <trkpt lat="48.406" lon="2.7951">
        <ele>49</ele>
        <time>2023-04-11T11:46:45.673Z</time>
      </trkpt>
      <trkpt lat="48.40589" lon="2.79509">
        <ele>47</ele>
        <time>2023-04-11T11:48:41.239Z</time>
      </trkpt>
      <trkpt lat="48.40592" lon="2.79494">
        <ele>47</ele>
        <time>2023-04-11T11:48:45.729Z</time>
      </trkpt>
      <trkpt lat="48.40594" lon="2.79482">
        <ele>46</ele>
        <time>2023-04-11T11:48:49.678Z</time>
      </trkpt>
      <trkpt lat="48.40595" lon="2.79471">
        <ele>46</ele>
        <time>2023-04-11T11:48:54.316Z</time>
      </trkpt>
      <trkpt lat="48.40595" lon="2.79459">
        <ele>46</ele>
        <time>2023-04-11T11:48:58.777Z</time>
      </trkpt>
      <trkpt lat="48.40596" lon="2.79448">
        <ele>46</ele>
        <time>2023-04-11T11:49:03.891Z</time>
      </trkpt>
      <trkpt lat="48.40597" lon="2.79439">
        <ele>47</ele>
        <time>2023-04-11T11:49:07.923Z</time>
      </trkpt>
      <trkpt lat="48.406" lon="2.79428">
        <ele>47</ele>
        <time>2023-04-11T11:49:11.995Z</time>
      </trkpt>
      <trkpt lat="48.40602" lon="2.79415">
        <ele>47</ele>
        <time>2023-04-11T11:49:16.664Z</time>
      </trkpt>
      <trkpt lat="48.40604" lon="2.79405">
        <ele>47</ele>
        <time>2023-04-11T11:49:21.264Z</time>
      </trkpt>
      <trkpt lat="48.40607" lon="2.79394">
        <ele>45</ele>
        <time>2023-04-11T11:49:25.759Z</time>
      </trkpt>
      <trkpt lat="48.40609" lon="2.79384">
        <ele>45</ele>
        <time>2023-04-11T11:49:30.307Z</time>
      </trkpt>
      <trkpt lat="48.40611" lon="2.79374">
        <ele>44</ele>
        <time>2023-04-11T11:49:34.491Z</time>
      </trkpt>
      <trkpt lat="48.40613" lon="2.79363">
        <ele>44</ele>
        <time>2023-04-11T11:49:38.438Z</time>
      </trkpt>
      <trkpt lat="48.40615" lon="2.79351">
        <ele>44</ele>
        <time>2023-04-11T11:49:43.102Z</time>
      </trkpt>
      <trkpt lat="48.40618" lon="2.79343">
        <ele>42</ele>
        <time>2023-04-11T11:49:47.167Z</time>
      </trkpt>
      <trkpt lat="48.40622" lon="2.79335">
        <ele>42</ele>
        <time>2023-04-11T11:49:51.709Z</time>
      </trkpt>
      <trkpt lat="48.40627" lon="2.79327">
        <ele>42</ele>
        <time>2023-04-11T11:49:55.654Z</time>
      </trkpt>
      <trkpt lat="48.40628" lon="2.79317">
        <ele>42</ele>
        <time>2023-04-11T11:49:59.722Z</time>
      </trkpt>
      <trkpt lat="48.40629" lon="2.79309">
        <ele>42</ele>
        <time>2023-04-11T11:50:04.272Z</time>
      </trkpt>
      <trkpt lat="48.40631" lon="2.793">
        <ele>42</ele>
        <time>2023-04-11T11:50:09.060Z</time>
      </trkpt>
      <trkpt lat="48.40633" lon="2.7929">
        <ele>43</ele>
        <time>2023-04-11T11:50:13.488Z</time>
      </trkpt>
      <trkpt lat="48.40634" lon="2.7928">
        <ele>43</ele>
        <time>2023-04-11T11:50:17.894Z</time>
      </trkpt>
      <trkpt lat="48.40636" lon="2.79272">
        <ele>43</ele>
        <time>2023-04-11T11:50:22.316Z</time>
      </trkpt>
      <trkpt lat="48.40638" lon="2.79267">
        <ele>43</ele>
        <time>2023-04-11T11:50:27.106Z</time>
      </trkpt>
      <trkpt lat="48.40639" lon="2.79267">
        <ele>43</ele>
        <time>2023-04-11T11:51:00.116Z</time>
      </trkpt>
      <trkpt lat="48.4064" lon="2.79267">
        <ele>43</ele>
        <time>2023-04-11T11:51:04.890Z</time>
      </trkpt>
      <trkpt lat="48.40642" lon="2.79274">
        <ele>43</ele>
        <time>2023-04-11T11:51:08.838Z</time>
      </trkpt>
      <trkpt lat="48.40642" lon="2.79282">
        <ele>43</ele>
        <time>2023-04-11T11:51:12.907Z</time>
      </trkpt>
      <trkpt lat="48.40643" lon="2.79288">
        <ele>43</ele>
        <time>2023-04-11T11:51:17.097Z</time>
      </trkpt>
      <trkpt lat="48.40645" lon="2.79289">
        <ele>43</ele>
        <time>2023-04-11T11:51:20.688Z</time>
      </trkpt>
      <trkpt lat="48.40646" lon="2.79287">
        <ele>43</ele>
        <time>2023-04-11T11:51:25.474Z</time>
      </trkpt>
      <trkpt lat="48.40643" lon="2.79281">
        <ele>43</ele>
        <time>2023-04-11T11:51:29.662Z</time>
      </trkpt>
      <trkpt lat="48.4064" lon="2.79273">
        <ele>43</ele>
        <time>2023-04-11T11:51:33.731Z</time>
      </trkpt>
      <trkpt lat="48.40638" lon="2.79267">
        <ele>43</ele>
        <time>2023-04-11T11:51:38.278Z</time>
      </trkpt>
      <trkpt lat="48.40637" lon="2.79259">
        <ele>44</ele>
        <time>2023-04-11T11:51:42.827Z</time>
      </trkpt>
      <trkpt lat="48.40639" lon="2.7925">
        <ele>44</ele>
        <time>2023-04-11T11:51:47.492Z</time>
      </trkpt>
      <trkpt lat="48.40641" lon="2.79244">
        <ele>44</ele>
        <time>2023-04-11T11:51:52.157Z</time>
      </trkpt>
      <trkpt lat="48.40643" lon="2.79233">
        <ele>44</ele>
        <time>2023-04-11T11:51:56.667Z</time>
      </trkpt>
      <trkpt lat="48.40644" lon="2.79225">
        <ele>44</ele>
        <time>2023-04-11T11:52:01.460Z</time>
      </trkpt>
      <trkpt lat="48.40645" lon="2.79217">
        <ele>44</ele>
        <time>2023-04-11T11:52:05.646Z</time>
      </trkpt>
      <trkpt lat="48.40647" lon="2.79208">
        <ele>44</ele>
        <time>2023-04-11T11:52:10.311Z</time>
      </trkpt>
      <trkpt lat="48.40649" lon="2.79199">
        <ele>44</ele>
        <time>2023-04-11T11:52:14.799Z</time>
      </trkpt>
      <trkpt lat="48.40651" lon="2.79191">
        <ele>44</ele>
        <time>2023-04-11T11:52:19.282Z</time>
      </trkpt>
      <trkpt lat="48.40652" lon="2.79184">
        <ele>44</ele>
        <time>2023-04-11T11:52:23.470Z</time>
      </trkpt>
      <trkpt lat="48.40653" lon="2.79174">
        <ele>45</ele>
        <time>2023-04-11T11:52:28.017Z</time>
      </trkpt>
      <trkpt lat="48.40656" lon="2.79167">
        <ele>45</ele>
        <time>2023-04-11T11:52:32.443Z</time>
      </trkpt>
      <trkpt lat="48.40656" lon="2.79158">
        <ele>45</ele>
        <time>2023-04-11T11:52:37.173Z</time>
      </trkpt>
      <trkpt lat="48.40659" lon="2.7915">
        <ele>45</ele>
        <time>2023-04-11T11:52:41.483Z</time>
      </trkpt>
      <trkpt lat="48.40662" lon="2.79144">
        <ele>45</ele>
        <time>2023-04-11T11:52:46.092Z</time>
      </trkpt>
      <trkpt lat="48.40666" lon="2.7914">
        <ele>45</ele>
        <time>2023-04-11T11:52:50.760Z</time>
      </trkpt>
      <trkpt lat="48.40669" lon="2.79135">
        <ele>45</ele>
        <time>2023-04-11T11:52:55.910Z</time>
      </trkpt>
      <trkpt lat="48.4067" lon="2.7913">
        <ele>45</ele>
        <time>2023-04-11T11:53:00.099Z</time>
      </trkpt>
      <trkpt lat="48.40668" lon="2.79128">
        <ele>45</ele>
        <time>2023-04-11T11:53:04.147Z</time>
      </trkpt>
      <trkpt lat="48.40667" lon="2.79126">
        <ele>45</ele>
        <time>2023-04-11T11:53:08.122Z</time>
      </trkpt>
      <trkpt lat="48.40664" lon="2.7912">
        <ele>45</ele>
        <time>2023-04-11T11:55:43.182Z</time>
      </trkpt>
      <trkpt lat="48.40664" lon="2.7912">
        <ele>45</ele>
        <time>2023-04-11T11:55:48.186Z</time>
      </trkpt>
      <trkpt lat="48.40665" lon="2.79119">
        <ele>45</ele>
        <time>2023-04-11T11:55:52.675Z</time>
      </trkpt>
      <trkpt lat="48.40665" lon="2.79114">
        <ele>45</ele>
        <time>2023-04-11T11:55:56.625Z</time>
      </trkpt>
      <trkpt lat="48.40665" lon="2.79104">
        <ele>45</ele>
        <time>2023-04-11T11:56:01.154Z</time>
      </trkpt>
      <trkpt lat="48.40668" lon="2.79108">
        <ele>45</ele>
        <time>2023-04-11T11:56:05.702Z</time>
      </trkpt>
      <trkpt lat="48.4067" lon="2.79109">
        <ele>45</ele>
        <time>2023-04-11T11:56:09.891Z</time>
      </trkpt>
      <trkpt lat="48.40675" lon="2.79108">
        <ele>45</ele>
        <time>2023-04-11T11:56:14.079Z</time>
      </trkpt>
      <trkpt lat="48.4068" lon="2.79101">
        <ele>45</ele>
        <time>2023-04-11T11:56:18.174Z</time>
      </trkpt>
      <trkpt lat="48.40676" lon="2.79081">
        <ele>45</ele>
        <time>2023-04-11T11:56:22.697Z</time>
      </trkpt>
      <trkpt lat="48.40672" lon="2.79067">
        <ele>45</ele>
        <time>2023-04-11T11:56:26.766Z</time>
      </trkpt>
      <trkpt lat="48.40671" lon="2.79057">
        <ele>45</ele>
        <time>2023-04-11T11:56:30.715Z</time>
      </trkpt>
      <trkpt lat="48.40671" lon="2.79047">
        <ele>45</ele>
        <time>2023-04-11T11:56:34.665Z</time>
      </trkpt>
      <trkpt lat="48.40671" lon="2.79039">
        <ele>46</ele>
        <time>2023-04-11T11:56:39.454Z</time>
      </trkpt>
      <trkpt lat="48.4067" lon="2.79032">
        <ele>46</ele>
        <time>2023-04-11T11:56:43.523Z</time>
      </trkpt>
      <trkpt lat="48.4067" lon="2.79023">
        <ele>46</ele>
        <time>2023-04-11T11:56:48.123Z</time>
      </trkpt>
      <trkpt lat="48.4067" lon="2.79016">
        <ele>46</ele>
        <time>2023-04-11T11:56:51.902Z</time>
      </trkpt>
      <trkpt lat="48.4067" lon="2.79008">
        <ele>47</ele>
        <time>2023-04-11T11:56:55.733Z</time>
      </trkpt>
      <trkpt lat="48.4067" lon="2.78999">
        <ele>47</ele>
        <time>2023-04-11T11:57:00.382Z</time>
      </trkpt>
      <trkpt lat="48.4067" lon="2.78989">
        <ele>47</ele>
        <time>2023-04-11T11:57:04.811Z</time>
      </trkpt>
      <trkpt lat="48.40672" lon="2.78982">
        <ele>47</ele>
        <time>2023-04-11T11:57:08.879Z</time>
      </trkpt>
      <trkpt lat="48.40675" lon="2.78975">
        <ele>47</ele>
        <time>2023-04-11T11:57:12.710Z</time>
      </trkpt>
      <trkpt lat="48.40678" lon="2.78966">
        <ele>47</ele>
        <time>2023-04-11T11:57:17.378Z</time>
      </trkpt>
      <trkpt lat="48.4068" lon="2.78958">
        <ele>47</ele>
        <time>2023-04-11T11:57:21.925Z</time>
      </trkpt>
      <trkpt lat="48.40684" lon="2.7895">
        <ele>46</ele>
        <time>2023-04-11T11:57:27.072Z</time>
      </trkpt>
      <trkpt lat="48.40689" lon="2.78945">
        <ele>46</ele>
        <time>2023-04-11T11:57:31.584Z</time>
      </trkpt>
      <trkpt lat="48.40694" lon="2.78942">
        <ele>46</ele>
        <time>2023-04-11T11:57:35.570Z</time>
      </trkpt>
      <trkpt lat="48.40699" lon="2.78938">
        <ele>46</ele>
        <time>2023-04-11T11:57:39.518Z</time>
      </trkpt>
      <trkpt lat="48.40703" lon="2.78932">
        <ele>46</ele>
        <time>2023-04-11T11:57:44.162Z</time>
      </trkpt>
      <trkpt lat="48.40707" lon="2.78927">
        <ele>49</ele>
        <time>2023-04-11T11:57:48.165Z</time>
      </trkpt>
      <trkpt lat="48.40712" lon="2.78923">
        <ele>49</ele>
        <time>2023-04-11T11:57:51.725Z</time>
      </trkpt>
      <trkpt lat="48.40717" lon="2.78918">
        <ele>49</ele>
        <time>2023-04-11T11:57:56.256Z</time>
      </trkpt>
      <trkpt lat="48.40723" lon="2.78912">
        <ele>49</ele>
        <time>2023-04-11T11:58:01.065Z</time>
      </trkpt>
      <trkpt lat="48.40729" lon="2.78907">
        <ele>49</ele>
        <time>2023-04-11T11:58:05.615Z</time>
      </trkpt>
      <trkpt lat="48.40733" lon="2.78903">
        <ele>51</ele>
        <time>2023-04-11T11:58:10.283Z</time>
      </trkpt>
      <trkpt lat="48.40738" lon="2.78899">
        <ele>51</ele>
        <time>2023-04-11T11:58:14.316Z</time>
      </trkpt>
      <trkpt lat="48.40743" lon="2.78896">
        <ele>51</ele>
        <time>2023-04-11T11:58:18.304Z</time>
      </trkpt>
      <trkpt lat="48.40749" lon="2.78891">
        <ele>51</ele>
        <time>2023-04-11T11:58:23.093Z</time>
      </trkpt>
      <trkpt lat="48.40753" lon="2.78885">
        <ele>51</ele>
        <time>2023-04-11T11:58:27.682Z</time>
      </trkpt>
      <trkpt lat="48.40759" lon="2.78881">
        <ele>51</ele>
        <time>2023-04-11T11:58:32.100Z</time>
      </trkpt>
      <trkpt lat="48.40763" lon="2.78877">
        <ele>51</ele>
        <time>2023-04-11T11:58:36.116Z</time>
      </trkpt>
      <trkpt lat="48.40768" lon="2.78869">
        <ele>52</ele>
        <time>2023-04-11T11:58:40.664Z</time>
      </trkpt>
      <trkpt lat="48.40772" lon="2.78863">
        <ele>52</ele>
        <time>2023-04-11T11:58:45.312Z</time>
      </trkpt>
      <trkpt lat="48.40777" lon="2.78857">
        <ele>52</ele>
        <time>2023-04-11T11:58:49.803Z</time>
      </trkpt>
      <trkpt lat="48.40782" lon="2.78851">
        <ele>52</ele>
        <time>2023-04-11T11:58:53.841Z</time>
      </trkpt>
      <trkpt lat="48.40792" lon="2.78843">
        <ele>53</ele>
        <time>2023-04-11T11:59:11.180Z</time>
      </trkpt>
      <trkpt lat="48.40793" lon="2.78842">
        <ele>53</ele>
        <time>2023-04-11T11:59:15.527Z</time>
      </trkpt>
      <trkpt lat="48.40797" lon="2.78836">
        <ele>53</ele>
        <time>2023-04-11T11:59:19.483Z</time>
      </trkpt>
      <trkpt lat="48.40801" lon="2.78829">
        <ele>53</ele>
        <time>2023-04-11T11:59:23.434Z</time>
      </trkpt>
      <trkpt lat="48.40805" lon="2.78823">
        <ele>53</ele>
        <time>2023-04-11T11:59:27.854Z</time>
      </trkpt>
      <trkpt lat="48.40812" lon="2.78822">
        <ele>53</ele>
        <time>2023-04-11T11:59:32.480Z</time>
      </trkpt>
      <trkpt lat="48.40817" lon="2.78818">
        <ele>53</ele>
        <time>2023-04-11T11:59:36.481Z</time>
      </trkpt>
      <trkpt lat="48.40822" lon="2.78811">
        <ele>52</ele>
        <time>2023-04-11T11:59:41.056Z</time>
      </trkpt>
      <trkpt lat="48.40826" lon="2.78806">
        <ele>52</ele>
        <time>2023-04-11T11:59:45.601Z</time>
      </trkpt>
      <trkpt lat="48.40831" lon="2.78801">
        <ele>52</ele>
        <time>2023-04-11T11:59:49.682Z</time>
      </trkpt>
      <trkpt lat="48.40837" lon="2.78797">
        <ele>52</ele>
        <time>2023-04-11T11:59:54.151Z</time>
      </trkpt>
      <trkpt lat="48.40843" lon="2.78795">
        <ele>52</ele>
        <time>2023-04-11T11:59:58.602Z</time>
      </trkpt>
      <trkpt lat="48.40847" lon="2.78791">
        <ele>51</ele>
        <time>2023-04-11T12:00:02.645Z</time>
      </trkpt>
      <trkpt lat="48.40852" lon="2.78788">
        <ele>51</ele>
        <time>2023-04-11T12:00:06.456Z</time>
      </trkpt>
      <trkpt lat="48.40856" lon="2.78785">
        <ele>51</ele>
        <time>2023-04-11T12:00:11.175Z</time>
      </trkpt>
      <trkpt lat="48.4086" lon="2.78783">
        <ele>51</ele>
        <time>2023-04-11T12:00:15.316Z</time>
      </trkpt>
      <trkpt lat="48.40865" lon="2.78777">
        <ele>51</ele>
        <time>2023-04-11T12:00:19.746Z</time>
      </trkpt>
      <trkpt lat="48.4087" lon="2.78772">
        <ele>51</ele>
        <time>2023-04-11T12:00:24.297Z</time>
      </trkpt>
      <trkpt lat="48.40876" lon="2.78767">
        <ele>50</ele>
        <time>2023-04-11T12:00:29.047Z</time>
      </trkpt>
      <trkpt lat="48.40881" lon="2.78763">
        <ele>51</ele>
        <time>2023-04-11T12:00:32.915Z</time>
      </trkpt>
      <trkpt lat="48.40887" lon="2.78761">
        <ele>51</ele>
        <time>2023-04-11T12:00:37.705Z</time>
      </trkpt>
      <trkpt lat="48.40892" lon="2.78757">
        <ele>51</ele>
        <time>2023-04-11T12:00:42.322Z</time>
      </trkpt>
      <trkpt lat="48.40896" lon="2.78755">
        <ele>51</ele>
        <time>2023-04-11T12:00:46.210Z</time>
      </trkpt>
      <trkpt lat="48.40901" lon="2.78761">
        <ele>51</ele>
        <time>2023-04-11T12:00:50.769Z</time>
      </trkpt>
      <trkpt lat="48.40904" lon="2.78769">
        <ele>50</ele>
        <time>2023-04-11T12:00:54.715Z</time>
      </trkpt>
      <trkpt lat="48.40908" lon="2.78777">
        <ele>50</ele>
        <time>2023-04-11T12:00:59.384Z</time>
      </trkpt>
      <trkpt lat="48.40911" lon="2.78787">
        <ele>50</ele>
        <time>2023-04-11T12:01:03.697Z</time>
      </trkpt>
      <trkpt lat="48.40913" lon="2.78799">
        <ele>49</ele>
        <time>2023-04-11T12:01:08.900Z</time>
      </trkpt>
      <trkpt lat="48.40915" lon="2.78807">
        <ele>49</ele>
        <time>2023-04-11T12:01:12.919Z</time>
      </trkpt>
      <trkpt lat="48.40917" lon="2.78816">
        <ele>49</ele>
        <time>2023-04-11T12:01:17.094Z</time>
      </trkpt>
      <trkpt lat="48.40919" lon="2.78823">
        <ele>48</ele>
        <time>2023-04-11T12:01:21.046Z</time>
      </trkpt>
      <trkpt lat="48.40922" lon="2.78832">
        <ele>48</ele>
        <time>2023-04-11T12:01:25.718Z</time>
      </trkpt>
      <trkpt lat="48.40925" lon="2.7884">
        <ele>48</ele>
        <time>2023-04-11T12:01:29.963Z</time>
      </trkpt>
      <trkpt lat="48.40927" lon="2.78847">
        <ele>48</ele>
        <time>2023-04-11T12:01:33.862Z</time>
      </trkpt>
      <trkpt lat="48.4093" lon="2.78854">
        <ele>48</ele>
        <time>2023-04-11T12:01:38.444Z</time>
      </trkpt>
      <trkpt lat="48.40933" lon="2.78861">
        <ele>48</ele>
        <time>2023-04-11T12:01:42.316Z</time>
      </trkpt>
      <trkpt lat="48.40936" lon="2.78869">
        <ele>48</ele>
        <time>2023-04-11T12:01:46.516Z</time>
      </trkpt>
      <trkpt lat="48.40939" lon="2.78877">
        <ele>48</ele>
        <time>2023-04-11T12:01:50.708Z</time>
      </trkpt>
      <trkpt lat="48.40943" lon="2.78885">
        <ele>48</ele>
        <time>2023-04-11T12:01:55.403Z</time>
      </trkpt>
      <trkpt lat="48.40946" lon="2.78893">
        <ele>48</ele>
        <time>2023-04-11T12:01:59.672Z</time>
      </trkpt>
      <trkpt lat="48.4095" lon="2.789">
        <ele>48</ele>
        <time>2023-04-11T12:02:04.366Z</time>
      </trkpt>
      <trkpt lat="48.40953" lon="2.78908">
        <ele>48</ele>
        <time>2023-04-11T12:02:08.706Z</time>
      </trkpt>
      <trkpt lat="48.40956" lon="2.78917">
        <ele>48</ele>
        <time>2023-04-11T12:02:12.721Z</time>
      </trkpt>
      <trkpt lat="48.40959" lon="2.78925">
        <ele>47</ele>
        <time>2023-04-11T12:02:16.789Z</time>
      </trkpt>
      <trkpt lat="48.40963" lon="2.78933">
        <ele>46</ele>
        <time>2023-04-11T12:02:21.316Z</time>
      </trkpt>
      <trkpt lat="48.40967" lon="2.7894">
        <ele>46</ele>
        <time>2023-04-11T12:02:25.526Z</time>
      </trkpt>
      <trkpt lat="48.40972" lon="2.78945">
        <ele>46</ele>
        <time>2023-04-11T12:02:30.048Z</time>
      </trkpt>
      <trkpt lat="48.40978" lon="2.78949">
        <ele>46</ele>
        <time>2023-04-11T12:02:34.285Z</time>
      </trkpt>
      <trkpt lat="48.40983" lon="2.78956">
        <ele>46</ele>
        <time>2023-04-11T12:02:38.316Z</time>
      </trkpt>
      <trkpt lat="48.40987" lon="2.78963">
        <ele>45</ele>
        <time>2023-04-11T12:02:42.882Z</time>
      </trkpt>
      <trkpt lat="48.40992" lon="2.78969">
        <ele>45</ele>
        <time>2023-04-11T12:02:47.628Z</time>
      </trkpt>
      <trkpt lat="48.40997" lon="2.78976">
        <ele>45</ele>
        <time>2023-04-11T12:02:51.905Z</time>
      </trkpt>
      <trkpt lat="48.41001" lon="2.78981">
        <ele>45</ele>
        <time>2023-04-11T12:02:55.690Z</time>
      </trkpt>
      <trkpt lat="48.41003" lon="2.78989">
        <ele>45</ele>
        <time>2023-04-11T12:03:00.464Z</time>
      </trkpt>
      <trkpt lat="48.41006" lon="2.78995">
        <ele>45</ele>
        <time>2023-04-11T12:03:04.806Z</time>
      </trkpt>
      <trkpt lat="48.4101" lon="2.79">
        <ele>45</ele>
        <time>2023-04-11T12:03:09.172Z</time>
      </trkpt>
      <trkpt lat="48.41012" lon="2.79001">
        <ele>45</ele>
        <time>2023-04-11T12:03:12.694Z</time>
      </trkpt>
      <trkpt lat="48.41014" lon="2.79008">
        <ele>45</ele>
        <time>2023-04-11T12:03:17.481Z</time>
      </trkpt>
      <trkpt lat="48.41017" lon="2.79015">
        <ele>46</ele>
        <time>2023-04-11T12:03:21.665Z</time>
      </trkpt>
      <trkpt lat="48.41021" lon="2.79024">
        <ele>46</ele>
        <time>2023-04-11T12:03:26.098Z</time>
      </trkpt>
      <trkpt lat="48.41023" lon="2.79032">
        <ele>46</ele>
        <time>2023-04-11T12:03:30.384Z</time>
      </trkpt>
      <trkpt lat="48.41025" lon="2.7904">
        <ele>46</ele>
        <time>2023-04-11T12:03:34.486Z</time>
      </trkpt>
      <trkpt lat="48.41027" lon="2.79048">
        <ele>46</ele>
        <time>2023-04-11T12:03:38.917Z</time>
      </trkpt>
      <trkpt lat="48.41031" lon="2.79055">
        <ele>46</ele>
        <time>2023-04-11T12:03:42.869Z</time>
      </trkpt>
      <trkpt lat="48.41034" lon="2.79062">
        <ele>46</ele>
        <time>2023-04-11T12:03:47.424Z</time>
      </trkpt>
      <trkpt lat="48.41037" lon="2.7907">
        <ele>47</ele>
        <time>2023-04-11T12:03:52.093Z</time>
      </trkpt>
      <trkpt lat="48.4104" lon="2.79078">
        <ele>47</ele>
        <time>2023-04-11T12:03:56.883Z</time>
      </trkpt>
      <trkpt lat="48.41043" lon="2.79085">
        <ele>47</ele>
        <time>2023-04-11T12:04:00.725Z</time>
      </trkpt>
      <trkpt lat="48.41047" lon="2.79091">
        <ele>47</ele>
        <time>2023-04-11T12:04:04.921Z</time>
      </trkpt>
      <trkpt lat="48.4105" lon="2.79099">
        <ele>48</ele>
        <time>2023-04-11T12:04:09.115Z</time>
      </trkpt>
      <trkpt lat="48.41051" lon="2.79107">
        <ele>48</ele>
        <time>2023-04-11T12:04:13.265Z</time>
      </trkpt>
      <trkpt lat="48.41054" lon="2.79115">
        <ele>48</ele>
        <time>2023-04-11T12:04:17.640Z</time>
      </trkpt>
      <trkpt lat="48.41057" lon="2.79122">
        <ele>48</ele>
        <time>2023-04-11T12:04:21.690Z</time>
      </trkpt>
      <trkpt lat="48.41062" lon="2.79127">
        <ele>49</ele>
        <time>2023-04-11T12:04:25.753Z</time>
      </trkpt>
      <trkpt lat="48.41067" lon="2.79132">
        <ele>49</ele>
        <time>2023-04-11T12:04:30.303Z</time>
      </trkpt>
      <trkpt lat="48.41071" lon="2.79138">
        <ele>49</ele>
        <time>2023-04-11T12:04:34.316Z</time>
      </trkpt>
      <trkpt lat="48.41078" lon="2.79136">
        <ele>49</ele>
        <time>2023-04-11T12:04:39.028Z</time>
      </trkpt>
      <trkpt lat="48.41084" lon="2.79139">
        <ele>49</ele>
        <time>2023-04-11T12:04:43.076Z</time>
      </trkpt>
      <trkpt lat="48.41092" lon="2.7914">
        <ele>49</ele>
        <time>2023-04-11T12:04:47.746Z</time>
      </trkpt>
      <trkpt lat="48.41099" lon="2.79138">
        <ele>47</ele>
        <time>2023-04-11T12:04:52.295Z</time>
      </trkpt>
      <trkpt lat="48.41105" lon="2.79136">
        <ele>47</ele>
        <time>2023-04-11T12:04:56.706Z</time>
      </trkpt>
      <trkpt lat="48.4111" lon="2.79131">
        <ele>47</ele>
        <time>2023-04-11T12:05:00.914Z</time>
      </trkpt>
      <trkpt lat="48.41116" lon="2.79128">
        <ele>47</ele>
        <time>2023-04-11T12:05:05.373Z</time>
      </trkpt>
      <trkpt lat="48.41119" lon="2.79124">
        <ele>47</ele>
        <time>2023-04-11T12:05:09.295Z</time>
      </trkpt>
      <trkpt lat="48.41122" lon="2.79126">
        <ele>47</ele>
        <time>2023-04-11T12:05:13.475Z</time>
      </trkpt>
      <trkpt lat="48.41125" lon="2.79136">
        <ele>47</ele>
        <time>2023-04-11T12:05:17.506Z</time>
      </trkpt>
      <trkpt lat="48.41127" lon="2.79145">
        <ele>47</ele>
        <time>2023-04-11T12:05:22.055Z</time>
      </trkpt>
      <trkpt lat="48.41129" lon="2.7915">
        <ele>47</ele>
        <time>2023-04-11T12:05:26.126Z</time>
      </trkpt>
      <trkpt lat="48.41131" lon="2.79156">
        <ele>47</ele>
        <time>2023-04-11T12:05:30.316Z</time>
      </trkpt>
      <trkpt lat="48.41134" lon="2.79163">
        <ele>47</ele>
        <time>2023-04-11T12:05:34.316Z</time>
      </trkpt>
      <trkpt lat="48.41136" lon="2.7917">
        <ele>47</ele>
        <time>2023-04-11T12:05:38.316Z</time>
      </trkpt>
      <trkpt lat="48.41139" lon="2.79176">
        <ele>47</ele>
        <time>2023-04-11T12:05:43.107Z</time>
      </trkpt>
      <trkpt lat="48.41142" lon="2.79183">
        <ele>46</ele>
        <time>2023-04-11T12:05:47.075Z</time>
      </trkpt>
      <trkpt lat="48.41144" lon="2.79191">
        <ele>46</ele>
        <time>2023-04-11T12:05:51.626Z</time>
      </trkpt>
      <trkpt lat="48.41144" lon="2.79196">
        <ele>46</ele>
        <time>2023-04-11T12:05:55.579Z</time>
      </trkpt>
      <trkpt lat="48.41146" lon="2.79203">
        <ele>46</ele>
        <time>2023-04-11T12:06:00.160Z</time>
      </trkpt>
      <trkpt lat="48.41146" lon="2.79207">
        <ele>46</ele>
        <time>2023-04-11T12:06:04.678Z</time>
      </trkpt>
      <trkpt lat="48.41147" lon="2.79208">
        <ele>46</ele>
        <time>2023-04-11T12:06:09.136Z</time>
      </trkpt>
      <trkpt lat="48.41146" lon="2.79207">
        <ele>46</ele>
        <time>2023-04-11T12:06:13.718Z</time>
      </trkpt>
      <trkpt lat="48.41148" lon="2.79203">
        <ele>46</ele>
        <time>2023-04-11T12:06:17.721Z</time>
      </trkpt>
      <trkpt lat="48.41157" lon="2.79196">
        <ele>45</ele>
        <time>2023-04-11T12:06:23.022Z</time>
      </trkpt>
      <trkpt lat="48.41162" lon="2.79188">
        <ele>45</ele>
        <time>2023-04-11T12:06:27.528Z</time>
      </trkpt>
      <trkpt lat="48.41166" lon="2.79181">
        <ele>45</ele>
        <time>2023-04-11T12:06:32.034Z</time>
      </trkpt>
      <trkpt lat="48.41172" lon="2.79172">
        <ele>47</ele>
        <time>2023-04-11T12:06:36.639Z</time>
      </trkpt>
      <trkpt lat="48.41177" lon="2.79169">
        <ele>47</ele>
        <time>2023-04-11T12:06:41.405Z</time>
      </trkpt>
      <trkpt lat="48.41182" lon="2.79164">
        <ele>47</ele>
        <time>2023-04-11T12:06:45.444Z</time>
      </trkpt>
      <trkpt lat="48.41188" lon="2.79158">
        <ele>47</ele>
        <time>2023-04-11T12:06:49.585Z</time>
      </trkpt>
      <trkpt lat="48.41194" lon="2.79151">
        <ele>48</ele>
        <time>2023-04-11T12:06:53.905Z</time>
      </trkpt>
      <trkpt lat="48.41199" lon="2.79145">
        <ele>48</ele>
        <time>2023-04-11T12:06:57.947Z</time>
      </trkpt>
      <trkpt lat="48.41204" lon="2.79135">
        <ele>48</ele>
        <time>2023-04-11T12:07:02.507Z</time>
      </trkpt>
      <trkpt lat="48.41207" lon="2.7913">
        <ele>48</ele>
        <time>2023-04-11T12:07:06.645Z</time>
      </trkpt>
      <trkpt lat="48.41211" lon="2.79125">
        <ele>46</ele>
        <time>2023-04-11T12:07:11.151Z</time>
      </trkpt>
      <trkpt lat="48.41215" lon="2.79121">
        <ele>49</ele>
        <time>2023-04-11T12:07:15.626Z</time>
      </trkpt>
      <trkpt lat="48.41221" lon="2.79115">
        <ele>49</ele>
        <time>2023-04-11T12:07:19.661Z</time>
      </trkpt>
      <trkpt lat="48.41225" lon="2.79111">
        <ele>49</ele>
        <time>2023-04-11T12:07:23.737Z</time>
      </trkpt>
      <trkpt lat="48.41228" lon="2.79105">
        <ele>49</ele>
        <time>2023-04-11T12:07:28.276Z</time>
      </trkpt>
      <trkpt lat="48.4123" lon="2.79096">
        <ele>51</ele>
        <time>2023-04-11T12:07:32.277Z</time>
      </trkpt>
      <trkpt lat="48.41233" lon="2.79088">
        <ele>51</ele>
        <time>2023-04-11T12:07:36.780Z</time>
      </trkpt>
      <trkpt lat="48.41238" lon="2.79082">
        <ele>49</ele>
        <time>2023-04-11T12:07:41.285Z</time>
      </trkpt>
      <trkpt lat="48.41243" lon="2.79075">
        <ele>49</ele>
        <time>2023-04-11T12:07:45.792Z</time>
      </trkpt>
      <trkpt lat="48.41246" lon="2.79067">
        <ele>49</ele>
        <time>2023-04-11T12:07:49.815Z</time>
      </trkpt>
      <trkpt lat="48.4125" lon="2.79061">
        <ele>49</ele>
        <time>2023-04-11T12:07:54.437Z</time>
      </trkpt>
      <trkpt lat="48.41254" lon="2.79054">
        <ele>49</ele>
        <time>2023-04-11T12:07:59.113Z</time>
      </trkpt>
      <trkpt lat="48.41259" lon="2.79047">
        <ele>49</ele>
        <time>2023-04-11T12:08:03.691Z</time>
      </trkpt>
      <trkpt lat="48.41262" lon="2.79043">
        <ele>49</ele>
        <time>2023-04-11T12:08:08.835Z</time>
      </trkpt>
      <trkpt lat="48.41268" lon="2.79038">
        <ele>47</ele>
        <time>2023-04-11T12:08:12.853Z</time>
      </trkpt>
      <trkpt lat="48.41273" lon="2.79032">
        <ele>47</ele>
        <time>2023-04-11T12:08:16.930Z</time>
      </trkpt>
      <trkpt lat="48.41277" lon="2.79025">
        <ele>47</ele>
        <time>2023-04-11T12:08:21.126Z</time>
      </trkpt>
      <trkpt lat="48.41281" lon="2.79019">
        <ele>47</ele>
        <time>2023-04-11T12:08:25.316Z</time>
      </trkpt>
      <trkpt lat="48.41285" lon="2.79011">
        <ele>47</ele>
        <time>2023-04-11T12:08:29.721Z</time>
      </trkpt>
      <trkpt lat="48.41288" lon="2.79006">
        <ele>47</ele>
        <time>2023-04-11T12:08:33.737Z</time>
      </trkpt>
      <trkpt lat="48.4129" lon="2.79002">
        <ele>47</ele>
        <time>2023-04-11T12:08:37.811Z</time>
      </trkpt>
      <trkpt lat="48.41293" lon="2.78998">
        <ele>48</ele>
        <time>2023-04-11T12:08:42.185Z</time>
      </trkpt>
      <trkpt lat="48.41295" lon="2.78992">
        <ele>48</ele>
        <time>2023-04-11T12:08:46.762Z</time>
      </trkpt>
      <trkpt lat="48.41297" lon="2.78986">
        <ele>48</ele>
        <time>2023-04-11T12:08:51.316Z</time>
      </trkpt>
      <trkpt lat="48.413" lon="2.78981">
        <ele>47</ele>
        <time>2023-04-11T12:08:55.855Z</time>
      </trkpt>
      <trkpt lat="48.41303" lon="2.78975">
        <ele>47</ele>
        <time>2023-04-11T12:09:00.531Z</time>
      </trkpt>
      <trkpt lat="48.41306" lon="2.78968">
        <ele>47</ele>
        <time>2023-04-11T12:09:04.548Z</time>
      </trkpt>
      <trkpt lat="48.41309" lon="2.78961">
        <ele>47</ele>
        <time>2023-04-11T12:09:09.082Z</time>
      </trkpt>
      <trkpt lat="48.41312" lon="2.78952">
        <ele>46</ele>
        <time>2023-04-11T12:09:13.277Z</time>
      </trkpt>
      <trkpt lat="48.41316" lon="2.78943">
        <ele>46</ele>
        <time>2023-04-11T12:09:17.709Z</time>
      </trkpt>
      <trkpt lat="48.4132" lon="2.78936">
        <ele>44</ele>
        <time>2023-04-11T12:09:21.782Z</time>
      </trkpt>
      <trkpt lat="48.41324" lon="2.78931">
        <ele>44</ele>
        <time>2023-04-11T12:09:25.735Z</time>
      </trkpt>
      <trkpt lat="48.41326" lon="2.78925">
        <ele>45</ele>
        <time>2023-04-11T12:09:30.284Z</time>
      </trkpt>
      <trkpt lat="48.41329" lon="2.78918">
        <ele>45</ele>
        <time>2023-04-11T12:09:35.073Z</time>
      </trkpt>
      <trkpt lat="48.41331" lon="2.7891">
        <ele>45</ele>
        <time>2023-04-11T12:09:39.867Z</time>
      </trkpt>
      <trkpt lat="48.41334" lon="2.78903">
        <ele>47</ele>
        <time>2023-04-11T12:09:43.921Z</time>
      </trkpt>
      <trkpt lat="48.41338" lon="2.78892">
        <ele>47</ele>
        <time>2023-04-11T12:09:48.594Z</time>
      </trkpt>
      <trkpt lat="48.41342" lon="2.78881">
        <ele>47</ele>
        <time>2023-04-11T12:09:52.905Z</time>
      </trkpt>
      <trkpt lat="48.41344" lon="2.78875">
        <ele>49</ele>
        <time>2023-04-11T12:09:56.977Z</time>
      </trkpt>
      <trkpt lat="48.41347" lon="2.78866">
        <ele>49</ele>
        <time>2023-04-11T12:10:01.400Z</time>
      </trkpt>
      <trkpt lat="48.41349" lon="2.78859">
        <ele>49</ele>
        <time>2023-04-11T12:10:05.801Z</time>
      </trkpt>
      <trkpt lat="48.4135" lon="2.78851">
        <ele>49</ele>
        <time>2023-04-11T12:10:09.753Z</time>
      </trkpt>
      <trkpt lat="48.41351" lon="2.78842">
        <ele>48</ele>
        <time>2023-04-11T12:10:14.286Z</time>
      </trkpt>
      <trkpt lat="48.41353" lon="2.78833">
        <ele>48</ele>
        <time>2023-04-11T12:10:18.717Z</time>
      </trkpt>
      <trkpt lat="48.41356" lon="2.78825">
        <ele>48</ele>
        <time>2023-04-11T12:10:23.507Z</time>
      </trkpt>
      <trkpt lat="48.41359" lon="2.78818">
        <ele>47</ele>
        <time>2023-04-11T12:10:27.702Z</time>
      </trkpt>
      <trkpt lat="48.41358" lon="2.78815">
        <ele>47</ele>
        <time>2023-04-11T12:10:31.771Z</time>
      </trkpt>
      <trkpt lat="48.41362" lon="2.78809">
        <ele>47</ele>
        <time>2023-04-11T12:10:36.316Z</time>
      </trkpt>
      <trkpt lat="48.41364" lon="2.78802">
        <ele>47</ele>
        <time>2023-04-11T12:10:40.873Z</time>
      </trkpt>
      <trkpt lat="48.41366" lon="2.78793">
        <ele>47</ele>
        <time>2023-04-11T12:10:46.008Z</time>
      </trkpt>
      <trkpt lat="48.41368" lon="2.78785">
        <ele>47</ele>
        <time>2023-04-11T12:10:50.098Z</time>
      </trkpt>
      <trkpt lat="48.41371" lon="2.78779">
        <ele>47</ele>
        <time>2023-04-11T12:10:54.051Z</time>
      </trkpt>
      <trkpt lat="48.41373" lon="2.7877">
        <ele>47</ele>
        <time>2023-04-11T12:10:58.481Z</time>
      </trkpt>
      <trkpt lat="48.41375" lon="2.78761">
        <ele>44</ele>
        <time>2023-04-11T12:11:03.023Z</time>
      </trkpt>
      <trkpt lat="48.41378" lon="2.78751">
        <ele>44</ele>
        <time>2023-04-11T12:11:08.150Z</time>
      </trkpt>
      <trkpt lat="48.4138" lon="2.78744">
        <ele>44</ele>
        <time>2023-04-11T12:11:12.133Z</time>
      </trkpt>
      <trkpt lat="48.41381" lon="2.78735">
        <ele>44</ele>
        <time>2023-04-11T12:11:16.316Z</time>
      </trkpt>
      <trkpt lat="48.41381" lon="2.78726">
        <ele>44</ele>
        <time>2023-04-11T12:11:20.875Z</time>
      </trkpt>
      <trkpt lat="48.41382" lon="2.78717">
        <ele>44</ele>
        <time>2023-04-11T12:15:54.146Z</time>
      </trkpt>
      <trkpt lat="48.41382" lon="2.78713">
        <ele>44</ele>
        <time>2023-04-11T12:15:58.141Z</time>
      </trkpt>
      <trkpt lat="48.41383" lon="2.78713">
        <ele>44</ele>
        <time>2023-04-11T12:16:03.143Z</time>
      </trkpt>
      <trkpt lat="48.41383" lon="2.78709">
        <ele>44</ele>
        <time>2023-04-11T12:16:07.483Z</time>
      </trkpt>
      <trkpt lat="48.41385" lon="2.78703">
        <ele>43</ele>
        <time>2023-04-11T12:16:11.620Z</time>
      </trkpt>
      <trkpt lat="48.41384" lon="2.78701">
        <ele>43</ele>
        <time>2023-04-11T12:16:15.695Z</time>
      </trkpt>
      <trkpt lat="48.41388" lon="2.78688">
        <ele>43</ele>
        <time>2023-04-11T12:16:20.911Z</time>
      </trkpt>
      <trkpt lat="48.41389" lon="2.7868">
        <ele>44</ele>
        <time>2023-04-11T12:16:25.445Z</time>
      </trkpt>
      <trkpt lat="48.41392" lon="2.78672">
        <ele>44</ele>
        <time>2023-04-11T12:16:29.519Z</time>
      </trkpt>
      <trkpt lat="48.41394" lon="2.78664">
        <ele>44</ele>
        <time>2023-04-11T12:16:33.710Z</time>
      </trkpt>
      <trkpt lat="48.41397" lon="2.78654">
        <ele>44</ele>
        <time>2023-04-11T12:16:38.859Z</time>
      </trkpt>
      <trkpt lat="48.41399" lon="2.78646">
        <ele>45</ele>
        <time>2023-04-11T12:16:42.930Z</time>
      </trkpt>
      <trkpt lat="48.41402" lon="2.78638">
        <ele>45</ele>
        <time>2023-04-11T12:16:47.719Z</time>
      </trkpt>
      <trkpt lat="48.41405" lon="2.78632">
        <ele>45</ele>
        <time>2023-04-11T12:16:51.311Z</time>
      </trkpt>
      <trkpt lat="48.41408" lon="2.78626">
        <ele>45</ele>
        <time>2023-04-11T12:16:56.101Z</time>
      </trkpt>
      <trkpt lat="48.41409" lon="2.78618">
        <ele>45</ele>
        <time>2023-04-11T12:17:00.607Z</time>
      </trkpt>
      <trkpt lat="48.41406" lon="2.7861">
        <ele>45</ele>
        <time>2023-04-11T12:17:04.566Z</time>
      </trkpt>
      <trkpt lat="48.41405" lon="2.78603">
        <ele>45</ele>
        <time>2023-04-11T12:17:09.202Z</time>
      </trkpt>
      <trkpt lat="48.41406" lon="2.78595">
        <ele>44</ele>
        <time>2023-04-11T12:17:13.756Z</time>
      </trkpt>
      <trkpt lat="48.41408" lon="2.78588">
        <ele>44</ele>
        <time>2023-04-11T12:17:17.709Z</time>
      </trkpt>
      <trkpt lat="48.4141" lon="2.78581">
        <ele>44</ele>
        <time>2023-04-11T12:17:21.903Z</time>
      </trkpt>
      <trkpt lat="48.41412" lon="2.78573">
        <ele>44</ele>
        <time>2023-04-11T12:17:26.097Z</time>
      </trkpt>
      <trkpt lat="48.41412" lon="2.78564">
        <ele>43</ele>
        <time>2023-04-11T12:17:30.649Z</time>
      </trkpt>
      <trkpt lat="48.4141" lon="2.78556">
        <ele>43</ele>
        <time>2023-04-11T12:17:34.723Z</time>
      </trkpt>
      <trkpt lat="48.4141" lon="2.78547">
        <ele>43</ele>
        <time>2023-04-11T12:17:39.316Z</time>
      </trkpt>
      <trkpt lat="48.4141" lon="2.7854">
        <ele>44</ele>
        <time>2023-04-11T12:17:43.790Z</time>
      </trkpt>
      <trkpt lat="48.41411" lon="2.78531">
        <ele>44</ele>
        <time>2023-04-11T12:17:48.316Z</time>
      </trkpt>
      <trkpt lat="48.41413" lon="2.78522">
        <ele>44</ele>
        <time>2023-04-11T12:17:52.893Z</time>
      </trkpt>
      <trkpt lat="48.41413" lon="2.78515">
        <ele>44</ele>
        <time>2023-04-11T12:17:57.316Z</time>
      </trkpt>
      <trkpt lat="48.41415" lon="2.78505">
        <ele>47</ele>
        <time>2023-04-11T12:18:01.877Z</time>
      </trkpt>
      <trkpt lat="48.41418" lon="2.78499">
        <ele>47</ele>
        <time>2023-04-11T12:18:06.069Z</time>
      </trkpt>
      <trkpt lat="48.41418" lon="2.78488">
        <ele>47</ele>
        <time>2023-04-11T12:18:10.581Z</time>
      </trkpt>
      <trkpt lat="48.41415" lon="2.78484">
        <ele>47</ele>
        <time>2023-04-11T12:18:14.691Z</time>
      </trkpt>
      <trkpt lat="48.41411" lon="2.78485">
        <ele>47</ele>
        <time>2023-04-11T12:18:19.840Z</time>
      </trkpt>
      <trkpt lat="48.41408" lon="2.78483">
        <ele>47</ele>
        <time>2023-04-11T12:18:23.911Z</time>
      </trkpt>
      <trkpt lat="48.41408" lon="2.78479">
        <ele>47</ele>
        <time>2023-04-11T12:18:28.581Z</time>
      </trkpt>
      <trkpt lat="48.41406" lon="2.78473">
        <ele>47</ele>
        <time>2023-04-11T12:18:33.387Z</time>
      </trkpt>
      <trkpt lat="48.41405" lon="2.78465">
        <ele>47</ele>
        <time>2023-04-11T12:18:37.987Z</time>
      </trkpt>
      <trkpt lat="48.41405" lon="2.78456">
        <ele>47</ele>
        <time>2023-04-11T12:18:42.461Z</time>
      </trkpt>
      <trkpt lat="48.41406" lon="2.78447">
        <ele>47</ele>
        <time>2023-04-11T12:18:47.156Z</time>
      </trkpt>
      <trkpt lat="48.41407" lon="2.78438">
        <ele>47</ele>
        <time>2023-04-11T12:18:51.170Z</time>
      </trkpt>
      <trkpt lat="48.41407" lon="2.7843">
        <ele>46</ele>
        <time>2023-04-11T12:18:55.547Z</time>
      </trkpt>
      <trkpt lat="48.41409" lon="2.78423">
        <ele>46</ele>
        <time>2023-04-11T12:18:59.957Z</time>
      </trkpt>
      <trkpt lat="48.41411" lon="2.78415">
        <ele>46</ele>
        <time>2023-04-11T12:19:04.089Z</time>
      </trkpt>
      <trkpt lat="48.41413" lon="2.78405">
        <ele>46</ele>
        <time>2023-04-11T12:19:08.844Z</time>
      </trkpt>
      <trkpt lat="48.41414" lon="2.784">
        <ele>45</ele>
        <time>2023-04-11T12:19:12.834Z</time>
      </trkpt>
      <trkpt lat="48.41411" lon="2.78392">
        <ele>45</ele>
        <time>2023-04-11T12:19:16.788Z</time>
      </trkpt>
      <trkpt lat="48.41411" lon="2.7838">
        <ele>45</ele>
        <time>2023-04-11T12:19:21.302Z</time>
      </trkpt>
      <trkpt lat="48.41409" lon="2.78371">
        <ele>46</ele>
        <time>2023-04-11T12:19:25.292Z</time>
      </trkpt>
      <trkpt lat="48.41408" lon="2.78362">
        <ele>46</ele>
        <time>2023-04-11T12:19:29.724Z</time>
      </trkpt>
      <trkpt lat="48.41408" lon="2.78357">
        <ele>46</ele>
        <time>2023-04-11T12:19:33.662Z</time>
      </trkpt>
      <trkpt lat="48.41402" lon="2.78352">
        <ele>49</ele>
        <time>2023-04-11T12:19:38.316Z</time>
      </trkpt>
      <trkpt lat="48.414" lon="2.78346">
        <ele>48</ele>
        <time>2023-04-11T12:19:42.891Z</time>
      </trkpt>
      <trkpt lat="48.41398" lon="2.78336">
        <ele>48</ele>
        <time>2023-04-11T12:19:47.406Z</time>
      </trkpt>
      <trkpt lat="48.41396" lon="2.78328">
        <ele>48</ele>
        <time>2023-04-11T12:19:51.301Z</time>
      </trkpt>
      <trkpt lat="48.41394" lon="2.7832">
        <ele>48</ele>
        <time>2023-04-11T12:19:56.092Z</time>
      </trkpt>
      <trkpt lat="48.41394" lon="2.78311">
        <ele>48</ele>
        <time>2023-04-11T12:20:00.044Z</time>
      </trkpt>
      <trkpt lat="48.41392" lon="2.78304">
        <ele>48</ele>
        <time>2023-04-11T12:20:04.115Z</time>
      </trkpt>
      <trkpt lat="48.4139" lon="2.78297">
        <ele>48</ele>
        <time>2023-04-11T12:20:07.708Z</time>
      </trkpt>
      <trkpt lat="48.4139" lon="2.78292">
        <ele>48</ele>
        <time>2023-04-11T12:20:12.257Z</time>
      </trkpt>
      <trkpt lat="48.41391" lon="2.78288">
        <ele>48</ele>
        <time>2023-04-11T12:20:16.907Z</time>
      </trkpt>
      <trkpt lat="48.4139" lon="2.78282">
        <ele>48</ele>
        <time>2023-04-11T12:20:21.096Z</time>
      </trkpt>
      <trkpt lat="48.41388" lon="2.78273">
        <ele>48</ele>
        <time>2023-04-11T12:20:25.580Z</time>
      </trkpt>
      <trkpt lat="48.41387" lon="2.78266">
        <ele>48</ele>
        <time>2023-04-11T12:20:29.478Z</time>
      </trkpt>
      <trkpt lat="48.41384" lon="2.78257">
        <ele>49</ele>
        <time>2023-04-11T12:20:33.667Z</time>
      </trkpt>
      <trkpt lat="48.41381" lon="2.78249">
        <ele>49</ele>
        <time>2023-04-11T12:20:37.737Z</time>
      </trkpt>
      <trkpt lat="48.4138" lon="2.78239">
        <ele>49</ele>
        <time>2023-04-11T12:20:42.567Z</time>
      </trkpt>
      <trkpt lat="48.41379" lon="2.78232">
        <ele>48</ele>
        <time>2023-04-11T12:20:46.638Z</time>
      </trkpt>
      <trkpt lat="48.41377" lon="2.78223">
        <ele>48</ele>
        <time>2023-04-11T12:20:51.239Z</time>
      </trkpt>
      <trkpt lat="48.41376" lon="2.78213">
        <ele>48</ele>
        <time>2023-04-11T12:20:55.736Z</time>
      </trkpt>
      <trkpt lat="48.41375" lon="2.78205">
        <ele>47</ele>
        <time>2023-04-11T12:21:00.284Z</time>
      </trkpt>
      <trkpt lat="48.41373" lon="2.78198">
        <ele>48</ele>
        <time>2023-04-11T12:21:04.834Z</time>
      </trkpt>
      <trkpt lat="48.4137" lon="2.7819">
        <ele>48</ele>
        <time>2023-04-11T12:21:08.903Z</time>
      </trkpt>
      <trkpt lat="48.41367" lon="2.7818">
        <ele>46</ele>
        <time>2023-04-11T12:21:14.061Z</time>
      </trkpt>
      <trkpt lat="48.41366" lon="2.7818">
        <ele>46</ele>
        <time>2023-04-11T12:21:18.082Z</time>
      </trkpt>
      <trkpt lat="48.41362" lon="2.78173">
        <ele>46</ele>
        <time>2023-04-11T12:21:22.152Z</time>
      </trkpt>
      <trkpt lat="48.41361" lon="2.78162">
        <ele>46</ele>
        <time>2023-04-11T12:21:25.981Z</time>
      </trkpt>
      <trkpt lat="48.41361" lon="2.78154">
        <ele>46</ele>
        <time>2023-04-11T12:21:30.532Z</time>
      </trkpt>
      <trkpt lat="48.4136" lon="2.78148">
        <ele>44</ele>
        <time>2023-04-11T12:21:34.604Z</time>
      </trkpt>
      <trkpt lat="48.41356" lon="2.78139">
        <ele>44</ele>
        <time>2023-04-11T12:21:39.155Z</time>
      </trkpt>
      <trkpt lat="48.41354" lon="2.7813">
        <ele>44</ele>
        <time>2023-04-11T12:21:43.640Z</time>
      </trkpt>
      <trkpt lat="48.41348" lon="2.78124">
        <ele>42</ele>
        <time>2023-04-11T12:21:57.120Z</time>
      </trkpt>
      <trkpt lat="48.41347" lon="2.78125">
        <ele>42</ele>
        <time>2023-04-11T12:22:01.868Z</time>
      </trkpt>
      <trkpt lat="48.41345" lon="2.78122">
        <ele>44</ele>
        <time>2023-04-11T12:22:06.657Z</time>
      </trkpt>
      <trkpt lat="48.41344" lon="2.78118">
        <ele>44</ele>
        <time>2023-04-11T12:22:11.160Z</time>
      </trkpt>
      <trkpt lat="48.41342" lon="2.78113">
        <ele>44</ele>
        <time>2023-04-11T12:22:15.158Z</time>
      </trkpt>
      <trkpt lat="48.41339" lon="2.78106">
        <ele>44</ele>
        <time>2023-04-11T12:22:19.887Z</time>
      </trkpt>
      <trkpt lat="48.41338" lon="2.78103">
        <ele>44</ele>
        <time>2023-04-11T12:22:24.077Z</time>
      </trkpt>
      <trkpt lat="48.41335" lon="2.78098">
        <ele>44</ele>
        <time>2023-04-11T12:22:29.168Z</time>
      </trkpt>
      <trkpt lat="48.41333" lon="2.78091">
        <ele>44</ele>
        <time>2023-04-11T12:22:33.847Z</time>
      </trkpt>
      <trkpt lat="48.41332" lon="2.78085">
        <ele>44</ele>
        <time>2023-04-11T12:22:37.825Z</time>
      </trkpt>
      <trkpt lat="48.41332" lon="2.78078">
        <ele>44</ele>
        <time>2023-04-11T12:22:41.895Z</time>
      </trkpt>
      <trkpt lat="48.41332" lon="2.78069">
        <ele>44</ele>
        <time>2023-04-11T12:22:46.684Z</time>
      </trkpt>
      <trkpt lat="48.41333" lon="2.78061">
        <ele>44</ele>
        <time>2023-04-11T12:22:51.472Z</time>
      </trkpt>
      <trkpt lat="48.41331" lon="2.78057">
        <ele>44</ele>
        <time>2023-04-11T12:22:55.661Z</time>
      </trkpt>
      <trkpt lat="48.4133" lon="2.78051">
        <ele>44</ele>
        <time>2023-04-11T12:23:00.316Z</time>
      </trkpt>
      <trkpt lat="48.41327" lon="2.78042">
        <ele>44</ele>
        <time>2023-04-11T12:23:05.115Z</time>
      </trkpt>
      <trkpt lat="48.4132" lon="2.78034">
        <ele>44</ele>
        <time>2023-04-11T12:23:09.664Z</time>
      </trkpt>
      <trkpt lat="48.41317" lon="2.78026">
        <ele>47</ele>
        <time>2023-04-11T12:23:13.734Z</time>
      </trkpt>
      <trkpt lat="48.41315" lon="2.78018">
        <ele>47</ele>
        <time>2023-04-11T12:23:17.925Z</time>
      </trkpt>
      <trkpt lat="48.41315" lon="2.78007">
        <ele>47</ele>
        <time>2023-04-11T12:23:22.115Z</time>
      </trkpt>
      <trkpt lat="48.41311" lon="2.77999">
        <ele>47</ele>
        <time>2023-04-11T12:23:26.638Z</time>
      </trkpt>
      <trkpt lat="48.41309" lon="2.77991">
        <ele>47</ele>
        <time>2023-04-11T12:23:30.699Z</time>
      </trkpt>
      <trkpt lat="48.41308" lon="2.77983">
        <ele>45</ele>
        <time>2023-04-11T12:23:34.733Z</time>
      </trkpt>
      <trkpt lat="48.41307" lon="2.77975">
        <ele>45</ele>
        <time>2023-04-11T12:23:38.747Z</time>
      </trkpt>
      <trkpt lat="48.41307" lon="2.77967">
        <ele>45</ele>
        <time>2023-04-11T12:23:43.300Z</time>
      </trkpt>
      <trkpt lat="48.41307" lon="2.77959">
        <ele>45</ele>
        <time>2023-04-11T12:23:48.090Z</time>
      </trkpt>
      <trkpt lat="48.41306" lon="2.77952">
        <ele>43</ele>
        <time>2023-04-11T12:23:52.483Z</time>
      </trkpt>
      <trkpt lat="48.41305" lon="2.77945">
        <ele>43</ele>
        <time>2023-04-11T12:23:56.468Z</time>
      </trkpt>
      <trkpt lat="48.41303" lon="2.77937">
        <ele>43</ele>
        <time>2023-04-11T12:24:00.662Z</time>
      </trkpt>
      <trkpt lat="48.413" lon="2.77928">
        <ele>43</ele>
        <time>2023-04-11T12:24:04.731Z</time>
      </trkpt>
      <trkpt lat="48.41299" lon="2.77919">
        <ele>43</ele>
        <time>2023-04-11T12:24:09.225Z</time>
      </trkpt>
      <trkpt lat="48.41297" lon="2.77909">
        <ele>43</ele>
        <time>2023-04-11T12:24:13.534Z</time>
      </trkpt>
      <trkpt lat="48.41294" lon="2.779">
        <ele>44</ele>
        <time>2023-04-11T12:24:17.846Z</time>
      </trkpt>
      <trkpt lat="48.41293" lon="2.77892">
        <ele>44</ele>
        <time>2023-04-11T12:24:21.678Z</time>
      </trkpt>
      <trkpt lat="48.41292" lon="2.77884">
        <ele>44</ele>
        <time>2023-04-11T12:24:25.869Z</time>
      </trkpt>
      <trkpt lat="48.4129" lon="2.77876">
        <ele>45</ele>
        <time>2023-04-11T12:24:30.539Z</time>
      </trkpt>
      <trkpt lat="48.41288" lon="2.77868">
        <ele>45</ele>
        <time>2023-04-11T12:24:34.491Z</time>
      </trkpt>
      <trkpt lat="48.41285" lon="2.77861">
        <ele>45</ele>
        <time>2023-04-11T12:24:38.683Z</time>
      </trkpt>
      <trkpt lat="48.41284" lon="2.77854">
        <ele>45</ele>
        <time>2023-04-11T12:24:42.755Z</time>
      </trkpt>
      <trkpt lat="48.41281" lon="2.77845">
        <ele>45</ele>
        <time>2023-04-11T12:24:47.248Z</time>
      </trkpt>
      <trkpt lat="48.41278" lon="2.77838">
        <ele>45</ele>
        <time>2023-04-11T12:24:51.316Z</time>
      </trkpt>
      <trkpt lat="48.41276" lon="2.7783">
        <ele>45</ele>
        <time>2023-04-11T12:24:55.255Z</time>
      </trkpt>
      <trkpt lat="48.41274" lon="2.77822">
        <ele>45</ele>
        <time>2023-04-11T12:24:59.742Z</time>
      </trkpt>
      <trkpt lat="48.41271" lon="2.77814">
        <ele>46</ele>
        <time>2023-04-11T12:25:03.760Z</time>
      </trkpt>
      <trkpt lat="48.41269" lon="2.77806">
        <ele>46</ele>
        <time>2023-04-11T12:25:07.714Z</time>
      </trkpt>
      <trkpt lat="48.41266" lon="2.77799">
        <ele>46</ele>
        <time>2023-04-11T12:25:12.266Z</time>
      </trkpt>
      <trkpt lat="48.41264" lon="2.7779">
        <ele>45</ele>
        <time>2023-04-11T12:25:16.701Z</time>
      </trkpt>
      <trkpt lat="48.41263" lon="2.77783">
        <ele>45</ele>
        <time>2023-04-11T12:25:20.855Z</time>
      </trkpt>
      <trkpt lat="48.4126" lon="2.77778">
        <ele>45</ele>
        <time>2023-04-11T12:25:24.928Z</time>
      </trkpt>
      <trkpt lat="48.41258" lon="2.77774">
        <ele>45</ele>
        <time>2023-04-11T12:25:29.720Z</time>
      </trkpt>
      <trkpt lat="48.41253" lon="2.77768">
        <ele>45</ele>
        <time>2023-04-11T12:25:34.154Z</time>
      </trkpt>
      <trkpt lat="48.41249" lon="2.77759">
        <ele>46</ele>
        <time>2023-04-11T12:25:38.528Z</time>
      </trkpt>
      <trkpt lat="48.41246" lon="2.77751">
        <ele>46</ele>
        <time>2023-04-11T12:25:43.183Z</time>
      </trkpt>
      <trkpt lat="48.41243" lon="2.77744">
        <ele>46</ele>
        <time>2023-04-11T12:25:47.477Z</time>
      </trkpt>
      <trkpt lat="48.41241" lon="2.77735">
        <ele>47</ele>
        <time>2023-04-11T12:25:51.624Z</time>
      </trkpt>
      <trkpt lat="48.41239" lon="2.77727">
        <ele>47</ele>
        <time>2023-04-11T12:25:55.429Z</time>
      </trkpt>
      <trkpt lat="48.41237" lon="2.77718">
        <ele>47</ele>
        <time>2023-04-11T12:26:00.103Z</time>
      </trkpt>
      <trkpt lat="48.41234" lon="2.7771">
        <ele>49</ele>
        <time>2023-04-11T12:26:04.539Z</time>
      </trkpt>
      <trkpt lat="48.41231" lon="2.77702">
        <ele>50</ele>
        <time>2023-04-11T12:26:09.225Z</time>
      </trkpt>
      <trkpt lat="48.41228" lon="2.77694">
        <ele>50</ele>
        <time>2023-04-11T12:26:13.487Z</time>
      </trkpt>
      <trkpt lat="48.41226" lon="2.77686">
        <ele>50</ele>
        <time>2023-04-11T12:26:17.860Z</time>
      </trkpt>
      <trkpt lat="48.41225" lon="2.77679">
        <ele>49</ele>
        <time>2023-04-11T12:26:22.167Z</time>
      </trkpt>
      <trkpt lat="48.41225" lon="2.77672">
        <ele>49</ele>
        <time>2023-04-11T12:26:26.522Z</time>
      </trkpt>
      <trkpt lat="48.41224" lon="2.77664">
        <ele>49</ele>
        <time>2023-04-11T12:26:31.083Z</time>
      </trkpt>
      <trkpt lat="48.41223" lon="2.77657">
        <ele>49</ele>
        <time>2023-04-11T12:26:35.276Z</time>
      </trkpt>
      <trkpt lat="48.41222" lon="2.7765">
        <ele>49</ele>
        <time>2023-04-11T12:26:39.470Z</time>
      </trkpt>
      <trkpt lat="48.4122" lon="2.77643">
        <ele>49</ele>
        <time>2023-04-11T12:26:44.022Z</time>
      </trkpt>
      <trkpt lat="48.41219" lon="2.77634">
        <ele>49</ele>
        <time>2023-04-11T12:26:48.608Z</time>
      </trkpt>
      <trkpt lat="48.41219" lon="2.77625">
        <ele>48</ele>
        <time>2023-04-11T12:26:52.529Z</time>
      </trkpt>
      <trkpt lat="48.41215" lon="2.77615">
        <ele>48</ele>
        <time>2023-04-11T12:26:56.692Z</time>
      </trkpt>
      <trkpt lat="48.41212" lon="2.77608">
        <ele>48</ele>
        <time>2023-04-11T12:27:01.202Z</time>
      </trkpt>
      <trkpt lat="48.4121" lon="2.77598">
        <ele>48</ele>
        <time>2023-04-11T12:27:05.709Z</time>
      </trkpt>
      <trkpt lat="48.41207" lon="2.77589">
        <ele>49</ele>
        <time>2023-04-11T12:27:09.817Z</time>
      </trkpt>
      <trkpt lat="48.41204" lon="2.77578">
        <ele>49</ele>
        <time>2023-04-11T12:28:45.157Z</time>
      </trkpt>
      <trkpt lat="48.41204" lon="2.77576">
        <ele>49</ele>
        <time>2023-04-11T12:28:50.183Z</time>
      </trkpt>
      <trkpt lat="48.41203" lon="2.77574">
        <ele>49</ele>
        <time>2023-04-11T12:28:54.257Z</time>
      </trkpt>
      <trkpt lat="48.41202" lon="2.77561">
        <ele>47</ele>
        <time>2023-04-11T12:28:58.316Z</time>
      </trkpt>
      <trkpt lat="48.41198" lon="2.77553">
        <ele>47</ele>
        <time>2023-04-11T12:29:02.762Z</time>
      </trkpt>
      <trkpt lat="48.41199" lon="2.77544">
        <ele>47</ele>
        <time>2023-04-11T12:29:07.316Z</time>
      </trkpt>
      <trkpt lat="48.41198" lon="2.77536">
        <ele>46</ele>
        <time>2023-04-11T12:29:11.316Z</time>
      </trkpt>
      <trkpt lat="48.41195" lon="2.77532">
        <ele>46</ele>
        <time>2023-04-11T12:29:16.063Z</time>
      </trkpt>
      <trkpt lat="48.41191" lon="2.77534">
        <ele>46</ele>
        <time>2023-04-11T12:29:20.257Z</time>
      </trkpt>
      <trkpt lat="48.41186" lon="2.77536">
        <ele>46</ele>
        <time>2023-04-11T12:29:24.316Z</time>
      </trkpt>
      <trkpt lat="48.4118" lon="2.77535">
        <ele>47</ele>
        <time>2023-04-11T12:29:28.826Z</time>
      </trkpt>
      <trkpt lat="48.41175" lon="2.77535">
        <ele>47</ele>
        <time>2023-04-11T12:29:32.901Z</time>
      </trkpt>
      <trkpt lat="48.41173" lon="2.77534">
        <ele>47</ele>
        <time>2023-04-11T12:29:37.096Z</time>
      </trkpt>
      <trkpt lat="48.41173" lon="2.77533">
        <ele>47</ele>
        <time>2023-04-11T12:29:41.729Z</time>
      </trkpt>
      <trkpt lat="48.41169" lon="2.77527">
        <ele>47</ele>
        <time>2023-04-11T12:29:46.519Z</time>
      </trkpt>
      <trkpt lat="48.41168" lon="2.77519">
        <ele>47</ele>
        <time>2023-04-11T12:29:50.714Z</time>
      </trkpt>
      <trkpt lat="48.41169" lon="2.77509">
        <ele>47</ele>
        <time>2023-04-11T12:29:55.505Z</time>
      </trkpt>
      <trkpt lat="48.41169" lon="2.77502">
        <ele>47</ele>
        <time>2023-04-11T12:29:59.696Z</time>
      </trkpt>
      <trkpt lat="48.41168" lon="2.77494">
        <ele>47</ele>
        <time>2023-04-11T12:30:03.768Z</time>
      </trkpt>
      <trkpt lat="48.41165" lon="2.77487">
        <ele>47</ele>
        <time>2023-04-11T12:30:08.316Z</time>
      </trkpt>
      <trkpt lat="48.41166" lon="2.77478">
        <ele>48</ele>
        <time>2023-04-11T12:30:12.274Z</time>
      </trkpt>
      <trkpt lat="48.41165" lon="2.7747">
        <ele>48</ele>
        <time>2023-04-11T12:30:16.227Z</time>
      </trkpt>
      <trkpt lat="48.41165" lon="2.77462">
        <ele>48</ele>
        <time>2023-04-11T12:30:20.822Z</time>
      </trkpt>
      <trkpt lat="48.41162" lon="2.77454">
        <ele>49</ele>
        <time>2023-04-11T12:30:24.693Z</time>
      </trkpt>
      <trkpt lat="48.41161" lon="2.77446">
        <ele>49</ele>
        <time>2023-04-11T12:30:29.126Z</time>
      </trkpt>
      <trkpt lat="48.41158" lon="2.77435">
        <ele>49</ele>
        <time>2023-04-11T12:30:33.694Z</time>
      </trkpt>
      <trkpt lat="48.41156" lon="2.77428">
        <ele>48</ele>
        <time>2023-04-11T12:30:37.647Z</time>
      </trkpt>
      <trkpt lat="48.41157" lon="2.77417">
        <ele>48</ele>
        <time>2023-04-11T12:30:41.599Z</time>
      </trkpt>
      <trkpt lat="48.41156" lon="2.77408">
        <ele>48</ele>
        <time>2023-04-11T12:30:45.670Z</time>
      </trkpt>
      <trkpt lat="48.41155" lon="2.77399">
        <ele>47</ele>
        <time>2023-04-11T12:30:50.101Z</time>
      </trkpt>
      <trkpt lat="48.41155" lon="2.77391">
        <ele>47</ele>
        <time>2023-04-11T12:30:54.294Z</time>
      </trkpt>
      <trkpt lat="48.41155" lon="2.77383">
        <ele>47</ele>
        <time>2023-04-11T12:30:58.490Z</time>
      </trkpt>
      <trkpt lat="48.41151" lon="2.77373">
        <ele>49</ele>
        <time>2023-04-11T12:31:03.042Z</time>
      </trkpt>
      <trkpt lat="48.41152" lon="2.77364">
        <ele>49</ele>
        <time>2023-04-11T12:31:07.727Z</time>
      </trkpt>
      <trkpt lat="48.41152" lon="2.77355">
        <ele>49</ele>
        <time>2023-04-11T12:31:11.887Z</time>
      </trkpt>
      <trkpt lat="48.41151" lon="2.77346">
        <ele>50</ele>
        <time>2023-04-11T12:31:16.299Z</time>
      </trkpt>
      <trkpt lat="48.41149" lon="2.77337">
        <ele>50</ele>
        <time>2023-04-11T12:31:20.584Z</time>
      </trkpt>
      <trkpt lat="48.41148" lon="2.77328">
        <ele>50</ele>
        <time>2023-04-11T12:31:25.065Z</time>
      </trkpt>
      <trkpt lat="48.41147" lon="2.77321">
        <ele>50</ele>
        <time>2023-04-11T12:31:29.264Z</time>
      </trkpt>
      <trkpt lat="48.41145" lon="2.77313">
        <ele>51</ele>
        <time>2023-04-11T12:31:33.316Z</time>
      </trkpt>
      <trkpt lat="48.4114" lon="2.77306">
        <ele>51</ele>
        <time>2023-04-11T12:31:37.887Z</time>
      </trkpt>
      <trkpt lat="48.41137" lon="2.77299">
        <ele>51</ele>
        <time>2023-04-11T12:31:42.266Z</time>
      </trkpt>
      <trkpt lat="48.41135" lon="2.7729">
        <ele>49</ele>
        <time>2023-04-11T12:31:46.756Z</time>
      </trkpt>
      <trkpt lat="48.41135" lon="2.77281">
        <ele>49</ele>
        <time>2023-04-11T12:31:50.669Z</time>
      </trkpt>
      <trkpt lat="48.41135" lon="2.77271">
        <ele>49</ele>
        <time>2023-04-11T12:31:55.301Z</time>
      </trkpt>
      <trkpt lat="48.41136" lon="2.77261">
        <ele>46</ele>
        <time>2023-04-11T12:31:59.947Z</time>
      </trkpt>
      <trkpt lat="48.41135" lon="2.77254">
        <ele>46</ele>
        <time>2023-04-11T12:32:04.109Z</time>
      </trkpt>
      <trkpt lat="48.41134" lon="2.77247">
        <ele>46</ele>
        <time>2023-04-11T12:32:08.384Z</time>
      </trkpt>
      <trkpt lat="48.41133" lon="2.7724">
        <ele>46</ele>
        <time>2023-04-11T12:32:12.495Z</time>
      </trkpt>
      <trkpt lat="48.41131" lon="2.7723">
        <ele>44</ele>
        <time>2023-04-11T12:32:16.686Z</time>
      </trkpt>
      <trkpt lat="48.41129" lon="2.77219">
        <ele>44</ele>
        <time>2023-04-11T12:32:20.877Z</time>
      </trkpt>
      <trkpt lat="48.41128" lon="2.77209">
        <ele>44</ele>
        <time>2023-04-11T12:32:25.059Z</time>
      </trkpt>
      <trkpt lat="48.41125" lon="2.772">
        <ele>44</ele>
        <time>2023-04-11T12:32:30.069Z</time>
      </trkpt>
      <trkpt lat="48.41125" lon="2.77191">
        <ele>48</ele>
        <time>2023-04-11T12:32:34.072Z</time>
      </trkpt>
      <trkpt lat="48.41124" lon="2.7718">
        <ele>49</ele>
        <time>2023-04-11T12:32:38.684Z</time>
      </trkpt>
      <trkpt lat="48.41123" lon="2.7717">
        <ele>49</ele>
        <time>2023-04-11T12:32:42.808Z</time>
      </trkpt>
      <trkpt lat="48.41121" lon="2.7716">
        <ele>49</ele>
        <time>2023-04-11T12:32:46.846Z</time>
      </trkpt>
      <trkpt lat="48.41121" lon="2.77151">
        <ele>49</ele>
        <time>2023-04-11T12:32:51.024Z</time>
      </trkpt>
      <trkpt lat="48.41122" lon="2.77143">
        <ele>49</ele>
        <time>2023-04-11T12:32:54.883Z</time>
      </trkpt>
      <trkpt lat="48.41121" lon="2.77134">
        <ele>49</ele>
        <time>2023-04-11T12:32:59.282Z</time>
      </trkpt>
      <trkpt lat="48.41121" lon="2.77126">
        <ele>49</ele>
        <time>2023-04-11T12:33:03.599Z</time>
      </trkpt>
      <trkpt lat="48.41121" lon="2.77116">
        <ele>47</ele>
        <time>2023-04-11T12:33:08.155Z</time>
      </trkpt>
      <trkpt lat="48.4112" lon="2.77107">
        <ele>47</ele>
        <time>2023-04-11T12:33:12.590Z</time>
      </trkpt>
      <trkpt lat="48.41119" lon="2.77097">
        <ele>46</ele>
        <time>2023-04-11T12:33:17.166Z</time>
      </trkpt>
      <trkpt lat="48.41117" lon="2.77089">
        <ele>46</ele>
        <time>2023-04-11T12:33:20.940Z</time>
      </trkpt>
      <trkpt lat="48.41115" lon="2.77081">
        <ele>46</ele>
        <time>2023-04-11T12:33:25.133Z</time>
      </trkpt>
      <trkpt lat="48.41114" lon="2.77073">
        <ele>46</ele>
        <time>2023-04-11T12:33:29.316Z</time>
      </trkpt>
      <trkpt lat="48.41114" lon="2.77062">
        <ele>46</ele>
        <time>2023-04-11T12:33:33.997Z</time>
      </trkpt>
      <trkpt lat="48.41114" lon="2.7706">
        <ele>46</ele>
        <time>2023-04-11T12:33:38.102Z</time>
      </trkpt>
      <trkpt lat="48.41114" lon="2.77058">
        <ele>46</ele>
        <time>2023-04-11T12:33:42.128Z</time>
      </trkpt>
      <trkpt lat="48.41111" lon="2.77049">
        <ele>46</ele>
        <time>2023-04-11T12:33:46.227Z</time>
      </trkpt>
      <trkpt lat="48.41109" lon="2.77039">
        <ele>46</ele>
        <time>2023-04-11T12:33:50.232Z</time>
      </trkpt>
      <trkpt lat="48.41106" lon="2.77028">
        <ele>46</ele>
        <time>2023-04-11T12:33:54.730Z</time>
      </trkpt>
      <trkpt lat="48.41105" lon="2.77018">
        <ele>46</ele>
        <time>2023-04-11T12:33:58.748Z</time>
      </trkpt>
      <trkpt lat="48.41105" lon="2.77005">
        <ele>46</ele>
        <time>2023-04-11T12:34:03.166Z</time>
      </trkpt>
      <trkpt lat="48.41104" lon="2.76995">
        <ele>46</ele>
        <time>2023-04-11T12:34:07.743Z</time>
      </trkpt>
      <trkpt lat="48.41105" lon="2.76986">
        <ele>46</ele>
        <time>2023-04-11T12:34:11.503Z</time>
      </trkpt>
      <trkpt lat="48.41104" lon="2.76978">
        <ele>44</ele>
        <time>2023-04-11T12:34:16.167Z</time>
      </trkpt>
      <trkpt lat="48.41103" lon="2.76971">
        <ele>44</ele>
        <time>2023-04-11T12:34:20.102Z</time>
      </trkpt>
      <trkpt lat="48.41103" lon="2.76962">
        <ele>44</ele>
        <time>2023-04-11T12:34:25.162Z</time>
      </trkpt>
      <trkpt lat="48.411" lon="2.76952">
        <ele>44</ele>
        <time>2023-04-11T12:34:29.625Z</time>
      </trkpt>
      <trkpt lat="48.41099" lon="2.76942">
        <ele>44</ele>
        <time>2023-04-11T12:34:34.070Z</time>
      </trkpt>
      <trkpt lat="48.41097" lon="2.7693">
        <ele>46</ele>
        <time>2023-04-11T12:34:38.728Z</time>
      </trkpt>
      <trkpt lat="48.41095" lon="2.76921">
        <ele>46</ele>
        <time>2023-04-11T12:34:42.924Z</time>
      </trkpt>
      <trkpt lat="48.41093" lon="2.76913">
        <ele>46</ele>
        <time>2023-04-11T12:34:46.802Z</time>
      </trkpt>
      <trkpt lat="48.41092" lon="2.76904">
        <ele>46</ele>
        <time>2023-04-11T12:34:51.478Z</time>
      </trkpt>
      <trkpt lat="48.41091" lon="2.76897">
        <ele>45</ele>
        <time>2023-04-11T12:34:55.912Z</time>
      </trkpt>
      <trkpt lat="48.41089" lon="2.7689">
        <ele>45</ele>
        <time>2023-04-11T12:34:59.865Z</time>
      </trkpt>
      <trkpt lat="48.41085" lon="2.76882">
        <ele>45</ele>
        <time>2023-04-11T12:35:03.921Z</time>
      </trkpt>
      <trkpt lat="48.41081" lon="2.76876">
        <ele>45</ele>
        <time>2023-04-11T12:35:08.114Z</time>
      </trkpt>
      <trkpt lat="48.41075" lon="2.76874">
        <ele>45</ele>
        <time>2023-04-11T12:35:12.069Z</time>
      </trkpt>
      <trkpt lat="48.4107" lon="2.76871">
        <ele>45</ele>
        <time>2023-04-11T12:35:16.577Z</time>
      </trkpt>
      <trkpt lat="48.41065" lon="2.76869">
        <ele>49</ele>
        <time>2023-04-11T12:35:20.588Z</time>
      </trkpt>
      <trkpt lat="48.41059" lon="2.76866">
        <ele>49</ele>
        <time>2023-04-11T12:35:25.180Z</time>
      </trkpt>
      <trkpt lat="48.41053" lon="2.76865">
        <ele>49</ele>
        <time>2023-04-11T12:35:29.707Z</time>
      </trkpt>
      <trkpt lat="48.41049" lon="2.76861">
        <ele>49</ele>
        <time>2023-04-11T12:35:33.865Z</time>
      </trkpt>
      <trkpt lat="48.41042" lon="2.76862">
        <ele>53</ele>
        <time>2023-04-11T12:35:39.147Z</time>
      </trkpt>
      <trkpt lat="48.41037" lon="2.76863">
        <ele>53</ele>
        <time>2023-04-11T12:35:42.844Z</time>
      </trkpt>
      <trkpt lat="48.41032" lon="2.76861">
        <ele>53</ele>
        <time>2023-04-11T12:35:46.764Z</time>
      </trkpt>
      <trkpt lat="48.41026" lon="2.76859">
        <ele>53</ele>
        <time>2023-04-11T12:35:51.203Z</time>
      </trkpt>
      <trkpt lat="48.41021" lon="2.76854">
        <ele>53</ele>
        <time>2023-04-11T12:35:55.700Z</time>
      </trkpt>
      <trkpt lat="48.41016" lon="2.7685">
        <ele>53</ele>
        <time>2023-04-11T12:35:59.775Z</time>
      </trkpt>
      <trkpt lat="48.4101" lon="2.76849">
        <ele>56</ele>
        <time>2023-04-11T12:36:03.731Z</time>
      </trkpt>
      <trkpt lat="48.41002" lon="2.76848">
        <ele>56</ele>
        <time>2023-04-11T12:36:08.645Z</time>
      </trkpt>
      <trkpt lat="48.40996" lon="2.76849">
        <ele>56</ele>
        <time>2023-04-11T12:36:13.316Z</time>
      </trkpt>
      <trkpt lat="48.4099" lon="2.76848">
        <ele>56</ele>
        <time>2023-04-11T12:36:17.316Z</time>
      </trkpt>
      <trkpt lat="48.40984" lon="2.76846">
        <ele>63</ele>
        <time>2023-04-11T12:36:21.789Z</time>
      </trkpt>
      <trkpt lat="48.40978" lon="2.76846">
        <ele>63</ele>
        <time>2023-04-11T12:36:26.709Z</time>
      </trkpt>
      <trkpt lat="48.40972" lon="2.76846">
        <ele>63</ele>
        <time>2023-04-11T12:36:31.201Z</time>
      </trkpt>
      <trkpt lat="48.40968" lon="2.76841">
        <ele>63</ele>
        <time>2023-04-11T12:36:35.257Z</time>
      </trkpt>
      <trkpt lat="48.40964" lon="2.76835">
        <ele>63</ele>
        <time>2023-04-11T12:36:39.893Z</time>
      </trkpt>
      <trkpt lat="48.40962" lon="2.76828">
        <ele>63</ele>
        <time>2023-04-11T12:36:44.087Z</time>
      </trkpt>
      <trkpt lat="48.40958" lon="2.76821">
        <ele>72</ele>
        <time>2023-04-11T12:36:48.720Z</time>
      </trkpt>
      <trkpt lat="48.40954" lon="2.76813">
        <ele>74</ele>
        <time>2023-04-11T12:36:53.785Z</time>
      </trkpt>
      <trkpt lat="48.40951" lon="2.76806">
        <ele>74</ele>
        <time>2023-04-11T12:36:57.788Z</time>
      </trkpt>
      <trkpt lat="48.40947" lon="2.76799">
        <ele>74</ele>
        <time>2023-04-11T12:37:02.169Z</time>
      </trkpt>
      <trkpt lat="48.40943" lon="2.76792">
        <ele>74</ele>
        <time>2023-04-11T12:37:06.717Z</time>
      </trkpt>
      <trkpt lat="48.4094" lon="2.76785">
        <ele>77</ele>
        <time>2023-04-11T12:37:10.672Z</time>
      </trkpt>
      <trkpt lat="48.40937" lon="2.7678">
        <ele>77</ele>
        <time>2023-04-11T12:37:14.748Z</time>
      </trkpt>
      <trkpt lat="48.40932" lon="2.76776">
        <ele>77</ele>
        <time>2023-04-11T12:37:19.841Z</time>
      </trkpt>
      <trkpt lat="48.40926" lon="2.76771">
        <ele>83</ele>
        <time>2023-04-11T12:37:23.775Z</time>
      </trkpt>
      <trkpt lat="48.40921" lon="2.76767">
        <ele>83</ele>
        <time>2023-04-11T12:37:28.316Z</time>
      </trkpt>
      <trkpt lat="48.40916" lon="2.76762">
        <ele>86</ele>
        <time>2023-04-11T12:37:33.042Z</time>
      </trkpt>
      <trkpt lat="48.40911" lon="2.76757">
        <ele>86</ele>
        <time>2023-04-11T12:37:36.934Z</time>
      </trkpt>
      <trkpt lat="48.40905" lon="2.76753">
        <ele>86</ele>
        <time>2023-04-11T12:37:41.383Z</time>
      </trkpt>
      <trkpt lat="48.409" lon="2.76748">
        <ele>89</ele>
        <time>2023-04-11T12:37:45.916Z</time>
      </trkpt>
      <trkpt lat="48.40895" lon="2.76744">
        <ele>89</ele>
        <time>2023-04-11T12:37:51.067Z</time>
      </trkpt>
      <trkpt lat="48.40891" lon="2.76739">
        <ele>89</ele>
        <time>2023-04-11T12:37:55.018Z</time>
      </trkpt>
      <trkpt lat="48.40888" lon="2.76733">
        <ele>89</ele>
        <time>2023-04-11T12:37:59.403Z</time>
      </trkpt>
      <trkpt lat="48.40884" lon="2.76729">
        <ele>89</ele>
        <time>2023-04-11T12:38:04.123Z</time>
      </trkpt>
      <trkpt lat="48.40877" lon="2.76726">
        <ele>89</ele>
        <time>2023-04-11T12:38:08.669Z</time>
      </trkpt>
      <trkpt lat="48.40871" lon="2.76722">
        <ele>88</ele>
        <time>2023-04-11T12:38:13.457Z</time>
      </trkpt>
      <trkpt lat="48.40865" lon="2.76718">
        <ele>88</ele>
        <time>2023-04-11T12:38:17.968Z</time>
      </trkpt>
      <trkpt lat="48.40861" lon="2.76715">
        <ele>88</ele>
        <time>2023-04-11T12:38:22.399Z</time>
      </trkpt>
      <trkpt lat="48.40856" lon="2.7671">
        <ele>88</ele>
        <time>2023-04-11T12:38:27.070Z</time>
      </trkpt>
      <trkpt lat="48.40849" lon="2.76706">
        <ele>87</ele>
        <time>2023-04-11T12:38:31.263Z</time>
      </trkpt>
      <trkpt lat="48.40844" lon="2.767">
        <ele>90</ele>
        <time>2023-04-11T12:38:35.934Z</time>
      </trkpt>
      <trkpt lat="48.40839" lon="2.76697">
        <ele>90</ele>
        <time>2023-04-11T12:38:40.127Z</time>
      </trkpt>
      <trkpt lat="48.40834" lon="2.76693">
        <ele>90</ele>
        <time>2023-04-11T12:38:44.316Z</time>
      </trkpt>
      <trkpt lat="48.4083" lon="2.7669">
        <ele>90</ele>
        <time>2023-04-11T12:38:48.866Z</time>
      </trkpt>
      <trkpt lat="48.40824" lon="2.76687">
        <ele>90</ele>
        <time>2023-04-11T12:38:53.416Z</time>
      </trkpt>
      <trkpt lat="48.40819" lon="2.76683">
        <ele>97</ele>
        <time>2023-04-11T12:38:57.487Z</time>
      </trkpt>
      <trkpt lat="48.40814" lon="2.76678">
        <ele>96</ele>
        <time>2023-04-11T12:39:01.677Z</time>
      </trkpt>
      <trkpt lat="48.4081" lon="2.76675">
        <ele>96</ele>
        <time>2023-04-11T12:39:05.868Z</time>
      </trkpt>
      <trkpt lat="48.40805" lon="2.76674">
        <ele>96</ele>
        <time>2023-04-11T12:39:10.058Z</time>
      </trkpt>
      <trkpt lat="48.40799" lon="2.76668">
        <ele>96</ele>
        <time>2023-04-11T12:39:14.490Z</time>
      </trkpt>
      <trkpt lat="48.40793" lon="2.76664">
        <ele>96</ele>
        <time>2023-04-11T12:39:19.143Z</time>
      </trkpt>
      <trkpt lat="48.40789" lon="2.7666">
        <ele>101</ele>
        <time>2023-04-11T12:39:23.109Z</time>
      </trkpt>
      <trkpt lat="48.40784" lon="2.76657">
        <ele>101</ele>
        <time>2023-04-11T12:39:27.299Z</time>
      </trkpt>
      <trkpt lat="48.40779" lon="2.76652">
        <ele>100</ele>
        <time>2023-04-11T12:39:32.099Z</time>
      </trkpt>
      <trkpt lat="48.40773" lon="2.76646">
        <ele>100</ele>
        <time>2023-04-11T12:39:36.441Z</time>
      </trkpt>
      <trkpt lat="48.40768" lon="2.7664">
        <ele>100</ele>
        <time>2023-04-11T12:39:40.469Z</time>
      </trkpt>
      <trkpt lat="48.40763" lon="2.76635">
        <ele>105</ele>
        <time>2023-04-11T12:39:44.422Z</time>
      </trkpt>
      <trkpt lat="48.40757" lon="2.7663">
        <ele>105</ele>
        <time>2023-04-11T12:39:49.046Z</time>
      </trkpt>
      <trkpt lat="48.40752" lon="2.76627">
        <ele>105</ele>
        <time>2023-04-11T12:39:52.925Z</time>
      </trkpt>
      <trkpt lat="48.40746" lon="2.7662">
        <ele>105</ele>
        <time>2023-04-11T12:39:57.674Z</time>
      </trkpt>
      <trkpt lat="48.4074" lon="2.76617">
        <ele>105</ele>
        <time>2023-04-11T12:40:02.866Z</time>
      </trkpt>
      <trkpt lat="48.40735" lon="2.76615">
        <ele>107</ele>
        <time>2023-04-11T12:40:07.060Z</time>
      </trkpt>
      <trkpt lat="48.40729" lon="2.7661">
        <ele>107</ele>
        <time>2023-04-11T12:40:11.713Z</time>
      </trkpt>
      <trkpt lat="48.40723" lon="2.76605">
        <ele>107</ele>
        <time>2023-04-11T12:40:16.316Z</time>
      </trkpt>
      <trkpt lat="48.40716" lon="2.766">
        <ele>107</ele>
        <time>2023-04-11T12:40:20.271Z</time>
      </trkpt>
      <trkpt lat="48.40711" lon="2.76595">
        <ele>107</ele>
        <time>2023-04-11T12:40:24.885Z</time>
      </trkpt>
      <trkpt lat="48.40706" lon="2.76591">
        <ele>108</ele>
        <time>2023-04-11T12:40:28.898Z</time>
      </trkpt>
      <trkpt lat="48.407" lon="2.76588">
        <ele>108</ele>
        <time>2023-04-11T12:40:33.510Z</time>
      </trkpt>
      <trkpt lat="48.40694" lon="2.76582">
        <ele>108</ele>
        <time>2023-04-11T12:40:38.004Z</time>
      </trkpt>
      <trkpt lat="48.40689" lon="2.76578">
        <ele>108</ele>
        <time>2023-04-11T12:40:42.065Z</time>
      </trkpt>
      <trkpt lat="48.40681" lon="2.76575">
        <ele>108</ele>
        <time>2023-04-11T12:40:46.443Z</time>
      </trkpt>
      <trkpt lat="48.40673" lon="2.76568">
        <ele>108</ele>
        <time>2023-04-11T12:40:51.006Z</time>
      </trkpt>
      <trkpt lat="48.40668" lon="2.76564">
        <ele>108</ele>
        <time>2023-04-11T12:40:55.105Z</time>
      </trkpt>
      <trkpt lat="48.40663" lon="2.76558">
        <ele>108</ele>
        <time>2023-04-11T12:40:59.054Z</time>
      </trkpt>
      <trkpt lat="48.40659" lon="2.76554">
        <ele>108</ele>
        <time>2023-04-11T12:41:03.124Z</time>
      </trkpt>
      <trkpt lat="48.40653" lon="2.76551">
        <ele>108</ele>
        <time>2023-04-11T12:41:07.552Z</time>
      </trkpt>
      <trkpt lat="48.40648" lon="2.76548">
        <ele>108</ele>
        <time>2023-04-11T12:41:11.602Z</time>
      </trkpt>
      <trkpt lat="48.40641" lon="2.76545">
        <ele>108</ele>
        <time>2023-04-11T12:41:16.152Z</time>
      </trkpt>
      <trkpt lat="48.40633" lon="2.76542">
        <ele>108</ele>
        <time>2023-04-11T12:41:20.699Z</time>
      </trkpt>
      <trkpt lat="48.40626" lon="2.76539">
        <ele>107</ele>
        <time>2023-04-11T12:41:25.308Z</time>
      </trkpt>
      <trkpt lat="48.40621" lon="2.76535">
        <ele>106</ele>
        <time>2023-04-11T12:41:29.315Z</time>
      </trkpt>
      <trkpt lat="48.40616" lon="2.76529">
        <ele>106</ele>
        <time>2023-04-11T12:41:33.981Z</time>
      </trkpt>
      <trkpt lat="48.40612" lon="2.76524">
        <ele>106</ele>
        <time>2023-04-11T12:41:38.651Z</time>
      </trkpt>
      <trkpt lat="48.40607" lon="2.76519">
        <ele>106</ele>
        <time>2023-04-11T12:41:43.200Z</time>
      </trkpt>
      <trkpt lat="48.40603" lon="2.76513">
        <ele>106</ele>
        <time>2023-04-11T12:41:47.270Z</time>
      </trkpt>
      <trkpt lat="48.40598" lon="2.76507">
        <ele>106</ele>
        <time>2023-04-11T12:41:51.701Z</time>
      </trkpt>
      <trkpt lat="48.40592" lon="2.76503">
        <ele>106</ele>
        <time>2023-04-11T12:41:55.772Z</time>
      </trkpt>
      <trkpt lat="48.40586" lon="2.76499">
        <ele>106</ele>
        <time>2023-04-11T12:41:59.725Z</time>
      </trkpt>
      <trkpt lat="48.4058" lon="2.76495">
        <ele>106</ele>
        <time>2023-04-11T12:42:04.274Z</time>
      </trkpt>
      <trkpt lat="48.40574" lon="2.76492">
        <ele>106</ele>
        <time>2023-04-11T12:42:08.702Z</time>
      </trkpt>
      <trkpt lat="48.40568" lon="2.76485">
        <ele>106</ele>
        <time>2023-04-11T12:42:13.490Z</time>
      </trkpt>
      <trkpt lat="48.40562" lon="2.7648">
        <ele>106</ele>
        <time>2023-04-11T12:42:17.559Z</time>
      </trkpt>
      <trkpt lat="48.40556" lon="2.76477">
        <ele>106</ele>
        <time>2023-04-11T12:42:22.158Z</time>
      </trkpt>
      <trkpt lat="48.40551" lon="2.76472">
        <ele>106</ele>
        <time>2023-04-11T12:42:27.164Z</time>
      </trkpt>
      <trkpt lat="48.40545" lon="2.76469">
        <ele>106</ele>
        <time>2023-04-11T12:42:31.316Z</time>
      </trkpt>
      <trkpt lat="48.40538" lon="2.76466">
        <ele>107</ele>
        <time>2023-04-11T12:42:35.520Z</time>
      </trkpt>
      <trkpt lat="48.40531" lon="2.76461">
        <ele>107</ele>
        <time>2023-04-11T12:42:40.073Z</time>
      </trkpt>
      <trkpt lat="48.40524" lon="2.76458">
        <ele>106</ele>
        <time>2023-04-11T12:42:44.729Z</time>
      </trkpt>
      <trkpt lat="48.40519" lon="2.76456">
        <ele>106</ele>
        <time>2023-04-11T12:42:48.930Z</time>
      </trkpt>
      <trkpt lat="48.40513" lon="2.76451">
        <ele>106</ele>
        <time>2023-04-11T12:42:52.987Z</time>
      </trkpt>
      <trkpt lat="48.40508" lon="2.7644">
        <ele>106</ele>
        <time>2023-04-11T12:42:57.418Z</time>
      </trkpt>
      <trkpt lat="48.40505" lon="2.76433">
        <ele>106</ele>
        <time>2023-04-11T12:43:01.467Z</time>
      </trkpt>
      <trkpt lat="48.40499" lon="2.76429">
        <ele>106</ele>
        <time>2023-04-11T12:43:05.939Z</time>
      </trkpt>
      <trkpt lat="48.40492" lon="2.76424">
        <ele>106</ele>
        <time>2023-04-11T12:43:09.966Z</time>
      </trkpt>
      <trkpt lat="48.40487" lon="2.76422">
        <ele>106</ele>
        <time>2023-04-11T12:43:14.035Z</time>
      </trkpt>
      <trkpt lat="48.40482" lon="2.76426">
        <ele>105</ele>
        <time>2023-04-11T12:43:18.342Z</time>
      </trkpt>
      <trkpt lat="48.40479" lon="2.76433">
        <ele>105</ele>
        <time>2023-04-11T12:43:22.732Z</time>
      </trkpt>
      <trkpt lat="48.40478" lon="2.76443">
        <ele>105</ele>
        <time>2023-04-11T12:43:27.522Z</time>
      </trkpt>
      <trkpt lat="48.40482" lon="2.76453">
        <ele>105</ele>
        <time>2023-04-11T12:43:31.713Z</time>
      </trkpt>
      <trkpt lat="48.40486" lon="2.76462">
        <ele>106</ele>
        <time>2023-04-11T12:43:36.261Z</time>
      </trkpt>
      <trkpt lat="48.40489" lon="2.76472">
        <ele>106</ele>
        <time>2023-04-11T12:43:40.690Z</time>
      </trkpt>
      <trkpt lat="48.4049" lon="2.76482">
        <ele>106</ele>
        <time>2023-04-11T12:43:44.761Z</time>
      </trkpt>
      <trkpt lat="48.40493" lon="2.76493">
        <ele>107</ele>
        <time>2023-04-11T12:43:49.909Z</time>
      </trkpt>
      <trkpt lat="48.40497" lon="2.76504">
        <ele>107</ele>
        <time>2023-04-11T12:43:54.978Z</time>
      </trkpt>
      <trkpt lat="48.405" lon="2.76515">
        <ele>108</ele>
        <time>2023-04-11T12:44:00.065Z</time>
      </trkpt>
      <trkpt lat="48.40502" lon="2.7652">
        <ele>108</ele>
        <time>2023-04-11T12:44:04.260Z</time>
      </trkpt>
      <trkpt lat="48.40505" lon="2.76526">
        <ele>108</ele>
        <time>2023-04-11T12:44:08.316Z</time>
      </trkpt>
      <trkpt lat="48.40509" lon="2.76533">
        <ele>108</ele>
        <time>2023-04-11T12:44:12.883Z</time>
      </trkpt>
      <trkpt lat="48.40512" lon="2.76543">
        <ele>107</ele>
        <time>2023-04-11T12:44:17.554Z</time>
      </trkpt>
      <trkpt lat="48.40514" lon="2.76551">
        <ele>108</ele>
        <time>2023-04-11T12:44:21.447Z</time>
      </trkpt>
      <trkpt lat="48.40518" lon="2.76561">
        <ele>108</ele>
        <time>2023-04-11T12:44:26.162Z</time>
      </trkpt>
      <trkpt lat="48.40521" lon="2.76571">
        <ele>107</ele>
        <time>2023-04-11T12:44:30.664Z</time>
      </trkpt>
      <trkpt lat="48.40523" lon="2.76579">
        <ele>107</ele>
        <time>2023-04-11T12:44:35.159Z</time>
      </trkpt>
      <trkpt lat="48.40526" lon="2.76586">
        <ele>107</ele>
        <time>2023-04-11T12:44:39.282Z</time>
      </trkpt>
      <trkpt lat="48.40528" lon="2.76595">
        <ele>107</ele>
        <time>2023-04-11T12:44:44.068Z</time>
      </trkpt>
      <trkpt lat="48.4053" lon="2.76602">
        <ele>106</ele>
        <time>2023-04-11T12:44:48.016Z</time>
      </trkpt>
      <trkpt lat="48.40534" lon="2.76612">
        <ele>106</ele>
        <time>2023-04-11T12:44:52.684Z</time>
      </trkpt>
      <trkpt lat="48.40537" lon="2.7662">
        <ele>106</ele>
        <time>2023-04-11T12:44:56.747Z</time>
      </trkpt>
      <trkpt lat="48.40541" lon="2.76629">
        <ele>104</ele>
        <time>2023-04-11T12:45:01.843Z</time>
      </trkpt>
      <trkpt lat="48.40544" lon="2.76635">
        <ele>105</ele>
        <time>2023-04-11T12:45:06.267Z</time>
      </trkpt>
      <trkpt lat="48.40548" lon="2.7664">
        <ele>105</ele>
        <time>2023-04-11T12:45:10.316Z</time>
      </trkpt>
      <trkpt lat="48.40552" lon="2.76649">
        <ele>105</ele>
        <time>2023-04-11T12:45:14.892Z</time>
      </trkpt>
      <trkpt lat="48.40554" lon="2.76658">
        <ele>106</ele>
        <time>2023-04-11T12:45:19.316Z</time>
      </trkpt>
      <trkpt lat="48.40555" lon="2.76666">
        <ele>106</ele>
        <time>2023-04-11T12:45:23.515Z</time>
      </trkpt>
      <trkpt lat="48.40558" lon="2.76673">
        <ele>106</ele>
        <time>2023-04-11T12:45:27.704Z</time>
      </trkpt>
      <trkpt lat="48.40561" lon="2.7668">
        <ele>106</ele>
        <time>2023-04-11T12:45:31.893Z</time>
      </trkpt>
      <trkpt lat="48.40565" lon="2.76687">
        <ele>107</ele>
        <time>2023-04-11T12:45:36.443Z</time>
      </trkpt>
      <trkpt lat="48.40568" lon="2.76693">
        <ele>107</ele>
        <time>2023-04-11T12:45:40.513Z</time>
      </trkpt>
      <trkpt lat="48.40571" lon="2.767">
        <ele>109</ele>
        <time>2023-04-11T12:45:44.702Z</time>
      </trkpt>
      <trkpt lat="48.40575" lon="2.76709">
        <ele>110</ele>
        <time>2023-04-11T12:45:48.771Z</time>
      </trkpt>
      <trkpt lat="48.40578" lon="2.76718">
        <ele>110</ele>
        <time>2023-04-11T12:45:52.720Z</time>
      </trkpt>
      <trkpt lat="48.40581" lon="2.76726">
        <ele>110</ele>
        <time>2023-04-11T12:45:56.908Z</time>
      </trkpt>
      <trkpt lat="48.40583" lon="2.76735">
        <ele>110</ele>
        <time>2023-04-11T12:46:01.574Z</time>
      </trkpt>
      <trkpt lat="48.40587" lon="2.76744">
        <ele>110</ele>
        <time>2023-04-11T12:46:06.083Z</time>
      </trkpt>
      <trkpt lat="48.40589" lon="2.76753">
        <ele>110</ele>
        <time>2023-04-11T12:46:09.949Z</time>
      </trkpt>
      <trkpt lat="48.40593" lon="2.76763">
        <ele>110</ele>
        <time>2023-04-11T12:46:14.428Z</time>
      </trkpt>
      <trkpt lat="48.40598" lon="2.7677">
        <ele>110</ele>
        <time>2023-04-11T12:46:18.443Z</time>
      </trkpt>
      <trkpt lat="48.40603" lon="2.76778">
        <ele>110</ele>
        <time>2023-04-11T12:46:22.989Z</time>
      </trkpt>
      <trkpt lat="48.40607" lon="2.76788">
        <ele>110</ele>
        <time>2023-04-11T12:46:27.416Z</time>
      </trkpt>
      <trkpt lat="48.4061" lon="2.76798">
        <ele>110</ele>
        <time>2023-04-11T12:46:32.029Z</time>
      </trkpt>
      <trkpt lat="48.40613" lon="2.76805">
        <ele>110</ele>
        <time>2023-04-11T12:46:36.032Z</time>
      </trkpt>
      <trkpt lat="48.40617" lon="2.76811">
        <ele>110</ele>
        <time>2023-04-11T12:46:39.859Z</time>
      </trkpt>
      <trkpt lat="48.40621" lon="2.76818">
        <ele>110</ele>
        <time>2023-04-11T12:46:44.765Z</time>
      </trkpt>
      <trkpt lat="48.40625" lon="2.76825">
        <ele>109</ele>
        <time>2023-04-11T12:46:49.244Z</time>
      </trkpt>
      <trkpt lat="48.40629" lon="2.76833">
        <ele>109</ele>
        <time>2023-04-11T12:46:53.523Z</time>
      </trkpt>
      <trkpt lat="48.40632" lon="2.76839">
        <ele>109</ele>
        <time>2023-04-11T12:46:57.910Z</time>
      </trkpt>
      <trkpt lat="48.40635" lon="2.76846">
        <ele>109</ele>
        <time>2023-04-11T12:47:02.100Z</time>
      </trkpt>
      <trkpt lat="48.40637" lon="2.76853">
        <ele>110</ele>
        <time>2023-04-11T12:47:06.050Z</time>
      </trkpt>
      <trkpt lat="48.40637" lon="2.76863">
        <ele>110</ele>
        <time>2023-04-11T12:47:10.622Z</time>
      </trkpt>
      <trkpt lat="48.40639" lon="2.7687">
        <ele>110</ele>
        <time>2023-04-11T12:47:14.671Z</time>
      </trkpt>
      <trkpt lat="48.40642" lon="2.76875">
        <ele>111</ele>
        <time>2023-04-11T12:47:18.702Z</time>
      </trkpt>
      <trkpt lat="48.40645" lon="2.76883">
        <ele>111</ele>
        <time>2023-04-11T12:47:22.891Z</time>
      </trkpt>
      <trkpt lat="48.40649" lon="2.76891">
        <ele>111</ele>
        <time>2023-04-11T12:47:27.365Z</time>
      </trkpt>
      <trkpt lat="48.40651" lon="2.76897">
        <ele>111</ele>
        <time>2023-04-11T12:47:31.266Z</time>
      </trkpt>
      <trkpt lat="48.40655" lon="2.76905">
        <ele>109</ele>
        <time>2023-04-11T12:47:35.691Z</time>
      </trkpt>
      <trkpt lat="48.40657" lon="2.76911">
        <ele>109</ele>
        <time>2023-04-11T12:47:39.879Z</time>
      </trkpt>
      <trkpt lat="48.40659" lon="2.76918">
        <ele>109</ele>
        <time>2023-04-11T12:47:43.709Z</time>
      </trkpt>
      <trkpt lat="48.40661" lon="2.76926">
        <ele>109</ele>
        <time>2023-04-11T12:47:47.896Z</time>
      </trkpt>
      <trkpt lat="48.40662" lon="2.76932">
        <ele>108</ele>
        <time>2023-04-11T12:47:52.625Z</time>
      </trkpt>
      <trkpt lat="48.40665" lon="2.76939">
        <ele>108</ele>
        <time>2023-04-11T12:47:56.629Z</time>
      </trkpt>
      <trkpt lat="48.40668" lon="2.76948">
        <ele>108</ele>
        <time>2023-04-11T12:48:01.293Z</time>
      </trkpt>
      <trkpt lat="48.40672" lon="2.76957">
        <ele>108</ele>
        <time>2023-04-11T12:48:05.958Z</time>
      </trkpt>
      <trkpt lat="48.40674" lon="2.76965">
        <ele>108</ele>
        <time>2023-04-11T12:48:09.786Z</time>
      </trkpt>
      <trkpt lat="48.40676" lon="2.76973">
        <ele>108</ele>
        <time>2023-04-11T12:48:14.316Z</time>
      </trkpt>
      <trkpt lat="48.4068" lon="2.7698">
        <ele>108</ele>
        <time>2023-04-11T12:48:18.703Z</time>
      </trkpt>
      <trkpt lat="48.40683" lon="2.7699">
        <ele>107</ele>
        <time>2023-04-11T12:48:22.708Z</time>
      </trkpt>
      <trkpt lat="48.40687" lon="2.76998">
        <ele>107</ele>
        <time>2023-04-11T12:48:26.895Z</time>
      </trkpt>
      <trkpt lat="48.40692" lon="2.77005">
        <ele>107</ele>
        <time>2023-04-11T12:48:31.680Z</time>
      </trkpt>
      <trkpt lat="48.40697" lon="2.77013">
        <ele>107</ele>
        <time>2023-04-11T12:48:36.316Z</time>
      </trkpt>
      <trkpt lat="48.40701" lon="2.77022">
        <ele>108</ele>
        <time>2023-04-11T12:48:40.294Z</time>
      </trkpt>
      <trkpt lat="48.40703" lon="2.77031">
        <ele>108</ele>
        <time>2023-04-11T12:48:44.841Z</time>
      </trkpt>
      <trkpt lat="48.40705" lon="2.77038">
        <ele>108</ele>
        <time>2023-04-11T12:48:48.871Z</time>
      </trkpt>
      <trkpt lat="48.40708" lon="2.77046">
        <ele>108</ele>
        <time>2023-04-11T12:48:52.819Z</time>
      </trkpt>
      <trkpt lat="48.40712" lon="2.77052">
        <ele>107</ele>
        <time>2023-04-11T12:48:56.768Z</time>
      </trkpt>
      <trkpt lat="48.40716" lon="2.77057">
        <ele>107</ele>
        <time>2023-04-11T12:49:01.314Z</time>
      </trkpt>
      <trkpt lat="48.40718" lon="2.77065">
        <ele>107</ele>
        <time>2023-04-11T12:49:05.721Z</time>
      </trkpt>
      <trkpt lat="48.40723" lon="2.77075">
        <ele>108</ele>
        <time>2023-04-11T12:49:10.302Z</time>
      </trkpt>
      <trkpt lat="48.40727" lon="2.77085">
        <ele>108</ele>
        <time>2023-04-11T12:49:14.698Z</time>
      </trkpt>
      <trkpt lat="48.40729" lon="2.77093">
        <ele>108</ele>
        <time>2023-04-11T12:49:19.364Z</time>
      </trkpt>
      <trkpt lat="48.40731" lon="2.77101">
        <ele>108</ele>
        <time>2023-04-11T12:49:23.432Z</time>
      </trkpt>
      <trkpt lat="48.40734" lon="2.7711">
        <ele>108</ele>
        <time>2023-04-11T12:49:27.860Z</time>
      </trkpt>
      <trkpt lat="48.40737" lon="2.77118">
        <ele>106</ele>
        <time>2023-04-11T12:49:31.925Z</time>
      </trkpt>
      <trkpt lat="48.40739" lon="2.77124">
        <ele>106</ele>
        <time>2023-04-11T12:49:35.874Z</time>
      </trkpt>
      <trkpt lat="48.40741" lon="2.77132">
        <ele>106</ele>
        <time>2023-04-11T12:49:40.519Z</time>
      </trkpt>
      <trkpt lat="48.40743" lon="2.77138">
        <ele>106</ele>
        <time>2023-04-11T12:49:44.825Z</time>
      </trkpt>
      <trkpt lat="48.40746" lon="2.77145">
        <ele>106</ele>
        <time>2023-04-11T12:49:48.891Z</time>
      </trkpt>
      <trkpt lat="48.40748" lon="2.77154">
        <ele>106</ele>
        <time>2023-04-11T12:49:52.957Z</time>
      </trkpt>
      <trkpt lat="48.40751" lon="2.77162">
        <ele>106</ele>
        <time>2023-04-11T12:49:56.908Z</time>
      </trkpt>
      <trkpt lat="48.40755" lon="2.77168">
        <ele>106</ele>
        <time>2023-04-11T12:50:01.576Z</time>
      </trkpt>
      <trkpt lat="48.40758" lon="2.77176">
        <ele>106</ele>
        <time>2023-04-11T12:50:06.004Z</time>
      </trkpt>
      <trkpt lat="48.4076" lon="2.77184">
        <ele>106</ele>
        <time>2023-04-11T12:50:10.057Z</time>
      </trkpt>
      <trkpt lat="48.40771" lon="2.77199">
        <ele>100</ele>
        <time>2023-04-11T12:51:44.155Z</time>
      </trkpt>
      <trkpt lat="48.40771" lon="2.77199">
        <ele>100</ele>
        <time>2023-04-11T12:51:48.151Z</time>
      </trkpt>
      <trkpt lat="48.40771" lon="2.77199">
        <ele>100</ele>
        <time>2023-04-11T12:51:53.158Z</time>
      </trkpt>
      <trkpt lat="48.40771" lon="2.77199">
        <ele>100</ele>
        <time>2023-04-11T12:51:58.142Z</time>
      </trkpt>
      <trkpt lat="48.40771" lon="2.77199">
        <ele>100</ele>
        <time>2023-04-11T12:52:03.141Z</time>
      </trkpt>
      <trkpt lat="48.40771" lon="2.77199">
        <ele>100</ele>
        <time>2023-04-11T12:52:16.157Z</time>
      </trkpt>
      <trkpt lat="48.40773" lon="2.77203">
        <ele>100</ele>
        <time>2023-04-11T12:52:21.143Z</time>
      </trkpt>
      <trkpt lat="48.40774" lon="2.77204">
        <ele>100</ele>
        <time>2023-04-11T12:52:25.136Z</time>
      </trkpt>
      <trkpt lat="48.40776" lon="2.77208">
        <ele>100</ele>
        <time>2023-04-11T12:52:29.447Z</time>
      </trkpt>
      <trkpt lat="48.4078" lon="2.77215">
        <ele>101</ele>
        <time>2023-04-11T12:52:33.484Z</time>
      </trkpt>
      <trkpt lat="48.40783" lon="2.7722">
        <ele>101</ele>
        <time>2023-04-11T12:52:37.316Z</time>
      </trkpt>
      <trkpt lat="48.40786" lon="2.77226">
        <ele>101</ele>
        <time>2023-04-11T12:52:41.891Z</time>
      </trkpt>
      <trkpt lat="48.40789" lon="2.77233">
        <ele>101</ele>
        <time>2023-04-11T12:52:46.365Z</time>
      </trkpt>
      <trkpt lat="48.40793" lon="2.77236">
        <ele>94</ele>
        <time>2023-04-11T12:52:50.932Z</time>
      </trkpt>
      <trkpt lat="48.40794" lon="2.77238">
        <ele>94</ele>
        <time>2023-04-11T12:52:55.123Z</time>
      </trkpt>
      <trkpt lat="48.40797" lon="2.77243">
        <ele>94</ele>
        <time>2023-04-11T12:52:59.665Z</time>
      </trkpt>
      <trkpt lat="48.40803" lon="2.77246">
        <ele>94</ele>
        <time>2023-04-11T12:53:03.585Z</time>
      </trkpt>
      <trkpt lat="48.40808" lon="2.7725">
        <ele>94</ele>
        <time>2023-04-11T12:53:08.184Z</time>
      </trkpt>
      <trkpt lat="48.40807" lon="2.77255">
        <ele>94</ele>
        <time>2023-04-11T12:53:12.266Z</time>
      </trkpt>
      <trkpt lat="48.40812" lon="2.77261">
        <ele>94</ele>
        <time>2023-04-11T12:53:16.677Z</time>
      </trkpt>
      <trkpt lat="48.40816" lon="2.77269">
        <ele>94</ele>
        <time>2023-04-11T12:53:21.465Z</time>
      </trkpt>
      <trkpt lat="48.40821" lon="2.77275">
        <ele>84</ele>
        <time>2023-04-11T12:53:25.868Z</time>
      </trkpt>
      <trkpt lat="48.40823" lon="2.77283">
        <ele>84</ele>
        <time>2023-04-11T12:53:30.168Z</time>
      </trkpt>
      <trkpt lat="48.40827" lon="2.77288">
        <ele>84</ele>
        <time>2023-04-11T12:53:34.439Z</time>
      </trkpt>
      <trkpt lat="48.40829" lon="2.77295">
        <ele>84</ele>
        <time>2023-04-11T12:53:39.109Z</time>
      </trkpt>
      <trkpt lat="48.40829" lon="2.77302">
        <ele>84</ele>
        <time>2023-04-11T12:53:43.141Z</time>
      </trkpt>
      <trkpt lat="48.40836" lon="2.77317">
        <ele>84</ele>
        <time>2023-04-11T12:53:51.723Z</time>
      </trkpt>
      <trkpt lat="48.40839" lon="2.77317">
        <ele>84</ele>
        <time>2023-04-11T12:53:57.110Z</time>
      </trkpt>
      <trkpt lat="48.4084" lon="2.77317">
        <ele>84</ele>
        <time>2023-04-11T12:54:01.897Z</time>
      </trkpt>
      <trkpt lat="48.40839" lon="2.77318">
        <ele>84</ele>
        <time>2023-04-11T12:54:06.684Z</time>
      </trkpt>
      <trkpt lat="48.4084" lon="2.77321">
        <ele>83</ele>
        <time>2023-04-11T12:54:11.472Z</time>
      </trkpt>
      <trkpt lat="48.4084" lon="2.77325">
        <ele>83</ele>
        <time>2023-04-11T12:54:20.151Z</time>
      </trkpt>
      <trkpt lat="48.40842" lon="2.77325">
        <ele>83</ele>
        <time>2023-04-11T12:54:24.283Z</time>
      </trkpt>
      <trkpt lat="48.40843" lon="2.77326">
        <ele>83</ele>
        <time>2023-04-11T12:54:29.072Z</time>
      </trkpt>
      <trkpt lat="48.40844" lon="2.77329">
        <ele>83</ele>
        <time>2023-04-11T12:54:33.741Z</time>
      </trkpt>
      <trkpt lat="48.40848" lon="2.77335">
        <ele>76</ele>
        <time>2023-04-11T12:54:37.691Z</time>
      </trkpt>
      <trkpt lat="48.40851" lon="2.77346">
        <ele>76</ele>
        <time>2023-04-11T12:54:42.323Z</time>
      </trkpt>
      <trkpt lat="48.40854" lon="2.77353">
        <ele>75</ele>
        <time>2023-04-11T12:54:46.626Z</time>
      </trkpt>
      <trkpt lat="48.40855" lon="2.77361">
        <ele>75</ele>
        <time>2023-04-11T12:54:50.622Z</time>
      </trkpt>
      <trkpt lat="48.40858" lon="2.77368">
        <ele>75</ele>
        <time>2023-04-11T12:54:55.050Z</time>
      </trkpt>
      <trkpt lat="48.40863" lon="2.77367">
        <ele>75</ele>
        <time>2023-04-11T12:54:58.870Z</time>
      </trkpt>
      <trkpt lat="48.40865" lon="2.77372">
        <ele>75</ele>
        <time>2023-04-11T12:55:02.877Z</time>
      </trkpt>
      <trkpt lat="48.40868" lon="2.77384">
        <ele>72</ele>
        <time>2023-04-11T12:55:07.385Z</time>
      </trkpt>
      <trkpt lat="48.40872" lon="2.7739">
        <ele>72</ele>
        <time>2023-04-11T12:55:11.992Z</time>
      </trkpt>
      <trkpt lat="48.40876" lon="2.77393">
        <ele>69</ele>
        <time>2023-04-11T12:55:15.998Z</time>
      </trkpt>
      <trkpt lat="48.4088" lon="2.77397">
        <ele>69</ele>
        <time>2023-04-11T12:55:21.109Z</time>
      </trkpt>
      <trkpt lat="48.40885" lon="2.774">
        <ele>69</ele>
        <time>2023-04-11T12:55:25.115Z</time>
      </trkpt>
      <trkpt lat="48.4089" lon="2.77404">
        <ele>65</ele>
        <time>2023-04-11T12:55:29.167Z</time>
      </trkpt>
      <trkpt lat="48.40893" lon="2.77413">
        <ele>65</ele>
        <time>2023-04-11T12:55:33.759Z</time>
      </trkpt>
      <trkpt lat="48.40897" lon="2.7742">
        <ele>65</ele>
        <time>2023-04-11T12:55:37.712Z</time>
      </trkpt>
      <trkpt lat="48.40901" lon="2.77426">
        <ele>65</ele>
        <time>2023-04-11T12:55:42.185Z</time>
      </trkpt>
      <trkpt lat="48.40904" lon="2.77433">
        <ele>62</ele>
        <time>2023-04-11T12:55:46.400Z</time>
      </trkpt>
      <trkpt lat="48.40908" lon="2.77438">
        <ele>62</ele>
        <time>2023-04-11T12:55:50.296Z</time>
      </trkpt>
      <trkpt lat="48.4091" lon="2.77445">
        <ele>62</ele>
        <time>2023-04-11T12:55:54.831Z</time>
      </trkpt>
      <trkpt lat="48.40904" lon="2.7745">
        <ele>62</ele>
        <time>2023-04-11T12:55:59.984Z</time>
      </trkpt>
      <trkpt lat="48.40898" lon="2.77453">
        <ele>64</ele>
        <time>2023-04-11T12:56:05Z</time>
      </trkpt>
      <trkpt lat="48.40893" lon="2.77458">
        <ele>64</ele>
        <time>2023-04-11T12:56:09.523Z</time>
      </trkpt>
      <trkpt lat="48.4089" lon="2.77456">
        <ele>64</ele>
        <time>2023-04-11T12:56:13.485Z</time>
      </trkpt>
      <trkpt lat="48.40886" lon="2.77458">
        <ele>64</ele>
        <time>2023-04-11T12:56:18.018Z</time>
      </trkpt>
      <trkpt lat="48.40885" lon="2.77458">
        <ele>63</ele>
        <time>2023-04-11T12:56:23.129Z</time>
      </trkpt>
      <trkpt lat="48.40885" lon="2.7746">
        <ele>63</ele>
        <time>2023-04-11T12:56:27.863Z</time>
      </trkpt>
      <trkpt lat="48.40881" lon="2.77465">
        <ele>63</ele>
        <time>2023-04-11T12:56:32.055Z</time>
      </trkpt>
      <trkpt lat="48.40876" lon="2.77469">
        <ele>63</ele>
        <time>2023-04-11T12:56:36.547Z</time>
      </trkpt>
      <trkpt lat="48.40869" lon="2.77472">
        <ele>65</ele>
        <time>2023-04-11T12:56:40.740Z</time>
      </trkpt>
      <trkpt lat="48.40864" lon="2.77477">
        <ele>65</ele>
        <time>2023-04-11T12:56:45.291Z</time>
      </trkpt>
      <trkpt lat="48.40859" lon="2.77478">
        <ele>65</ele>
        <time>2023-04-11T12:56:49.484Z</time>
      </trkpt>
      <trkpt lat="48.40854" lon="2.77476">
        <ele>65</ele>
        <time>2023-04-11T12:56:53.676Z</time>
      </trkpt>
      <trkpt lat="48.40849" lon="2.7748">
        <ele>65</ele>
        <time>2023-04-11T12:56:58.107Z</time>
      </trkpt>
      <trkpt lat="48.40849" lon="2.77488">
        <ele>64</ele>
        <time>2023-04-11T12:57:02.263Z</time>
      </trkpt>
      <trkpt lat="48.40847" lon="2.77496">
        <ele>64</ele>
        <time>2023-04-11T12:57:06.316Z</time>
      </trkpt>
      <trkpt lat="48.40845" lon="2.77506">
        <ele>65</ele>
        <time>2023-04-11T12:57:10.841Z</time>
      </trkpt>
      <trkpt lat="48.40845" lon="2.77514">
        <ele>64</ele>
        <time>2023-04-11T12:57:15.145Z</time>
      </trkpt>
      <trkpt lat="48.40844" lon="2.77522">
        <ele>64</ele>
        <time>2023-04-11T12:57:19.877Z</time>
      </trkpt>
      <trkpt lat="48.40842" lon="2.77529">
        <ele>64</ele>
        <time>2023-04-11T12:57:24.564Z</time>
      </trkpt>
      <trkpt lat="48.40837" lon="2.7753">
        <ele>64</ele>
        <time>2023-04-11T12:57:28.629Z</time>
      </trkpt>
      <trkpt lat="48.40831" lon="2.77525">
        <ele>64</ele>
        <time>2023-04-11T12:57:32.706Z</time>
      </trkpt>
      <trkpt lat="48.40825" lon="2.77523">
        <ele>64</ele>
        <time>2023-04-11T12:57:37.501Z</time>
      </trkpt>
      <trkpt lat="48.40819" lon="2.77524">
        <ele>65</ele>
        <time>2023-04-11T12:57:42.159Z</time>
      </trkpt>
      <trkpt lat="48.40815" lon="2.77526">
        <ele>65</ele>
        <time>2023-04-11T12:57:46.312Z</time>
      </trkpt>
      <trkpt lat="48.40814" lon="2.77531">
        <ele>65</ele>
        <time>2023-04-11T12:57:50.507Z</time>
      </trkpt>
      <trkpt lat="48.40816" lon="2.77536">
        <ele>65</ele>
        <time>2023-04-11T12:57:54.705Z</time>
      </trkpt>
      <trkpt lat="48.40817" lon="2.77541">
        <ele>65</ele>
        <time>2023-04-11T12:57:58.775Z</time>
      </trkpt>
      <trkpt lat="48.40817" lon="2.77549">
        <ele>67</ele>
        <time>2023-04-11T12:58:02.849Z</time>
      </trkpt>
      <trkpt lat="48.40818" lon="2.77558">
        <ele>67</ele>
        <time>2023-04-11T12:58:07.523Z</time>
      </trkpt>
      <trkpt lat="48.40819" lon="2.77566">
        <ele>67</ele>
        <time>2023-04-11T12:58:12.106Z</time>
      </trkpt>
      <trkpt lat="48.40819" lon="2.77574">
        <ele>73</ele>
        <time>2023-04-11T12:58:16.029Z</time>
      </trkpt>
      <trkpt lat="48.40818" lon="2.77592">
        <ele>73</ele>
        <time>2023-04-11T12:59:03.862Z</time>
      </trkpt>
      <trkpt lat="48.40817" lon="2.77592">
        <ele>73</ele>
        <time>2023-04-11T12:59:07.921Z</time>
      </trkpt>
      <trkpt lat="48.40816" lon="2.77595">
        <ele>73</ele>
        <time>2023-04-11T12:59:12.982Z</time>
      </trkpt>
      <trkpt lat="48.40813" lon="2.77597">
        <ele>78</ele>
        <time>2023-04-11T12:59:16.940Z</time>
      </trkpt>
      <trkpt lat="48.40812" lon="2.77599">
        <ele>78</ele>
        <time>2023-04-11T12:59:21.617Z</time>
      </trkpt>
      <trkpt lat="48.40812" lon="2.77599">
        <ele>78</ele>
        <time>2023-04-11T12:59:25.595Z</time>
      </trkpt>
      <trkpt lat="48.40813" lon="2.77601">
        <ele>78</ele>
        <time>2023-04-11T12:59:30.166Z</time>
      </trkpt>
      <trkpt lat="48.40814" lon="2.77603">
        <ele>78</ele>
        <time>2023-04-11T12:59:34.289Z</time>
      </trkpt>
      <trkpt lat="48.40817" lon="2.77604">
        <ele>78</ele>
        <time>2023-04-11T12:59:38.843Z</time>
      </trkpt>
      <trkpt lat="48.40822" lon="2.77611">
        <ele>77</ele>
        <time>2023-04-11T12:59:43.316Z</time>
      </trkpt>
      <trkpt lat="48.40827" lon="2.77617">
        <ele>77</ele>
        <time>2023-04-11T13:00:46.316Z</time>
      </trkpt>
      <trkpt lat="48.40824" lon="2.77612">
        <ele>77</ele>
        <time>2023-04-11T13:00:50.295Z</time>
      </trkpt>
      <trkpt lat="48.40819" lon="2.77608">
        <ele>78</ele>
        <time>2023-04-11T13:00:54.316Z</time>
      </trkpt>
      <trkpt lat="48.40816" lon="2.77607">
        <ele>78</ele>
        <time>2023-04-11T13:00:59.046Z</time>
      </trkpt>
      <trkpt lat="48.40816" lon="2.77607">
        <ele>78</ele>
        <time>2023-04-11T13:01:03.663Z</time>
      </trkpt>
      <trkpt lat="48.40815" lon="2.77604">
        <ele>78</ele>
        <time>2023-04-11T13:02:05.525Z</time>
      </trkpt>
      <trkpt lat="48.4082" lon="2.77609">
        <ele>77</ele>
        <time>2023-04-11T13:02:10.145Z</time>
      </trkpt>
      <trkpt lat="48.40825" lon="2.77611">
        <ele>77</ele>
        <time>2023-04-11T13:02:14.278Z</time>
      </trkpt>
      <trkpt lat="48.40829" lon="2.77613">
        <ele>77</ele>
        <time>2023-04-11T13:02:18.316Z</time>
      </trkpt>
      <trkpt lat="48.40834" lon="2.77619">
        <ele>77</ele>
        <time>2023-04-11T13:02:22.768Z</time>
      </trkpt>
      <trkpt lat="48.40839" lon="2.77628">
        <ele>81</ele>
        <time>2023-04-11T13:02:27.925Z</time>
      </trkpt>
      <trkpt lat="48.40843" lon="2.77636">
        <ele>81</ele>
        <time>2023-04-11T13:02:32.482Z</time>
      </trkpt>
      <trkpt lat="48.40847" lon="2.77643">
        <ele>81</ele>
        <time>2023-04-11T13:02:36.637Z</time>
      </trkpt>
      <trkpt lat="48.40849" lon="2.77651">
        <ele>75</ele>
        <time>2023-04-11T13:02:40.951Z</time>
      </trkpt>
      <trkpt lat="48.40851" lon="2.77657">
        <ele>76</ele>
        <time>2023-04-11T13:02:45.024Z</time>
      </trkpt>
      <trkpt lat="48.40852" lon="2.77666">
        <ele>76</ele>
        <time>2023-04-11T13:02:50.166Z</time>
      </trkpt>
      <trkpt lat="48.40853" lon="2.77674">
        <ele>76</ele>
        <time>2023-04-11T13:02:54.581Z</time>
      </trkpt>
      <trkpt lat="48.40855" lon="2.77681">
        <ele>76</ele>
        <time>2023-04-11T13:02:58.621Z</time>
      </trkpt>
      <trkpt lat="48.40854" lon="2.7769">
        <ele>76</ele>
        <time>2023-04-11T13:03:03.266Z</time>
      </trkpt>
      <trkpt lat="48.40854" lon="2.77698">
        <ele>76</ele>
        <time>2023-04-11T13:03:07.730Z</time>
      </trkpt>
      <trkpt lat="48.40852" lon="2.77704">
        <ele>76</ele>
        <time>2023-04-11T13:03:11.684Z</time>
      </trkpt>
      <trkpt lat="48.40852" lon="2.77713">
        <ele>75</ele>
        <time>2023-04-11T13:03:16.825Z</time>
      </trkpt>
      <trkpt lat="48.40852" lon="2.77721">
        <ele>75</ele>
        <time>2023-04-11T13:03:20.666Z</time>
      </trkpt>
      <trkpt lat="48.40851" lon="2.7773">
        <ele>75</ele>
        <time>2023-04-11T13:03:25.936Z</time>
      </trkpt>
      <trkpt lat="48.4085" lon="2.77735">
        <ele>75</ele>
        <time>2023-04-11T13:03:30.726Z</time>
      </trkpt>
      <trkpt lat="48.40849" lon="2.77743">
        <ele>74</ele>
        <time>2023-04-11T13:03:35.158Z</time>
      </trkpt>
      <trkpt lat="48.40848" lon="2.77751">
        <ele>74</ele>
        <time>2023-04-11T13:03:39.712Z</time>
      </trkpt>
      <trkpt lat="48.40846" lon="2.77757">
        <ele>78</ele>
        <time>2023-04-11T13:03:44.168Z</time>
      </trkpt>
      <trkpt lat="48.40846" lon="2.77766">
        <ele>76</ele>
        <time>2023-04-11T13:03:48.668Z</time>
      </trkpt>
      <trkpt lat="48.40845" lon="2.77776">
        <ele>76</ele>
        <time>2023-04-11T13:03:52.865Z</time>
      </trkpt>
      <trkpt lat="48.40844" lon="2.77786">
        <ele>76</ele>
        <time>2023-04-11T13:03:57.323Z</time>
      </trkpt>
      <trkpt lat="48.40845" lon="2.77794">
        <ele>75</ele>
        <time>2023-04-11T13:04:01.316Z</time>
      </trkpt>
      <trkpt lat="48.40843" lon="2.77801">
        <ele>75</ele>
        <time>2023-04-11T13:04:05.458Z</time>
      </trkpt>
      <trkpt lat="48.40847" lon="2.77806">
        <ele>75</ele>
        <time>2023-04-11T13:04:09.856Z</time>
      </trkpt>
      <trkpt lat="48.40846" lon="2.77804">
        <ele>75</ele>
        <time>2023-04-11T13:05:12.149Z</time>
      </trkpt>
      <trkpt lat="48.40849" lon="2.778">
        <ele>70</ele>
        <time>2023-04-11T13:05:16.907Z</time>
      </trkpt>
      <trkpt lat="48.40853" lon="2.77793">
        <ele>70</ele>
        <time>2023-04-11T13:05:21.704Z</time>
      </trkpt>
      <trkpt lat="48.40855" lon="2.77786">
        <ele>72</ele>
        <time>2023-04-11T13:05:25.719Z</time>
      </trkpt>
      <trkpt lat="48.4086" lon="2.7778">
        <ele>72</ele>
        <time>2023-04-11T13:05:31.104Z</time>
      </trkpt>
      <trkpt lat="48.40864" lon="2.77775">
        <ele>72</ele>
        <time>2023-04-11T13:05:34.909Z</time>
      </trkpt>
      <trkpt lat="48.40867" lon="2.7777">
        <ele>72</ele>
        <time>2023-04-11T13:05:39.585Z</time>
      </trkpt>
      <trkpt lat="48.40869" lon="2.77766">
        <ele>72</ele>
        <time>2023-04-11T13:05:43.504Z</time>
      </trkpt>
      <trkpt lat="48.40872" lon="2.77767">
        <ele>72</ele>
        <time>2023-04-11T13:05:48.122Z</time>
      </trkpt>
      <trkpt lat="48.40875" lon="2.77753">
        <ele>69</ele>
        <time>2023-04-11T13:06:01.056Z</time>
      </trkpt>
      <trkpt lat="48.40875" lon="2.77752">
        <ele>69</ele>
        <time>2023-04-11T13:06:02.815Z</time>
      </trkpt>
      <trkpt lat="48.40876" lon="2.77748">
        <ele>69</ele>
        <time>2023-04-11T13:06:11.875Z</time>
      </trkpt>
      <trkpt lat="48.40882" lon="2.77739">
        <ele>69</ele>
        <time>2023-04-11T13:06:16.886Z</time>
      </trkpt>
      <trkpt lat="48.40889" lon="2.77734">
        <ele>69</ele>
        <time>2023-04-11T13:06:21.440Z</time>
      </trkpt>
      <trkpt lat="48.40893" lon="2.77728">
        <ele>69</ele>
        <time>2023-04-11T13:06:25.650Z</time>
      </trkpt>
      <trkpt lat="48.40897" lon="2.7772">
        <ele>69</ele>
        <time>2023-04-11T13:06:30.430Z</time>
      </trkpt>
      <trkpt lat="48.409" lon="2.77715">
        <ele>69</ele>
        <time>2023-04-11T13:06:35.047Z</time>
      </trkpt>
      <trkpt lat="48.40905" lon="2.77709">
        <ele>64</ele>
        <time>2023-04-11T13:06:38.668Z</time>
      </trkpt>
      <trkpt lat="48.40909" lon="2.77702">
        <ele>64</ele>
        <time>2023-04-11T13:06:43.172Z</time>
      </trkpt>
      <trkpt lat="48.4091" lon="2.77694">
        <ele>64</ele>
        <time>2023-04-11T13:06:47.782Z</time>
      </trkpt>
      <trkpt lat="48.40911" lon="2.77686">
        <ele>64</ele>
        <time>2023-04-11T13:06:51.829Z</time>
      </trkpt>
      <trkpt lat="48.40912" lon="2.77678">
        <ele>63</ele>
        <time>2023-04-11T13:06:55.905Z</time>
      </trkpt>
      <trkpt lat="48.40911" lon="2.77669">
        <ele>63</ele>
        <time>2023-04-11T13:07:00.316Z</time>
      </trkpt>
      <trkpt lat="48.40911" lon="2.77659">
        <ele>63</ele>
        <time>2023-04-11T13:07:04.821Z</time>
      </trkpt>
      <trkpt lat="48.40909" lon="2.77651">
        <ele>63</ele>
        <time>2023-04-11T13:07:09.192Z</time>
      </trkpt>
      <trkpt lat="48.40909" lon="2.77641">
        <ele>63</ele>
        <time>2023-04-11T13:07:13.687Z</time>
      </trkpt>
      <trkpt lat="48.4091" lon="2.77631">
        <ele>63</ele>
        <time>2023-04-11T13:07:17.883Z</time>
      </trkpt>
      <trkpt lat="48.40909" lon="2.77625">
        <ele>63</ele>
        <time>2023-04-11T13:07:22.078Z</time>
      </trkpt>
      <trkpt lat="48.40912" lon="2.77618">
        <ele>62</ele>
        <time>2023-04-11T13:07:26.693Z</time>
      </trkpt>
      <trkpt lat="48.40917" lon="2.77614">
        <ele>62</ele>
        <time>2023-04-11T13:07:31.009Z</time>
      </trkpt>
      <trkpt lat="48.40921" lon="2.77612">
        <ele>62</ele>
        <time>2023-04-11T13:07:35.567Z</time>
      </trkpt>
      <trkpt lat="48.40926" lon="2.7761">
        <ele>62</ele>
        <time>2023-04-11T13:07:39.883Z</time>
      </trkpt>
      <trkpt lat="48.40932" lon="2.77608">
        <ele>59</ele>
        <time>2023-04-11T13:07:44.947Z</time>
      </trkpt>
      <trkpt lat="48.40935" lon="2.77609">
        <ele>59</ele>
        <time>2023-04-11T13:07:49.110Z</time>
      </trkpt>
      <trkpt lat="48.40935" lon="2.77609">
        <ele>59</ele>
        <time>2023-04-11T13:07:52.706Z</time>
      </trkpt>
      <trkpt lat="48.40939" lon="2.77607">
        <ele>59</ele>
        <time>2023-04-11T13:07:57.316Z</time>
      </trkpt>
      <trkpt lat="48.40945" lon="2.77603">
        <ele>59</ele>
        <time>2023-04-11T13:08:01.878Z</time>
      </trkpt>
      <trkpt lat="48.4095" lon="2.77602">
        <ele>59</ele>
        <time>2023-04-11T13:08:06.347Z</time>
      </trkpt>
      <trkpt lat="48.40956" lon="2.77599">
        <ele>59</ele>
        <time>2023-04-11T13:08:10.432Z</time>
      </trkpt>
      <trkpt lat="48.40961" lon="2.77596">
        <ele>57</ele>
        <time>2023-04-11T13:08:14.508Z</time>
      </trkpt>
      <trkpt lat="48.40966" lon="2.776">
        <ele>58</ele>
        <time>2023-04-11T13:08:18.365Z</time>
      </trkpt>
      <trkpt lat="48.40972" lon="2.77607">
        <ele>58</ele>
        <time>2023-04-11T13:08:23.062Z</time>
      </trkpt>
      <trkpt lat="48.40974" lon="2.77615">
        <ele>58</ele>
        <time>2023-04-11T13:08:27.078Z</time>
      </trkpt>
      <trkpt lat="48.40973" lon="2.77622">
        <ele>58</ele>
        <time>2023-04-11T13:08:30.837Z</time>
      </trkpt>
      <trkpt lat="48.40978" lon="2.77632">
        <ele>58</ele>
        <time>2023-04-11T13:08:35.515Z</time>
      </trkpt>
      <trkpt lat="48.4098" lon="2.7764">
        <ele>58</ele>
        <time>2023-04-11T13:08:39.534Z</time>
      </trkpt>
      <trkpt lat="48.40982" lon="2.77649">
        <ele>58</ele>
        <time>2023-04-11T13:08:44.158Z</time>
      </trkpt>
      <trkpt lat="48.40984" lon="2.77658">
        <ele>58</ele>
        <time>2023-04-11T13:08:48.562Z</time>
      </trkpt>
      <trkpt lat="48.40987" lon="2.77666">
        <ele>56</ele>
        <time>2023-04-11T13:08:52.806Z</time>
      </trkpt>
      <trkpt lat="48.40988" lon="2.77675">
        <ele>56</ele>
        <time>2023-04-11T13:08:57.406Z</time>
      </trkpt>
      <trkpt lat="48.4099" lon="2.77683">
        <ele>56</ele>
        <time>2023-04-11T13:09:01.500Z</time>
      </trkpt>
      <trkpt lat="48.40992" lon="2.7769">
        <ele>56</ele>
        <time>2023-04-11T13:09:05.316Z</time>
      </trkpt>
      <trkpt lat="48.40994" lon="2.77698">
        <ele>56</ele>
        <time>2023-04-11T13:09:09.530Z</time>
      </trkpt>
      <trkpt lat="48.40996" lon="2.77706">
        <ele>56</ele>
        <time>2023-04-11T13:09:14.002Z</time>
      </trkpt>
      <trkpt lat="48.40997" lon="2.77712">
        <ele>56</ele>
        <time>2023-04-11T13:09:17.901Z</time>
      </trkpt>
      <trkpt lat="48.40998" lon="2.77719">
        <ele>56</ele>
        <time>2023-04-11T13:09:21.900Z</time>
      </trkpt>
      <trkpt lat="48.41001" lon="2.77728">
        <ele>56</ele>
        <time>2023-04-11T13:09:25.938Z</time>
      </trkpt>
      <trkpt lat="48.41004" lon="2.77738">
        <ele>56</ele>
        <time>2023-04-11T13:09:30.688Z</time>
      </trkpt>
      <trkpt lat="48.41004" lon="2.77747">
        <ele>56</ele>
        <time>2023-04-11T13:09:34.871Z</time>
      </trkpt>
      <trkpt lat="48.41004" lon="2.77755">
        <ele>56</ele>
        <time>2023-04-11T13:09:39.184Z</time>
      </trkpt>
      <trkpt lat="48.41006" lon="2.77765">
        <ele>58</ele>
        <time>2023-04-11T13:09:43.962Z</time>
      </trkpt>
      <trkpt lat="48.41006" lon="2.77774">
        <ele>58</ele>
        <time>2023-04-11T13:09:47.768Z</time>
      </trkpt>
      <trkpt lat="48.41007" lon="2.77782">
        <ele>58</ele>
        <time>2023-04-11T13:09:52.790Z</time>
      </trkpt>
      <trkpt lat="48.41006" lon="2.77788">
        <ele>58</ele>
        <time>2023-04-11T13:09:57.179Z</time>
      </trkpt>
      <trkpt lat="48.41004" lon="2.77795">
        <ele>58</ele>
        <time>2023-04-11T13:10:01.187Z</time>
      </trkpt>
      <trkpt lat="48.41006" lon="2.77804">
        <ele>58</ele>
        <time>2023-04-11T13:10:06.178Z</time>
      </trkpt>
      <trkpt lat="48.41005" lon="2.77815">
        <ele>58</ele>
        <time>2023-04-11T13:10:10.697Z</time>
      </trkpt>
      <trkpt lat="48.41005" lon="2.77826">
        <ele>57</ele>
        <time>2023-04-11T13:10:15.316Z</time>
      </trkpt>
      <trkpt lat="48.41005" lon="2.77835">
        <ele>57</ele>
        <time>2023-04-11T13:10:19.799Z</time>
      </trkpt>
      <trkpt lat="48.41005" lon="2.77844">
        <ele>57</ele>
        <time>2023-04-11T13:10:23.704Z</time>
      </trkpt>
      <trkpt lat="48.41003" lon="2.77851">
        <ele>57</ele>
        <time>2023-04-11T13:10:27.802Z</time>
      </trkpt>
      <trkpt lat="48.41004" lon="2.7786">
        <ele>57</ele>
        <time>2023-04-11T13:10:31.680Z</time>
      </trkpt>
      <trkpt lat="48.41005" lon="2.77865">
        <ele>57</ele>
        <time>2023-04-11T13:10:35.753Z</time>
      </trkpt>
      <trkpt lat="48.41004" lon="2.77865">
        <ele>57</ele>
        <time>2023-04-11T13:10:40.905Z</time>
      </trkpt>
      <trkpt lat="48.41004" lon="2.77872">
        <ele>57</ele>
        <time>2023-04-11T13:10:45.699Z</time>
      </trkpt>
      <trkpt lat="48.41004" lon="2.77883">
        <ele>57</ele>
        <time>2023-04-11T13:10:50.146Z</time>
      </trkpt>
      <trkpt lat="48.41006" lon="2.7789">
        <ele>57</ele>
        <time>2023-04-11T13:10:54.163Z</time>
      </trkpt>
      <trkpt lat="48.41005" lon="2.77899">
        <ele>57</ele>
        <time>2023-04-11T13:10:58.667Z</time>
      </trkpt>
      <trkpt lat="48.41001" lon="2.77905">
        <ele>58</ele>
        <time>2023-04-11T13:11:02.742Z</time>
      </trkpt>
      <trkpt lat="48.41" lon="2.77914">
        <ele>58</ele>
        <time>2023-04-11T13:11:07.896Z</time>
      </trkpt>
      <trkpt lat="48.41" lon="2.77922">
        <ele>58</ele>
        <time>2023-04-11T13:11:11.871Z</time>
      </trkpt>
      <trkpt lat="48.40999" lon="2.77932">
        <ele>58</ele>
        <time>2023-04-11T13:11:16.305Z</time>
      </trkpt>
      <trkpt lat="48.40996" lon="2.77941">
        <ele>58</ele>
        <time>2023-04-11T13:11:20.858Z</time>
      </trkpt>
      <trkpt lat="48.40995" lon="2.77951">
        <ele>58</ele>
        <time>2023-04-11T13:11:25.894Z</time>
      </trkpt>
      <trkpt lat="48.40993" lon="2.77959">
        <ele>59</ele>
        <time>2023-04-11T13:11:30.030Z</time>
      </trkpt>
      <trkpt lat="48.40992" lon="2.77968">
        <ele>59</ele>
        <time>2023-04-11T13:11:34.665Z</time>
      </trkpt>
      <trkpt lat="48.40992" lon="2.77975">
        <ele>59</ele>
        <time>2023-04-11T13:11:38.742Z</time>
      </trkpt>
      <trkpt lat="48.40991" lon="2.77985">
        <ele>59</ele>
        <time>2023-04-11T13:11:43.297Z</time>
      </trkpt>
      <trkpt lat="48.40989" lon="2.77993">
        <ele>60</ele>
        <time>2023-04-11T13:11:47.743Z</time>
      </trkpt>
      <trkpt lat="48.40989" lon="2.78002">
        <ele>60</ele>
        <time>2023-04-11T13:11:51.667Z</time>
      </trkpt>
      <trkpt lat="48.40988" lon="2.7801">
        <ele>60</ele>
        <time>2023-04-11T13:11:55.741Z</time>
      </trkpt>
      <trkpt lat="48.40987" lon="2.7802">
        <ele>60</ele>
        <time>2023-04-11T13:12:00.295Z</time>
      </trkpt>
      <trkpt lat="48.40987" lon="2.7803">
        <ele>60</ele>
        <time>2023-04-11T13:12:04.852Z</time>
      </trkpt>
      <trkpt lat="48.40989" lon="2.78037">
        <ele>60</ele>
        <time>2023-04-11T13:12:10.128Z</time>
      </trkpt>
      <trkpt lat="48.40988" lon="2.78047">
        <ele>59</ele>
        <time>2023-04-11T13:12:14.685Z</time>
      </trkpt>
      <trkpt lat="48.40987" lon="2.78055">
        <ele>59</ele>
        <time>2023-04-11T13:12:18.881Z</time>
      </trkpt>
      <trkpt lat="48.40985" lon="2.78065">
        <ele>59</ele>
        <time>2023-04-11T13:12:22.838Z</time>
      </trkpt>
      <trkpt lat="48.40983" lon="2.78073">
        <ele>59</ele>
        <time>2023-04-11T13:12:27.825Z</time>
      </trkpt>
      <trkpt lat="48.40983" lon="2.78079">
        <ele>59</ele>
        <time>2023-04-11T13:12:32.264Z</time>
      </trkpt>
      <trkpt lat="48.4098" lon="2.78088">
        <ele>59</ele>
        <time>2023-04-11T13:12:36.679Z</time>
      </trkpt>
      <trkpt lat="48.40979" lon="2.78097">
        <ele>59</ele>
        <time>2023-04-11T13:12:41.893Z</time>
      </trkpt>
      <trkpt lat="48.40979" lon="2.78106">
        <ele>59</ele>
        <time>2023-04-11T13:12:46.100Z</time>
      </trkpt>
      <trkpt lat="48.40976" lon="2.78113">
        <ele>59</ele>
        <time>2023-04-11T13:12:50.165Z</time>
      </trkpt>
      <trkpt lat="48.40974" lon="2.78123">
        <ele>59</ele>
        <time>2023-04-11T13:12:54.763Z</time>
      </trkpt>
      <trkpt lat="48.40971" lon="2.78131">
        <ele>59</ele>
        <time>2023-04-11T13:12:58.711Z</time>
      </trkpt>
      <trkpt lat="48.40969" lon="2.7814">
        <ele>59</ele>
        <time>2023-04-11T13:13:03.316Z</time>
      </trkpt>
      <trkpt lat="48.40969" lon="2.78148">
        <ele>59</ele>
        <time>2023-04-11T13:13:07.922Z</time>
      </trkpt>
      <trkpt lat="48.40968" lon="2.78156">
        <ele>59</ele>
        <time>2023-04-11T13:13:12.423Z</time>
      </trkpt>
      <trkpt lat="48.40968" lon="2.78164">
        <ele>59</ele>
        <time>2023-04-11T13:13:16.457Z</time>
      </trkpt>
      <trkpt lat="48.40964" lon="2.78171">
        <ele>59</ele>
        <time>2023-04-11T13:13:20.892Z</time>
      </trkpt>
      <trkpt lat="48.40962" lon="2.7818">
        <ele>59</ele>
        <time>2023-04-11T13:13:25.370Z</time>
      </trkpt>
      <trkpt lat="48.40963" lon="2.78186">
        <ele>57</ele>
        <time>2023-04-11T13:13:30.006Z</time>
      </trkpt>
      <trkpt lat="48.40959" lon="2.78196">
        <ele>57</ele>
        <time>2023-04-11T13:13:34.545Z</time>
      </trkpt>
      <trkpt lat="48.40956" lon="2.78206">
        <ele>58</ele>
        <time>2023-04-11T13:13:39.020Z</time>
      </trkpt>
      <trkpt lat="48.40952" lon="2.78216">
        <ele>57</ele>
        <time>2023-04-11T13:13:43.677Z</time>
      </trkpt>
      <trkpt lat="48.40951" lon="2.78222">
        <ele>57</ele>
        <time>2023-04-11T13:13:47.875Z</time>
      </trkpt>
      <trkpt lat="48.40949" lon="2.78227">
        <ele>57</ele>
        <time>2023-04-11T13:13:52.345Z</time>
      </trkpt>
      <trkpt lat="48.40946" lon="2.7823">
        <ele>57</ele>
        <time>2023-04-11T13:13:56.920Z</time>
      </trkpt>
      <trkpt lat="48.40952" lon="2.78227">
        <ele>57</ele>
        <time>2023-04-11T13:14:15.119Z</time>
      </trkpt>
      <trkpt lat="48.40953" lon="2.78227">
        <ele>57</ele>
        <time>2023-04-11T13:14:19.260Z</time>
      </trkpt>
      <trkpt lat="48.4096" lon="2.78231">
        <ele>57</ele>
        <time>2023-04-11T13:14:23.841Z</time>
      </trkpt>
      <trkpt lat="48.40965" lon="2.78236">
        <ele>57</ele>
        <time>2023-04-11T13:14:27.904Z</time>
      </trkpt>
      <trkpt lat="48.40971" lon="2.78235">
        <ele>57</ele>
        <time>2023-04-11T13:14:31.908Z</time>
      </trkpt>
      <trkpt lat="48.40974" lon="2.78237">
        <ele>56</ele>
        <time>2023-04-11T13:14:35.914Z</time>
      </trkpt>
      <trkpt lat="48.40978" lon="2.78241">
        <ele>56</ele>
        <time>2023-04-11T13:14:39.918Z</time>
      </trkpt>
      <trkpt lat="48.40981" lon="2.78246">
        <ele>56</ele>
        <time>2023-04-11T13:14:44.481Z</time>
      </trkpt>
      <trkpt lat="48.40987" lon="2.78248">
        <ele>55</ele>
        <time>2023-04-11T13:14:49.122Z</time>
      </trkpt>
      <trkpt lat="48.40991" lon="2.7825">
        <ele>55</ele>
        <time>2023-04-11T13:14:52.743Z</time>
      </trkpt>
      <trkpt lat="48.40996" lon="2.78254">
        <ele>55</ele>
        <time>2023-04-11T13:14:57.316Z</time>
      </trkpt>
      <trkpt lat="48.41002" lon="2.78256">
        <ele>55</ele>
        <time>2023-04-11T13:15:01.778Z</time>
      </trkpt>
      <trkpt lat="48.41007" lon="2.78262">
        <ele>55</ele>
        <time>2023-04-11T13:15:05.735Z</time>
      </trkpt>
      <trkpt lat="48.41013" lon="2.78265">
        <ele>54</ele>
        <time>2023-04-11T13:15:10.434Z</time>
      </trkpt>
      <trkpt lat="48.41018" lon="2.78268">
        <ele>52</ele>
        <time>2023-04-11T13:15:14.843Z</time>
      </trkpt>
      <trkpt lat="48.41023" lon="2.78273">
        <ele>52</ele>
        <time>2023-04-11T13:15:18.772Z</time>
      </trkpt>
      <trkpt lat="48.41027" lon="2.78276">
        <ele>52</ele>
        <time>2023-04-11T13:15:22.673Z</time>
      </trkpt>
      <trkpt lat="48.41032" lon="2.78278">
        <ele>52</ele>
        <time>2023-04-11T13:15:27.132Z</time>
      </trkpt>
      <trkpt lat="48.41036" lon="2.78287">
        <ele>52</ele>
        <time>2023-04-11T13:15:31.689Z</time>
      </trkpt>
      <trkpt lat="48.4104" lon="2.78294">
        <ele>51</ele>
        <time>2023-04-11T13:15:36.126Z</time>
      </trkpt>
      <trkpt lat="48.41046" lon="2.78294">
        <ele>49</ele>
        <time>2023-04-11T13:15:40.552Z</time>
      </trkpt>
      <trkpt lat="48.41051" lon="2.78299">
        <ele>49</ele>
        <time>2023-04-11T13:15:45.175Z</time>
      </trkpt>
      <trkpt lat="48.41058" lon="2.78302">
        <ele>49</ele>
        <time>2023-04-11T13:15:49.607Z</time>
      </trkpt>
      <trkpt lat="48.41062" lon="2.78307">
        <ele>49</ele>
        <time>2023-04-11T13:15:54.161Z</time>
      </trkpt>
      <trkpt lat="48.41067" lon="2.78312">
        <ele>49</ele>
        <time>2023-04-11T13:15:58.586Z</time>
      </trkpt>
      <trkpt lat="48.41068" lon="2.78322">
        <ele>49</ele>
        <time>2023-04-11T13:16:11.023Z</time>
      </trkpt>
      <trkpt lat="48.41068" lon="2.78324">
        <ele>49</ele>
        <time>2023-04-11T13:16:14.864Z</time>
      </trkpt>
      <trkpt lat="48.41064" lon="2.78329">
        <ele>49</ele>
        <time>2023-04-11T13:16:19.903Z</time>
      </trkpt>
      <trkpt lat="48.4106" lon="2.78332">
        <ele>49</ele>
        <time>2023-04-11T13:16:24.188Z</time>
      </trkpt>
      <trkpt lat="48.41058" lon="2.78334">
        <ele>49</ele>
        <time>2023-04-11T13:16:28.702Z</time>
      </trkpt>
      <trkpt lat="48.41054" lon="2.78339">
        <ele>49</ele>
        <time>2023-04-11T13:16:33.261Z</time>
      </trkpt>
      <trkpt lat="48.41051" lon="2.78346">
        <ele>49</ele>
        <time>2023-04-11T13:16:37.700Z</time>
      </trkpt>
      <trkpt lat="48.41047" lon="2.78353">
        <ele>48</ele>
        <time>2023-04-11T13:16:41.774Z</time>
      </trkpt>
      <trkpt lat="48.41044" lon="2.78359">
        <ele>48</ele>
        <time>2023-04-11T13:16:46.173Z</time>
      </trkpt>
      <trkpt lat="48.41041" lon="2.78365">
        <ele>50</ele>
        <time>2023-04-11T13:17:16.713Z</time>
      </trkpt>
      <trkpt lat="48.41042" lon="2.78363">
        <ele>48</ele>
        <time>2023-04-11T13:17:21.718Z</time>
      </trkpt>
      <trkpt lat="48.41045" lon="2.7836">
        <ele>48</ele>
        <time>2023-04-11T13:17:26.242Z</time>
      </trkpt>
      <trkpt lat="48.4105" lon="2.78351">
        <ele>48</ele>
        <time>2023-04-11T13:17:30.461Z</time>
      </trkpt>
      <trkpt lat="48.41054" lon="2.78345">
        <ele>49</ele>
        <time>2023-04-11T13:17:34.823Z</time>
      </trkpt>
      <trkpt lat="48.41057" lon="2.78337">
        <ele>49</ele>
        <time>2023-04-11T13:17:38.844Z</time>
      </trkpt>
      <trkpt lat="48.4106" lon="2.78331">
        <ele>49</ele>
        <time>2023-04-11T13:17:43.466Z</time>
      </trkpt>
      <trkpt lat="48.41064" lon="2.78325">
        <ele>49</ele>
        <time>2023-04-11T13:17:47.906Z</time>
      </trkpt>
      <trkpt lat="48.41067" lon="2.78322">
        <ele>49</ele>
        <time>2023-04-11T13:17:52.316Z</time>
      </trkpt>
      <trkpt lat="48.41069" lon="2.78316">
        <ele>49</ele>
        <time>2023-04-11T13:18:15.166Z</time>
      </trkpt>
      <trkpt lat="48.41065" lon="2.78312">
        <ele>49</ele>
        <time>2023-04-11T13:18:19.124Z</time>
      </trkpt>
      <trkpt lat="48.4106" lon="2.78305">
        <ele>49</ele>
        <time>2023-04-11T13:18:23.465Z</time>
      </trkpt>
      <trkpt lat="48.41055" lon="2.78299">
        <ele>49</ele>
        <time>2023-04-11T13:18:27.820Z</time>
      </trkpt>
      <trkpt lat="48.41049" lon="2.78295">
        <ele>49</ele>
        <time>2023-04-11T13:18:31.679Z</time>
      </trkpt>
      <trkpt lat="48.41043" lon="2.78304">
        <ele>49</ele>
        <time>2023-04-11T13:18:35.738Z</time>
      </trkpt>
      <trkpt lat="48.41037" lon="2.78311">
        <ele>51</ele>
        <time>2023-04-11T13:18:40.316Z</time>
      </trkpt>
      <trkpt lat="48.41033" lon="2.78318">
        <ele>51</ele>
        <time>2023-04-11T13:18:44.617Z</time>
      </trkpt>
      <trkpt lat="48.41029" lon="2.78326">
        <ele>50</ele>
        <time>2023-04-11T13:18:49.017Z</time>
      </trkpt>
      <trkpt lat="48.41026" lon="2.78332">
        <ele>50</ele>
        <time>2023-04-11T13:18:53.237Z</time>
      </trkpt>
      <trkpt lat="48.41023" lon="2.78339">
        <ele>50</ele>
        <time>2023-04-11T13:18:57.418Z</time>
      </trkpt>
      <trkpt lat="48.4102" lon="2.78346">
        <ele>50</ele>
        <time>2023-04-11T13:19:01.238Z</time>
      </trkpt>
      <trkpt lat="48.41017" lon="2.78353">
        <ele>50</ele>
        <time>2023-04-11T13:19:05.701Z</time>
      </trkpt>
      <trkpt lat="48.41015" lon="2.7836">
        <ele>50</ele>
        <time>2023-04-11T13:19:09.459Z</time>
      </trkpt>
      <trkpt lat="48.41011" lon="2.78366">
        <ele>52</ele>
        <time>2023-04-11T13:19:14.162Z</time>
      </trkpt>
      <trkpt lat="48.41006" lon="2.78375">
        <ele>50</ele>
        <time>2023-04-11T13:19:18.539Z</time>
      </trkpt>
      <trkpt lat="48.41003" lon="2.78383">
        <ele>50</ele>
        <time>2023-04-11T13:19:23.177Z</time>
      </trkpt>
      <trkpt lat="48.41" lon="2.78389">
        <ele>50</ele>
        <time>2023-04-11T13:19:27.190Z</time>
      </trkpt>
      <trkpt lat="48.40996" lon="2.78394">
        <ele>50</ele>
        <time>2023-04-11T13:19:31.292Z</time>
      </trkpt>
      <trkpt lat="48.40993" lon="2.78401">
        <ele>50</ele>
        <time>2023-04-11T13:19:35.291Z</time>
      </trkpt>
      <trkpt lat="48.40992" lon="2.78409">
        <ele>50</ele>
        <time>2023-04-11T13:19:39.611Z</time>
      </trkpt>
      <trkpt lat="48.40995" lon="2.78416">
        <ele>50</ele>
        <time>2023-04-11T13:19:44.114Z</time>
      </trkpt>
      <trkpt lat="48.40998" lon="2.78422">
        <ele>50</ele>
        <time>2023-04-11T13:19:48.315Z</time>
      </trkpt>
      <trkpt lat="48.41002" lon="2.78429">
        <ele>50</ele>
        <time>2023-04-11T13:19:52.695Z</time>
      </trkpt>
      <trkpt lat="48.41006" lon="2.78437">
        <ele>51</ele>
        <time>2023-04-11T13:19:57.316Z</time>
      </trkpt>
      <trkpt lat="48.41009" lon="2.78443">
        <ele>51</ele>
        <time>2023-04-11T13:20:01.185Z</time>
      </trkpt>
      <trkpt lat="48.4101" lon="2.78451">
        <ele>51</ele>
        <time>2023-04-11T13:20:05.752Z</time>
      </trkpt>
      <trkpt lat="48.41009" lon="2.78459">
        <ele>51</ele>
        <time>2023-04-11T13:20:10.311Z</time>
      </trkpt>
      <trkpt lat="48.41009" lon="2.7846">
        <ele>51</ele>
        <time>2023-04-11T13:20:14.316Z</time>
      </trkpt>
      <trkpt lat="48.41009" lon="2.7846">
        <ele>51</ele>
        <time>2023-04-11T13:20:28.162Z</time>
      </trkpt>
      <trkpt lat="48.4101" lon="2.78459">
        <ele>51</ele>
        <time>2023-04-11T13:20:32.660Z</time>
      </trkpt>
      <trkpt lat="48.4101" lon="2.78455">
        <ele>51</ele>
        <time>2023-04-11T13:20:36.801Z</time>
      </trkpt>
      <trkpt lat="48.4101" lon="2.78449">
        <ele>51</ele>
        <time>2023-04-11T13:20:40.759Z</time>
      </trkpt>
      <trkpt lat="48.41008" lon="2.78442">
        <ele>51</ele>
        <time>2023-04-11T13:20:45.316Z</time>
      </trkpt>
      <trkpt lat="48.41004" lon="2.78435">
        <ele>51</ele>
        <time>2023-04-11T13:20:49.856Z</time>
      </trkpt>
      <trkpt lat="48.41" lon="2.78428">
        <ele>50</ele>
        <time>2023-04-11T13:20:53.814Z</time>
      </trkpt>
      <trkpt lat="48.41003" lon="2.78421">
        <ele>50</ele>
        <time>2023-04-11T13:20:58.692Z</time>
      </trkpt>
      <trkpt lat="48.41007" lon="2.78413">
        <ele>50</ele>
        <time>2023-04-11T13:21:03.001Z</time>
      </trkpt>
      <trkpt lat="48.4101" lon="2.78401">
        <ele>50</ele>
        <time>2023-04-11T13:21:30.224Z</time>
      </trkpt>
      <trkpt lat="48.41006" lon="2.78396">
        <ele>50</ele>
        <time>2023-04-11T13:21:34.720Z</time>
      </trkpt>
      <trkpt lat="48.41005" lon="2.78388">
        <ele>50</ele>
        <time>2023-04-11T13:21:38.913Z</time>
      </trkpt>
      <trkpt lat="48.41007" lon="2.78381">
        <ele>50</ele>
        <time>2023-04-11T13:21:43.243Z</time>
      </trkpt>
      <trkpt lat="48.41009" lon="2.78371">
        <ele>52</ele>
        <time>2023-04-11T13:21:47.787Z</time>
      </trkpt>
      <trkpt lat="48.41011" lon="2.78364">
        <ele>52</ele>
        <time>2023-04-11T13:21:52.316Z</time>
      </trkpt>
      <trkpt lat="48.41015" lon="2.78355">
        <ele>50</ele>
        <time>2023-04-11T13:21:56.722Z</time>
      </trkpt>
      <trkpt lat="48.41018" lon="2.78348">
        <ele>50</ele>
        <time>2023-04-11T13:22:00.881Z</time>
      </trkpt>
      <trkpt lat="48.41023" lon="2.78343">
        <ele>50</ele>
        <time>2023-04-11T13:22:06.175Z</time>
      </trkpt>
      <trkpt lat="48.41026" lon="2.78337">
        <ele>50</ele>
        <time>2023-04-11T13:22:10.278Z</time>
      </trkpt>
      <trkpt lat="48.41029" lon="2.7833">
        <ele>50</ele>
        <time>2023-04-11T13:22:14.834Z</time>
      </trkpt>
      <trkpt lat="48.41032" lon="2.78322">
        <ele>50</ele>
        <time>2023-04-11T13:22:18.910Z</time>
      </trkpt>
      <trkpt lat="48.41036" lon="2.78315">
        <ele>51</ele>
        <time>2023-04-11T13:22:22.788Z</time>
      </trkpt>
      <trkpt lat="48.41041" lon="2.78309">
        <ele>51</ele>
        <time>2023-04-11T13:22:27.826Z</time>
      </trkpt>
      <trkpt lat="48.41045" lon="2.78304">
        <ele>49</ele>
        <time>2023-04-11T13:22:31.723Z</time>
      </trkpt>
      <trkpt lat="48.4105" lon="2.78302">
        <ele>49</ele>
        <time>2023-04-11T13:22:36.277Z</time>
      </trkpt>
      <trkpt lat="48.41055" lon="2.78307">
        <ele>49</ele>
        <time>2023-04-11T13:22:40.674Z</time>
      </trkpt>
      <trkpt lat="48.41062" lon="2.7831">
        <ele>49</ele>
        <time>2023-04-11T13:22:45.072Z</time>
      </trkpt>
      <trkpt lat="48.41068" lon="2.78315">
        <ele>49</ele>
        <time>2023-04-11T13:22:49.626Z</time>
      </trkpt>
      <trkpt lat="48.41069" lon="2.78319">
        <ele>49</ele>
        <time>2023-04-11T13:22:53.581Z</time>
      </trkpt>
      <trkpt lat="48.41074" lon="2.78325">
        <ele>48</ele>
        <time>2023-04-11T13:22:58.016Z</time>
      </trkpt>
      <trkpt lat="48.41078" lon="2.78332">
        <ele>48</ele>
        <time>2023-04-11T13:23:01.851Z</time>
      </trkpt>
      <trkpt lat="48.41081" lon="2.7834">
        <ele>48</ele>
        <time>2023-04-11T13:23:06.407Z</time>
      </trkpt>
      <trkpt lat="48.41085" lon="2.78347">
        <ele>48</ele>
        <time>2023-04-11T13:23:10.723Z</time>
      </trkpt>
      <trkpt lat="48.41087" lon="2.78352">
        <ele>47</ele>
        <time>2023-04-11T13:23:14.678Z</time>
      </trkpt>
      <trkpt lat="48.41087" lon="2.78361">
        <ele>47</ele>
        <time>2023-04-11T13:23:19.697Z</time>
      </trkpt>
      <trkpt lat="48.41089" lon="2.7837">
        <ele>47</ele>
        <time>2023-04-11T13:23:24.132Z</time>
      </trkpt>
      <trkpt lat="48.41097" lon="2.78374">
        <ele>46</ele>
        <time>2023-04-11T13:23:28.262Z</time>
      </trkpt>
      <trkpt lat="48.41102" lon="2.78379">
        <ele>46</ele>
        <time>2023-04-11T13:23:32.548Z</time>
      </trkpt>
      <trkpt lat="48.41106" lon="2.78386">
        <ele>46</ele>
        <time>2023-04-11T13:23:36.907Z</time>
      </trkpt>
      <trkpt lat="48.41109" lon="2.78392">
        <ele>46</ele>
        <time>2023-04-11T13:23:41.100Z</time>
      </trkpt>
      <trkpt lat="48.4111" lon="2.784">
        <ele>46</ele>
        <time>2023-04-11T13:23:45.297Z</time>
      </trkpt>
      <trkpt lat="48.41109" lon="2.78409">
        <ele>46</ele>
        <time>2023-04-11T13:23:49.493Z</time>
      </trkpt>
      <trkpt lat="48.41108" lon="2.78418">
        <ele>46</ele>
        <time>2023-04-11T13:23:54.152Z</time>
      </trkpt>
      <trkpt lat="48.41108" lon="2.78425">
        <ele>46</ele>
        <time>2023-04-11T13:23:58.068Z</time>
      </trkpt>
      <trkpt lat="48.41106" lon="2.78432">
        <ele>47</ele>
        <time>2023-04-11T13:24:02.507Z</time>
      </trkpt>
      <trkpt lat="48.41104" lon="2.78439">
        <ele>47</ele>
        <time>2023-04-11T13:24:07.046Z</time>
      </trkpt>
      <trkpt lat="48.41102" lon="2.78445">
        <ele>47</ele>
        <time>2023-04-11T13:24:11.021Z</time>
      </trkpt>
      <trkpt lat="48.411" lon="2.78453">
        <ele>47</ele>
        <time>2023-04-11T13:24:15.699Z</time>
      </trkpt>
      <trkpt lat="48.41098" lon="2.78461">
        <ele>47</ele>
        <time>2023-04-11T13:24:19.894Z</time>
      </trkpt>
      <trkpt lat="48.41096" lon="2.7847">
        <ele>47</ele>
        <time>2023-04-11T13:24:23.849Z</time>
      </trkpt>
      <trkpt lat="48.41094" lon="2.78478">
        <ele>47</ele>
        <time>2023-04-11T13:24:27.688Z</time>
      </trkpt>
      <trkpt lat="48.41092" lon="2.78485">
        <ele>47</ele>
        <time>2023-04-11T13:24:32.316Z</time>
      </trkpt>
      <trkpt lat="48.41091" lon="2.78495">
        <ele>48</ele>
        <time>2023-04-11T13:24:36.919Z</time>
      </trkpt>
      <trkpt lat="48.41091" lon="2.78506">
        <ele>48</ele>
        <time>2023-04-11T13:24:41.433Z</time>
      </trkpt>
      <trkpt lat="48.41093" lon="2.78512">
        <ele>48</ele>
        <time>2023-04-11T13:24:45.984Z</time>
      </trkpt>
      <trkpt lat="48.41095" lon="2.78517">
        <ele>48</ele>
        <time>2023-04-11T13:24:49.990Z</time>
      </trkpt>
      <trkpt lat="48.41095" lon="2.78524">
        <ele>48</ele>
        <time>2023-04-11T13:24:54.132Z</time>
      </trkpt>
      <trkpt lat="48.41094" lon="2.78532">
        <ele>48</ele>
        <time>2023-04-11T13:24:58.671Z</time>
      </trkpt>
      <trkpt lat="48.41095" lon="2.78536">
        <ele>48</ele>
        <time>2023-04-11T13:25:03.745Z</time>
      </trkpt>
      <trkpt lat="48.41096" lon="2.78541">
        <ele>48</ele>
        <time>2023-04-11T13:25:07.758Z</time>
      </trkpt>
      <trkpt lat="48.41094" lon="2.78548">
        <ele>48</ele>
        <time>2023-04-11T13:25:12.286Z</time>
      </trkpt>
      <trkpt lat="48.4109" lon="2.78555">
        <ele>48</ele>
        <time>2023-04-11T13:25:16.381Z</time>
      </trkpt>
      <trkpt lat="48.41086" lon="2.78561">
        <ele>48</ele>
        <time>2023-04-11T13:25:20.991Z</time>
      </trkpt>
      <trkpt lat="48.41084" lon="2.78568">
        <ele>48</ele>
        <time>2023-04-11T13:25:25.001Z</time>
      </trkpt>
      <trkpt lat="48.41085" lon="2.78576">
        <ele>48</ele>
        <time>2023-04-11T13:25:29.511Z</time>
      </trkpt>
      <trkpt lat="48.41086" lon="2.78579">
        <ele>48</ele>
        <time>2023-04-11T13:25:34.022Z</time>
      </trkpt>
      <trkpt lat="48.41084" lon="2.78583">
        <ele>48</ele>
        <time>2023-04-11T13:25:44.090Z</time>
      </trkpt>
      <trkpt lat="48.41083" lon="2.78583">
        <ele>48</ele>
        <time>2023-04-11T13:25:48.097Z</time>
      </trkpt>
      <trkpt lat="48.41083" lon="2.78584">
        <ele>48</ele>
        <time>2023-04-11T13:25:52.100Z</time>
      </trkpt>
      <trkpt lat="48.41082" lon="2.78588">
        <ele>48</ele>
        <time>2023-04-11T13:25:56.822Z</time>
      </trkpt>
      <trkpt lat="48.41081" lon="2.78594">
        <ele>48</ele>
        <time>2023-04-11T13:26:00.743Z</time>
      </trkpt>
      <trkpt lat="48.41078" lon="2.786">
        <ele>48</ele>
        <time>2023-04-11T13:26:05.155Z</time>
      </trkpt>
      <trkpt lat="48.41077" lon="2.78603">
        <ele>48</ele>
        <time>2023-04-11T13:26:08.943Z</time>
      </trkpt>
      <trkpt lat="48.41077" lon="2.7861">
        <ele>48</ele>
        <time>2023-04-11T13:26:13.316Z</time>
      </trkpt>
      <trkpt lat="48.41075" lon="2.78616">
        <ele>48</ele>
        <time>2023-04-11T13:26:17.743Z</time>
      </trkpt>
      <trkpt lat="48.41075" lon="2.7862">
        <ele>48</ele>
        <time>2023-04-11T13:26:21.525Z</time>
      </trkpt>
      <trkpt lat="48.41077" lon="2.78619">
        <ele>48</ele>
        <time>2023-04-11T13:26:26.105Z</time>
      </trkpt>
      <trkpt lat="48.41077" lon="2.78624">
        <ele>48</ele>
        <time>2023-04-11T13:26:30.425Z</time>
      </trkpt>
      <trkpt lat="48.41074" lon="2.78633">
        <ele>48</ele>
        <time>2023-04-11T13:26:35.042Z</time>
      </trkpt>
      <trkpt lat="48.41075" lon="2.78637">
        <ele>48</ele>
        <time>2023-04-11T13:26:38.668Z</time>
      </trkpt>
      <trkpt lat="48.41076" lon="2.78642">
        <ele>48</ele>
        <time>2023-04-11T13:26:43.184Z</time>
      </trkpt>
      <trkpt lat="48.4107" lon="2.78653">
        <ele>48</ele>
        <time>2023-04-11T13:26:47.697Z</time>
      </trkpt>
      <trkpt lat="48.41067" lon="2.78655">
        <ele>49</ele>
        <time>2023-04-11T13:26:51.708Z</time>
      </trkpt>
      <trkpt lat="48.41065" lon="2.78659">
        <ele>49</ele>
        <time>2023-04-11T13:26:56.227Z</time>
      </trkpt>
      <trkpt lat="48.41061" lon="2.78662">
        <ele>49</ele>
        <time>2023-04-11T13:27:00.838Z</time>
      </trkpt>
      <trkpt lat="48.41056" lon="2.78655">
        <ele>49</ele>
        <time>2023-04-11T13:27:04.841Z</time>
      </trkpt>
      <trkpt lat="48.4105" lon="2.7865">
        <ele>49</ele>
        <time>2023-04-11T13:27:09.182Z</time>
      </trkpt>
      <trkpt lat="48.41045" lon="2.78646">
        <ele>49</ele>
        <time>2023-04-11T13:27:13.849Z</time>
      </trkpt>
      <trkpt lat="48.41042" lon="2.78644">
        <ele>49</ele>
        <time>2023-04-11T13:27:17.868Z</time>
      </trkpt>
      <trkpt lat="48.4104" lon="2.78644">
        <ele>49</ele>
        <time>2023-04-11T13:27:22.388Z</time>
      </trkpt>
      <trkpt lat="48.41037" lon="2.78635">
        <ele>49</ele>
        <time>2023-04-11T13:27:26.898Z</time>
      </trkpt>
      <trkpt lat="48.41034" lon="2.78628">
        <ele>49</ele>
        <time>2023-04-11T13:27:30.502Z</time>
      </trkpt>
      <trkpt lat="48.4103" lon="2.78613">
        <ele>49</ele>
        <time>2023-04-11T13:27:56.556Z</time>
      </trkpt>
      <trkpt lat="48.41028" lon="2.78612">
        <ele>49</ele>
        <time>2023-04-11T13:28:01.076Z</time>
      </trkpt>
      <trkpt lat="48.41017" lon="2.78616">
        <ele>49</ele>
        <time>2023-04-11T13:28:06.087Z</time>
      </trkpt>
      <trkpt lat="48.4101" lon="2.78615">
        <ele>50</ele>
        <time>2023-04-11T13:28:11.093Z</time>
      </trkpt>
      <trkpt lat="48.41006" lon="2.78616">
        <ele>50</ele>
        <time>2023-04-11T13:28:15.096Z</time>
      </trkpt>
      <trkpt lat="48.41003" lon="2.78617">
        <ele>50</ele>
        <time>2023-04-11T13:28:18.658Z</time>
      </trkpt>
      <trkpt lat="48.40999" lon="2.78618">
        <ele>50</ele>
        <time>2023-04-11T13:28:23.181Z</time>
      </trkpt>
      <trkpt lat="48.40993" lon="2.78616">
        <ele>50</ele>
        <time>2023-04-11T13:28:27.685Z</time>
      </trkpt>
      <trkpt lat="48.40988" lon="2.78613">
        <ele>50</ele>
        <time>2023-04-11T13:28:32.868Z</time>
      </trkpt>
      <trkpt lat="48.40984" lon="2.7861">
        <ele>51</ele>
        <time>2023-04-11T13:28:36.990Z</time>
      </trkpt>
      <trkpt lat="48.40981" lon="2.786">
        <ele>51</ele>
        <time>2023-04-11T13:28:41.494Z</time>
      </trkpt>
      <trkpt lat="48.4098" lon="2.78594">
        <ele>51</ele>
        <time>2023-04-11T13:28:45.598Z</time>
      </trkpt>
      <trkpt lat="48.40981" lon="2.78585">
        <ele>51</ele>
        <time>2023-04-11T13:28:49.839Z</time>
      </trkpt>
      <trkpt lat="48.4098" lon="2.78577">
        <ele>51</ele>
        <time>2023-04-11T13:28:54.139Z</time>
      </trkpt>
      <trkpt lat="48.40978" lon="2.78569">
        <ele>52</ele>
        <time>2023-04-11T13:28:58.170Z</time>
      </trkpt>
      <trkpt lat="48.40975" lon="2.78561">
        <ele>52</ele>
        <time>2023-04-11T13:29:02.657Z</time>
      </trkpt>
      <trkpt lat="48.40971" lon="2.78556">
        <ele>52</ele>
        <time>2023-04-11T13:29:06.719Z</time>
      </trkpt>
      <trkpt lat="48.4097" lon="2.78548">
        <ele>52</ele>
        <time>2023-04-11T13:29:11.302Z</time>
      </trkpt>
      <trkpt lat="48.40968" lon="2.78541">
        <ele>52</ele>
        <time>2023-04-11T13:29:15.402Z</time>
      </trkpt>
      <trkpt lat="48.40965" lon="2.78532">
        <ele>52</ele>
        <time>2023-04-11T13:29:19.965Z</time>
      </trkpt>
      <trkpt lat="48.40962" lon="2.78521">
        <ele>52</ele>
        <time>2023-04-11T13:29:24.489Z</time>
      </trkpt>
      <trkpt lat="48.40959" lon="2.78514">
        <ele>53</ele>
        <time>2023-04-11T13:29:29.005Z</time>
      </trkpt>
      <trkpt lat="48.40956" lon="2.78504">
        <ele>54</ele>
        <time>2023-04-11T13:29:33.097Z</time>
      </trkpt>
      <trkpt lat="48.40953" lon="2.78497">
        <ele>54</ele>
        <time>2023-04-11T13:29:36.718Z</time>
      </trkpt>
      <trkpt lat="48.40948" lon="2.78493">
        <ele>54</ele>
        <time>2023-04-11T13:29:41.659Z</time>
      </trkpt>
      <trkpt lat="48.40945" lon="2.78485">
        <ele>54</ele>
        <time>2023-04-11T13:29:46.163Z</time>
      </trkpt>
      <trkpt lat="48.4094" lon="2.78479">
        <ele>54</ele>
        <time>2023-04-11T13:29:50.501Z</time>
      </trkpt>
      <trkpt lat="48.40937" lon="2.78475">
        <ele>54</ele>
        <time>2023-04-11T13:29:54.739Z</time>
      </trkpt>
      <trkpt lat="48.40935" lon="2.78473">
        <ele>54</ele>
        <time>2023-04-11T13:29:58.752Z</time>
      </trkpt>
      <trkpt lat="48.40936" lon="2.78463">
        <ele>54</ele>
        <time>2023-04-11T13:30:22.033Z</time>
      </trkpt>
      <trkpt lat="48.40932" lon="2.78457">
        <ele>54</ele>
        <time>2023-04-11T13:30:26.255Z</time>
      </trkpt>
      <trkpt lat="48.40924" lon="2.78449">
        <ele>55</ele>
        <time>2023-04-11T13:30:30.887Z</time>
      </trkpt>
      <trkpt lat="48.4092" lon="2.78442">
        <ele>55</ele>
        <time>2023-04-11T13:30:34.997Z</time>
      </trkpt>
      <trkpt lat="48.40916" lon="2.78437">
        <ele>55</ele>
        <time>2023-04-11T13:30:39.259Z</time>
      </trkpt>
      <trkpt lat="48.40913" lon="2.78435">
        <ele>55</ele>
        <time>2023-04-11T13:30:43.998Z</time>
      </trkpt>
      <trkpt lat="48.40911" lon="2.7843">
        <ele>55</ele>
        <time>2023-04-11T13:30:48.476Z</time>
      </trkpt>
      <trkpt lat="48.40908" lon="2.78423">
        <ele>55</ele>
        <time>2023-04-11T13:30:52.864Z</time>
      </trkpt>
      <trkpt lat="48.40905" lon="2.78415">
        <ele>55</ele>
        <time>2023-04-11T13:30:57.108Z</time>
      </trkpt>
      <trkpt lat="48.40901" lon="2.78405">
        <ele>56</ele>
        <time>2023-04-11T13:31:01.398Z</time>
      </trkpt>
      <trkpt lat="48.40898" lon="2.78397">
        <ele>57</ele>
        <time>2023-04-11T13:31:05.744Z</time>
      </trkpt>
      <trkpt lat="48.40895" lon="2.78391">
        <ele>57</ele>
        <time>2023-04-11T13:31:09.743Z</time>
      </trkpt>
      <trkpt lat="48.40891" lon="2.78387">
        <ele>57</ele>
        <time>2023-04-11T13:31:14.181Z</time>
      </trkpt>
      <trkpt lat="48.40884" lon="2.78385">
        <ele>57</ele>
        <time>2023-04-11T13:31:48.825Z</time>
      </trkpt>
      <trkpt lat="48.40884" lon="2.78384">
        <ele>57</ele>
        <time>2023-04-11T13:31:53.465Z</time>
      </trkpt>
      <trkpt lat="48.40881" lon="2.78379">
        <ele>57</ele>
        <time>2023-04-11T13:31:57.441Z</time>
      </trkpt>
      <trkpt lat="48.40876" lon="2.78374">
        <ele>58</ele>
        <time>2023-04-11T13:32:01.518Z</time>
      </trkpt>
      <trkpt lat="48.40873" lon="2.7837">
        <ele>59</ele>
        <time>2023-04-11T13:32:06.176Z</time>
      </trkpt>
      <trkpt lat="48.40869" lon="2.78365">
        <ele>59</ele>
        <time>2023-04-11T13:32:10.749Z</time>
      </trkpt>
      <trkpt lat="48.40867" lon="2.78358">
        <ele>59</ele>
        <time>2023-04-11T13:32:15.305Z</time>
      </trkpt>
      <trkpt lat="48.40864" lon="2.78354">
        <ele>59</ele>
        <time>2023-04-11T13:32:19.922Z</time>
      </trkpt>
      <trkpt lat="48.4086" lon="2.78349">
        <ele>59</ele>
        <time>2023-04-11T13:32:23.879Z</time>
      </trkpt>
      <trkpt lat="48.40856" lon="2.78343">
        <ele>59</ele>
        <time>2023-04-11T13:32:28.316Z</time>
      </trkpt>
      <trkpt lat="48.40853" lon="2.78337">
        <ele>59</ele>
        <time>2023-04-11T13:32:32.933Z</time>
      </trkpt>
      <trkpt lat="48.40852" lon="2.78333">
        <ele>59</ele>
        <time>2023-04-11T13:32:37.540Z</time>
      </trkpt>
      <trkpt lat="48.40852" lon="2.78332">
        <ele>59</ele>
        <time>2023-04-11T13:32:42.054Z</time>
      </trkpt>
      <trkpt lat="48.40849" lon="2.78325">
        <ele>59</ele>
        <time>2023-04-11T13:32:46.566Z</time>
      </trkpt>
      <trkpt lat="48.40844" lon="2.78318">
        <ele>61</ele>
        <time>2023-04-11T13:32:51.075Z</time>
      </trkpt>
      <trkpt lat="48.40838" lon="2.78314">
        <ele>61</ele>
        <time>2023-04-11T13:32:55.082Z</time>
      </trkpt>
      <trkpt lat="48.40835" lon="2.78306">
        <ele>61</ele>
        <time>2023-04-11T13:32:59.185Z</time>
      </trkpt>
      <trkpt lat="48.40828" lon="2.78298">
        <ele>61</ele>
        <time>2023-04-11T13:33:03.706Z</time>
      </trkpt>
      <trkpt lat="48.40827" lon="2.78296">
        <ele>61</ele>
        <time>2023-04-11T13:33:07.927Z</time>
      </trkpt>
      <trkpt lat="48.4082" lon="2.78301">
        <ele>61</ele>
        <time>2023-04-11T13:33:12.430Z</time>
      </trkpt>
      <trkpt lat="48.40816" lon="2.7831">
        <ele>62</ele>
        <time>2023-04-11T13:33:16.934Z</time>
      </trkpt>
      <trkpt lat="48.40814" lon="2.78316">
        <ele>62</ele>
        <time>2023-04-11T13:33:21.075Z</time>
      </trkpt>
      <trkpt lat="48.40812" lon="2.78318">
        <ele>62</ele>
        <time>2023-04-11T13:33:25.596Z</time>
      </trkpt>
      <trkpt lat="48.40807" lon="2.78326">
        <ele>62</ele>
        <time>2023-04-11T13:33:29.737Z</time>
      </trkpt>
      <trkpt lat="48.40803" lon="2.78331">
        <ele>62</ele>
        <time>2023-04-11T13:33:34.435Z</time>
      </trkpt>
      <trkpt lat="48.40799" lon="2.78338">
        <ele>62</ele>
        <time>2023-04-11T13:33:38.557Z</time>
      </trkpt>
      <trkpt lat="48.40796" lon="2.78345">
        <ele>62</ele>
        <time>2023-04-11T13:33:42.797Z</time>
      </trkpt>
      <trkpt lat="48.40792" lon="2.7835">
        <ele>62</ele>
        <time>2023-04-11T13:33:47.018Z</time>
      </trkpt>
      <trkpt lat="48.40785" lon="2.78354">
        <ele>62</ele>
        <time>2023-04-11T13:33:52.177Z</time>
      </trkpt>
      <trkpt lat="48.4078" lon="2.78358">
        <ele>62</ele>
        <time>2023-04-11T13:33:56.715Z</time>
      </trkpt>
      <trkpt lat="48.40777" lon="2.78366">
        <ele>62</ele>
        <time>2023-04-11T13:34:01.054Z</time>
      </trkpt>
      <trkpt lat="48.40774" lon="2.78372">
        <ele>62</ele>
        <time>2023-04-11T13:34:04.835Z</time>
      </trkpt>
      <trkpt lat="48.40769" lon="2.78376">
        <ele>62</ele>
        <time>2023-04-11T13:34:09.245Z</time>
      </trkpt>
      <trkpt lat="48.40765" lon="2.78385">
        <ele>62</ele>
        <time>2023-04-11T13:34:13.702Z</time>
      </trkpt>
      <trkpt lat="48.40762" lon="2.78392">
        <ele>64</ele>
        <time>2023-04-11T13:34:18.101Z</time>
      </trkpt>
      <trkpt lat="48.40758" lon="2.78399">
        <ele>64</ele>
        <time>2023-04-11T13:34:22.520Z</time>
      </trkpt>
      <trkpt lat="48.40754" lon="2.78405">
        <ele>63</ele>
        <time>2023-04-11T13:34:27.066Z</time>
      </trkpt>
      <trkpt lat="48.40751" lon="2.78412">
        <ele>63</ele>
        <time>2023-04-11T13:34:31.507Z</time>
      </trkpt>
      <trkpt lat="48.40747" lon="2.78419">
        <ele>63</ele>
        <time>2023-04-11T13:34:35.843Z</time>
      </trkpt>
      <trkpt lat="48.40746" lon="2.78427">
        <ele>63</ele>
        <time>2023-04-11T13:34:40.321Z</time>
      </trkpt>
      <trkpt lat="48.40747" lon="2.78434">
        <ele>63</ele>
        <time>2023-04-11T13:34:44.475Z</time>
      </trkpt>
      <trkpt lat="48.40746" lon="2.78443">
        <ele>63</ele>
        <time>2023-04-11T13:34:49.096Z</time>
      </trkpt>
      <trkpt lat="48.40743" lon="2.78451">
        <ele>63</ele>
        <time>2023-04-11T13:34:53.418Z</time>
      </trkpt>
      <trkpt lat="48.40738" lon="2.78457">
        <ele>63</ele>
        <time>2023-04-11T13:34:57.808Z</time>
      </trkpt>
      <trkpt lat="48.40733" lon="2.78463">
        <ele>64</ele>
        <time>2023-04-11T13:35:02.304Z</time>
      </trkpt>
      <trkpt lat="48.4073" lon="2.78471">
        <ele>64</ele>
        <time>2023-04-11T13:35:06.860Z</time>
      </trkpt>
      <trkpt lat="48.40724" lon="2.78474">
        <ele>64</ele>
        <time>2023-04-11T13:35:11.367Z</time>
      </trkpt>
      <trkpt lat="48.40719" lon="2.7848">
        <ele>64</ele>
        <time>2023-04-11T13:35:15.990Z</time>
      </trkpt>
      <trkpt lat="48.40715" lon="2.78485">
        <ele>64</ele>
        <time>2023-04-11T13:35:20.533Z</time>
      </trkpt>
      <trkpt lat="48.40712" lon="2.78491">
        <ele>64</ele>
        <time>2023-04-11T13:35:25.036Z</time>
      </trkpt>
      <trkpt lat="48.40708" lon="2.78498">
        <ele>64</ele>
        <time>2023-04-11T13:35:29.060Z</time>
      </trkpt>
      <trkpt lat="48.40705" lon="2.78506">
        <ele>64</ele>
        <time>2023-04-11T13:35:34.064Z</time>
      </trkpt>
      <trkpt lat="48.407" lon="2.78512">
        <ele>64</ele>
        <time>2023-04-11T13:35:38.265Z</time>
      </trkpt>
      <trkpt lat="48.40696" lon="2.78518">
        <ele>64</ele>
        <time>2023-04-11T13:35:42.767Z</time>
      </trkpt>
      <trkpt lat="48.40691" lon="2.78525">
        <ele>64</ele>
        <time>2023-04-11T13:35:46.996Z</time>
      </trkpt>
      <trkpt lat="48.40687" lon="2.78532">
        <ele>64</ele>
        <time>2023-04-11T13:35:51.455Z</time>
      </trkpt>
      <trkpt lat="48.40683" lon="2.78538">
        <ele>64</ele>
        <time>2023-04-11T13:35:56.034Z</time>
      </trkpt>
      <trkpt lat="48.40677" lon="2.78543">
        <ele>65</ele>
        <time>2023-04-11T13:36:00.404Z</time>
      </trkpt>
      <trkpt lat="48.40673" lon="2.7855">
        <ele>65</ele>
        <time>2023-04-11T13:36:04.730Z</time>
      </trkpt>
      <trkpt lat="48.40669" lon="2.78556">
        <ele>65</ele>
        <time>2023-04-11T13:36:09.049Z</time>
      </trkpt>
      <trkpt lat="48.40664" lon="2.78562">
        <ele>65</ele>
        <time>2023-04-11T13:36:13.628Z</time>
      </trkpt>
      <trkpt lat="48.4066" lon="2.78559">
        <ele>65</ele>
        <time>2023-04-11T13:36:17.704Z</time>
      </trkpt>
      <trkpt lat="48.40659" lon="2.78551">
        <ele>65</ele>
        <time>2023-04-11T13:36:22.019Z</time>
      </trkpt>
      <trkpt lat="48.40655" lon="2.78541">
        <ele>65</ele>
        <time>2023-04-11T13:36:26.567Z</time>
      </trkpt>
      <trkpt lat="48.40651" lon="2.78535">
        <ele>66</ele>
        <time>2023-04-11T13:36:30.453Z</time>
      </trkpt>
      <trkpt lat="48.40647" lon="2.78527">
        <ele>66</ele>
        <time>2023-04-11T13:36:35.022Z</time>
      </trkpt>
      <trkpt lat="48.40644" lon="2.7852">
        <ele>66</ele>
        <time>2023-04-11T13:36:39.279Z</time>
      </trkpt>
      <trkpt lat="48.40641" lon="2.78513">
        <ele>66</ele>
        <time>2023-04-11T13:36:43.264Z</time>
      </trkpt>
      <trkpt lat="48.40637" lon="2.78506">
        <ele>66</ele>
        <time>2023-04-11T13:36:47.883Z</time>
      </trkpt>
      <trkpt lat="48.40634" lon="2.78498">
        <ele>66</ele>
        <time>2023-04-11T13:36:52.180Z</time>
      </trkpt>
      <trkpt lat="48.4063" lon="2.78492">
        <ele>66</ele>
        <time>2023-04-11T13:36:56.443Z</time>
      </trkpt>
      <trkpt lat="48.40625" lon="2.78486">
        <ele>68</ele>
        <time>2023-04-11T13:37:00.758Z</time>
      </trkpt>
      <trkpt lat="48.40619" lon="2.78484">
        <ele>68</ele>
        <time>2023-04-11T13:37:05.027Z</time>
      </trkpt>
      <trkpt lat="48.40613" lon="2.78487">
        <ele>67</ele>
        <time>2023-04-11T13:37:09.222Z</time>
      </trkpt>
      <trkpt lat="48.40611" lon="2.78489">
        <ele>67</ele>
        <time>2023-04-11T13:37:13.705Z</time>
      </trkpt>
      <trkpt lat="48.40608" lon="2.78494">
        <ele>67</ele>
        <time>2023-04-11T13:37:18.180Z</time>
      </trkpt>
      <trkpt lat="48.40603" lon="2.78498">
        <ele>67</ele>
        <time>2023-04-11T13:37:22.537Z</time>
      </trkpt>
      <trkpt lat="48.40599" lon="2.78502">
        <ele>67</ele>
        <time>2023-04-11T13:37:26.854Z</time>
      </trkpt>
      <trkpt lat="48.40595" lon="2.78506">
        <ele>69</ele>
        <time>2023-04-11T13:37:30.912Z</time>
      </trkpt>
      <trkpt lat="48.4059" lon="2.78512">
        <ele>69</ele>
        <time>2023-04-11T13:37:35.530Z</time>
      </trkpt>
      <trkpt lat="48.40585" lon="2.78516">
        <ele>69</ele>
        <time>2023-04-11T13:37:39.827Z</time>
      </trkpt>
      <trkpt lat="48.4058" lon="2.78521">
        <ele>69</ele>
        <time>2023-04-11T13:37:43.784Z</time>
      </trkpt>
      <trkpt lat="48.40574" lon="2.78526">
        <ele>69</ele>
        <time>2023-04-11T13:37:48.878Z</time>
      </trkpt>
      <trkpt lat="48.40569" lon="2.78531">
        <ele>69</ele>
        <time>2023-04-11T13:37:53.435Z</time>
      </trkpt>
      <trkpt lat="48.40563" lon="2.78534">
        <ele>69</ele>
        <time>2023-04-11T13:37:57.732Z</time>
      </trkpt>
      <trkpt lat="48.40557" lon="2.78537">
        <ele>69</ele>
        <time>2023-04-11T13:38:02.147Z</time>
      </trkpt>
      <trkpt lat="48.40552" lon="2.78539">
        <ele>69</ele>
        <time>2023-04-11T13:38:06.447Z</time>
      </trkpt>
      <trkpt lat="48.40547" lon="2.78543">
        <ele>69</ele>
        <time>2023-04-11T13:38:10.782Z</time>
      </trkpt>
      <trkpt lat="48.40542" lon="2.78546">
        <ele>70</ele>
        <time>2023-04-11T13:38:15.198Z</time>
      </trkpt>
      <trkpt lat="48.40536" lon="2.78548">
        <ele>70</ele>
        <time>2023-04-11T13:38:19.275Z</time>
      </trkpt>
      <trkpt lat="48.40531" lon="2.78551">
        <ele>70</ele>
        <time>2023-04-11T13:38:23.852Z</time>
      </trkpt>
      <trkpt lat="48.40526" lon="2.78554">
        <ele>70</ele>
        <time>2023-04-11T13:38:27.749Z</time>
      </trkpt>
      <trkpt lat="48.40521" lon="2.78559">
        <ele>70</ele>
        <time>2023-04-11T13:38:32.690Z</time>
      </trkpt>
      <trkpt lat="48.40517" lon="2.78563">
        <ele>70</ele>
        <time>2023-04-11T13:38:36.708Z</time>
      </trkpt>
      <trkpt lat="48.40512" lon="2.78568">
        <ele>70</ele>
        <time>2023-04-11T13:38:40.714Z</time>
      </trkpt>
      <trkpt lat="48.40505" lon="2.78573">
        <ele>70</ele>
        <time>2023-04-11T13:38:45.217Z</time>
      </trkpt>
      <trkpt lat="48.405" lon="2.7858">
        <ele>70</ele>
        <time>2023-04-11T13:38:49.821Z</time>
      </trkpt>
      <trkpt lat="48.40495" lon="2.78582">
        <ele>70</ele>
        <time>2023-04-11T13:38:53.922Z</time>
      </trkpt>
      <trkpt lat="48.40489" lon="2.78585">
        <ele>70</ele>
        <time>2023-04-11T13:38:57.925Z</time>
      </trkpt>
      <trkpt lat="48.40483" lon="2.78585">
        <ele>71</ele>
        <time>2023-04-11T13:39:02.532Z</time>
      </trkpt>
      <trkpt lat="48.40478" lon="2.78586">
        <ele>71</ele>
        <time>2023-04-11T13:39:06.534Z</time>
      </trkpt>
      <trkpt lat="48.40473" lon="2.78592">
        <ele>71</ele>
        <time>2023-04-11T13:39:11.246Z</time>
      </trkpt>
      <trkpt lat="48.40468" lon="2.78597">
        <ele>71</ele>
        <time>2023-04-11T13:39:15.277Z</time>
      </trkpt>
      <trkpt lat="48.40462" lon="2.78601">
        <ele>71</ele>
        <time>2023-04-11T13:39:19.784Z</time>
      </trkpt>
      <trkpt lat="48.40457" lon="2.78603">
        <ele>72</ele>
        <time>2023-04-11T13:39:23.808Z</time>
      </trkpt>
      <trkpt lat="48.40451" lon="2.78606">
        <ele>72</ele>
        <time>2023-04-11T13:39:27.869Z</time>
      </trkpt>
      <trkpt lat="48.40446" lon="2.7861">
        <ele>72</ele>
        <time>2023-04-11T13:39:32.030Z</time>
      </trkpt>
      <trkpt lat="48.4044" lon="2.78613">
        <ele>72</ele>
        <time>2023-04-11T13:39:36.331Z</time>
      </trkpt>
      <trkpt lat="48.40434" lon="2.78615">
        <ele>72</ele>
        <time>2023-04-11T13:39:40.836Z</time>
      </trkpt>
      <trkpt lat="48.40429" lon="2.78618">
        <ele>72</ele>
        <time>2023-04-11T13:39:44.997Z</time>
      </trkpt>
      <trkpt lat="48.40424" lon="2.78622">
        <ele>72</ele>
        <time>2023-04-11T13:39:49.377Z</time>
      </trkpt>
      <trkpt lat="48.40418" lon="2.78623">
        <ele>72</ele>
        <time>2023-04-11T13:39:53.455Z</time>
      </trkpt>
      <trkpt lat="48.40411" lon="2.78627">
        <ele>71</ele>
        <time>2023-04-11T13:39:58.864Z</time>
      </trkpt>
      <trkpt lat="48.40406" lon="2.7863">
        <ele>71</ele>
        <time>2023-04-11T13:40:02.871Z</time>
      </trkpt>
      <trkpt lat="48.404" lon="2.78633">
        <ele>70</ele>
        <time>2023-04-11T13:40:07.389Z</time>
      </trkpt>
      <trkpt lat="48.40395" lon="2.78635">
        <ele>70</ele>
        <time>2023-04-11T13:40:11.608Z</time>
      </trkpt>
      <trkpt lat="48.4039" lon="2.78637">
        <ele>70</ele>
        <time>2023-04-11T13:40:16.166Z</time>
      </trkpt>
      <trkpt lat="48.40385" lon="2.78639">
        <ele>70</ele>
        <time>2023-04-11T13:40:20.165Z</time>
      </trkpt>
      <trkpt lat="48.40379" lon="2.78642">
        <ele>70</ele>
        <time>2023-04-11T13:40:24.966Z</time>
      </trkpt>
      <trkpt lat="48.40379" lon="2.78648">
        <ele>70</ele>
        <time>2023-04-11T13:40:29.267Z</time>
      </trkpt>
      <trkpt lat="48.40381" lon="2.78656">
        <ele>70</ele>
        <time>2023-04-11T13:40:33.788Z</time>
      </trkpt>
      <trkpt lat="48.40383" lon="2.78664">
        <ele>70</ele>
        <time>2023-04-11T13:40:37.686Z</time>
      </trkpt>
      <trkpt lat="48.40383" lon="2.78673">
        <ele>70</ele>
        <time>2023-04-11T13:40:42.687Z</time>
      </trkpt>
      <trkpt lat="48.40385" lon="2.78681">
        <ele>70</ele>
        <time>2023-04-11T13:40:46.585Z</time>
      </trkpt>
      <trkpt lat="48.40385" lon="2.78691">
        <ele>70</ele>
        <time>2023-04-11T13:40:51.903Z</time>
      </trkpt>
      <trkpt lat="48.40387" lon="2.787">
        <ele>70</ele>
        <time>2023-04-11T13:40:56.581Z</time>
      </trkpt>
      <trkpt lat="48.40388" lon="2.78708">
        <ele>70</ele>
        <time>2023-04-11T13:41:00.602Z</time>
      </trkpt>
      <trkpt lat="48.4039" lon="2.78716">
        <ele>70</ele>
        <time>2023-04-11T13:41:04.882Z</time>
      </trkpt>
      <trkpt lat="48.40391" lon="2.78724">
        <ele>70</ele>
        <time>2023-04-11T13:41:08.821Z</time>
      </trkpt>
      <trkpt lat="48.40392" lon="2.78732">
        <ele>70</ele>
        <time>2023-04-11T13:41:13.262Z</time>
      </trkpt>
      <trkpt lat="48.40394" lon="2.78742">
        <ele>70</ele>
        <time>2023-04-11T13:41:17.777Z</time>
      </trkpt>
      <trkpt lat="48.40397" lon="2.78746">
        <ele>70</ele>
        <time>2023-04-11T13:41:21.735Z</time>
      </trkpt>
      <trkpt lat="48.40397" lon="2.78747">
        <ele>70</ele>
        <time>2023-04-11T13:41:25.693Z</time>
      </trkpt>
      <trkpt lat="48.40402" lon="2.78749">
        <ele>70</ele>
        <time>2023-04-11T13:41:30.281Z</time>
      </trkpt>
      <trkpt lat="48.40408" lon="2.7875">
        <ele>68</ele>
        <time>2023-04-11T13:41:34.789Z</time>
      </trkpt>
      <trkpt lat="48.40413" lon="2.7875">
        <ele>68</ele>
        <time>2023-04-11T13:41:39.258Z</time>
      </trkpt>
      <trkpt lat="48.40417" lon="2.78758">
        <ele>68</ele>
        <time>2023-04-11T13:41:43.625Z</time>
      </trkpt>
      <trkpt lat="48.40419" lon="2.78767">
        <ele>67</ele>
        <time>2023-04-11T13:41:48.104Z</time>
      </trkpt>
      <trkpt lat="48.40418" lon="2.78778">
        <ele>67</ele>
        <time>2023-04-11T13:41:52.504Z</time>
      </trkpt>
      <trkpt lat="48.40418" lon="2.78787">
        <ele>67</ele>
        <time>2023-04-11T13:41:57.043Z</time>
      </trkpt>
      <trkpt lat="48.40418" lon="2.78793">
        <ele>67</ele>
        <time>2023-04-11T13:42:00.892Z</time>
      </trkpt>
      <trkpt lat="48.40419" lon="2.78803">
        <ele>67</ele>
        <time>2023-04-11T13:42:05.431Z</time>
      </trkpt>
      <trkpt lat="48.40418" lon="2.7881">
        <ele>67</ele>
        <time>2023-04-11T13:42:09.316Z</time>
      </trkpt>
      <trkpt lat="48.40418" lon="2.78819">
        <ele>67</ele>
        <time>2023-04-11T13:42:13.868Z</time>
      </trkpt>
      <trkpt lat="48.4042" lon="2.78826">
        <ele>66</ele>
        <time>2023-04-11T13:42:18.347Z</time>
      </trkpt>
      <trkpt lat="48.40422" lon="2.78834">
        <ele>66</ele>
        <time>2023-04-11T13:42:22.786Z</time>
      </trkpt>
      <trkpt lat="48.40424" lon="2.78841">
        <ele>66</ele>
        <time>2023-04-11T13:42:27.316Z</time>
      </trkpt>
      <trkpt lat="48.40424" lon="2.78848">
        <ele>65</ele>
        <time>2023-04-11T13:42:31.223Z</time>
      </trkpt>
      <trkpt lat="48.40426" lon="2.78856">
        <ele>65</ele>
        <time>2023-04-11T13:42:35.865Z</time>
      </trkpt>
      <trkpt lat="48.40429" lon="2.78864">
        <ele>65</ele>
        <time>2023-04-11T13:42:41.127Z</time>
      </trkpt>
      <trkpt lat="48.40432" lon="2.78871">
        <ele>64</ele>
        <time>2023-04-11T13:42:45.547Z</time>
      </trkpt>
      <trkpt lat="48.40431" lon="2.7888">
        <ele>62</ele>
        <time>2023-04-11T13:42:50.066Z</time>
      </trkpt>
      <trkpt lat="48.40431" lon="2.78886">
        <ele>62</ele>
        <time>2023-04-11T13:42:54.307Z</time>
      </trkpt>
      <trkpt lat="48.40432" lon="2.78892">
        <ele>62</ele>
        <time>2023-04-11T13:42:58.528Z</time>
      </trkpt>
      <trkpt lat="48.40433" lon="2.7889">
        <ele>62</ele>
        <time>2023-04-11T13:43:03.209Z</time>
      </trkpt>
      <trkpt lat="48.40434" lon="2.78897">
        <ele>62</ele>
        <time>2023-04-11T13:43:08.030Z</time>
      </trkpt>
      <trkpt lat="48.40436" lon="2.78907">
        <ele>60</ele>
        <time>2023-04-11T13:43:13.151Z</time>
      </trkpt>
      <trkpt lat="48.40436" lon="2.78914">
        <ele>60</ele>
        <time>2023-04-11T13:43:17.155Z</time>
      </trkpt>
      <trkpt lat="48.40436" lon="2.78921">
        <ele>60</ele>
        <time>2023-04-11T13:43:20.817Z</time>
      </trkpt>
      <trkpt lat="48.40438" lon="2.7893">
        <ele>60</ele>
        <time>2023-04-11T13:43:25.386Z</time>
      </trkpt>
      <trkpt lat="48.4044" lon="2.78937">
        <ele>57</ele>
        <time>2023-04-11T13:43:29.316Z</time>
      </trkpt>
      <trkpt lat="48.40443" lon="2.78944">
        <ele>57</ele>
        <time>2023-04-11T13:43:33.530Z</time>
      </trkpt>
      <trkpt lat="48.40444" lon="2.78951">
        <ele>57</ele>
        <time>2023-04-11T13:43:38.028Z</time>
      </trkpt>
      <trkpt lat="48.40446" lon="2.7896">
        <ele>53</ele>
        <time>2023-04-11T13:43:42.705Z</time>
      </trkpt>
      <trkpt lat="48.40442" lon="2.78965">
        <ele>53</ele>
        <time>2023-04-11T13:43:47.323Z</time>
      </trkpt>
      <trkpt lat="48.40436" lon="2.78963">
        <ele>53</ele>
        <time>2023-04-11T13:43:51.316Z</time>
      </trkpt>
      <trkpt lat="48.40429" lon="2.7896">
        <ele>54</ele>
        <time>2023-04-11T13:43:56.082Z</time>
      </trkpt>
      <trkpt lat="48.40424" lon="2.78958">
        <ele>58</ele>
        <time>2023-04-11T13:44:00.026Z</time>
      </trkpt>
      <trkpt lat="48.40418" lon="2.78957">
        <ele>58</ele>
        <time>2023-04-11T13:44:04.042Z</time>
      </trkpt>
      <trkpt lat="48.40413" lon="2.78953">
        <ele>58</ele>
        <time>2023-04-11T13:44:07.877Z</time>
      </trkpt>
      <trkpt lat="48.40408" lon="2.7895">
        <ele>58</ele>
        <time>2023-04-11T13:44:12.316Z</time>
      </trkpt>
      <trkpt lat="48.40402" lon="2.78948">
        <ele>60</ele>
        <time>2023-04-11T13:44:16.929Z</time>
      </trkpt>
      <trkpt lat="48.40395" lon="2.78945">
        <ele>60</ele>
        <time>2023-04-11T13:44:21.723Z</time>
      </trkpt>
      <trkpt lat="48.4039" lon="2.78944">
        <ele>60</ele>
        <time>2023-04-11T13:44:25.738Z</time>
      </trkpt>
      <trkpt lat="48.40384" lon="2.78942">
        <ele>60</ele>
        <time>2023-04-11T13:44:30.292Z</time>
      </trkpt>
      <trkpt lat="48.40378" lon="2.78941">
        <ele>60</ele>
        <time>2023-04-11T13:44:34.659Z</time>
      </trkpt>
      <trkpt lat="48.40372" lon="2.7894">
        <ele>60</ele>
        <time>2023-04-11T13:44:39.047Z</time>
      </trkpt>
      <trkpt lat="48.40371" lon="2.78943">
        <ele>60</ele>
        <time>2023-04-11T13:44:43.950Z</time>
      </trkpt>
      <trkpt lat="48.40372" lon="2.78947">
        <ele>60</ele>
        <time>2023-04-11T13:44:48.966Z</time>
      </trkpt>
      <trkpt lat="48.40369" lon="2.78942">
        <ele>60</ele>
        <time>2023-04-11T13:44:53.487Z</time>
      </trkpt>
      <trkpt lat="48.40361" lon="2.78938">
        <ele>60</ele>
        <time>2023-04-11T13:44:57.494Z</time>
      </trkpt>
      <trkpt lat="48.40355" lon="2.78935">
        <ele>60</ele>
        <time>2023-04-11T13:45:01.854Z</time>
      </trkpt>
      <trkpt lat="48.4035" lon="2.78936">
        <ele>60</ele>
        <time>2023-04-11T13:45:06.316Z</time>
      </trkpt>
      <trkpt lat="48.40344" lon="2.78936">
        <ele>59</ele>
        <time>2023-04-11T13:45:10.760Z</time>
      </trkpt>
      <trkpt lat="48.40339" lon="2.78935">
        <ele>59</ele>
        <time>2023-04-11T13:45:14.867Z</time>
      </trkpt>
      <trkpt lat="48.40334" lon="2.78935">
        <ele>59</ele>
        <time>2023-04-11T13:45:18.786Z</time>
      </trkpt>
      <trkpt lat="48.40328" lon="2.78934">
        <ele>59</ele>
        <time>2023-04-11T13:45:23.698Z</time>
      </trkpt>
      <trkpt lat="48.40323" lon="2.78934">
        <ele>59</ele>
        <time>2023-04-11T13:45:27.776Z</time>
      </trkpt>
      <trkpt lat="48.40318" lon="2.78934">
        <ele>58</ele>
        <time>2023-04-11T13:45:31.695Z</time>
      </trkpt>
      <trkpt lat="48.40316" lon="2.78928">
        <ele>62</ele>
        <time>2023-04-11T13:45:35.713Z</time>
      </trkpt>
      <trkpt lat="48.40314" lon="2.7892">
        <ele>62</ele>
        <time>2023-04-11T13:45:40.176Z</time>
      </trkpt>
      <trkpt lat="48.4031" lon="2.78911">
        <ele>62</ele>
        <time>2023-04-11T13:45:44.707Z</time>
      </trkpt>
      <trkpt lat="48.40309" lon="2.78904">
        <ele>62</ele>
        <time>2023-04-11T13:45:49.485Z</time>
      </trkpt>
      <trkpt lat="48.40309" lon="2.78895">
        <ele>67</ele>
        <time>2023-04-11T13:45:53.458Z</time>
      </trkpt>
      <trkpt lat="48.40307" lon="2.78893">
        <ele>67</ele>
        <time>2023-04-11T13:45:58.133Z</time>
      </trkpt>
      <trkpt lat="48.40301" lon="2.78895">
        <ele>67</ele>
        <time>2023-04-11T13:46:03.172Z</time>
      </trkpt>
      <trkpt lat="48.40295" lon="2.78897">
        <ele>67</ele>
        <time>2023-04-11T13:46:07.572Z</time>
      </trkpt>
      <trkpt lat="48.40291" lon="2.78898">
        <ele>67</ele>
        <time>2023-04-11T13:46:12.154Z</time>
      </trkpt>
      <trkpt lat="48.40285" lon="2.78898">
        <ele>67</ele>
        <time>2023-04-11T13:46:16.043Z</time>
      </trkpt>
      <trkpt lat="48.40278" lon="2.78897">
        <ele>67</ele>
        <time>2023-04-11T13:46:20.718Z</time>
      </trkpt>
      <trkpt lat="48.40271" lon="2.78897">
        <ele>67</ele>
        <time>2023-04-11T13:46:24.995Z</time>
      </trkpt>
      <trkpt lat="48.40265" lon="2.78895">
        <ele>67</ele>
        <time>2023-04-11T13:46:29.630Z</time>
      </trkpt>
      <trkpt lat="48.40259" lon="2.78892">
        <ele>68</ele>
        <time>2023-04-11T13:46:34.807Z</time>
      </trkpt>
      <trkpt lat="48.40254" lon="2.78891">
        <ele>68</ele>
        <time>2023-04-11T13:46:39.316Z</time>
      </trkpt>
      <trkpt lat="48.40248" lon="2.78891">
        <ele>68</ele>
        <time>2023-04-11T13:46:43.292Z</time>
      </trkpt>
      <trkpt lat="48.40241" lon="2.78893">
        <ele>68</ele>
        <time>2023-04-11T13:46:47.823Z</time>
      </trkpt>
      <trkpt lat="48.40234" lon="2.78891">
        <ele>67</ele>
        <time>2023-04-11T13:46:52.316Z</time>
      </trkpt>
      <trkpt lat="48.40229" lon="2.78888">
        <ele>67</ele>
        <time>2023-04-11T13:46:56.924Z</time>
      </trkpt>
      <trkpt lat="48.40224" lon="2.78887">
        <ele>67</ele>
        <time>2023-04-11T13:47:02.174Z</time>
      </trkpt>
      <trkpt lat="48.40219" lon="2.78888">
        <ele>67</ele>
        <time>2023-04-11T13:47:06.562Z</time>
      </trkpt>
      <trkpt lat="48.40214" lon="2.78887">
        <ele>67</ele>
        <time>2023-04-11T13:47:10.665Z</time>
      </trkpt>
      <trkpt lat="48.40209" lon="2.78886">
        <ele>67</ele>
        <time>2023-04-11T13:47:14.654Z</time>
      </trkpt>
      <trkpt lat="48.40203" lon="2.78885">
        <ele>66</ele>
        <time>2023-04-11T13:47:18.979Z</time>
      </trkpt>
      <trkpt lat="48.40196" lon="2.78887">
        <ele>66</ele>
        <time>2023-04-11T13:47:23.043Z</time>
      </trkpt>
      <trkpt lat="48.40189" lon="2.78888">
        <ele>66</ele>
        <time>2023-04-11T13:47:27.041Z</time>
      </trkpt>
      <trkpt lat="48.40184" lon="2.78886">
        <ele>66</ele>
        <time>2023-04-11T13:47:31.715Z</time>
      </trkpt>
      <trkpt lat="48.40179" lon="2.78884">
        <ele>66</ele>
        <time>2023-04-11T13:47:35.910Z</time>
      </trkpt>
      <trkpt lat="48.40173" lon="2.78883">
        <ele>66</ele>
        <time>2023-04-11T13:47:39.808Z</time>
      </trkpt>
      <trkpt lat="48.40167" lon="2.78882">
        <ele>66</ele>
        <time>2023-04-11T13:47:44.316Z</time>
      </trkpt>
      <trkpt lat="48.40161" lon="2.78881">
        <ele>66</ele>
        <time>2023-04-11T13:47:49.045Z</time>
      </trkpt>
      <trkpt lat="48.40155" lon="2.78879">
        <ele>66</ele>
        <time>2023-04-11T13:47:53.043Z</time>
      </trkpt>
      <trkpt lat="48.4015" lon="2.78877">
        <ele>69</ele>
        <time>2023-04-11T13:47:56.981Z</time>
      </trkpt>
      <trkpt lat="48.40146" lon="2.78876">
        <ele>69</ele>
        <time>2023-04-11T13:48:01.058Z</time>
      </trkpt>
      <trkpt lat="48.40139" lon="2.78872">
        <ele>71</ele>
        <time>2023-04-11T13:48:05.733Z</time>
      </trkpt>
      <trkpt lat="48.40132" lon="2.78871">
        <ele>71</ele>
        <time>2023-04-11T13:48:09.688Z</time>
      </trkpt>
      <trkpt lat="48.40126" lon="2.78871">
        <ele>71</ele>
        <time>2023-04-11T13:48:14.303Z</time>
      </trkpt>
      <trkpt lat="48.40121" lon="2.78872">
        <ele>71</ele>
        <time>2023-04-11T13:48:18.477Z</time>
      </trkpt>
      <trkpt lat="48.40115" lon="2.7887">
        <ele>71</ele>
        <time>2023-04-11T13:48:22.670Z</time>
      </trkpt>
      <trkpt lat="48.40108" lon="2.78869">
        <ele>71</ele>
        <time>2023-04-11T13:48:27.703Z</time>
      </trkpt>
      <trkpt lat="48.40101" lon="2.78868">
        <ele>71</ele>
        <time>2023-04-11T13:48:31.659Z</time>
      </trkpt>
      <trkpt lat="48.40095" lon="2.78867">
        <ele>71</ele>
        <time>2023-04-11T13:48:36.159Z</time>
      </trkpt>
      <trkpt lat="48.4009" lon="2.78867">
        <ele>71</ele>
        <time>2023-04-11T13:48:40.164Z</time>
      </trkpt>
      <trkpt lat="48.40083" lon="2.78866">
        <ele>71</ele>
        <time>2023-04-11T13:48:44.722Z</time>
      </trkpt>
      <trkpt lat="48.40077" lon="2.78865">
        <ele>71</ele>
        <time>2023-04-11T13:48:49.393Z</time>
      </trkpt>
      <trkpt lat="48.40071" lon="2.78863">
        <ele>71</ele>
        <time>2023-04-11T13:48:53.779Z</time>
      </trkpt>
      <trkpt lat="48.40067" lon="2.78857">
        <ele>70</ele>
        <time>2023-04-11T13:48:58.175Z</time>
      </trkpt>
      <trkpt lat="48.40061" lon="2.78853">
        <ele>70</ele>
        <time>2023-04-11T13:49:02.683Z</time>
      </trkpt>
      <trkpt lat="48.40054" lon="2.78855">
        <ele>70</ele>
        <time>2023-04-11T13:49:06.725Z</time>
      </trkpt>
      <trkpt lat="48.40047" lon="2.78853">
        <ele>70</ele>
        <time>2023-04-11T13:49:11.187Z</time>
      </trkpt>
      <trkpt lat="48.40044" lon="2.78854">
        <ele>70</ele>
        <time>2023-04-11T13:49:15.708Z</time>
      </trkpt>
      <trkpt lat="48.4004" lon="2.78852">
        <ele>68</ele>
        <time>2023-04-11T13:49:20.499Z</time>
      </trkpt>
      <trkpt lat="48.40034" lon="2.7885">
        <ele>68</ele>
        <time>2023-04-11T13:49:24.597Z</time>
      </trkpt>
      <trkpt lat="48.40029" lon="2.7885">
        <ele>68</ele>
        <time>2023-04-11T13:49:28.433Z</time>
      </trkpt>
      <trkpt lat="48.40024" lon="2.78849">
        <ele>68</ele>
        <time>2023-04-11T13:49:33.106Z</time>
      </trkpt>
      <trkpt lat="48.40019" lon="2.78849">
        <ele>68</ele>
        <time>2023-04-11T13:49:37.298Z</time>
      </trkpt>
      <trkpt lat="48.40016" lon="2.78848">
        <ele>68</ele>
        <time>2023-04-11T13:49:41.851Z</time>
      </trkpt>
      <trkpt lat="48.40015" lon="2.78848">
        <ele>68</ele>
        <time>2023-04-11T13:49:45.924Z</time>
      </trkpt>
      <trkpt lat="48.40009" lon="2.78847">
        <ele>69</ele>
        <time>2023-04-11T13:49:51.058Z</time>
      </trkpt>
      <trkpt lat="48.40004" lon="2.78846">
        <ele>69</ele>
        <time>2023-04-11T13:49:55.734Z</time>
      </trkpt>
      <trkpt lat="48.40001" lon="2.78842">
        <ele>69</ele>
        <time>2023-04-11T13:50:00.269Z</time>
      </trkpt>
      <trkpt lat="48.39996" lon="2.78842">
        <ele>69</ele>
        <time>2023-04-11T13:50:04.316Z</time>
      </trkpt>
      <trkpt lat="48.39986" lon="2.78841">
        <ele>69</ele>
        <time>2023-04-11T13:50:08.757Z</time>
      </trkpt>
      <trkpt lat="48.3998" lon="2.78842">
        <ele>70</ele>
        <time>2023-04-11T13:50:12.711Z</time>
      </trkpt>
      <trkpt lat="48.39973" lon="2.78841">
        <ele>70</ele>
        <time>2023-04-11T13:50:17.667Z</time>
      </trkpt>
      <trkpt lat="48.39967" lon="2.78841">
        <ele>70</ele>
        <time>2023-04-11T13:50:22.117Z</time>
      </trkpt>
      <trkpt lat="48.39961" lon="2.78842">
        <ele>70</ele>
        <time>2023-04-11T13:50:26.671Z</time>
      </trkpt>
      <trkpt lat="48.39955" lon="2.78839">
        <ele>72</ele>
        <time>2023-04-11T13:50:31.106Z</time>
      </trkpt>
      <trkpt lat="48.39955" lon="2.78838">
        <ele>72</ele>
        <time>2023-04-11T13:50:35.122Z</time>
      </trkpt>
      <trkpt lat="48.39954" lon="2.7884">
        <ele>72</ele>
        <time>2023-04-11T13:51:06.202Z</time>
      </trkpt>
      <trkpt lat="48.39957" lon="2.78844">
        <ele>72</ele>
        <time>2023-04-11T13:51:10.753Z</time>
      </trkpt>
      <trkpt lat="48.39955" lon="2.78849">
        <ele>68</ele>
        <time>2023-04-11T13:51:15.319Z</time>
      </trkpt>
      <trkpt lat="48.39952" lon="2.78854">
        <ele>68</ele>
        <time>2023-04-11T13:51:19.464Z</time>
      </trkpt>
      <trkpt lat="48.39951" lon="2.78859">
        <ele>68</ele>
        <time>2023-04-11T13:51:23.420Z</time>
      </trkpt>
      <trkpt lat="48.39951" lon="2.78866">
        <ele>68</ele>
        <time>2023-04-11T13:51:27.433Z</time>
      </trkpt>
      <trkpt lat="48.3995" lon="2.78872">
        <ele>68</ele>
        <time>2023-04-11T13:51:31.508Z</time>
      </trkpt>
      <trkpt lat="48.3995" lon="2.78877">
        <ele>62</ele>
        <time>2023-04-11T13:51:35.623Z</time>
      </trkpt>
      <trkpt lat="48.3995" lon="2.78883">
        <ele>62</ele>
        <time>2023-04-11T13:51:40.296Z</time>
      </trkpt>
      <trkpt lat="48.39949" lon="2.78888">
        <ele>62</ele>
        <time>2023-04-11T13:51:44.504Z</time>
      </trkpt>
      <trkpt lat="48.3995" lon="2.78895">
        <ele>62</ele>
        <time>2023-04-11T13:51:49.169Z</time>
      </trkpt>
      <trkpt lat="48.3995" lon="2.78902">
        <ele>62</ele>
        <time>2023-04-11T13:51:53.312Z</time>
      </trkpt>
      <trkpt lat="48.39948" lon="2.78909">
        <ele>56</ele>
        <time>2023-04-11T13:51:57.467Z</time>
      </trkpt>
      <trkpt lat="48.39948" lon="2.78913">
        <ele>56</ele>
        <time>2023-04-11T13:52:01.542Z</time>
      </trkpt>
      <trkpt lat="48.39948" lon="2.78916">
        <ele>56</ele>
        <time>2023-04-11T13:52:05.700Z</time>
      </trkpt>
      <trkpt lat="48.39948" lon="2.78918">
        <ele>56</ele>
        <time>2023-04-11T13:52:10.374Z</time>
      </trkpt>
      <trkpt lat="48.39943" lon="2.78918">
        <ele>56</ele>
        <time>2023-04-11T13:52:14.872Z</time>
      </trkpt>
      <trkpt lat="48.39939" lon="2.78916">
        <ele>56</ele>
        <time>2023-04-11T13:52:19.316Z</time>
      </trkpt>
      <trkpt lat="48.39927" lon="2.78906">
        <ele>55</ele>
        <time>2023-04-11T13:52:40.850Z</time>
      </trkpt>
      <trkpt lat="48.39922" lon="2.78904">
        <ele>55</ele>
        <time>2023-04-11T13:52:45.524Z</time>
      </trkpt>
      <trkpt lat="48.39918" lon="2.789">
        <ele>62</ele>
        <time>2023-04-11T13:52:49.698Z</time>
      </trkpt>
      <trkpt lat="48.39914" lon="2.78897">
        <ele>62</ele>
        <time>2023-04-11T13:52:53.895Z</time>
      </trkpt>
      <trkpt lat="48.39909" lon="2.78893">
        <ele>62</ele>
        <time>2023-04-11T13:52:58.691Z</time>
      </trkpt>
      <trkpt lat="48.39904" lon="2.7889">
        <ele>62</ele>
        <time>2023-04-11T13:53:02.889Z</time>
      </trkpt>
      <trkpt lat="48.39899" lon="2.78888">
        <ele>62</ele>
        <time>2023-04-11T13:53:06.905Z</time>
      </trkpt>
      <trkpt lat="48.39895" lon="2.78885">
        <ele>62</ele>
        <time>2023-04-11T13:53:11.041Z</time>
      </trkpt>
      <trkpt lat="48.3989" lon="2.78882">
        <ele>62</ele>
        <time>2023-04-11T13:53:15.098Z</time>
      </trkpt>
      <trkpt lat="48.39887" lon="2.78879">
        <ele>62</ele>
        <time>2023-04-11T13:53:19.255Z</time>
      </trkpt>
      <trkpt lat="48.39883" lon="2.78876">
        <ele>62</ele>
        <time>2023-04-11T13:53:23.316Z</time>
      </trkpt>
      <trkpt lat="48.39878" lon="2.78874">
        <ele>67</ele>
        <time>2023-04-11T13:53:27.489Z</time>
      </trkpt>
      <trkpt lat="48.39874" lon="2.78869">
        <ele>67</ele>
        <time>2023-04-11T13:53:31.628Z</time>
      </trkpt>
      <trkpt lat="48.3987" lon="2.78866">
        <ele>67</ele>
        <time>2023-04-11T13:53:36.126Z</time>
      </trkpt>
      <trkpt lat="48.39866" lon="2.78864">
        <ele>67</ele>
        <time>2023-04-11T13:53:40.024Z</time>
      </trkpt>
      <trkpt lat="48.39861" lon="2.78862">
        <ele>67</ele>
        <time>2023-04-11T13:53:44.547Z</time>
      </trkpt>
      <trkpt lat="48.39857" lon="2.78866">
        <ele>67</ele>
        <time>2023-04-11T13:53:48.718Z</time>
      </trkpt>
      <trkpt lat="48.39853" lon="2.7888">
        <ele>60</ele>
        <time>2023-04-11T13:54:25.961Z</time>
      </trkpt>
      <trkpt lat="48.39852" lon="2.78873">
        <ele>67</ele>
        <time>2023-04-11T13:54:29.971Z</time>
      </trkpt>
      <trkpt lat="48.39851" lon="2.78862">
        <ele>67</ele>
        <time>2023-04-11T13:54:34.480Z</time>
      </trkpt>
      <trkpt lat="48.39851" lon="2.78855">
        <ele>67</ele>
        <time>2023-04-11T13:54:39.088Z</time>
      </trkpt>
      <trkpt lat="48.39854" lon="2.78853">
        <ele>67</ele>
        <time>2023-04-11T13:54:43.101Z</time>
      </trkpt>
      <trkpt lat="48.39854" lon="2.78847">
        <ele>67</ele>
        <time>2023-04-11T13:54:48.130Z</time>
      </trkpt>
      <trkpt lat="48.39852" lon="2.78838">
        <ele>70</ele>
        <time>2023-04-11T13:54:52.638Z</time>
      </trkpt>
      <trkpt lat="48.39852" lon="2.78837">
        <ele>70</ele>
        <time>2023-04-11T13:54:56.752Z</time>
      </trkpt>
      <trkpt lat="48.3985" lon="2.78833">
        <ele>70</ele>
        <time>2023-04-11T13:55:01.776Z</time>
      </trkpt>
      <trkpt lat="48.39844" lon="2.78828">
        <ele>71</ele>
        <time>2023-04-11T13:55:06.784Z</time>
      </trkpt>
      <trkpt lat="48.39837" lon="2.78823">
        <ele>71</ele>
        <time>2023-04-11T13:55:11.988Z</time>
      </trkpt>
      <trkpt lat="48.39832" lon="2.7882">
        <ele>71</ele>
        <time>2023-04-11T13:55:16.093Z</time>
      </trkpt>
      <trkpt lat="48.39829" lon="2.78823">
        <ele>71</ele>
        <time>2023-04-11T13:55:20.596Z</time>
      </trkpt>
      <trkpt lat="48.39829" lon="2.78829">
        <ele>71</ele>
        <time>2023-04-11T13:55:25.177Z</time>
      </trkpt>
      <trkpt lat="48.39829" lon="2.78837">
        <ele>71</ele>
        <time>2023-04-11T13:55:29.202Z</time>
      </trkpt>
      <trkpt lat="48.39828" lon="2.78843">
        <ele>71</ele>
        <time>2023-04-11T13:55:33.805Z</time>
      </trkpt>
      <trkpt lat="48.39826" lon="2.78848">
        <ele>66</ele>
        <time>2023-04-11T13:55:38.308Z</time>
      </trkpt>
      <trkpt lat="48.39824" lon="2.78854">
        <ele>66</ele>
        <time>2023-04-11T13:55:42.923Z</time>
      </trkpt>
      <trkpt lat="48.39824" lon="2.78862">
        <ele>66</ele>
        <time>2023-04-11T13:55:47.151Z</time>
      </trkpt>
      <trkpt lat="48.39821" lon="2.78866">
        <ele>66</ele>
        <time>2023-04-11T13:55:50.757Z</time>
      </trkpt>
      <trkpt lat="48.39816" lon="2.78864">
        <ele>66</ele>
        <time>2023-04-11T13:55:55.378Z</time>
      </trkpt>
      <trkpt lat="48.39809" lon="2.78861">
        <ele>66</ele>
        <time>2023-04-11T13:55:59.499Z</time>
      </trkpt>
      <trkpt lat="48.39803" lon="2.78859">
        <ele>66</ele>
        <time>2023-04-11T13:56:03.501Z</time>
      </trkpt>
      <trkpt lat="48.39798" lon="2.78856">
        <ele>66</ele>
        <time>2023-04-11T13:56:08.126Z</time>
      </trkpt>
      <trkpt lat="48.39791" lon="2.78853">
        <ele>68</ele>
        <time>2023-04-11T13:56:12.638Z</time>
      </trkpt>
      <trkpt lat="48.39785" lon="2.78851">
        <ele>68</ele>
        <time>2023-04-11T13:56:17.187Z</time>
      </trkpt>
      <trkpt lat="48.39779" lon="2.78849">
        <ele>68</ele>
        <time>2023-04-11T13:56:21.702Z</time>
      </trkpt>
      <trkpt lat="48.39774" lon="2.78847">
        <ele>68</ele>
        <time>2023-04-11T13:56:25.897Z</time>
      </trkpt>
      <trkpt lat="48.39768" lon="2.78845">
        <ele>71</ele>
        <time>2023-04-11T13:56:29.973Z</time>
      </trkpt>
      <trkpt lat="48.39763" lon="2.78842">
        <ele>69</ele>
        <time>2023-04-11T13:56:34.049Z</time>
      </trkpt>
      <trkpt lat="48.39758" lon="2.7884">
        <ele>69</ele>
        <time>2023-04-11T13:56:38.724Z</time>
      </trkpt>
      <trkpt lat="48.39754" lon="2.78837">
        <ele>69</ele>
        <time>2023-04-11T13:56:43.280Z</time>
      </trkpt>
      <trkpt lat="48.39747" lon="2.78837">
        <ele>69</ele>
        <time>2023-04-11T13:56:47.917Z</time>
      </trkpt>
      <trkpt lat="48.39742" lon="2.78836">
        <ele>69</ele>
        <time>2023-04-11T13:56:51.855Z</time>
      </trkpt>
      <trkpt lat="48.39736" lon="2.78835">
        <ele>69</ele>
        <time>2023-04-11T13:56:55.874Z</time>
      </trkpt>
      <trkpt lat="48.39731" lon="2.78833">
        <ele>68</ele>
        <time>2023-04-11T13:57:00.490Z</time>
      </trkpt>
      <trkpt lat="48.39728" lon="2.78832">
        <ele>68</ele>
        <time>2023-04-11T13:57:05.027Z</time>
      </trkpt>
      <trkpt lat="48.39722" lon="2.7883">
        <ele>68</ele>
        <time>2023-04-11T13:57:09.702Z</time>
      </trkpt>
      <trkpt lat="48.39716" lon="2.78828">
        <ele>68</ele>
        <time>2023-04-11T13:57:13.896Z</time>
      </trkpt>
      <trkpt lat="48.39711" lon="2.78824">
        <ele>68</ele>
        <time>2023-04-11T13:57:17.832Z</time>
      </trkpt>
      <trkpt lat="48.39708" lon="2.78821">
        <ele>67</ele>
        <time>2023-04-11T13:57:22.429Z</time>
      </trkpt>
      <trkpt lat="48.39706" lon="2.78818">
        <ele>72</ele>
        <time>2023-04-11T13:57:26.988Z</time>
      </trkpt>
      <trkpt lat="48.39702" lon="2.78815">
        <ele>72</ele>
        <time>2023-04-11T13:57:31.062Z</time>
      </trkpt>
      <trkpt lat="48.39697" lon="2.78812">
        <ele>72</ele>
        <time>2023-04-11T13:57:35.560Z</time>
      </trkpt>
      <trkpt lat="48.39692" lon="2.78811">
        <ele>72</ele>
        <time>2023-04-11T13:57:39.939Z</time>
      </trkpt>
      <trkpt lat="48.39688" lon="2.78809">
        <ele>72</ele>
        <time>2023-04-11T13:57:43.955Z</time>
      </trkpt>
      <trkpt lat="48.39681" lon="2.78808">
        <ele>72</ele>
        <time>2023-04-11T13:57:48.445Z</time>
      </trkpt>
      <trkpt lat="48.39673" lon="2.78805">
        <ele>71</ele>
        <time>2023-04-11T13:57:52.933Z</time>
      </trkpt>
      <trkpt lat="48.39663" lon="2.788">
        <ele>71</ele>
        <time>2023-04-11T13:57:57.051Z</time>
      </trkpt>
      <trkpt lat="48.39655" lon="2.78797">
        <ele>71</ele>
        <time>2023-04-11T13:58:02.028Z</time>
      </trkpt>
      <trkpt lat="48.39648" lon="2.78794">
        <ele>73</ele>
        <time>2023-04-11T13:58:06.882Z</time>
      </trkpt>
      <trkpt lat="48.39643" lon="2.78791">
        <ele>77</ele>
        <time>2023-04-11T13:58:10.837Z</time>
      </trkpt>
      <trkpt lat="48.39636" lon="2.78789">
        <ele>77</ele>
        <time>2023-04-11T13:58:15.512Z</time>
      </trkpt>
      <trkpt lat="48.3963" lon="2.78789">
        <ele>77</ele>
        <time>2023-04-11T13:58:19.707Z</time>
      </trkpt>
      <trkpt lat="48.39623" lon="2.78788">
        <ele>77</ele>
        <time>2023-04-11T13:58:25.004Z</time>
      </trkpt>
      <trkpt lat="48.39618" lon="2.78789">
        <ele>77</ele>
        <time>2023-04-11T13:58:28.997Z</time>
      </trkpt>
      <trkpt lat="48.39611" lon="2.78788">
        <ele>77</ele>
        <time>2023-04-11T13:58:32.832Z</time>
      </trkpt>
      <trkpt lat="48.39605" lon="2.78787">
        <ele>77</ele>
        <time>2023-04-11T13:58:36.907Z</time>
      </trkpt>
      <trkpt lat="48.39599" lon="2.78787">
        <ele>77</ele>
        <time>2023-04-11T13:58:40.924Z</time>
      </trkpt>
      <trkpt lat="48.39593" lon="2.78785">
        <ele>77</ele>
        <time>2023-04-11T13:58:45.120Z</time>
      </trkpt>
      <trkpt lat="48.39587" lon="2.78786">
        <ele>77</ele>
        <time>2023-04-11T13:58:49.677Z</time>
      </trkpt>
      <trkpt lat="48.3958" lon="2.78787">
        <ele>77</ele>
        <time>2023-04-11T13:58:53.875Z</time>
      </trkpt>
      <trkpt lat="48.39575" lon="2.78785">
        <ele>77</ele>
        <time>2023-04-11T13:58:57.832Z</time>
      </trkpt>
      <trkpt lat="48.39569" lon="2.78782">
        <ele>77</ele>
        <time>2023-04-11T13:59:02.508Z</time>
      </trkpt>
      <trkpt lat="48.39565" lon="2.78782">
        <ele>77</ele>
        <time>2023-04-11T13:59:07.305Z</time>
      </trkpt>
      <trkpt lat="48.3956" lon="2.78781">
        <ele>77</ele>
        <time>2023-04-11T13:59:11.499Z</time>
      </trkpt>
      <trkpt lat="48.39554" lon="2.78781">
        <ele>77</ele>
        <time>2023-04-11T13:59:15.654Z</time>
      </trkpt>
      <trkpt lat="48.39547" lon="2.78779">
        <ele>77</ele>
        <time>2023-04-11T13:59:20.148Z</time>
      </trkpt>
      <trkpt lat="48.39541" lon="2.78779">
        <ele>76</ele>
        <time>2023-04-11T13:59:24.182Z</time>
      </trkpt>
      <trkpt lat="48.39535" lon="2.78778">
        <ele>76</ele>
        <time>2023-04-11T13:59:28.186Z</time>
      </trkpt>
      <trkpt lat="48.39528" lon="2.78774">
        <ele>76</ele>
        <time>2023-04-11T13:59:32.682Z</time>
      </trkpt>
      <trkpt lat="48.39526" lon="2.78769">
        <ele>76</ele>
        <time>2023-04-11T13:59:37.300Z</time>
      </trkpt>
      <trkpt lat="48.39526" lon="2.78759">
        <ele>80</ele>
        <time>2023-04-11T13:59:42.076Z</time>
      </trkpt>
      <trkpt lat="48.39526" lon="2.78747">
        <ele>80</ele>
        <time>2023-04-11T13:59:47.144Z</time>
      </trkpt>
      <trkpt lat="48.39526" lon="2.78737">
        <ele>80</ele>
        <time>2023-04-11T13:59:51.647Z</time>
      </trkpt>
      <trkpt lat="48.39525" lon="2.7873">
        <ele>85</ele>
        <time>2023-04-11T13:59:55.959Z</time>
      </trkpt>
      <trkpt lat="48.39524" lon="2.78722">
        <ele>85</ele>
        <time>2023-04-11T14:00:00.631Z</time>
      </trkpt>
      <trkpt lat="48.39523" lon="2.78714">
        <ele>85</ele>
        <time>2023-04-11T14:00:05.047Z</time>
      </trkpt>
      <trkpt lat="48.39523" lon="2.78707">
        <ele>87</ele>
        <time>2023-04-11T14:00:09.120Z</time>
      </trkpt>
      <trkpt lat="48.39525" lon="2.78702">
        <ele>87</ele>
        <time>2023-04-11T14:00:13.676Z</time>
      </trkpt>
      <trkpt lat="48.39524" lon="2.787">
        <ele>87</ele>
        <time>2023-04-11T14:00:19.072Z</time>
      </trkpt>
      <trkpt lat="48.39523" lon="2.787">
        <ele>87</ele>
        <time>2023-04-11T14:00:37.147Z</time>
      </trkpt>
      <trkpt lat="48.39523" lon="2.787">
        <ele>87</ele>
        <time>2023-04-11T14:00:41.180Z</time>
      </trkpt>
      <trkpt lat="48.39523" lon="2.78696">
        <ele>87</ele>
        <time>2023-04-11T14:00:46.035Z</time>
      </trkpt>
      <trkpt lat="48.39521" lon="2.78693">
        <ele>87</ele>
        <time>2023-04-11T14:00:50.468Z</time>
      </trkpt>
      <trkpt lat="48.39522" lon="2.78685">
        <ele>87</ele>
        <time>2023-04-11T14:00:54.660Z</time>
      </trkpt>
      <trkpt lat="48.39521" lon="2.78677">
        <ele>88</ele>
        <time>2023-04-11T14:00:58.733Z</time>
      </trkpt>
      <trkpt lat="48.39521" lon="2.78667">
        <ele>88</ele>
        <time>2023-04-11T14:01:04.029Z</time>
      </trkpt>
      <trkpt lat="48.3952" lon="2.78661">
        <ele>88</ele>
        <time>2023-04-11T14:01:07.840Z</time>
      </trkpt>
      <trkpt lat="48.39517" lon="2.78658">
        <ele>88</ele>
        <time>2023-04-11T14:01:12.991Z</time>
      </trkpt>
      <trkpt lat="48.39512" lon="2.78664">
        <ele>87</ele>
        <time>2023-04-11T14:01:17.316Z</time>
      </trkpt>
      <trkpt lat="48.39508" lon="2.78669">
        <ele>87</ele>
        <time>2023-04-11T14:01:21.700Z</time>
      </trkpt>
      <trkpt lat="48.39503" lon="2.78671">
        <ele>87</ele>
        <time>2023-04-11T14:01:25.895Z</time>
      </trkpt>
      <trkpt lat="48.39496" lon="2.78672">
        <ele>87</ele>
        <time>2023-04-11T14:01:30.929Z</time>
      </trkpt>
      <trkpt lat="48.39496" lon="2.78673">
        <ele>87</ele>
        <time>2023-04-11T14:01:35.724Z</time>
      </trkpt>
      <trkpt lat="48.39497" lon="2.78673">
        <ele>87</ele>
        <time>2023-04-11T14:01:39.918Z</time>
      </trkpt>
      <trkpt lat="48.39498" lon="2.78673">
        <ele>87</ele>
        <time>2023-04-11T14:01:44.683Z</time>
      </trkpt>
      <trkpt lat="48.39504" lon="2.7867">
        <ele>87</ele>
        <time>2023-04-11T14:01:49.106Z</time>
      </trkpt>
      <trkpt lat="48.39511" lon="2.78667">
        <ele>87</ele>
        <time>2023-04-11T14:01:53.265Z</time>
      </trkpt>
      <trkpt lat="48.39516" lon="2.7866">
        <ele>88</ele>
        <time>2023-04-11T14:01:57.738Z</time>
      </trkpt>
      <trkpt lat="48.39518" lon="2.78652">
        <ele>87</ele>
        <time>2023-04-11T14:02:01.737Z</time>
      </trkpt>
      <trkpt lat="48.39519" lon="2.78645">
        <ele>87</ele>
        <time>2023-04-11T14:02:06.175Z</time>
      </trkpt>
      <trkpt lat="48.3952" lon="2.78637">
        <ele>87</ele>
        <time>2023-04-11T14:02:10.690Z</time>
      </trkpt>
      <trkpt lat="48.39519" lon="2.78627">
        <ele>87</ele>
        <time>2023-04-11T14:02:15.248Z</time>
      </trkpt>
      <trkpt lat="48.39518" lon="2.78618">
        <ele>88</ele>
        <time>2023-04-11T14:02:19.741Z</time>
      </trkpt>
      <trkpt lat="48.39517" lon="2.7861">
        <ele>88</ele>
        <time>2023-04-11T14:02:23.696Z</time>
      </trkpt>
      <trkpt lat="48.39516" lon="2.78598">
        <ele>88</ele>
        <time>2023-04-11T14:02:28.823Z</time>
      </trkpt>
      <trkpt lat="48.39515" lon="2.7859">
        <ele>89</ele>
        <time>2023-04-11T14:02:32.729Z</time>
      </trkpt>
      <trkpt lat="48.39514" lon="2.7858">
        <ele>89</ele>
        <time>2023-04-11T14:02:37.445Z</time>
      </trkpt>
      <trkpt lat="48.39515" lon="2.78573">
        <ele>89</ele>
        <time>2023-04-11T14:02:41.478Z</time>
      </trkpt>
      <trkpt lat="48.39514" lon="2.78572">
        <ele>89</ele>
        <time>2023-04-11T14:02:45.674Z</time>
      </trkpt>
      <trkpt lat="48.39512" lon="2.78564">
        <ele>92</ele>
        <time>2023-04-11T14:02:50.260Z</time>
      </trkpt>
      <trkpt lat="48.39512" lon="2.78554">
        <ele>92</ele>
        <time>2023-04-11T14:02:55.093Z</time>
      </trkpt>
      <trkpt lat="48.39512" lon="2.7855">
        <ele>92</ele>
        <time>2023-04-11T14:02:59.103Z</time>
      </trkpt>
      <trkpt lat="48.39514" lon="2.78548">
        <ele>92</ele>
        <time>2023-04-11T14:03:03.119Z</time>
      </trkpt>
      <trkpt lat="48.39518" lon="2.78541">
        <ele>90</ele>
        <time>2023-04-11T14:03:07.201Z</time>
      </trkpt>
      <trkpt lat="48.39524" lon="2.7854">
        <ele>90</ele>
        <time>2023-04-11T14:03:11.781Z</time>
      </trkpt>
      <trkpt lat="48.39527" lon="2.78536">
        <ele>90</ele>
        <time>2023-04-11T14:03:15.696Z</time>
      </trkpt>
      <trkpt lat="48.39532" lon="2.78533">
        <ele>90</ele>
        <time>2023-04-11T14:03:20.136Z</time>
      </trkpt>
      <trkpt lat="48.39537" lon="2.78534">
        <ele>90</ele>
        <time>2023-04-11T14:03:24.316Z</time>
      </trkpt>
      <trkpt lat="48.39541" lon="2.78541">
        <ele>90</ele>
        <time>2023-04-11T14:03:28.694Z</time>
      </trkpt>
      <trkpt lat="48.39546" lon="2.78544">
        <ele>90</ele>
        <time>2023-04-11T14:03:32.934Z</time>
      </trkpt>
      <trkpt lat="48.39553" lon="2.78541">
        <ele>90</ele>
        <time>2023-04-11T14:03:36.715Z</time>
      </trkpt>
      <trkpt lat="48.3956" lon="2.78539">
        <ele>90</ele>
        <time>2023-04-11T14:03:41.535Z</time>
      </trkpt>
      <trkpt lat="48.39566" lon="2.78544">
        <ele>90</ele>
        <time>2023-04-11T14:03:45.806Z</time>
      </trkpt>
      <trkpt lat="48.3957" lon="2.78548">
        <ele>90</ele>
        <time>2023-04-11T14:03:49.733Z</time>
      </trkpt>
      <trkpt lat="48.39578" lon="2.78542">
        <ele>90</ele>
        <time>2023-04-11T14:03:53.931Z</time>
      </trkpt>
      <trkpt lat="48.39585" lon="2.78541">
        <ele>90</ele>
        <time>2023-04-11T14:03:58.420Z</time>
      </trkpt>
      <trkpt lat="48.39584" lon="2.78538">
        <ele>90</ele>
        <time>2023-04-11T14:04:02.958Z</time>
      </trkpt>
      <trkpt lat="48.39581" lon="2.78537">
        <ele>90</ele>
        <time>2023-04-11T14:04:07.045Z</time>
      </trkpt>
      <trkpt lat="48.39575" lon="2.78532">
        <ele>90</ele>
        <time>2023-04-11T14:04:11.524Z</time>
      </trkpt>
      <trkpt lat="48.39579" lon="2.78519">
        <ele>90</ele>
        <time>2023-04-11T14:04:15.898Z</time>
      </trkpt>
      <trkpt lat="48.39577" lon="2.7851">
        <ele>89</ele>
        <time>2023-04-11T14:04:20.169Z</time>
      </trkpt>
      <trkpt lat="48.39574" lon="2.78504">
        <ele>89</ele>
        <time>2023-04-11T14:04:24.513Z</time>
      </trkpt>
      <trkpt lat="48.39572" lon="2.78496">
        <ele>89</ele>
        <time>2023-04-11T14:04:28.631Z</time>
      </trkpt>
      <trkpt lat="48.39571" lon="2.78486">
        <ele>89</ele>
        <time>2023-04-11T14:04:33.102Z</time>
      </trkpt>
      <trkpt lat="48.39572" lon="2.78477">
        <ele>89</ele>
        <time>2023-04-11T14:04:37.608Z</time>
      </trkpt>
      <trkpt lat="48.39572" lon="2.78468">
        <ele>89</ele>
        <time>2023-04-11T14:04:41.930Z</time>
      </trkpt>
      <trkpt lat="48.39571" lon="2.78459">
        <ele>89</ele>
        <time>2023-04-11T14:04:46.068Z</time>
      </trkpt>
      <trkpt lat="48.3957" lon="2.7845">
        <ele>89</ele>
        <time>2023-04-11T14:04:50.746Z</time>
      </trkpt>
      <trkpt lat="48.3957" lon="2.78444">
        <ele>89</ele>
        <time>2023-04-11T14:04:55.844Z</time>
      </trkpt>
      <trkpt lat="48.39568" lon="2.78432">
        <ele>90</ele>
        <time>2023-04-11T14:04:59.801Z</time>
      </trkpt>
      <trkpt lat="48.39566" lon="2.78421">
        <ele>90</ele>
        <time>2023-04-11T14:05:04.279Z</time>
      </trkpt>
      <trkpt lat="48.39561" lon="2.78407">
        <ele>90</ele>
        <time>2023-04-11T14:05:22.612Z</time>
      </trkpt>
      <trkpt lat="48.39561" lon="2.78406">
        <ele>90</ele>
        <time>2023-04-11T14:05:26.689Z</time>
      </trkpt>
      <trkpt lat="48.39566" lon="2.78403">
        <ele>90</ele>
        <time>2023-04-11T14:05:30.845Z</time>
      </trkpt>
      <trkpt lat="48.39571" lon="2.78397">
        <ele>91</ele>
        <time>2023-04-11T14:05:35.403Z</time>
      </trkpt>
      <trkpt lat="48.39577" lon="2.78393">
        <ele>91</ele>
        <time>2023-04-11T14:05:39.884Z</time>
      </trkpt>
      <trkpt lat="48.39581" lon="2.78391">
        <ele>91</ele>
        <time>2023-04-11T14:05:43.836Z</time>
      </trkpt>
      <trkpt lat="48.39586" lon="2.78386">
        <ele>91</ele>
        <time>2023-04-11T14:05:48.510Z</time>
      </trkpt>
      <trkpt lat="48.3959" lon="2.7838">
        <ele>91</ele>
        <time>2023-04-11T14:05:52.585Z</time>
      </trkpt>
      <trkpt lat="48.39592" lon="2.78377">
        <ele>91</ele>
        <time>2023-04-11T14:05:56.907Z</time>
      </trkpt>
      <trkpt lat="48.39596" lon="2.78373">
        <ele>93</ele>
        <time>2023-04-11T14:06:32.242Z</time>
      </trkpt>
      <trkpt lat="48.39597" lon="2.78372">
        <ele>93</ele>
        <time>2023-04-11T14:06:36.963Z</time>
      </trkpt>
      <trkpt lat="48.39597" lon="2.78372">
        <ele>93</ele>
        <time>2023-04-11T14:06:41.104Z</time>
      </trkpt>
      <trkpt lat="48.39602" lon="2.78365">
        <ele>94</ele>
        <time>2023-04-11T14:06:45.607Z</time>
      </trkpt>
      <trkpt lat="48.39606" lon="2.7836">
        <ele>94</ele>
        <time>2023-04-11T14:06:49.611Z</time>
      </trkpt>
      <trkpt lat="48.39608" lon="2.78359">
        <ele>94</ele>
        <time>2023-04-11T14:06:54.133Z</time>
      </trkpt>
      <trkpt lat="48.39612" lon="2.78356">
        <ele>94</ele>
        <time>2023-04-11T14:06:58.174Z</time>
      </trkpt>
      <trkpt lat="48.39616" lon="2.78352">
        <ele>94</ele>
        <time>2023-04-11T14:07:02.180Z</time>
      </trkpt>
      <trkpt lat="48.39619" lon="2.7835">
        <ele>94</ele>
        <time>2023-04-11T14:07:06.701Z</time>
      </trkpt>
      <trkpt lat="48.39625" lon="2.78343">
        <ele>96</ele>
        <time>2023-04-11T14:07:11.216Z</time>
      </trkpt>
      <trkpt lat="48.39629" lon="2.78339">
        <ele>96</ele>
        <time>2023-04-11T14:07:15.327Z</time>
      </trkpt>
      <trkpt lat="48.39631" lon="2.78332">
        <ele>96</ele>
        <time>2023-04-11T14:07:19.845Z</time>
      </trkpt>
      <trkpt lat="48.3963" lon="2.78323">
        <ele>96</ele>
        <time>2023-04-11T14:07:23.854Z</time>
      </trkpt>
      <trkpt lat="48.3963" lon="2.78316">
        <ele>97</ele>
        <time>2023-04-11T14:07:28.461Z</time>
      </trkpt>
      <trkpt lat="48.39631" lon="2.78311">
        <ele>97</ele>
        <time>2023-04-11T14:07:32.463Z</time>
      </trkpt>
      <trkpt lat="48.3963" lon="2.78306">
        <ele>97</ele>
        <time>2023-04-11T14:07:37.162Z</time>
      </trkpt>
      <trkpt lat="48.39628" lon="2.78303">
        <ele>97</ele>
        <time>2023-04-11T14:07:41.325Z</time>
      </trkpt>
      <trkpt lat="48.39626" lon="2.78295">
        <ele>97</ele>
        <time>2023-04-11T14:07:45.829Z</time>
      </trkpt>
      <trkpt lat="48.39622" lon="2.78286">
        <ele>97</ele>
        <time>2023-04-11T14:07:50.433Z</time>
      </trkpt>
      <trkpt lat="48.3962" lon="2.7828">
        <ele>97</ele>
        <time>2023-04-11T14:07:54.495Z</time>
      </trkpt>
      <trkpt lat="48.39618" lon="2.78272">
        <ele>97</ele>
        <time>2023-04-11T14:07:58.617Z</time>
      </trkpt>
      <trkpt lat="48.39616" lon="2.78264">
        <ele>98</ele>
        <time>2023-04-11T14:08:02.878Z</time>
      </trkpt>
      <trkpt lat="48.39614" lon="2.78255">
        <ele>98</ele>
        <time>2023-04-11T14:08:07.161Z</time>
      </trkpt>
      <trkpt lat="48.39613" lon="2.78247">
        <ele>98</ele>
        <time>2023-04-11T14:08:10.858Z</time>
      </trkpt>
      <trkpt lat="48.39611" lon="2.78239">
        <ele>98</ele>
        <time>2023-04-11T14:08:15.358Z</time>
      </trkpt>
      <trkpt lat="48.39609" lon="2.7823">
        <ele>100</ele>
        <time>2023-04-11T14:08:19.674Z</time>
      </trkpt>
      <trkpt lat="48.39606" lon="2.78225">
        <ele>100</ele>
        <time>2023-04-11T14:08:23.733Z</time>
      </trkpt>
      <trkpt lat="48.39606" lon="2.78216">
        <ele>100</ele>
        <time>2023-04-11T14:08:27.910Z</time>
      </trkpt>
      <trkpt lat="48.39606" lon="2.78206">
        <ele>100</ele>
        <time>2023-04-11T14:08:32.585Z</time>
      </trkpt>
      <trkpt lat="48.39605" lon="2.78198">
        <ele>100</ele>
        <time>2023-04-11T14:08:36.661Z</time>
      </trkpt>
      <trkpt lat="48.39605" lon="2.78189">
        <ele>100</ele>
        <time>2023-04-11T14:08:41.864Z</time>
      </trkpt>
      <trkpt lat="48.39604" lon="2.7818">
        <ele>101</ele>
        <time>2023-04-11T14:08:45.842Z</time>
      </trkpt>
      <trkpt lat="48.39602" lon="2.7817">
        <ele>101</ele>
        <time>2023-04-11T14:08:50.759Z</time>
      </trkpt>
      <trkpt lat="48.39601" lon="2.78159">
        <ele>101</ele>
        <time>2023-04-11T14:08:55.856Z</time>
      </trkpt>
      <trkpt lat="48.39602" lon="2.7815">
        <ele>100</ele>
        <time>2023-04-11T14:08:59.796Z</time>
      </trkpt>
      <trkpt lat="48.39599" lon="2.78144">
        <ele>100</ele>
        <time>2023-04-11T14:09:04.295Z</time>
      </trkpt>
      <trkpt lat="48.39597" lon="2.78133">
        <ele>102</ele>
        <time>2023-04-11T14:09:08.753Z</time>
      </trkpt>
      <trkpt lat="48.39596" lon="2.78125">
        <ele>101</ele>
        <time>2023-04-11T14:09:13.907Z</time>
      </trkpt>
      <trkpt lat="48.39594" lon="2.78112">
        <ele>101</ele>
        <time>2023-04-11T14:09:19.071Z</time>
      </trkpt>
      <trkpt lat="48.39592" lon="2.78101">
        <ele>101</ele>
        <time>2023-04-11T14:09:24.146Z</time>
      </trkpt>
      <trkpt lat="48.39589" lon="2.78093">
        <ele>100</ele>
        <time>2023-04-11T14:09:28.024Z</time>
      </trkpt>
      <trkpt lat="48.39589" lon="2.78084">
        <ele>100</ele>
        <time>2023-04-11T14:09:33.122Z</time>
      </trkpt>
      <trkpt lat="48.39586" lon="2.78078">
        <ele>100</ele>
        <time>2023-04-11T14:09:37.121Z</time>
      </trkpt>
      <trkpt lat="48.39586" lon="2.7807">
        <ele>100</ele>
        <time>2023-04-11T14:09:41.303Z</time>
      </trkpt>
      <trkpt lat="48.39584" lon="2.78065">
        <ele>99</ele>
        <time>2023-04-11T14:09:45.583Z</time>
      </trkpt>
      <trkpt lat="48.39582" lon="2.78056">
        <ele>99</ele>
        <time>2023-04-11T14:09:49.921Z</time>
      </trkpt>
      <trkpt lat="48.3958" lon="2.78047">
        <ele>99</ele>
        <time>2023-04-11T14:09:54.480Z</time>
      </trkpt>
      <trkpt lat="48.39578" lon="2.78039">
        <ele>98</ele>
        <time>2023-04-11T14:09:58.780Z</time>
      </trkpt>
      <trkpt lat="48.39576" lon="2.78031">
        <ele>98</ele>
        <time>2023-04-11T14:10:02.976Z</time>
      </trkpt>
      <trkpt lat="48.39575" lon="2.78022">
        <ele>98</ele>
        <time>2023-04-11T14:10:06.753Z</time>
      </trkpt>
      <trkpt lat="48.39574" lon="2.78013">
        <ele>97</ele>
        <time>2023-04-11T14:10:10.769Z</time>
      </trkpt>
      <trkpt lat="48.39572" lon="2.78006">
        <ele>97</ele>
        <time>2023-04-11T14:10:14.725Z</time>
      </trkpt>
      <trkpt lat="48.39571" lon="2.77998">
        <ele>97</ele>
        <time>2023-04-11T14:10:19.372Z</time>
      </trkpt>
      <trkpt lat="48.39569" lon="2.77991">
        <ele>98</ele>
        <time>2023-04-11T14:10:23.488Z</time>
      </trkpt>
      <trkpt lat="48.39567" lon="2.77983">
        <ele>98</ele>
        <time>2023-04-11T14:10:27.663Z</time>
      </trkpt>
      <trkpt lat="48.39565" lon="2.77974">
        <ele>98</ele>
        <time>2023-04-11T14:10:31.726Z</time>
      </trkpt>
      <trkpt lat="48.39564" lon="2.77965">
        <ele>98</ele>
        <time>2023-04-11T14:10:35.862Z</time>
      </trkpt>
      <trkpt lat="48.39562" lon="2.77957">
        <ele>98</ele>
        <time>2023-04-11T14:10:39.936Z</time>
      </trkpt>
      <trkpt lat="48.3956" lon="2.77947">
        <ele>98</ele>
        <time>2023-04-11T14:10:44.343Z</time>
      </trkpt>
      <trkpt lat="48.39558" lon="2.77938">
        <ele>98</ele>
        <time>2023-04-11T14:10:48.585Z</time>
      </trkpt>
      <trkpt lat="48.39556" lon="2.7793">
        <ele>98</ele>
        <time>2023-04-11T14:10:53.140Z</time>
      </trkpt>
      <trkpt lat="48.39555" lon="2.77921">
        <ele>98</ele>
        <time>2023-04-11T14:10:57.152Z</time>
      </trkpt>
      <trkpt lat="48.39552" lon="2.77912">
        <ele>98</ele>
        <time>2023-04-11T14:11:01.291Z</time>
      </trkpt>
      <trkpt lat="48.39551" lon="2.77904">
        <ele>98</ele>
        <time>2023-04-11T14:11:05.729Z</time>
      </trkpt>
      <trkpt lat="48.3955" lon="2.77895">
        <ele>98</ele>
        <time>2023-04-11T14:11:10.286Z</time>
      </trkpt>
      <trkpt lat="48.39549" lon="2.77888">
        <ele>98</ele>
        <time>2023-04-11T14:11:14.723Z</time>
      </trkpt>
      <trkpt lat="48.39546" lon="2.77878">
        <ele>98</ele>
        <time>2023-04-11T14:11:58.148Z</time>
      </trkpt>
      <trkpt lat="48.39546" lon="2.77877">
        <ele>98</ele>
        <time>2023-04-11T14:12:02.168Z</time>
      </trkpt>
      <trkpt lat="48.39546" lon="2.77872">
        <ele>98</ele>
        <time>2023-04-11T14:12:07.144Z</time>
      </trkpt>
      <trkpt lat="48.39546" lon="2.77872">
        <ele>98</ele>
        <time>2023-04-11T14:12:10.690Z</time>
      </trkpt>
      <trkpt lat="48.39548" lon="2.77867">
        <ele>98</ele>
        <time>2023-04-11T14:12:16.044Z</time>
      </trkpt>
      <trkpt lat="48.39545" lon="2.77851">
        <ele>98</ele>
        <time>2023-04-11T14:13:11.019Z</time>
      </trkpt>
      <trkpt lat="48.39545" lon="2.7785">
        <ele>98</ele>
        <time>2023-04-11T14:13:16.016Z</time>
      </trkpt>
      <trkpt lat="48.39544" lon="2.7785">
        <ele>98</ele>
        <time>2023-04-11T14:13:19.894Z</time>
      </trkpt>
      <trkpt lat="48.39543" lon="2.77846">
        <ele>99</ele>
        <time>2023-04-11T14:13:24.650Z</time>
      </trkpt>
      <trkpt lat="48.39545" lon="2.77838">
        <ele>99</ele>
        <time>2023-04-11T14:13:29.165Z</time>
      </trkpt>
      <trkpt lat="48.39547" lon="2.77829">
        <ele>99</ele>
        <time>2023-04-11T14:13:34.124Z</time>
      </trkpt>
      <trkpt lat="48.39549" lon="2.77823">
        <ele>99</ele>
        <time>2023-04-11T14:13:38.069Z</time>
      </trkpt>
      <trkpt lat="48.39547" lon="2.77817">
        <ele>100</ele>
        <time>2023-04-11T14:13:42.849Z</time>
      </trkpt>
      <trkpt lat="48.39548" lon="2.7781">
        <ele>100</ele>
        <time>2023-04-11T14:13:47.184Z</time>
      </trkpt>
      <trkpt lat="48.3955" lon="2.77801">
        <ele>100</ele>
        <time>2023-04-11T14:13:51.669Z</time>
      </trkpt>
      <trkpt lat="48.39551" lon="2.77793">
        <ele>100</ele>
        <time>2023-04-11T14:13:55.890Z</time>
      </trkpt>
      <trkpt lat="48.3955" lon="2.77783">
        <ele>100</ele>
        <time>2023-04-11T14:14:00.089Z</time>
      </trkpt>
      <trkpt lat="48.39549" lon="2.77774">
        <ele>100</ele>
        <time>2023-04-11T14:14:04.648Z</time>
      </trkpt>
      <trkpt lat="48.39549" lon="2.77766">
        <ele>100</ele>
        <time>2023-04-11T14:14:08.723Z</time>
      </trkpt>
      <trkpt lat="48.39549" lon="2.77757">
        <ele>99</ele>
        <time>2023-04-11T14:14:12.901Z</time>
      </trkpt>
      <trkpt lat="48.39549" lon="2.77747">
        <ele>99</ele>
        <time>2023-04-11T14:14:17.316Z</time>
      </trkpt>
      <trkpt lat="48.39551" lon="2.77739">
        <ele>99</ele>
        <time>2023-04-11T14:14:21.834Z</time>
      </trkpt>
      <trkpt lat="48.39551" lon="2.7773">
        <ele>98</ele>
        <time>2023-04-11T14:14:26.481Z</time>
      </trkpt>
      <trkpt lat="48.39552" lon="2.77721">
        <ele>98</ele>
        <time>2023-04-11T14:14:30.908Z</time>
      </trkpt>
      <trkpt lat="48.39549" lon="2.7771">
        <ele>98</ele>
        <time>2023-04-11T14:14:36.186Z</time>
      </trkpt>
      <trkpt lat="48.39547" lon="2.77702">
        <ele>98</ele>
        <time>2023-04-11T14:14:40.263Z</time>
      </trkpt>
      <trkpt lat="48.39545" lon="2.7769">
        <ele>98</ele>
        <time>2023-04-11T14:14:44.700Z</time>
      </trkpt>
      <trkpt lat="48.39544" lon="2.77681">
        <ele>98</ele>
        <time>2023-04-11T14:14:49.178Z</time>
      </trkpt>
      <trkpt lat="48.39544" lon="2.77674">
        <ele>99</ele>
        <time>2023-04-11T14:14:53.169Z</time>
      </trkpt>
      <trkpt lat="48.39546" lon="2.77663">
        <ele>99</ele>
        <time>2023-04-11T14:14:57.753Z</time>
      </trkpt>
      <trkpt lat="48.39547" lon="2.77657">
        <ele>99</ele>
        <time>2023-04-11T14:15:01.732Z</time>
      </trkpt>
      <trkpt lat="48.39549" lon="2.77649">
        <ele>100</ele>
        <time>2023-04-11T14:15:06.143Z</time>
      </trkpt>
      <trkpt lat="48.39548" lon="2.77641">
        <ele>100</ele>
        <time>2023-04-11T14:15:09.687Z</time>
      </trkpt>
      <trkpt lat="48.39548" lon="2.77633">
        <ele>100</ele>
        <time>2023-04-11T14:15:14.722Z</time>
      </trkpt>
      <trkpt lat="48.39547" lon="2.77626">
        <ele>100</ele>
        <time>2023-04-11T14:15:18.900Z</time>
      </trkpt>
      <trkpt lat="48.39547" lon="2.77617">
        <ele>101</ele>
        <time>2023-04-11T14:15:23.696Z</time>
      </trkpt>
      <trkpt lat="48.39549" lon="2.77607">
        <ele>101</ele>
        <time>2023-04-11T14:15:28.165Z</time>
      </trkpt>
      <trkpt lat="48.39549" lon="2.776">
        <ele>101</ele>
        <time>2023-04-11T14:15:32.029Z</time>
      </trkpt>
      <trkpt lat="48.39548" lon="2.77591">
        <ele>101</ele>
        <time>2023-04-11T14:15:36.648Z</time>
      </trkpt>
      <trkpt lat="48.3955" lon="2.77582">
        <ele>101</ele>
        <time>2023-04-11T14:15:40.903Z</time>
      </trkpt>
      <trkpt lat="48.39551" lon="2.77574">
        <ele>101</ele>
        <time>2023-04-11T14:15:45.698Z</time>
      </trkpt>
      <trkpt lat="48.39553" lon="2.77565">
        <ele>100</ele>
        <time>2023-04-11T14:15:49.773Z</time>
      </trkpt>
      <trkpt lat="48.39554" lon="2.77556">
        <ele>100</ele>
        <time>2023-04-11T14:15:54.158Z</time>
      </trkpt>
      <trkpt lat="48.39554" lon="2.77541">
        <ele>100</ele>
        <time>2023-04-11T14:15:58.666Z</time>
      </trkpt>
      <trkpt lat="48.39554" lon="2.77528">
        <ele>100</ele>
        <time>2023-04-11T14:16:03.141Z</time>
      </trkpt>
      <trkpt lat="48.39553" lon="2.77515">
        <ele>100</ele>
        <time>2023-04-11T14:16:07.697Z</time>
      </trkpt>
      <trkpt lat="48.39554" lon="2.77504">
        <ele>99</ele>
        <time>2023-04-11T14:16:11.653Z</time>
      </trkpt>
      <trkpt lat="48.39555" lon="2.77494">
        <ele>99</ele>
        <time>2023-04-11T14:16:15.571Z</time>
      </trkpt>
      <trkpt lat="48.39556" lon="2.77485">
        <ele>99</ele>
        <time>2023-04-11T14:16:19.645Z</time>
      </trkpt>
      <trkpt lat="48.39557" lon="2.77475">
        <ele>99</ele>
        <time>2023-04-11T14:16:24.081Z</time>
      </trkpt>
      <trkpt lat="48.39558" lon="2.77467">
        <ele>99</ele>
        <time>2023-04-11T14:16:27.859Z</time>
      </trkpt>
      <trkpt lat="48.39559" lon="2.77457">
        <ele>98</ele>
        <time>2023-04-11T14:16:31.935Z</time>
      </trkpt>
      <trkpt lat="48.3956" lon="2.77447">
        <ele>98</ele>
        <time>2023-04-11T14:16:35.891Z</time>
      </trkpt>
      <trkpt lat="48.39562" lon="2.77438">
        <ele>98</ele>
        <time>2023-04-11T14:16:40.448Z</time>
      </trkpt>
      <trkpt lat="48.39562" lon="2.7743">
        <ele>96</ele>
        <time>2023-04-11T14:16:44.522Z</time>
      </trkpt>
      <trkpt lat="48.39562" lon="2.7742">
        <ele>96</ele>
        <time>2023-04-11T14:16:48.573Z</time>
      </trkpt>
      <trkpt lat="48.39562" lon="2.77412">
        <ele>96</ele>
        <time>2023-04-11T14:16:52.528Z</time>
      </trkpt>
      <trkpt lat="48.39563" lon="2.77404">
        <ele>96</ele>
        <time>2023-04-11T14:16:56.524Z</time>
      </trkpt>
      <trkpt lat="48.39564" lon="2.77396">
        <ele>96</ele>
        <time>2023-04-11T14:17:00.440Z</time>
      </trkpt>
      <trkpt lat="48.39565" lon="2.77386">
        <ele>96</ele>
        <time>2023-04-11T14:17:04.936Z</time>
      </trkpt>
      <trkpt lat="48.39566" lon="2.77378">
        <ele>96</ele>
        <time>2023-04-11T14:17:09.452Z</time>
      </trkpt>
      <trkpt lat="48.39568" lon="2.77371">
        <ele>96</ele>
        <time>2023-04-11T14:17:13.527Z</time>
      </trkpt>
      <trkpt lat="48.39569" lon="2.77363">
        <ele>96</ele>
        <time>2023-04-11T14:17:17.722Z</time>
      </trkpt>
      <trkpt lat="48.3957" lon="2.77354">
        <ele>98</ele>
        <time>2023-04-11T14:17:22.170Z</time>
      </trkpt>
      <trkpt lat="48.3957" lon="2.77344">
        <ele>98</ele>
        <time>2023-04-11T14:17:26.770Z</time>
      </trkpt>
      <trkpt lat="48.39571" lon="2.77335">
        <ele>98</ele>
        <time>2023-04-11T14:17:30.664Z</time>
      </trkpt>
      <trkpt lat="48.39572" lon="2.77326">
        <ele>98</ele>
        <time>2023-04-11T14:17:34.676Z</time>
      </trkpt>
      <trkpt lat="48.39574" lon="2.77315">
        <ele>97</ele>
        <time>2023-04-11T14:17:39.181Z</time>
      </trkpt>
      <trkpt lat="48.39575" lon="2.77305">
        <ele>97</ele>
        <time>2023-04-11T14:17:43.187Z</time>
      </trkpt>
      <trkpt lat="48.39577" lon="2.77298">
        <ele>97</ele>
        <time>2023-04-11T14:17:47.694Z</time>
      </trkpt>
      <trkpt lat="48.39575" lon="2.77291">
        <ele>97</ele>
        <time>2023-04-11T14:17:51.888Z</time>
      </trkpt>
      <trkpt lat="48.39572" lon="2.77281">
        <ele>97</ele>
        <time>2023-04-11T14:17:56.441Z</time>
      </trkpt>
      <trkpt lat="48.39572" lon="2.77273">
        <ele>97</ele>
        <time>2023-04-11T14:18:00.474Z</time>
      </trkpt>
      <trkpt lat="48.39573" lon="2.77264">
        <ele>97</ele>
        <time>2023-04-11T14:18:04.928Z</time>
      </trkpt>
      <trkpt lat="48.39574" lon="2.77257">
        <ele>97</ele>
        <time>2023-04-11T14:18:09.020Z</time>
      </trkpt>
      <trkpt lat="48.39576" lon="2.7725">
        <ele>97</ele>
        <time>2023-04-11T14:18:13.053Z</time>
      </trkpt>
      <trkpt lat="48.39577" lon="2.77239">
        <ele>97</ele>
        <time>2023-04-11T14:18:17.606Z</time>
      </trkpt>
      <trkpt lat="48.39578" lon="2.7723">
        <ele>96</ele>
        <time>2023-04-11T14:18:21.682Z</time>
      </trkpt>
      <trkpt lat="48.39579" lon="2.77217">
        <ele>96</ele>
        <time>2023-04-11T14:18:26.179Z</time>
      </trkpt>
      <trkpt lat="48.3958" lon="2.77207">
        <ele>96</ele>
        <time>2023-04-11T14:18:30.312Z</time>
      </trkpt>
      <trkpt lat="48.39577" lon="2.77199">
        <ele>96</ele>
        <time>2023-04-11T14:18:34.880Z</time>
      </trkpt>
      <trkpt lat="48.39572" lon="2.77193">
        <ele>96</ele>
        <time>2023-04-11T14:18:38.822Z</time>
      </trkpt>
      <trkpt lat="48.39567" lon="2.77188">
        <ele>94</ele>
        <time>2023-04-11T14:18:43.498Z</time>
      </trkpt>
      <trkpt lat="48.39564" lon="2.77181">
        <ele>94</ele>
        <time>2023-04-11T14:18:47.930Z</time>
      </trkpt>
      <trkpt lat="48.39561" lon="2.77174">
        <ele>94</ele>
        <time>2023-04-11T14:18:51.490Z</time>
      </trkpt>
      <trkpt lat="48.39557" lon="2.77165">
        <ele>94</ele>
        <time>2023-04-11T14:18:55.685Z</time>
      </trkpt>
      <trkpt lat="48.39553" lon="2.77157">
        <ele>94</ele>
        <time>2023-04-11T14:19:00.280Z</time>
      </trkpt>
      <trkpt lat="48.3955" lon="2.7715">
        <ele>95</ele>
        <time>2023-04-11T14:19:04.713Z</time>
      </trkpt>
      <trkpt lat="48.39546" lon="2.77143">
        <ele>95</ele>
        <time>2023-04-11T14:19:08.907Z</time>
      </trkpt>
      <trkpt lat="48.39539" lon="2.77135">
        <ele>95</ele>
        <time>2023-04-11T14:19:13.704Z</time>
      </trkpt>
      <trkpt lat="48.39531" lon="2.7713">
        <ele>95</ele>
        <time>2023-04-11T14:19:18.819Z</time>
      </trkpt>
      <trkpt lat="48.3953" lon="2.77131">
        <ele>95</ele>
        <time>2023-04-11T14:19:24.054Z</time>
      </trkpt>
      <trkpt lat="48.3953" lon="2.77129">
        <ele>95</ele>
        <time>2023-04-11T14:19:28.171Z</time>
      </trkpt>
      <trkpt lat="48.39527" lon="2.77124">
        <ele>97</ele>
        <time>2023-04-11T14:19:32.662Z</time>
      </trkpt>
      <trkpt lat="48.39522" lon="2.77117">
        <ele>97</ele>
        <time>2023-04-11T14:19:36.632Z</time>
      </trkpt>
      <trkpt lat="48.39517" lon="2.7711">
        <ele>97</ele>
        <time>2023-04-11T14:19:41.106Z</time>
      </trkpt>
      <trkpt lat="48.39516" lon="2.77102">
        <ele>97</ele>
        <time>2023-04-11T14:19:45.019Z</time>
      </trkpt>
      <trkpt lat="48.39516" lon="2.77093">
        <ele>97</ele>
        <time>2023-04-11T14:19:49.631Z</time>
      </trkpt>
      <trkpt lat="48.39518" lon="2.77083">
        <ele>97</ele>
        <time>2023-04-11T14:19:54.184Z</time>
      </trkpt>
      <trkpt lat="48.3952" lon="2.77075">
        <ele>97</ele>
        <time>2023-04-11T14:19:58.679Z</time>
      </trkpt>
      <trkpt lat="48.39524" lon="2.77069">
        <ele>95</ele>
        <time>2023-04-11T14:20:02.714Z</time>
      </trkpt>
      <trkpt lat="48.39525" lon="2.77058">
        <ele>95</ele>
        <time>2023-04-11T14:20:07.042Z</time>
      </trkpt>
      <trkpt lat="48.39527" lon="2.77049">
        <ele>95</ele>
        <time>2023-04-11T14:20:11.105Z</time>
      </trkpt>
      <trkpt lat="48.3953" lon="2.77041">
        <ele>94</ele>
        <time>2023-04-11T14:20:15.042Z</time>
      </trkpt>
      <trkpt lat="48.39533" lon="2.77032">
        <ele>94</ele>
        <time>2023-04-11T14:20:19.421Z</time>
      </trkpt>
      <trkpt lat="48.39535" lon="2.77024">
        <ele>94</ele>
        <time>2023-04-11T14:20:23.494Z</time>
      </trkpt>
      <trkpt lat="48.39538" lon="2.77017">
        <ele>94</ele>
        <time>2023-04-11T14:20:27.447Z</time>
      </trkpt>
      <trkpt lat="48.39541" lon="2.7701">
        <ele>94</ele>
        <time>2023-04-11T14:20:31.861Z</time>
      </trkpt>
      <trkpt lat="48.39544" lon="2.77001">
        <ele>90</ele>
        <time>2023-04-11T14:20:35.950Z</time>
      </trkpt>
      <trkpt lat="48.39545" lon="2.76992">
        <ele>90</ele>
        <time>2023-04-11T14:20:40.023Z</time>
      </trkpt>
      <trkpt lat="48.39548" lon="2.76984">
        <ele>91</ele>
        <time>2023-04-11T14:20:44.038Z</time>
      </trkpt>
      <trkpt lat="48.39553" lon="2.76983">
        <ele>91</ele>
        <time>2023-04-11T14:20:48.664Z</time>
      </trkpt>
      <trkpt lat="48.39553" lon="2.76972">
        <ele>91</ele>
        <time>2023-04-11T14:20:53.184Z</time>
      </trkpt>
      <trkpt lat="48.39551" lon="2.76967">
        <ele>91</ele>
        <time>2023-04-11T14:20:57.823Z</time>
      </trkpt>
      <trkpt lat="48.39546" lon="2.76967">
        <ele>91</ele>
        <time>2023-04-11T14:21:02.316Z</time>
      </trkpt>
      <trkpt lat="48.39541" lon="2.76966">
        <ele>94</ele>
        <time>2023-04-11T14:21:06.775Z</time>
      </trkpt>
      <trkpt lat="48.39537" lon="2.76963">
        <ele>94</ele>
        <time>2023-04-11T14:21:11.911Z</time>
      </trkpt>
      <trkpt lat="48.39537" lon="2.76963">
        <ele>94</ele>
        <time>2023-04-11T14:21:16.108Z</time>
      </trkpt>
      <trkpt lat="48.39537" lon="2.76958">
        <ele>94</ele>
        <time>2023-04-11T14:21:20.746Z</time>
      </trkpt>
      <trkpt lat="48.39539" lon="2.76951">
        <ele>94</ele>
        <time>2023-04-11T14:21:24.924Z</time>
      </trkpt>
      <trkpt lat="48.39541" lon="2.76944">
        <ele>94</ele>
        <time>2023-04-11T14:21:28.823Z</time>
      </trkpt>
      <trkpt lat="48.39543" lon="2.76938">
        <ele>91</ele>
        <time>2023-04-11T14:21:33.918Z</time>
      </trkpt>
      <trkpt lat="48.39545" lon="2.76931">
        <ele>91</ele>
        <time>2023-04-11T14:21:38.475Z</time>
      </trkpt>
      <trkpt lat="48.39548" lon="2.76926">
        <ele>91</ele>
        <time>2023-04-11T14:21:43.270Z</time>
      </trkpt>
      <trkpt lat="48.39551" lon="2.7692">
        <ele>91</ele>
        <time>2023-04-11T14:21:47.826Z</time>
      </trkpt>
      <trkpt lat="48.39552" lon="2.76913">
        <ele>91</ele>
        <time>2023-04-11T14:21:51.863Z</time>
      </trkpt>
      <trkpt lat="48.39552" lon="2.76905">
        <ele>91</ele>
        <time>2023-04-11T14:21:55.819Z</time>
      </trkpt>
      <trkpt lat="48.39552" lon="2.76895">
        <ele>90</ele>
        <time>2023-04-11T14:22:00.494Z</time>
      </trkpt>
      <trkpt lat="48.39549" lon="2.76891">
        <ele>90</ele>
        <time>2023-04-11T14:22:05.022Z</time>
      </trkpt>
      <trkpt lat="48.39549" lon="2.76884">
        <ele>90</ele>
        <time>2023-04-11T14:22:09.022Z</time>
      </trkpt>
      <trkpt lat="48.39549" lon="2.76877">
        <ele>90</ele>
        <time>2023-04-11T14:22:12.965Z</time>
      </trkpt>
      <trkpt lat="48.39547" lon="2.76867">
        <ele>90</ele>
        <time>2023-04-11T14:22:17.824Z</time>
      </trkpt>
      <trkpt lat="48.39545" lon="2.76854">
        <ele>90</ele>
        <time>2023-04-11T14:22:22.044Z</time>
      </trkpt>
      <trkpt lat="48.39544" lon="2.76844">
        <ele>89</ele>
        <time>2023-04-11T14:22:26.316Z</time>
      </trkpt>
      <trkpt lat="48.39542" lon="2.76839">
        <ele>89</ele>
        <time>2023-04-11T14:22:30.880Z</time>
      </trkpt>
      <trkpt lat="48.39541" lon="2.7683">
        <ele>89</ele>
        <time>2023-04-11T14:22:34.999Z</time>
      </trkpt>
      <trkpt lat="48.39542" lon="2.76818">
        <ele>89</ele>
        <time>2023-04-11T14:22:39.867Z</time>
      </trkpt>
      <trkpt lat="48.39541" lon="2.76807">
        <ele>89</ele>
        <time>2023-04-11T14:22:43.933Z</time>
      </trkpt>
      <trkpt lat="48.39541" lon="2.76798">
        <ele>89</ele>
        <time>2023-04-11T14:22:48.571Z</time>
      </trkpt>
      <trkpt lat="48.39541" lon="2.76789">
        <ele>89</ele>
        <time>2023-04-11T14:22:52.518Z</time>
      </trkpt>
      <trkpt lat="48.39541" lon="2.76781">
        <ele>89</ele>
        <time>2023-04-11T14:22:56.476Z</time>
      </trkpt>
      <trkpt lat="48.39539" lon="2.76772">
        <ele>89</ele>
        <time>2023-04-11T14:23:01.034Z</time>
      </trkpt>
      <trkpt lat="48.39537" lon="2.76766">
        <ele>89</ele>
        <time>2023-04-11T14:23:05.090Z</time>
      </trkpt>
      <trkpt lat="48.39535" lon="2.7676">
        <ele>89</ele>
        <time>2023-04-11T14:23:08.927Z</time>
      </trkpt>
      <trkpt lat="48.39533" lon="2.76752">
        <ele>89</ele>
        <time>2023-04-11T14:23:13.266Z</time>
      </trkpt>
      <trkpt lat="48.39532" lon="2.76746">
        <ele>89</ele>
        <time>2023-04-11T14:23:17.825Z</time>
      </trkpt>
      <trkpt lat="48.3953" lon="2.7674">
        <ele>89</ele>
        <time>2023-04-11T14:23:21.919Z</time>
      </trkpt>
      <trkpt lat="48.3953" lon="2.76731">
        <ele>89</ele>
        <time>2023-04-11T14:23:26.116Z</time>
      </trkpt>
      <trkpt lat="48.39528" lon="2.76723">
        <ele>89</ele>
        <time>2023-04-11T14:23:30.773Z</time>
      </trkpt>
      <trkpt lat="48.39528" lon="2.76719">
        <ele>89</ele>
        <time>2023-04-11T14:23:35.316Z</time>
      </trkpt>
      <trkpt lat="48.39527" lon="2.76717">
        <ele>89</ele>
        <time>2023-04-11T14:23:40.126Z</time>
      </trkpt>
      <trkpt lat="48.39525" lon="2.76712">
        <ele>89</ele>
        <time>2023-04-11T14:23:44.316Z</time>
      </trkpt>
      <trkpt lat="48.39524" lon="2.76699">
        <ele>88</ele>
        <time>2023-04-11T14:23:48.701Z</time>
      </trkpt>
      <trkpt lat="48.39523" lon="2.7669">
        <ele>88</ele>
        <time>2023-04-11T14:23:53.737Z</time>
      </trkpt>
      <trkpt lat="48.39521" lon="2.76682">
        <ele>88</ele>
        <time>2023-04-11T14:23:58.885Z</time>
      </trkpt>
      <trkpt lat="48.39519" lon="2.76674">
        <ele>88</ele>
        <time>2023-04-11T14:24:02.730Z</time>
      </trkpt>
      <trkpt lat="48.39517" lon="2.76664">
        <ele>88</ele>
        <time>2023-04-11T14:24:07.418Z</time>
      </trkpt>
      <trkpt lat="48.39515" lon="2.76657">
        <ele>88</ele>
        <time>2023-04-11T14:24:11.366Z</time>
      </trkpt>
      <trkpt lat="48.39514" lon="2.76647">
        <ele>87</ele>
        <time>2023-04-11T14:24:15.862Z</time>
      </trkpt>
      <trkpt lat="48.39512" lon="2.76637">
        <ele>87</ele>
        <time>2023-04-11T14:24:21.019Z</time>
      </trkpt>
      <trkpt lat="48.3951" lon="2.76629">
        <ele>87</ele>
        <time>2023-04-11T14:24:25.011Z</time>
      </trkpt>
      <trkpt lat="48.39511" lon="2.76615">
        <ele>87</ele>
        <time>2023-04-11T14:24:34.152Z</time>
      </trkpt>
      <trkpt lat="48.3951" lon="2.76613">
        <ele>87</ele>
        <time>2023-04-11T14:24:37.712Z</time>
      </trkpt>
      <trkpt lat="48.39509" lon="2.7661">
        <ele>87</ele>
        <time>2023-04-11T14:24:41.906Z</time>
      </trkpt>
      <trkpt lat="48.39508" lon="2.76608">
        <ele>87</ele>
        <time>2023-04-11T14:24:46.098Z</time>
      </trkpt>
      <trkpt lat="48.39507" lon="2.76606">
        <ele>87</ele>
        <time>2023-04-11T14:24:50.289Z</time>
      </trkpt>
      <trkpt lat="48.39508" lon="2.76595">
        <ele>87</ele>
        <time>2023-04-11T14:24:54.720Z</time>
      </trkpt>
      <trkpt lat="48.39513" lon="2.76591">
        <ele>87</ele>
        <time>2023-04-11T14:24:59.316Z</time>
      </trkpt>
      <trkpt lat="48.39517" lon="2.76584">
        <ele>86</ele>
        <time>2023-04-11T14:25:03.523Z</time>
      </trkpt>
      <trkpt lat="48.3952" lon="2.76578">
        <ele>86</ele>
        <time>2023-04-11T14:25:07.586Z</time>
      </trkpt>
      <trkpt lat="48.39524" lon="2.7657">
        <ele>86</ele>
        <time>2023-04-11T14:25:11.668Z</time>
      </trkpt>
      <trkpt lat="48.39528" lon="2.76563">
        <ele>87</ele>
        <time>2023-04-11T14:25:16.821Z</time>
      </trkpt>
      <trkpt lat="48.39529" lon="2.76558">
        <ele>87</ele>
        <time>2023-04-11T14:25:20.895Z</time>
      </trkpt>
      <trkpt lat="48.39532" lon="2.76551">
        <ele>87</ele>
        <time>2023-04-11T14:25:25.448Z</time>
      </trkpt>
      <trkpt lat="48.39534" lon="2.76544">
        <ele>87</ele>
        <time>2023-04-11T14:25:29.523Z</time>
      </trkpt>
      <trkpt lat="48.39537" lon="2.76538">
        <ele>87</ele>
        <time>2023-04-11T14:25:33.718Z</time>
      </trkpt>
      <trkpt lat="48.3954" lon="2.76529">
        <ele>87</ele>
        <time>2023-04-11T14:25:38.424Z</time>
      </trkpt>
      <trkpt lat="48.39543" lon="2.7652">
        <ele>87</ele>
        <time>2023-04-11T14:25:43.066Z</time>
      </trkpt>
      <trkpt lat="48.39548" lon="2.76513">
        <ele>88</ele>
        <time>2023-04-11T14:25:46.962Z</time>
      </trkpt>
      <trkpt lat="48.39551" lon="2.76506">
        <ele>88</ele>
        <time>2023-04-11T14:25:51.658Z</time>
      </trkpt>
      <trkpt lat="48.39553" lon="2.765">
        <ele>88</ele>
        <time>2023-04-11T14:25:56.316Z</time>
      </trkpt>
      <trkpt lat="48.39553" lon="2.7649">
        <ele>88</ele>
        <time>2023-04-11T14:26:00.820Z</time>
      </trkpt>
      <trkpt lat="48.39553" lon="2.76482">
        <ele>88</ele>
        <time>2023-04-11T14:26:04.856Z</time>
      </trkpt>
      <trkpt lat="48.39553" lon="2.76472">
        <ele>88</ele>
        <time>2023-04-11T14:26:10.084Z</time>
      </trkpt>
      <trkpt lat="48.39551" lon="2.76464">
        <ele>88</ele>
        <time>2023-04-11T14:26:14.153Z</time>
      </trkpt>
      <trkpt lat="48.39548" lon="2.76457">
        <ele>87</ele>
        <time>2023-04-11T14:26:19.111Z</time>
      </trkpt>
      <trkpt lat="48.39547" lon="2.76448">
        <ele>87</ele>
        <time>2023-04-11T14:26:23.309Z</time>
      </trkpt>
      <trkpt lat="48.39547" lon="2.76442">
        <ele>87</ele>
        <time>2023-04-11T14:26:27.316Z</time>
      </trkpt>
      <trkpt lat="48.39548" lon="2.76434">
        <ele>87</ele>
        <time>2023-04-11T14:26:31.845Z</time>
      </trkpt>
      <trkpt lat="48.3955" lon="2.76424">
        <ele>85</ele>
        <time>2023-04-11T14:26:36.176Z</time>
      </trkpt>
      <trkpt lat="48.3955" lon="2.76416">
        <ele>85</ele>
        <time>2023-04-11T14:26:40.698Z</time>
      </trkpt>
      <trkpt lat="48.39549" lon="2.76414">
        <ele>85</ele>
        <time>2023-04-11T14:26:44.715Z</time>
      </trkpt>
      <trkpt lat="48.39552" lon="2.76407">
        <ele>85</ele>
        <time>2023-04-11T14:26:49.272Z</time>
      </trkpt>
      <trkpt lat="48.39556" lon="2.76405">
        <ele>85</ele>
        <time>2023-04-11T14:26:53.704Z</time>
      </trkpt>
      <trkpt lat="48.3956" lon="2.76405">
        <ele>85</ele>
        <time>2023-04-11T14:26:57.751Z</time>
      </trkpt>
      <trkpt lat="48.39564" lon="2.76408">
        <ele>85</ele>
        <time>2023-04-11T14:27:02.819Z</time>
      </trkpt>
      <trkpt lat="48.39568" lon="2.7641">
        <ele>85</ele>
        <time>2023-04-11T14:27:06.742Z</time>
      </trkpt>
      <trkpt lat="48.39571" lon="2.76412">
        <ele>85</ele>
        <time>2023-04-11T14:27:10.780Z</time>
      </trkpt>
      <trkpt lat="48.39577" lon="2.76409">
        <ele>85</ele>
        <time>2023-04-11T14:27:15.935Z</time>
      </trkpt>
      <trkpt lat="48.39583" lon="2.76411">
        <ele>85</ele>
        <time>2023-04-11T14:27:21.020Z</time>
      </trkpt>
      <trkpt lat="48.39589" lon="2.76408">
        <ele>85</ele>
        <time>2023-04-11T14:27:25.480Z</time>
      </trkpt>
      <trkpt lat="48.39596" lon="2.76406">
        <ele>85</ele>
        <time>2023-04-11T14:27:29.493Z</time>
      </trkpt>
      <trkpt lat="48.39601" lon="2.76405">
        <ele>85</ele>
        <time>2023-04-11T14:27:34.193Z</time>
      </trkpt>
      <trkpt lat="48.39605" lon="2.76406">
        <ele>85</ele>
        <time>2023-04-11T14:27:38.726Z</time>
      </trkpt>
      <trkpt lat="48.39609" lon="2.7641">
        <ele>85</ele>
        <time>2023-04-11T14:27:43.663Z</time>
      </trkpt>
      <trkpt lat="48.39618" lon="2.7641">
        <ele>85</ele>
        <time>2023-04-11T14:27:48.159Z</time>
      </trkpt>
      <trkpt lat="48.39624" lon="2.76408">
        <ele>85</ele>
        <time>2023-04-11T14:27:52.014Z</time>
      </trkpt>
      <trkpt lat="48.39631" lon="2.76405">
        <ele>86</ele>
        <time>2023-04-11T14:27:55.830Z</time>
      </trkpt>
      <trkpt lat="48.39636" lon="2.76404">
        <ele>86</ele>
        <time>2023-04-11T14:28:00.504Z</time>
      </trkpt>
      <trkpt lat="48.39636" lon="2.76403">
        <ele>86</ele>
        <time>2023-04-11T14:28:04.697Z</time>
      </trkpt>
    </trkseg>
  </trk>
</gpx>